
Distance (Route):
Temperature : 0°C
Humidity : 81.5%
Pressure : 919.4hPa| Receiver | Frames | First received | Last received |
|---|---|---|---|
| DM0DOS-11 | 595 | 2026-08-31 22:46:24 | 2026-09-01 00:40:03 |
| BIOWL1-15 | 511 | 2026-08-31 22:48:14 | 2026-09-01 00:39:37 |
| DL1XH-west | 341 | 2026-08-31 23:22:47 | 2026-09-01 00:28:34 |
| DL1XH1-15 | 304 | 2026-08-31 23:22:32 | 2026-09-01 00:28:51 |
| GOEST3-10 | 210 | 2026-08-31 23:25:34 | 2026-09-01 00:29:46 |
| AA1-15 | 152 | 2026-08-31 23:50:57 | 2026-09-01 00:20:37 |
| DB0UT-7 | 117 | 2026-08-31 22:39:02 | 2026-09-01 00:40:47 |
| DJ8HS-15 | 72 | 2026-08-31 23:18:45 | 2026-09-01 00:31:01 |
| AM1SDL-15 | 32 | 2026-08-31 23:52:46 | 2026-09-01 00:18:26 |
| NBG1-10 | 15 | 2026-08-31 23:23:49 | 2026-09-01 00:23:21 |
| DB0NH | 7 | 2026-08-31 23:20:38 | 2026-08-31 23:24:09 |
| DO3MHA-12 | 5 | 2026-08-31 23:49:59 | 2026-09-01 00:12:07 |
| Receiver | Date | Latitude | Longitude | Direction | Speed | Altitude | Climb | Temperature | Humidity | Pressure | Voltage | Killtimer | Uptime | BKT | XDATA |
|---|---|---|---|---|---|---|---|---|---|---|---|---|---|---|---|
| DB0UT-7 | 2026-09-01 00:40:47 | 50.73129 | 6.09231 | 93° | 38km/h | 868m | -13.1m/s | 0°C | 81.5% | 919.4hPa | 3.7V | 00:00:00 | 02:14:10 | 00:00:00 | |
| DB0UT-7 | 2026-09-01 00:40:42 | 50.73129 | 6.09154 | 91° | 38km/h | 934m | -12.9m/s | 0°C | 80.0% | 912.3hPa | 3.7V | 00:00:00 | 00:00:00 | 00:00:00 | |
| DB0UT-7 | 2026-09-01 00:40:37 | 50.73130 | 6.09079 | 88° | 38km/h | 998m | -13.0m/s | 0°C | 79.7% | 905.3hPa | 3.7V | 00:00:00 | 02:14:00 | 00:00:00 | |
| DB0UT-7 | 2026-09-01 00:40:31 | 50.73130 | 6.08989 | 95° | 38km/h | 1076m | -13.1m/s | 0°C | 80.9% | 896.9hPa | 3.7V | 00:00:00 | 00:00:00 | 00:00:00 | |
| DB0UT-7 | 2026-09-01 00:40:21 | 50.73137 | 6.08836 | 97° | 40km/h | 1208m | -12.8m/s | 0°C | 85.2% | 882.9hPa | 3.6V | 00:00:00 | 02:13:44 | 00:00:00 | |
| DB0UT-7 | 2026-09-01 00:40:11 | 50.73152 | 6.08677 | 101° | 38km/h | 1335m | -12.2m/s | 0°C | 87.9% | 869.6hPa | 3.6V | 00:00:00 | 00:00:00 | 00:00:00 | |
| DM0DOS-11 | 2026-09-01 00:40:03 | 50.73171 | 6.08537 | 104° | 37km/h | 1446m | -12.4m/s | -273.1°C | 79.4% | 857.8hPa | 3.6V | 00:00:00 | 02:13:25 | 00:00:00 | |
| DM0DOS-11 | 2026-09-01 00:40:03 | 50.73176 | 6.08509 | 104° | 37km/h | 1471m | -12.5m/s | -273.1°C | 78.5% | 855.2hPa | 3.5V | 00:00:00 | 02:13:23 | 00:00:00 | |
| DM0DOS-11 | 2026-09-01 00:40:03 | 50.73182 | 6.08466 | 104° | 37km/h | 1508m | -12.7m/s | -273.1°C | 77.6% | 851.3hPa | 3.5V | 00:00:00 | 02:13:20 | 00:00:00 | |
| DB0UT-7 | 2026-09-01 00:40:01 | 50.73173 | 6.08523 | 107° | 37km/h | 1458m | -12.6m/s | 0°C | 78.9% | 856.5hPa | 3.6V | 00:00:00 | 02:13:24 | 00:00:00 | |
| DM0DOS-11 | 2026-09-01 00:39:58 | 50.73185 | 6.08452 | 109° | 37km/h | 1521m | -12.6m/s | -273.1°C | 76.2% | 849.9hPa | 3.5V | 00:00:00 | 02:13:19 | 00:00:00 | |
| DM0DOS-11 | 2026-09-01 00:39:58 | 50.73190 | 6.08425 | 109° | 37km/h | 1546m | -12.7m/s | -273.1°C | 74.2% | 847.4hPa | 3.5V | 00:00:00 | 02:13:17 | 00:00:00 | |
| DM0DOS-11 | 2026-09-01 00:39:58 | 50.73196 | 6.08397 | 109° | 38km/h | 1571m | -12.7m/s | -273.1°C | 73.7% | 844.8hPa | 3.5V | 00:00:00 | 02:13:15 | 00:00:00 | |
| DB0UT-7 | 2026-09-01 00:39:51 | 50.73199 | 6.08382 | 107° | 38km/h | 1584m | -12.6m/s | 0°C | 73.7% | 843.5hPa | 3.5V | 00:00:00 | 00:00:00 | 00:00:00 | |
| DM0DOS-11 | 2026-09-01 00:39:51 | 50.73208 | 6.08340 | 108° | 38km/h | 1622m | -12.6m/s | -273.1°C | 74.5% | 839.6hPa | 3.5V | 00:00:00 | 02:13:11 | 00:00:00 | |
| DM0DOS-11 | 2026-09-01 00:39:51 | 50.73218 | 6.08297 | 110° | 38km/h | 1660m | -12.5m/s | -273.1°C | 73% | 835.8hPa | 3.5V | 00:00:00 | 02:13:08 | 00:00:00 | |
| DM0DOS-11 | 2026-09-01 00:39:46 | 50.73221 | 6.08282 | 110° | 38km/h | 1673m | -12.4m/s | -273.1°C | 73% | 834.5hPa | 3.5V | 00:00:00 | 02:13:07 | 00:00:00 | |
| DM0DOS-11 | 2026-09-01 00:39:46 | 50.73228 | 6.08253 | 109° | 40km/h | 1698m | -12.4m/s | -273.1°C | 72.7% | 832hPa | 3.5V | 00:00:00 | 02:13:05 | 00:00:00 | |
| DM0DOS-11 | 2026-09-01 00:39:46 | 50.73235 | 6.08223 | 107° | 40km/h | 1723m | -12.3m/s | -273.1°C | 73.5% | 829.5hPa | 3.5V | 00:00:00 | 02:13:03 | 00:00:00 | |
| BIOWL1-15 | 2026-09-01 00:39:37 | 50.73257 | 6.08116 | 105° | 40km/h | 1810m | -12m/s | -273.1°C | 72.8% | 820.8hPa | 3.4V | 00:00:00 | 00:00:00 | 00:00:00 | |
| DM0DOS-11 | 2026-09-01 00:39:35 | 50.73254 | 6.08132 | 107° | 40km/h | 1797m | -12.5m/s | -273.1°C | 73% | 822hPa | 3.4V | 00:00:00 | 02:12:57 | 00:00:00 | |
| DM0DOS-11 | 2026-09-01 00:39:35 | 50.73260 | 6.08100 | 106° | 40km/h | 1822m | -12.5m/s | -273.1°C | 72.5% | 819.5hPa | 3.4V | 00:00:00 | 02:12:55 | 00:00:00 | |
| DM0DOS-11 | 2026-09-01 00:39:35 | 50.73265 | 6.08069 | 107° | 38km/h | 1847m | -12.5m/s | -273.1°C | 72.4% | 817hPa | 3.4V | 00:00:00 | 02:12:53 | 00:00:00 | |
| BIOWL1-15 | 2026-09-01 00:39:34 | 50.73260 | 6.08100 | 107° | 42km/h | 1822m | -12m/s | -273.1°C | 72.6% | 819.5hPa | 3.4V | 00:00:00 | 00:00:00 | 00:00:00 | |
| BIOWL1-15 | 2026-09-01 00:39:31 | 50.73271 | 6.08039 | 106° | 38km/h | 1872m | -13m/s | -273.1°C | 68.7% | 814.5hPa | 3.4V | 00:00:00 | 00:00:00 | 00:00:00 | |
| DM0DOS-11 | 2026-09-01 00:39:30 | 50.73271 | 6.08039 | 105° | 38km/h | 1872m | -12.5m/s | -273.1°C | 68.6% | 814.5hPa | 3.4V | 00:00:00 | 02:12:51 | 00:00:00 | |
| DM0DOS-11 | 2026-09-01 00:39:30 | 50.73277 | 6.08009 | 106° | 38km/h | 1897m | -12.5m/s | -273.1°C | 67.5% | 812hPa | 3.4V | 00:00:00 | 02:12:49 | 00:00:00 | |
| BIOWL1-15 | 2026-09-01 00:39:27 | 50.73293 | 6.07936 | 109° | 37km/h | 1959m | -13m/s | -273.1°C | 67.9% | 805.9hPa | 3.4V | 00:00:00 | 00:00:00 | 00:00:00 | |
| DM0DOS-11 | 2026-09-01 00:39:25 | 50.73283 | 6.07979 | 108° | 37km/h | 1922m | -12.4m/s | -273.1°C | 67.6% | 809.6hPa | 3.4V | 00:00:00 | 02:12:47 | 00:00:00 | |
| DM0DOS-11 | 2026-09-01 00:39:25 | 50.73289 | 6.07950 | 111° | 37km/h | 1947m | -12.4m/s | -273.1°C | 67.7% | 807.1hPa | 3.4V | 00:00:00 | 02:12:45 | 00:00:00 | |
| DM0DOS-11 | 2026-09-01 00:39:25 | 50.73296 | 6.07922 | 110° | 35km/h | 1972m | -12.4m/s | -273.1°C | 67.9% | 804.6hPa | 3.3V | 00:00:00 | 02:12:43 | 00:00:00 | |
| BIOWL1-15 | 2026-09-01 00:39:23 | 50.73296 | 6.07922 | 111° | 38km/h | 1972m | -13m/s | -273.1°C | 67.9% | 804.6hPa | 3.3V | 00:00:00 | 00:00:00 | 00:00:00 | |
| BIOWL1-15 | 2026-09-01 00:39:22 | 50.73299 | 6.07908 | 111° | 38km/h | 1985m | -13m/s | -273.1°C | 68.1% | 803.4hPa | 3.3V | 00:00:00 | 00:00:00 | 00:00:00 | |
| BIOWL1-15 | 2026-09-01 00:39:19 | 50.73302 | 6.07894 | 109° | 38km/h | 1998m | -12m/s | -273.1°C | 68.8% | 802.1hPa | 3.3V | 00:00:00 | 00:00:00 | 00:00:00 | |
| BIOWL1-15 | 2026-09-01 00:39:11 | 50.73336 | 6.07748 | 111° | 38km/h | 2123m | -12.5m/s | -273.1°C | 78.6% | 790hPa | 3.3V | 00:00:00 | 00:00:00 | 00:00:00 | |
| BIOWL1-15 | 2026-09-01 00:39:01 | 50.73369 | 6.07609 | 111° | 38km/h | 2247m | -12m/s | -273.1°C | 78.1% | 778.3hPa | 3.3V | 00:00:00 | 00:00:00 | 00:00:00 | |
| DM0DOS-11 | 2026-09-01 00:38:53 | 50.73403 | 6.07477 | 113° | 33km/h | 2370m | -12.2m/s | -273.1°C | 79.6% | 766.6hPa | 3.2V | 00:00:00 | 02:12:11 | 00:00:00 | |
| BIOWL1-15 | 2026-09-01 00:38:49 | 50.73428 | 6.07395 | 112° | 33km/h | 2456m | -12m/s | -273.1°C | 79.8% | 758.5hPa | 3.2V | 00:00:00 | 00:00:00 | 00:00:00 | |
| DM0DOS-11 | 2026-09-01 00:38:43 | 50.73438 | 6.07359 | 116° | 35km/h | 2493m | -12.5m/s | -273.1°C | 79.5% | 755hPa | 3.2V | 00:00:00 | 02:12:01 | 00:00:00 | |
| BIOWL1-15 | 2026-09-01 00:38:38 | 50.73442 | 6.07347 | 118° | 35km/h | 2505m | -13m/s | -273.1°C | 79.2% | 753.9hPa | 3.2V | 00:00:00 | 00:00:00 | 00:00:00 | |
| DM0DOS-11 | 2026-09-01 00:38:33 | 50.73479 | 6.07236 | 117° | 35km/h | 2619m | -12.7m/s | -273.1°C | 81.2% | 743.3hPa | 3.2V | 00:00:00 | 02:11:51 | 00:00:00 | |
| DB0UT-7 | 2026-09-01 00:38:31 | 50.73466 | 6.07273 | 117° | 35km/h | 2581m | -12.6m/s | 0°C | 81.0% | 746.8hPa | 3.2V | 00:00:00 | 00:00:00 | 00:00:00 | |
| DM0DOS-11 | 2026-09-01 00:38:28 | 50.73502 | 6.07162 | 116° | 35km/h | 2696m | -12.9m/s | -273.1°C | 79.1% | 736.3hPa | 3.2V | 00:00:00 | 02:11:45 | 00:00:00 | |
| BIOWL1-15 | 2026-09-01 00:38:28 | 50.73487 | 6.07211 | 118° | 35km/h | 2644m | -13m/s | -273.1°C | 81% | 741hPa | 3.2V | 00:00:00 | 00:00:00 | 00:00:00 | |
| DM0DOS-11 | 2026-09-01 00:38:23 | 50.73519 | 6.07100 | 112° | 37km/h | 2761m | -12.5m/s | -273.1°C | 75.7% | 730.5hPa | 3.2V | 00:00:00 | 02:11:40 | 00:00:00 | |
| BIOWL1-15 | 2026-09-01 00:38:17 | 50.73522 | 6.07087 | 113° | 35km/h | 2773m | -13m/s | -273.1°C | 75.7% | 729.2hPa | 3.2V | 00:00:00 | 00:00:00 | 00:00:00 | |
| DM0DOS-11 | 2026-09-01 00:38:17 | 50.73538 | 6.07020 | 111° | 37km/h | 2836m | -12.7m/s | -273.1°C | 73.5% | 723.5hPa | 3.2V | 00:00:00 | 02:11:34 | 00:00:00 | |
| DM0DOS-11 | 2026-09-01 00:38:12 | 50.73555 | 6.06949 | 106° | 37km/h | 2900m | -12.9m/s | -273.1°C | 68.9% | 717.8hPa | 3.1V | 00:00:00 | 02:11:29 | 00:00:00 | |
| BIOWL1-15 | 2026-09-01 00:38:07 | 50.73565 | 6.06907 | 113° | 35km/h | 2939m | -13m/s | -273.1°C | 68.9% | 714.3hPa | 3.1V | 00:00:00 | 00:00:00 | 00:00:00 | |
| DM0DOS-11 | 2026-09-01 00:38:06 | 50.73573 | 6.06881 | 115° | 33km/h | 2965m | -12.5m/s | -273.1°C | 69.4% | 712hPa | 3.1V | 00:00:00 | 02:11:24 | 00:00:00 | |
| DM0DOS-11 | 2026-09-01 00:38:01 | 50.73590 | 6.06819 | 111° | 33km/h | 3028m | -12.1m/s | -273.1°C | 54% | 706.5hPa | 3.1V | 00:00:00 | 02:11:19 | 00:00:00 | |
| BIOWL1-15 | 2026-09-01 00:37:57 | 50.73595 | 6.06795 | 106° | 33km/h | 3052m | -12m/s | -273.1°C | 50.3% | 704.4hPa | 3.1V | 00:00:00 | 00:00:00 | 00:00:00 | |
| DM0DOS-11 | 2026-09-01 00:37:56 | 50.73602 | 6.06757 | 103° | 31km/h | 3088m | -12.3m/s | -273.1°C | 43.2% | 701.3hPa | 3.1V | 00:00:00 | 02:11:14 | 00:00:00 | |
| DM0DOS-11 | 2026-09-01 00:37:51 | 50.73609 | 6.06694 | 95° | 31km/h | 3150m | -12.2m/s | -273.1°C | 34% | 696hPa | 3.1V | 00:00:00 | 02:11:09 | 00:00:00 | |
| DB0UT-7 | 2026-09-01 00:37:51 | 50.73602 | 6.06757 | 104° | 35km/h | 3088m | -12.3m/s | 0°C | 43.2% | 701.3hPa | 3.1V | 00:00:00 | 00:00:00 | 00:00:00 | |
| DM0DOS-11 | 2026-09-01 00:37:46 | 50.73610 | 6.06633 | 90° | 31km/h | 3211m | -12.6m/s | -273.1°C | 33.8% | 690.6hPa | 3.1V | 00:00:00 | 02:11:04 | 00:00:00 | |
| BIOWL1-15 | 2026-09-01 00:37:45 | 50.73608 | 6.06493 | 90° | 35km/h | 3352m | -12m/s | -273.1°C | 32.9% | 678.6hPa | 3.1V | 00:00:00 | 00:00:00 | 00:00:00 | |
| DM0DOS-11 | 2026-09-01 00:37:41 | 50.73609 | 6.06573 | 87° | 33km/h | 3275m | -12.8m/s | -273.1°C | 32% | 685.1hPa | 3.1V | 00:00:00 | 02:10:59 | 00:00:00 | |
| DM0DOS-11 | 2026-09-01 00:37:36 | 50.73608 | 6.06508 | 87° | 38km/h | 3339m | -12.6m/s | -273.1°C | 32.7% | 679.6hPa | 3.1V | 00:00:00 | 02:10:54 | 00:00:00 | |
| BIOWL1-15 | 2026-09-01 00:37:35 | 50.73614 | 6.06335 | 94° | 42km/h | 3477m | -13m/s | -273.1°C | 36.1% | 667.9hPa | 3.1V | 00:00:00 | 00:00:00 | 00:00:00 | |
| DM0DOS-11 | 2026-09-01 00:37:31 | 50.73608 | 6.06434 | 92° | 40km/h | 3402m | -12.5m/s | -273.1°C | 33.2% | 674.3hPa | 3.1V | 00:00:00 | 02:10:49 | 00:00:00 | |
| DM0DOS-11 | 2026-09-01 00:37:26 | 50.73613 | 6.06352 | 96° | 42km/h | 3464m | -13.3m/s | -273.1°C | 35.7% | 669.1hPa | 3.1V | 00:00:00 | 02:10:44 | 00:00:00 | |
| DM0DOS-11 | 2026-09-01 00:37:21 | 50.73619 | 6.06268 | 94° | 40km/h | 3531m | -13.5m/s | -273.1°C | 36% | 663.5hPa | 3.1V | 00:00:00 | 02:10:39 | 00:00:00 | |
| BIOWL1-15 | 2026-09-01 00:37:18 | 50.73618 | 6.06284 | 96° | 42km/h | 3517m | -14m/s | -273.1°C | 36.4% | 664.6hPa | 3.1V | 00:00:00 | 00:00:00 | 00:00:00 | |
| DM0DOS-11 | 2026-09-01 00:37:16 | 50.73621 | 6.06189 | 90° | 40km/h | 3599m | -13.4m/s | -273.1°C | 33.7% | 657.7hPa | 3.1V | 00:00:00 | 02:10:34 | 00:00:00 | |
| DM0DOS-11 | 2026-09-01 00:37:11 | 50.73622 | 6.06111 | 92° | 42km/h | 3666m | -13.7m/s | -273.1°C | 30.5% | 652hPa | 3.1V | 00:00:00 | 02:10:29 | 00:00:00 | |
| BIOWL1-15 | 2026-09-01 00:37:08 | 50.73621 | 6.05974 | 88° | 47km/h | 3775m | -12m/s | -273.1°C | 27.2% | 643.3hPa | 3.1V | 00:00:00 | 00:00:00 | 00:00:00 | |
| DM0DOS-11 | 2026-09-01 00:37:06 | 50.73623 | 6.06028 | 88° | 46km/h | 3735m | -13.2m/s | -273.1°C | 27.7% | 646.5hPa | 3.1V | 00:00:00 | 02:10:24 | 00:00:00 | |
| DM0DOS-11 | 2026-09-01 00:37:01 | 50.73620 | 6.05937 | 88° | 47km/h | 3801m | -13.5m/s | -273.1°C | 26.8% | 641hPa | 3.1V | 00:00:00 | 02:10:19 | 00:00:00 | |
| DM0DOS-11 | 2026-09-01 00:36:56 | 50.73618 | 6.05844 | 90° | 47km/h | 3868m | -14.4m/s | -273.1°C | 27% | 635.6hPa | 3.1V | 00:00:00 | 02:10:14 | 00:00:00 | |
| BIOWL1-15 | 2026-09-01 00:36:52 | 50.73618 | 6.05767 | 88° | 47km/h | 3926m | -14m/s | -273.1°C | 26.9% | 631hPa | 3.1V | 00:00:00 | 00:00:00 | 00:00:00 | |
| DM0DOS-11 | 2026-09-01 00:36:51 | 50.73617 | 6.05748 | 88° | 47km/h | 3940m | -14.9m/s | -273.1°C | 26.5% | 629.9hPa | 3.1V | 00:00:00 | 02:10:09 | 00:00:00 | |
| DM0DOS-11 | 2026-09-01 00:36:46 | 50.73616 | 6.05653 | 90° | 46km/h | 4015m | -14.9m/s | -273.1°C | 27.5% | 623.8hPa | 3.2V | 00:00:00 | 02:10:04 | 00:00:00 | |
| DM0DOS-11 | 2026-09-01 00:36:41 | 50.73616 | 6.05561 | 90° | 44km/h | 4090m | -14.7m/s | -273.1°C | 26.8% | 617.9hPa | 3.2V | 00:00:00 | 02:09:59 | 00:00:00 | |
| BIOWL1-15 | 2026-09-01 00:36:38 | 50.73616 | 6.05561 | 90° | 44km/h | 4090m | -15m/s | -273.1°C | 26.9% | 617.9hPa | 3.2V | 00:00:00 | 00:00:00 | 00:00:00 | |
| DM0DOS-11 | 2026-09-01 00:36:36 | 50.73615 | 6.05473 | 88° | 42km/h | 4162m | -15.2m/s | -273.1°C | 23.6% | 612.2hPa | 3.2V | 00:00:00 | 02:09:54 | 00:00:00 | |
| DM0DOS-11 | 2026-09-01 00:36:31 | 50.73614 | 6.05388 | 87° | 40km/h | 4238m | -15.7m/s | -273.1°C | 22.6% | 606.3hPa | 3.2V | 00:00:00 | 02:09:49 | 00:00:00 | |
| BIOWL1-15 | 2026-09-01 00:36:26 | 50.73611 | 6.05306 | 88° | 38km/h | 4317m | -16m/s | -273.1°C | 22.3% | 600.3hPa | 3.2V | 00:00:00 | 00:00:00 | 00:00:00 | |
| DM0DOS-11 | 2026-09-01 00:36:26 | 50.73611 | 6.05306 | 87° | 40km/h | 4317m | -15.2m/s | -273.1°C | 22.2% | 600.3hPa | 3.2V | 00:00:00 | 02:09:44 | 00:00:00 | |
| DM0DOS-11 | 2026-09-01 00:36:21 | 50.73608 | 6.05227 | 87° | 40km/h | 4393m | -14.7m/s | -273.1°C | 22.5% | 594.5hPa | 3.2V | 00:00:00 | 02:09:39 | 00:00:00 | |
| DM0DOS-11 | 2026-09-01 00:36:16 | 50.73606 | 6.05146 | 87° | 42km/h | 4467m | -15m/s | -273.1°C | 22.5% | 588.8hPa | 3.2V | 00:00:00 | 02:09:34 | 00:00:00 | |
| BIOWL1-15 | 2026-09-01 00:36:12 | 50.73604 | 6.05061 | 88° | 44km/h | 4542m | -14m/s | -273.1°C | 23% | 583.2hPa | 3.2V | 00:00:00 | 00:00:00 | 00:00:00 | |
| DM0DOS-11 | 2026-09-01 00:36:11 | 50.73604 | 6.05061 | 88° | 44km/h | 4542m | -14.9m/s | -273.1°C | 23% | 583.2hPa | 3.2V | 00:00:00 | 02:09:29 | 00:00:00 | |
| DM0DOS-11 | 2026-09-01 00:36:01 | 50.73606 | 6.04863 | 95° | 46km/h | 4708m | -15.7m/s | -273.1°C | 18.3% | 570.8hPa | 3.2V | 00:00:00 | 02:09:18 | 00:00:00 | |
| BIOWL1-15 | 2026-09-01 00:35:58 | 50.73623 | 6.04659 | 99° | 49km/h | 4881m | -15m/s | -273.1°C | 10.2% | 558.1hPa | 3.3V | 00:00:00 | 00:00:00 | 00:00:00 | |
| DM0DOS-11 | 2026-09-01 00:35:55 | 50.73613 | 6.04771 | 97° | 47km/h | 4787m | -15.6m/s | -273.1°C | 12.5% | 564.9hPa | 3.3V | 00:00:00 | 02:09:13 | 00:00:00 | |
| DB0UT-7 | 2026-09-01 00:35:51 | 50.73611 | 6.04790 | 98° | 49km/h | 4771m | -15.7m/s | 0°C | 14.6% | 566.0hPa | 3.3V | 00:00:00 | 00:00:00 | 00:00:00 | |
| DM0DOS-11 | 2026-09-01 00:35:50 | 50.73621 | 6.04678 | 99° | 47km/h | 4865m | -15.3m/s | -273.1°C | 10.3% | 559.2hPa | 3.3V | 00:00:00 | 02:09:08 | 00:00:00 | |
| BIOWL1-15 | 2026-09-01 00:35:46 | 50.73627 | 6.04621 | 101° | 47km/h | 4911m | -15m/s | -273.1°C | 9.8% | 556hPa | 3.3V | 00:00:00 | 00:00:00 | 00:00:00 | |
| DM0DOS-11 | 2026-09-01 00:35:42 | 50.73631 | 6.04583 | 100° | 49km/h | 4941m | -15.3m/s | -273.1°C | 9.3% | 553.8hPa | 3.3V | 00:00:00 | 02:09:03 | 00:00:00 | |
| DM0DOS-11 | 2026-09-01 00:35:36 | 50.73643 | 6.04487 | 100° | 49km/h | 5017m | -15.3m/s | -273.1°C | 7.3% | 548.4hPa | 3.3V | 00:00:00 | 02:08:58 | 00:00:00 | |
| BIOWL1-15 | 2026-09-01 00:35:35 | 50.73649 | 6.04428 | 99° | 51km/h | 5063m | -15m/s | -273.1°C | 6.2% | 545.1hPa | 3.3V | 00:00:00 | 00:00:00 | 00:00:00 | |
| DM0DOS-11 | 2026-09-01 00:35:30 | 50.73661 | 6.04285 | 98° | 49km/h | 5170m | -15.2m/s | -273.1°C | 4.5% | 537.5hPa | 3.3V | 00:00:00 | 02:08:48 | 00:00:00 | |
| BIOWL1-15 | 2026-09-01 00:35:24 | 50.73671 | 6.03984 | 90° | 49km/h | 5401m | -16m/s | -273.1°C | 6.2% | 521.5hPa | 3.3V | 00:00:00 | 00:00:00 | 00:00:00 | |
| DB0UT-7 | 2026-09-01 00:35:21 | 50.73666 | 6.04206 | 94° | 51km/h | 5231m | -15.3m/s | 0°C | 4.7% | 533.2hPa | 3.3V | 00:00:00 | 02:08:44 | 00:00:00 | |
| DM0DOS-11 | 2026-09-01 00:35:18 | 50.73669 | 6.04087 | 91° | 51km/h | 5323m | -15.6m/s | -273.1°C | 5.5% | 526.9hPa | 3.3V | 00:00:00 | 02:08:38 | 00:00:00 | |
| DM0DOS-11 | 2026-09-01 00:35:06 | 50.73671 | 6.03885 | 88° | 49km/h | 5482m | -16.4m/s | -273.1°C | 7% | 516hPa | 3.4V | 00:00:00 | 02:08:28 | 00:00:00 | |
| BIOWL1-15 | 2026-09-01 00:35:06 | 50.73669 | 6.03805 | 88° | 51km/h | 5548m | -16m/s | -273.1°C | 7.4% | 511.6hPa | 3.4V | 00:00:00 | 00:00:00 | 00:00:00 | |
| DM0DOS-11 | 2026-09-01 00:35:00 | 50.73665 | 6.03681 | 88° | 55km/h | 5645m | -16.1m/s | -273.1°C | 8.1% | 505.3hPa | 3.4V | 00:00:00 | 02:08:18 | 00:00:00 | |
| BIOWL1-15 | 2026-09-01 00:34:55 | 50.73664 | 6.03659 | 90° | 55km/h | 5661m | -16m/s | -273.1°C | 8.3% | 504.2hPa | 3.4V | 00:00:00 | 00:00:00 | 00:00:00 | |
| DB0UT-7 | 2026-09-01 00:34:51 | 50.73663 | 6.03593 | 87° | 58km/h | 5710m | -15.6m/s | 0°C | 8.5% | 500.8hPa | 3.4V | 00:00:00 | 00:00:00 | 00:00:00 | |
| DM0DOS-11 | 2026-09-01 00:34:48 | 50.73660 | 6.03439 | 88° | 57km/h | 5818m | -15m/s | -273.1°C | 9.5% | 493.8hPa | 3.4V | 00:00:00 | 02:08:07 | 00:00:00 | |
| BIOWL1-15 | 2026-09-01 00:34:47 | 50.73660 | 6.03324 | 89° | 57km/h | 5893m | -17m/s | -273.1°C | 10.6% | 488.9hPa | 3.4V | 00:00:00 | 00:00:00 | 00:00:00 | |
| DM0DOS-11 | 2026-09-01 00:34:36 | 50.73657 | 6.03212 | 88° | 57km/h | 5972m | -15.6m/s | -273.1°C | 12.5% | 483.8hPa | 3.5V | 00:00:00 | 02:07:57 | 00:00:00 | |
| BIOWL1-15 | 2026-09-01 00:34:34 | 50.73653 | 6.02978 | 90° | 62km/h | 6124m | -16m/s | -273.1°C | 21.2% | 474hPa | 3.5V | 00:00:00 | 00:00:00 | 00:00:00 | |
| DM0DOS-11 | 2026-09-01 00:34:29 | 50.73653 | 6.02954 | 88° | 64km/h | 6140m | -15m/s | -273.1°C | 22.7% | 473hPa | 3.5V | 00:00:00 | 02:07:46 | 00:00:00 | |
| DB0UT-7 | 2026-09-01 00:34:21 | 50.73652 | 6.02904 | 91° | 64km/h | 6170m | -14.9m/s | 0°C | 25.8% | 471.1hPa | 3.5V | 00:00:00 | 02:07:44 | 00:00:00 | |
| DM0DOS-11 | 2026-09-01 00:34:18 | 50.73658 | 6.02724 | 92° | 66km/h | 6276m | -14.4m/s | -273.1°C | 39.2% | 464.5hPa | 3.5V | 00:00:00 | 02:07:37 | 00:00:00 | |
| BIOWL1-15 | 2026-09-01 00:34:17 | 50.73657 | 6.02750 | 95° | 66km/h | 6261m | -15m/s | -273.1°C | 37.5% | 465.4hPa | 3.5V | 00:00:00 | 00:00:00 | 00:00:00 | |
| DM0DOS-11 | 2026-09-01 00:34:08 | 50.73668 | 6.02462 | 92° | 64km/h | 6423m | -14.6m/s | -273.1°C | 51.5% | 455.4hPa | 3.5V | 00:00:00 | 02:07:27 | 00:00:00 | |
| BIOWL1-15 | 2026-09-01 00:34:08 | 50.73666 | 6.02513 | 93° | 64km/h | 6394m | -15m/s | -273.1°C | 48.8% | 457.2hPa | 3.5V | 00:00:00 | 00:00:00 | 00:00:00 | |
| DM0DOS-11 | 2026-09-01 00:33:58 | 50.73676 | 6.02207 | 91° | 64km/h | 6573m | -15.2m/s | -273.1°C | 64% | 446.2hPa | 3.6V | 00:00:00 | 02:07:17 | 00:00:00 | |
| BIOWL1-15 | 2026-09-01 00:33:56 | 50.73677 | 6.02156 | 93° | 64km/h | 6604m | -15m/s | -273.1°C | 66.1% | 444.3hPa | 3.6V | 00:00:00 | 00:00:00 | 00:00:00 | |
| DB0UT-7 | 2026-09-01 00:33:51 | 50.73678 | 6.02131 | 93° | 68km/h | 6619m | -15.2m/s | 0°C | 67.0% | 443.3hPa | 3.6V | 00:00:00 | 00:00:00 | 00:00:00 | |
| DM0DOS-11 | 2026-09-01 00:33:48 | 50.73681 | 6.01950 | 92° | 66km/h | 6724m | -14.2m/s | -273.1°C | 72.7% | 437.1hPa | 3.6V | 00:00:00 | 02:07:07 | 00:00:00 | |
| BIOWL1-15 | 2026-09-01 00:33:47 | 50.73681 | 6.01950 | 93° | 64km/h | 6724m | -14m/s | -273.1°C | 72.8% | 437.1hPa | 3.6V | 00:00:00 | 00:00:00 | 00:00:00 | |
| DM0DOS-11 | 2026-09-01 00:33:38 | 50.73690 | 6.01686 | 96° | 68km/h | 6869m | -15.6m/s | -273.1°C | 74.7% | 428.6hPa | 3.6V | 00:00:00 | 02:06:57 | 00:00:00 | |
| BIOWL1-15 | 2026-09-01 00:33:34 | 50.73699 | 6.01551 | 96° | 69km/h | 6947m | -17m/s | -273.1°C | 75% | 423.9hPa | 3.6V | 00:00:00 | 00:00:00 | 00:00:00 | |
| DM0DOS-11 | 2026-09-01 00:33:28 | 50.73711 | 6.01412 | 99° | 71km/h | 7028m | -15.7m/s | -273.1°C | 75.2% | 419.2hPa | 3.6V | 00:00:00 | 02:06:47 | 00:00:00 | |
| BIOWL1-15 | 2026-09-01 00:33:19 | 50.73747 | 6.00984 | 96° | 71km/h | 7260m | -16m/s | -273.1°C | 73% | 406.2hPa | 3.7V | 00:00:00 | 00:00:00 | 00:00:00 | |
| DM0DOS-11 | 2026-09-01 00:33:18 | 50.73737 | 6.01127 | 97° | 71km/h | 7184m | -15.2m/s | -273.1°C | 74.5% | 410.4hPa | 3.7V | 00:00:00 | 02:06:37 | 00:00:00 | |
| DM0DOS-11 | 2026-09-01 00:33:08 | 50.73756 | 6.00840 | 96° | 71km/h | 7335m | -14.4m/s | -273.1°C | 71.1% | 401.9hPa | 3.7V | 00:00:00 | 02:06:27 | 00:00:00 | |
| BIOWL1-15 | 2026-09-01 00:33:06 | 50.73759 | 6.00784 | 94° | 71km/h | 7364m | -14m/s | -273.1°C | 70.8% | 400.4hPa | 3.7V | 00:00:00 | 00:00:00 | 00:00:00 | |
| DM0DOS-11 | 2026-09-01 00:32:58 | 50.73775 | 6.00557 | 97° | 71km/h | 7480m | -15.4m/s | -273.1°C | 69.1% | 394.1hPa | 3.7V | 00:00:00 | 02:06:17 | 00:00:00 | |
| BIOWL1-15 | 2026-09-01 00:32:52 | 50.73785 | 6.00443 | 100° | 73km/h | 7541m | -15m/s | -273.1°C | 67.4% | 390.7hPa | 3.7V | 00:00:00 | 00:00:00 | 00:00:00 | |
| DB0UT-7 | 2026-09-01 00:32:51 | 50.73782 | 6.00472 | 100° | 71km/h | 7525m | -16.0m/s | 0°C | 67.9% | 391.5hPa | 3.7V | 00:00:00 | 00:00:00 | 00:00:00 | |
| DM0DOS-11 | 2026-09-01 00:32:48 | 50.73805 | 6.00275 | 101° | 69km/h | 7638m | -16.4m/s | -273.1°C | 63% | 385.5hPa | 3.7V | 00:00:00 | 02:06:07 | 00:00:00 | |
| BIOWL1-15 | 2026-09-01 00:32:41 | 50.73818 | 6.00166 | 100° | 69km/h | 7703m | -17m/s | -273.1°C | 60.7% | 382hPa | 3.7V | 00:00:00 | 00:00:00 | 00:00:00 | |
| DM0DOS-11 | 2026-09-01 00:32:38 | 50.73833 | 6.00000 | 96° | 71km/h | 7803m | -16.8m/s | -273.1°C | 58% | 376.8hPa | 3.8V | 00:00:00 | 02:05:57 | 00:00:00 | |
| BIOWL1-15 | 2026-09-01 00:32:31 | 50.73861 | 5.99410 | 92° | 80km/h | 8140m | -17m/s | -273.1°C | 49% | 359.4hPa | 3.8V | 00:00:00 | 00:00:00 | 00:00:00 | |
| DM0DOS-11 | 2026-09-01 00:32:28 | 50.73851 | 5.99712 | 94° | 75km/h | 7971m | -16.6m/s | -273.1°C | 52.7% | 368hPa | 3.8V | 00:00:00 | 02:05:47 | 00:00:00 | |
| BIOWL1-15 | 2026-09-01 00:32:17 | 50.73866 | 5.99208 | 93° | 88km/h | 8245m | -18m/s | -273.1°C | 47.4% | 354.1hPa | 3.8V | 00:00:00 | 00:00:00 | 00:00:00 | |
| DM0DOS-11 | 2026-09-01 00:32:15 | 50.73861 | 5.99410 | 92° | 84km/h | 8140m | -17.4m/s | -273.1°C | 49% | 359.4hPa | 3.8V | 00:00:00 | 02:05:37 | 00:00:00 | |
| DM0DOS-11 | 2026-09-01 00:32:09 | 50.73872 | 5.99065 | 92° | 91km/h | 8316m | -17.4m/s | -273.1°C | 46.2% | 350.6hPa | 3.8V | 00:00:00 | 02:05:27 | 00:00:00 | |
| BIOWL1-15 | 2026-09-01 00:32:00 | 50.73883 | 5.98514 | 90° | 93km/h | 8578m | -17m/s | -273.1°C | 41.3% | 337.7hPa | 3.9V | 00:00:00 | 00:00:00 | 00:00:00 | |
| DM0DOS-11 | 2026-09-01 00:31:59 | 50.73881 | 5.98662 | 90° | 93km/h | 8507m | -17.7m/s | -273.1°C | 43.2% | 341.2hPa | 3.9V | 00:00:00 | 02:05:16 | 00:00:00 | |
| DB0UT-7 | 2026-09-01 00:31:51 | 50.73882 | 5.98588 | 91° | 97km/h | 8543m | -17.5m/s | 0°C | 42.2% | 339.4hPa | 3.9V | 00:00:00 | 00:00:00 | 00:00:00 | |
| DM0DOS-11 | 2026-09-01 00:31:48 | 50.73887 | 5.98291 | 92° | 95km/h | 8683m | -18.2m/s | -273.1°C | 38% | 332.8hPa | 3.9V | 00:00:00 | 02:05:06 | 00:00:00 | |
| BIOWL1-15 | 2026-09-01 00:31:40 | 50.73893 | 5.98140 | 95° | 95km/h | 8756m | -18m/s | -273.1°C | 35.6% | 329.3hPa | 3.9V | 00:00:00 | 00:00:00 | 00:00:00 | |
| DM0DOS-11 | 2026-09-01 00:31:38 | 50.73908 | 5.97914 | 97° | 95km/h | 8866m | -18.7m/s | -273.1°C | 31.2% | 324.1hPa | 3.9V | 00:00:00 | 02:04:56 | 00:00:00 | |
| BIOWL1-15 | 2026-09-01 00:31:30 | 50.73927 | 5.97727 | 100° | 95km/h | 8959m | -19m/s | -273.1°C | 27.8% | 319.8hPa | 3.9V | 00:00:00 | 00:00:00 | 00:00:00 | |
| DM0DOS-11 | 2026-09-01 00:31:28 | 50.73951 | 5.97536 | 102° | 104km/h | 9053m | -18.2m/s | -273.1°C | 25.2% | 315.5hPa | 3.9V | 00:00:00 | 02:04:46 | 00:00:00 | |
| BIOWL1-15 | 2026-09-01 00:31:20 | 50.74006 | 5.97169 | 103° | 104km/h | 9215m | -18m/s | -273.1°C | 23.4% | 308.2hPa | 3.9V | 00:00:00 | 00:00:00 | 00:00:00 | |
| DM0DOS-11 | 2026-09-01 00:31:18 | 50.74012 | 5.97128 | 103° | 104km/h | 9233m | -18.1m/s | -273.1°C | 23.1% | 307.3hPa | 3.9V | 00:00:00 | 02:04:36 | 00:00:00 | |
| BIOWL1-15 | 2026-09-01 00:31:04 | 50.74099 | 5.96550 | 101° | 108km/h | 9488m | -19m/s | -273.1°C | 20.9% | 296.1hPa | 3.9V | 00:00:00 | 00:00:00 | 00:00:00 | |
| DJ8HS-15 | 2026-09-01 00:31:01 | 50.74087 | 5.96634 | 104° | 108km/h | 9451m | -18.3m/s | 0°C | 21.2% | 297.6hPa | 3.9V | 00:00:00 | 02:04:24 | 00:00:00 | |
| DM0DOS-11 | 2026-09-01 00:30:57 | 50.74140 | 5.96252 | 103° | 108km/h | 9615m | -18.4m/s | -273.1°C | 19.3% | 290.6hPa | 3.9V | 00:00:00 | 02:04:15 | 00:00:00 | |
| BIOWL1-15 | 2026-09-01 00:30:54 | 50.74177 | 5.96002 | 103° | 108km/h | 9725m | -18m/s | -273.1°C | 17.9% | 285.9hPa | 3.9V | 00:00:00 | 00:00:00 | 00:00:00 | |
| DB0UT-7 | 2026-09-01 00:30:51 | 50.74146 | 5.96210 | 105° | 111km/h | 9634m | -18.1m/s | 0°C | 19.1% | 289.7hPa | 3.9V | 00:00:00 | 00:00:00 | 00:00:00 | |
| DM0DOS-11 | 2026-09-01 00:30:47 | 50.74203 | 5.95835 | 104° | 108km/h | 9797m | -18m/s | -273.1°C | 17% | 282.9hPa | 3.9V | 00:00:00 | 02:04:05 | 00:00:00 | |
| BIOWL1-15 | 2026-09-01 00:30:40 | 50.74223 | 5.95712 | 106° | 106km/h | 9851m | -18m/s | -273.1°C | 16.3% | 280.7hPa | 4V | 00:00:00 | 00:00:00 | 00:00:00 | |
| DM0DOS-11 | 2026-09-01 00:30:37 | 50.74274 | 5.95417 | 103° | 113km/h | 9976m | -17.9m/s | -273.1°C | 14.7% | 275.5hPa | 4V | 00:00:00 | 02:03:55 | 00:00:00 | |
| BIOWL1-15 | 2026-09-01 00:30:29 | 50.74375 | 5.94612 | 101° | 115km/h | 10293m | -18m/s | -273.1°C | 11.3% | 262.8hPa | 4V | 00:00:00 | 00:00:00 | 00:00:00 | |
| DM0DOS-11 | 2026-09-01 00:30:27 | 50.74330 | 5.94969 | 102° | 115km/h | 10154m | -17.4m/s | -273.1°C | 12.7% | 268.2hPa | 4V | 00:00:00 | 02:03:45 | 00:00:00 | |
| BIOWL1-15 | 2026-09-01 00:30:18 | 50.74421 | 5.94249 | 100° | 113km/h | 10429m | -16m/s | -273.1°C | 9.9% | 257.2hPa | 4V | 00:00:00 | 00:00:00 | 00:00:00 | |
| DM0DOS-11 | 2026-09-01 00:30:17 | 50.74386 | 5.94521 | 100° | 115km/h | 10329m | -16.8m/s | -273.1°C | 10.8% | 261.4hPa | 4V | 00:00:00 | 02:03:35 | 00:00:00 | |
| DM0DOS-11 | 2026-09-01 00:30:07 | 50.74441 | 5.94072 | 101° | 113km/h | 10495m | -17.6m/s | -273.1°C | 9.1% | 254.9hPa | 4V | 00:00:00 | 02:03:25 | 00:00:00 | |
| BIOWL1-15 | 2026-09-01 00:29:57 | 50.74520 | 5.93359 | 98° | 113km/h | 10778m | -18m/s | -273.1°C | 6.6% | 244hPa | 3.9V | 00:00:00 | 00:00:00 | 00:00:00 | |
| DB0UT-7 | 2026-09-01 00:29:51 | 50.74498 | 5.93582 | 100° | 113km/h | 10689m | -17.8m/s | 0°C | 7.3% | 247.4hPa | 3.9V | 00:00:00 | 00:00:00 | 00:00:00 | |
| GOEST3-10 | 2026-09-01 00:29:46 | 50.74520 | 5.93359 | 99° | 111km/h | 10778m | -18.1m/s | 0°C | 6.5% | 243.9hPa | 3.9V | 00:00:00 | 02:03:09 | 00:00:00 | |
| DM0DOS-11 | 2026-09-01 00:29:43 | 50.74537 | 5.93179 | 99° | 113km/h | 10849m | -18.1m/s | -273.1°C | 6% | 241.4hPa | 3.9V | 00:00:00 | 02:03:05 | 00:00:00 | |
| BIOWL1-15 | 2026-09-01 00:29:38 | 50.74568 | 5.92867 | 100° | 113km/h | 10976m | -18m/s | -273.1°C | 5.2% | 236.8hPa | 3.9V | 00:00:00 | 00:00:00 | 00:00:00 | |
| DM0DOS-11 | 2026-09-01 00:29:33 | 50.74583 | 5.92732 | 100° | 115km/h | 11030m | -18.1m/s | -273.1°C | 4.7% | 234.7hPa | 3.9V | 00:00:00 | 02:02:55 | 00:00:00 | |
| BIOWL1-15 | 2026-09-01 00:29:27 | 50.74637 | 5.92280 | 102° | 115km/h | 11211m | -19m/s | -273.1°C | 3.9% | 228.2hPa | 3.9V | 00:00:00 | 00:00:00 | 00:00:00 | |
| DM0DOS-11 | 2026-09-01 00:29:23 | 50.74637 | 5.92280 | 102° | 113km/h | 11211m | -18.3m/s | -273.1°C | 3.8% | 228.2hPa | 3.9V | 00:00:00 | 02:02:45 | 00:00:00 | |
| BIOWL1-15 | 2026-09-01 00:29:16 | 50.74713 | 5.91669 | 97° | 106km/h | 11468m | -19m/s | -273.1°C | 2.9% | 219.2hPa | 3.8V | 00:00:00 | 00:00:00 | 00:00:00 | |
| DM0DOS-11 | 2026-09-01 00:29:15 | 50.74695 | 5.91840 | 99° | 108km/h | 11394m | -18.6m/s | -273.1°C | 3.1% | 221.8hPa | 3.8V | 00:00:00 | 02:02:35 | 00:00:00 | |
| DM0DOS-11 | 2026-09-01 00:29:05 | 50.74733 | 5.91418 | 98° | 102km/h | 11582m | -18.9m/s | -273.1°C | 2.5% | 215.4hPa | 3.8V | 00:00:00 | 02:02:25 | 00:00:00 | |
| BIOWL1-15 | 2026-09-01 00:29:03 | 50.74755 | 5.91175 | 98° | 99km/h | 11695m | -19m/s | -273.1°C | 2.1% | 211.6hPa | 3.7V | 00:00:00 | 00:00:00 | 00:00:00 | |
| BIOWL1-15 | 2026-09-01 00:28:53 | 50.74770 | 5.90984 | 96° | 97km/h | 11792m | -20m/s | -273.1°C | 1.9% | 208.4hPa | 3.6V | 00:00:00 | 00:00:00 | 00:00:00 | |
| DM0DOS-11 | 2026-09-01 00:28:53 | 50.74767 | 5.91022 | 96° | 97km/h | 11772m | -19.9m/s | -273.1°C | 1.9% | 209.1hPa | 3.7V | 00:00:00 | 02:02:15 | 00:00:00 | |
| DL1XH1-15 | 2026-09-01 00:28:51 | 50.74782 | 5.90791 | 88° | 102km/h | 11891m | -21m/s | -273.1°C | 1.5% | 205.1hPa | 3.6V | 00:00:00 | 02:02:09 | 00:00:00 | |
| DM0DOS-11 | 2026-09-01 00:28:46 | 50.74784 | 5.90639 | 87° | 100km/h | 11972m | -20.8m/s | -273.1°C | 1.5% | 202.5hPa | 3.5V | 00:00:00 | 02:02:05 | 00:00:00 | |
| BIOWL1-15 | 2026-09-01 00:28:41 | 50.74781 | 5.90561 | 85° | 99km/h | 12014m | -20m/s | -273.1°C | 1.4% | 201.2hPa | 3.5V | 00:00:00 | 00:00:00 | 00:00:00 | |
| DL1XH-west | 2026-09-01 00:28:34 | 50.74770 | 5.90270 | 0° | 0km/h | 12159m | 0m/s | -273.1°C | 1.2% | 196.7hPa | 3.3V | 00:00:00 | 00:00:00 | 00:00:00 | |
| DM0DOS-11 | 2026-09-01 00:28:33 | 50.74770 | 5.90227 | 92° | 106km/h | 12181m | -21.6m/s | -273.1°C | 1.1% | 196.1hPa | 3.2V | 00:00:00 | 02:01:55 | 00:00:00 | |
| DL1XH1-15 | 2026-09-01 00:28:33 | 50.74771 | 5.90184 | 92° | 108km/h | 12202m | -21.8m/s | -273.1°C | 1.1% | 195.4hPa | 2.9V | 00:00:00 | 02:01:54 | 00:00:00 | |
| BIOWL1-15 | 2026-09-01 00:28:30 | 50.74780 | 5.89969 | 94° | 104km/h | 12311m | -22m/s | -273.1°C | 1.1% | 192.1hPa | 3V | 00:00:00 | 00:00:00 | 00:00:00 | |
| DL1XH1-15 | 2026-09-01 00:28:23 | 50.74789 | 5.89758 | 93° | 99km/h | 12419m | -21.6m/s | -273.1°C | 1% | 188.8hPa | 3V | 00:00:00 | 02:01:44 | 00:00:00 | |
| DM0DOS-11 | 2026-09-01 00:28:23 | 50.74788 | 5.89800 | 93° | 100km/h | 12397m | -21.7m/s | -273.1°C | 1% | 189.6hPa | 3V | 00:00:00 | 02:01:45 | 00:00:00 | |
| DL1XH-west | 2026-09-01 00:28:22 | 50.74791 | 5.89716 | 0° | 0km/h | 12441m | 0m/s | -273.1°C | 1% | 188hPa | 3V | 00:00:00 | 00:00:00 | 00:00:00 | |
| BIOWL1-15 | 2026-09-01 00:28:17 | 50.74827 | 5.89186 | 98° | 93km/h | 12743m | -22m/s | -273.1°C | 0.9% | 179.6hPa | 3V | 00:00:00 | 00:00:00 | 00:00:00 | |
| DM0DOS-11 | 2026-09-01 00:28:17 | 50.74810 | 5.89409 | 95° | 93km/h | 12613m | -21.7m/s | -273.1°C | 0.9% | 183.2hPa | 3V | 00:00:00 | 02:01:35 | 00:00:00 | |
| DL1XH1-15 | 2026-09-01 00:28:13 | 50.74813 | 5.89372 | 96° | 93km/h | 12635m | -21.6m/s | -273.1°C | 0.9% | 182.7hPa | 3V | 00:00:00 | 02:01:34 | 00:00:00 | |
| DL1XH-west | 2026-09-01 00:28:10 | 50.74818 | 5.89297 | 0° | 0km/h | 12678m | 0m/s | -273.1°C | 0.9% | 181.4hPa | 3V | 00:00:00 | 00:00:00 | 00:00:00 | |
| DM0DOS-11 | 2026-09-01 00:28:07 | 50.74844 | 5.89042 | 103° | 82km/h | 12831m | -21.3m/s | -273.1°C | 0.9% | 177.1hPa | 3V | 00:00:00 | 02:01:25 | 00:00:00 | |
| GOEST3-10 | 2026-09-01 00:28:05 | 50.74830 | 5.89149 | 104° | 78km/h | 12765m | -22.0m/s | 0°C | 0.9% | 178.9hPa | 3V | 00:00:00 | 00:00:00 | 00:00:00 | |
| DL1XH1-15 | 2026-09-01 00:28:03 | 50.74849 | 5.89008 | 103° | 80km/h | 12853m | -21.1m/s | -273.1°C | 0.9% | 176.6hPa | 3V | 00:00:00 | 02:01:24 | 00:00:00 | |
| BIOWL1-15 | 2026-09-01 00:28:01 | 50.74854 | 5.88975 | 106° | 84km/h | 12873m | -21m/s | -273.1°C | 0.9% | 176hPa | 3V | 00:00:00 | 00:00:00 | 00:00:00 | |
| DL1XH-west | 2026-09-01 00:28:00 | 50.74860 | 5.88942 | 0° | 0km/h | 12894m | 0m/s | -273.1°C | 0.9% | 175.4hPa | 3V | 00:00:00 | 00:00:00 | 00:00:00 | |
| GOEST3-10 | 2026-09-01 00:27:58 | 50.74865 | 5.88911 | 105° | 75km/h | 12915m | -22.2m/s | 0°C | 0.9% | 174.7hPa | 3.0V | 00:00:00 | 02:01:21 | 00:00:00 | |
| DM0DOS-11 | 2026-09-01 00:27:57 | 50.74894 | 5.88737 | 100° | 75km/h | 13044m | -22.5m/s | -273.1°C | 0.9% | 171.4hPa | 3.1V | 00:00:00 | 02:01:15 | 00:00:00 | |
| DL1XH1-15 | 2026-09-01 00:27:53 | 50.74898 | 5.88708 | 101° | 75km/h | 13067m | -22.4m/s | -273.1°C | 0.9% | 170.9hPa | 3.1V | 00:00:00 | 02:01:14 | 00:00:00 | |
| BIOWL1-15 | 2026-09-01 00:27:50 | 50.74910 | 5.88588 | 97° | 75km/h | 13156m | -23m/s | -273.1°C | 0.9% | 168.5hPa | 3.1V | 00:00:00 | 00:00:00 | 00:00:00 | |
| GOEST3-10 | 2026-09-01 00:27:48 | 50.74907 | 5.88618 | 97° | 75km/h | 13134m | -22.6m/s | 0°C | 0.9% | 169.1hPa | 3.1V | 00:00:00 | 00:00:00 | 00:00:00 | |
| DM0DOS-11 | 2026-09-01 00:27:47 | 50.74920 | 5.88418 | 91° | 75km/h | 13291m | -22.7m/s | -273.1°C | 0.9% | 165.1hPa | 3.1V | 00:00:00 | 02:01:04 | 00:00:00 | |
| DL1XH1-15 | 2026-09-01 00:27:43 | 50.74920 | 5.88418 | 90° | 77km/h | 13291m | -23.7m/s | -273.1°C | 0.9% | 165.1hPa | 3.1V | 00:00:00 | 02:01:04 | 00:00:00 | |
| BIOWL1-15 | 2026-09-01 00:27:38 | 50.74920 | 5.88269 | 90° | 82km/h | 13405m | -21m/s | -273.1°C | 0.9% | 162.2hPa | 3.1V | 00:00:00 | 00:00:00 | 00:00:00 | |
| DM0DOS-11 | 2026-09-01 00:27:36 | 50.74920 | 5.88107 | 93° | 75km/h | 13516m | -24.6m/s | -273.1°C | 0.9% | 159.5hPa | 3.1V | 00:00:00 | 02:00:54 | 00:00:00 | |
| DL1XH1-15 | 2026-09-01 00:27:33 | 50.74922 | 5.88047 | 91° | 75km/h | 13566m | -24.2m/s | -273.1°C | 0.7% | 158.1hPa | 3.1V | 00:00:00 | 02:00:52 | 00:00:00 | |
| BIOWL1-15 | 2026-09-01 00:27:27 | 50.74926 | 5.87867 | 93° | 75km/h | 13711m | -24m/s | -273.1°C | 0.8% | 154.8hPa | 3.1V | 00:00:00 | 00:00:00 | 00:00:00 | |
| DM0DOS-11 | 2026-09-01 00:27:26 | 50.74928 | 5.87807 | 90° | 77km/h | 13758m | -23.2m/s | -273.1°C | 0.9% | 153.7hPa | 3.1V | 00:00:00 | 02:00:44 | 00:00:00 | |
| GOEST3-10 | 2026-09-01 00:27:25 | 50.74924 | 5.87928 | 93° | 75km/h | 13664m | -23.4m/s | 0°C | 0.7% | 155.8hPa | 3.1V | 00:00:00 | 02:00:48 | 00:00:00 | |
| DL1XH1-15 | 2026-09-01 00:27:23 | 50.74928 | 5.87746 | 90° | 77km/h | 13805m | -23.2m/s | -273.1°C | 0.7% | 152.6hPa | 3.1V | 00:00:00 | 02:00:42 | 00:00:00 | |
| DL1XH-west | 2026-09-01 00:27:23 | 50.74928 | 5.87837 | 0° | 0km/h | 13735m | 0m/s | -273.1°C | 0.9% | 154.3hPa | 3.1V | 00:00:00 | 00:00:00 | 00:00:00 | |
| DB0UT-7 | 2026-09-01 00:27:21 | 50.74928 | 5.87807 | 91° | 73km/h | 13758m | -23.2m/s | 0°C | 0.9% | 153.6hPa | 3.1V | 00:00:00 | 02:00:44 | 00:00:00 | |
| GOEST3-10 | 2026-09-01 00:27:19 | 50.74927 | 5.87746 | 89° | 75km/h | 13805m | -23.3m/s | 0°C | 0.7% | 152.5hPa | 3.2V | 00:00:00 | 00:00:00 | 00:00:00 | |
| DM0DOS-11 | 2026-09-01 00:27:16 | 50.74922 | 5.87437 | 90° | 77km/h | 14037m | -20.9m/s | -273.1°C | 0.9% | 147.2hPa | 3.2V | 00:00:00 | 02:00:32 | 00:00:00 | |
| BIOWL1-15 | 2026-09-01 00:27:15 | 50.74913 | 5.87193 | 86° | 77km/h | 14201m | -21.9m/s | -273.1°C | 0.8% | 143.2hPa | 3.2V | 00:00:00 | 00:00:00 | 00:00:00 | |
| DL1XH-west | 2026-09-01 00:27:12 | 50.74922 | 5.87469 | 0° | 0km/h | 14014m | 0m/s | -273.1°C | 0.8% | 147.8hPa | 3.2V | 00:00:00 | 00:00:00 | 00:00:00 | |
| DL1XH1-15 | 2026-09-01 00:27:12 | 50.74922 | 5.87437 | 86° | 71km/h | 14037m | -23.5m/s | -273.1°C | 0.9% | 147.2hPa | 3.2V | 00:00:00 | 02:00:32 | 00:00:00 | |
| GOEST3-10 | 2026-09-01 00:27:11 | 50.74923 | 5.87499 | 89° | 69km/h | 13990m | -23.5m/s | 0°C | 0.7% | 148.3hPa | 3.2V | 00:00:00 | 02:00:34 | 00:00:00 | |
| DM0DOS-11 | 2026-09-01 00:27:04 | 50.74913 | 5.87193 | 86° | 75km/h | 14201m | -21.8m/s | -273.1°C | 0.7% | 143.2hPa | 3.2V | 00:00:00 | 02:00:24 | 00:00:00 | |
| DJ8HS-15 | 2026-09-01 00:27:01 | 50.74912 | 5.87192 | 87° | 66km/h | 14201m | -21.8m/s | 0°C | 0.7% | 143.1hPa | 3.2V | 00:00:00 | 02:00:24 | 00:00:00 | |
| DM0DOS-11 | 2026-09-01 00:26:54 | 50.74902 | 5.86892 | 90° | 66km/h | 14426m | -24.1m/s | -273.1°C | 0.7% | 138.8hPa | 3.2V | 00:00:00 | 02:00:14 | 00:00:00 | |
| BIOWL1-15 | 2026-09-01 00:26:51 | 50.74902 | 5.86836 | 93° | 66km/h | 14474m | -25m/s | -273.1°C | 0.8% | 137.8hPa | 3.2V | 00:00:00 | 00:00:00 | 00:00:00 | |
| DL1XH1-15 | 2026-09-01 00:26:51 | 50.74903 | 5.86784 | 87° | 60km/h | 14523m | -23.8m/s | -273.1°C | 0.7% | 136.8hPa | 3.2V | 00:00:00 | 02:00:10 | 00:00:00 | |
| DL1XH-west | 2026-09-01 00:26:45 | 50.74898 | 5.86690 | 0° | 0km/h | 14617m | 0m/s | -273.1°C | 0.8% | 134.8hPa | 3.2V | 00:00:00 | 00:00:00 | 00:00:00 | |
| DM0DOS-11 | 2026-09-01 00:26:44 | 50.74892 | 5.86645 | 79° | 62km/h | 14666m | -24.7m/s | -273.1°C | 0.7% | 133.8hPa | 3.2V | 00:00:00 | 02:00:04 | 00:00:00 | |
| BIOWL1-15 | 2026-09-01 00:26:40 | 50.74849 | 5.86266 | 84° | 68km/h | 15040m | -24m/s | -273.1°C | 0.8% | 126.4hPa | 3.3V | 00:00:00 | 00:00:00 | 00:00:00 | |
| DL1XH-west | 2026-09-01 00:26:34 | 50.74860 | 5.86397 | 0° | 0km/h | 14916m | 0m/s | -273.1°C | 0.8% | 128.9hPa | 3.3V | 00:00:00 | 00:00:00 | 00:00:00 | |
| DM0DOS-11 | 2026-09-01 00:26:33 | 50.74860 | 5.86397 | 79° | 64km/h | 14916m | -24.5m/s | -273.1°C | 0.7% | 128.9hPa | 3.3V | 00:00:00 | 01:59:54 | 00:00:00 | |
| BIOWL1-15 | 2026-09-01 00:26:30 | 50.74845 | 5.86189 | 87° | 60km/h | 15112m | -23m/s | -273.1°C | 0.8% | 125.1hPa | 3.3V | 00:00:00 | 00:00:00 | 00:00:00 | |
| DL1XH1-15 | 2026-09-01 00:26:30 | 50.74850 | 5.86292 | 84° | 64km/h | 15015m | -23.6m/s | -273.1°C | 0.7% | 127hPa | 3.3V | 00:00:00 | 01:59:50 | 00:00:00 | |
| GOEST3-10 | 2026-09-01 00:26:28 | 50.74851 | 5.86319 | 85° | 57km/h | 14991m | -23.4m/s | 0°C | 0.7% | 127.4hPa | 3.3V | 00:00:00 | 00:00:00 | 00:00:00 | |
| DM0DOS-11 | 2026-09-01 00:26:23 | 50.74843 | 5.86141 | 88° | 60km/h | 15157m | -21.6m/s | -273.1°C | 0.7% | 124.2hPa | 3.3V | 00:00:00 | 01:59:44 | 00:00:00 | |
| DL1XH1-15 | 2026-09-01 00:26:22 | 50.74842 | 5.86042 | 92° | 58km/h | 15241m | -22.8m/s | -273.1°C | 0.7% | 122.7hPa | 3.3V | 00:00:00 | 01:59:40 | 00:00:00 | |
| DL1XH-west | 2026-09-01 00:26:22 | 50.74843 | 5.86116 | 0° | 0km/h | 15179m | 0m/s | -273.1°C | 0.8% | 123.8hPa | 3.3V | 00:00:00 | 00:00:00 | 00:00:00 | |
| BIOWL1-15 | 2026-09-01 00:26:16 | 50.74844 | 5.85993 | 90° | 57km/h | 15287m | -23m/s | -273.1°C | 0.8% | 121.9hPa | 3.3V | 00:00:00 | 00:00:00 | 00:00:00 | |
| DM0DOS-11 | 2026-09-01 00:26:13 | 50.74846 | 5.85903 | 94° | 51km/h | 15378m | -22.1m/s | -273.1°C | 0.7% | 120.1hPa | 3.3V | 00:00:00 | 01:59:34 | 00:00:00 | |
| DL1XH1-15 | 2026-09-01 00:26:12 | 50.74852 | 5.85820 | 95° | 51km/h | 15466m | -23.2m/s | -273.1°C | 0.7% | 118.6hPa | 3.3V | 00:00:00 | 01:59:30 | 00:00:00 | |
| DL1XH-west | 2026-09-01 00:26:10 | 50.74849 | 5.85861 | 0° | 0km/h | 15420m | 0m/s | -273.1°C | 0.8% | 119.4hPa | 3.3V | 00:00:00 | 00:00:00 | 00:00:00 | |
| BIOWL1-15 | 2026-09-01 00:26:06 | 50.74853 | 5.85780 | 93° | 51km/h | 15516m | -24m/s | -273.1°C | 0.7% | 117.7hPa | 3.3V | 00:00:00 | 00:00:00 | 00:00:00 | |
| DM0DOS-11 | 2026-09-01 00:26:03 | 50.74853 | 5.85697 | 87° | 55km/h | 15607m | -19.4m/s | -273.1°C | 0.7% | 116hPa | 3.3V | 00:00:00 | 01:59:24 | 00:00:00 | |
| DL1XH1-15 | 2026-09-01 00:26:02 | 50.74850 | 5.85610 | 85° | 53km/h | 15682m | -20.2m/s | -273.1°C | 0.7% | 114.6hPa | 3.3V | 00:00:00 | 01:59:20 | 00:00:00 | |
| DL1XH-west | 2026-09-01 00:25:59 | 50.74851 | 5.85632 | 0° | 0km/h | 15665m | 0m/s | -273.1°C | 0.7% | 115hPa | 3.3V | 00:00:00 | 00:00:00 | 00:00:00 | |
| BIOWL1-15 | 2026-09-01 00:25:55 | 50.74853 | 5.85387 | 95° | 38km/h | 15902m | -21m/s | -273.1°C | 0.7% | 110.9hPa | 3.3V | 00:00:00 | 00:00:00 | 00:00:00 | |
| DL1XH1-15 | 2026-09-01 00:25:52 | 50.74852 | 5.85404 | 95° | 40km/h | 15881m | -21.5m/s | -273.1°C | 0.7% | 111.3hPa | 3.3V | 00:00:00 | 01:59:10 | 00:00:00 | |
| DM0DOS-11 | 2026-09-01 00:25:52 | 50.74850 | 5.85460 | 90° | 44km/h | 15825m | -19.8m/s | -273.1°C | 0.7% | 112.2hPa | 3.3V | 00:00:00 | 01:59:13 | 00:00:00 | |
| DL1XH-west | 2026-09-01 00:25:49 | 50.74852 | 5.85422 | 0° | 0km/h | 15862m | 0m/s | -273.1°C | 0.7% | 111.6hPa | 3.3V | 00:00:00 | 00:00:00 | 00:00:00 | |
| BIOWL1-15 | 2026-09-01 00:25:47 | 50.74852 | 5.85324 | 88° | 40km/h | 15990m | -22m/s | -273.1°C | 0.7% | 109.4hPa | 3.4V | 00:00:00 | 00:00:00 | 00:00:00 | |
| GOEST3-10 | 2026-09-01 00:25:46 | 50.74853 | 5.85387 | 95° | 42km/h | 15902m | -21.0m/s | 0°C | 0.7% | 110.8hPa | 3.4V | 00:00:00 | 01:59:09 | 00:00:00 | |
| DM0DOS-11 | 2026-09-01 00:25:42 | 50.74852 | 5.85292 | 90° | 42km/h | 16035m | -19.8m/s | -273.1°C | 0.7% | 108.7hPa | 3.4V | 00:00:00 | 01:59:03 | 00:00:00 | |
| DL1XH1-15 | 2026-09-01 00:25:42 | 50.74850 | 5.85243 | 90° | 42km/h | 16096m | -19m/s | -273.1°C | 0.7% | 107.6hPa | 3.4V | 00:00:00 | 01:59:00 | 00:00:00 | |
| DL1XH-west | 2026-09-01 00:25:39 | 50.74851 | 5.85259 | 0° | 0km/h | 16076m | 0m/s | -273.1°C | 0.7% | 108hPa | 3.4V | 00:00:00 | 00:00:00 | 00:00:00 | |
| DM0DOS-11 | 2026-09-01 00:25:34 | 50.74846 | 5.85122 | 90° | 46km/h | 16229m | -17.4m/s | -273.1°C | 0.7% | 105.4hPa | 3.4V | 00:00:00 | 01:58:53 | 00:00:00 | |
| BIOWL1-15 | 2026-09-01 00:25:32 | 50.74848 | 5.85138 | 85° | 46km/h | 16211m | -17.5m/s | -273.1°C | 0.7% | 105.7hPa | 3.4V | 00:00:00 | 00:00:00 | 00:00:00 | |
| DL1XH1-15 | 2026-09-01 00:25:32 | 50.74847 | 5.85066 | 93° | 44km/h | 16279m | -19m/s | -273.1°C | 0.7% | 104.5hPa | 3.4V | 00:00:00 | 01:58:50 | 00:00:00 | |
| DL1XH-west | 2026-09-01 00:25:28 | 50.74847 | 5.85066 | 0° | 0km/h | 16279m | 0m/s | -273.1°C | 0.7% | 104.5hPa | 3.4V | 00:00:00 | 00:00:00 | 00:00:00 | |
| DM0DOS-11 | 2026-09-01 00:25:24 | 50.74846 | 5.84939 | 80° | 42km/h | 16409m | -20.7m/s | -273.1°C | 0.7% | 102.3hPa | 3.4V | 00:00:00 | 01:58:43 | 00:00:00 | |
| DL1XH1-15 | 2026-09-01 00:25:21 | 50.74841 | 5.84873 | 77° | 42km/h | 16493m | -20.4m/s | -273.1°C | 0.7% | 101hPa | 3.4V | 00:00:00 | 01:58:39 | 00:00:00 | |
| DL1XH-west | 2026-09-01 00:25:17 | 50.74841 | 5.84873 | 0° | 0km/h | 16493m | 0m/s | -273.1°C | 0.7% | 101hPa | 3.4V | 00:00:00 | 00:00:00 | 00:00:00 | |
| DM0DOS-11 | 2026-09-01 00:25:14 | 50.74823 | 5.84775 | 64° | 42km/h | 16616m | -20.1m/s | -273.1°C | 0.7% | 99.1hPa | 3.4V | 00:00:00 | 01:58:33 | 00:00:00 | |
| BIOWL1-15 | 2026-09-01 00:25:09 | 50.74791 | 5.84658 | 62° | 46km/h | 16778m | -18m/s | -273.1°C | 0.7% | 96.9hPa | 3.4V | 00:00:00 | 00:00:00 | 00:00:00 | |
| DL1XH1-15 | 2026-09-01 00:25:06 | 50.74802 | 5.84701 | 66° | 46km/h | 16718m | -19.3m/s | -273.1°C | 0.7% | 97.6hPa | 3.4V | 00:00:00 | 01:58:28 | 00:00:00 | |
| DL1XH-west | 2026-09-01 00:25:05 | 50.74799 | 5.84688 | 0° | 0km/h | 16738m | 0m/s | -273.1°C | 0.7% | 97.5hPa | 3.4V | 00:00:00 | 00:00:00 | 00:00:00 | |
| DM0DOS-11 | 2026-09-01 00:25:04 | 50.74782 | 5.84626 | 61° | 51km/h | 16815m | -19.6m/s | -273.1°C | 0.7% | 96.5hPa | 3.4V | 00:00:00 | 01:58:23 | 00:00:00 | |
| DL1XH1-15 | 2026-09-01 00:24:59 | 50.74757 | 5.84509 | 76° | 55km/h | 16934m | -19.6m/s | -273.1°C | 0.7% | 94.5hPa | 3.4V | 00:00:00 | 01:58:17 | 00:00:00 | |
| DL1XH-west | 2026-09-01 00:24:55 | 50.74757 | 5.84509 | 0° | 0km/h | 16934m | 0m/s | -273.1°C | 0.7% | 94.6hPa | 3.4V | 00:00:00 | 00:00:00 | 00:00:00 | |
| BIOWL1-15 | 2026-09-01 00:24:53 | 50.74747 | 5.84445 | 83° | 58km/h | 16993m | -20m/s | -273.1°C | 0.7% | 93.7hPa | 3.4V | 00:00:00 | 00:00:00 | 00:00:00 | |
| DM0DOS-11 | 2026-09-01 00:24:53 | 50.74744 | 5.84420 | 83° | 53km/h | 17013m | -19.4m/s | -273.1°C | 0.7% | 93.4hPa | 3.4V | 00:00:00 | 01:58:13 | 00:00:00 | |
| DB0UT-7 | 2026-09-01 00:24:51 | 50.74747 | 5.84445 | 83° | 42km/h | 16993m | -19.3m/s | 0°C | 0.7% | 93.7hPa | 3.5V | 00:00:00 | 00:00:00 | 00:00:00 | |
| DL1XH1-15 | 2026-09-01 00:24:46 | 50.74741 | 5.84289 | 96° | 44km/h | 17129m | -19.2m/s | -273.1°C | 0.7% | 91.9hPa | 3.5V | 00:00:00 | 01:58:07 | 00:00:00 | |
| DM0DOS-11 | 2026-09-01 00:24:43 | 50.74743 | 5.84217 | 96° | 38km/h | 17208m | -18.8m/s | -273.1°C | 0.7% | 90.8hPa | 3.5V | 00:00:00 | 01:58:03 | 00:00:00 | |
| BIOWL1-15 | 2026-09-01 00:24:42 | 50.74743 | 5.84233 | 88° | 38km/h | 17189m | -19m/s | -273.1°C | 0.7% | 91hPa | 3.5V | 00:00:00 | 00:00:00 | 00:00:00 | |
| GOEST3-10 | 2026-09-01 00:24:41 | 50.74743 | 5.84233 | 93° | 38km/h | 17189m | -18.5m/s | 0°C | 0.7% | 91.0hPa | 3.5V | 00:00:00 | 00:00:00 | 00:00:00 | |
| DL1XH1-15 | 2026-09-01 00:24:39 | 50.74739 | 5.84126 | 77° | 38km/h | 17319m | -18.1m/s | -273.1°C | 0.7% | 89.3hPa | 3.5V | 00:00:00 | 01:57:57 | 00:00:00 | |
| GOEST3-10 | 2026-09-01 00:24:35 | 50.74740 | 5.84139 | 80° | 38km/h | 17301m | -18.0m/s | 0°C | 0.7% | 89.5hPa | 3.5V | 00:00:00 | 01:57:58 | 00:00:00 | |
| DM0DOS-11 | 2026-09-01 00:24:33 | 50.74732 | 5.84069 | 72° | 40km/h | 17390m | -18.4m/s | -273.1°C | 0.7% | 88.3hPa | 3.5V | 00:00:00 | 01:57:53 | 00:00:00 | |
| DL1XH-west | 2026-09-01 00:24:32 | 50.74732 | 5.84069 | 0° | 0km/h | 17390m | 0m/s | -273.1°C | 0.7% | 88.3hPa | 3.5V | 00:00:00 | 00:00:00 | 00:00:00 | |
| BIOWL1-15 | 2026-09-01 00:24:30 | 50.74722 | 5.84008 | 69° | 47km/h | 17463m | -19m/s | -273.1°C | 0.7% | 87.3hPa | 3.5V | 00:00:00 | 00:00:00 | 00:00:00 | |
| GOEST3-10 | 2026-09-01 00:24:29 | 50.74729 | 5.84054 | 78° | 38km/h | 17407m | -19.1m/s | 0°C | 0.7% | 88.1hPa | 3.5V | 00:00:00 | 00:00:00 | 00:00:00 | |
| DL1XH1-15 | 2026-09-01 00:24:26 | 50.74717 | 5.83973 | 79° | 40km/h | 17501m | -19.7m/s | -273.1°C | 0.7% | 86.8hPa | 3.5V | 00:00:00 | 01:57:47 | 00:00:00 | |
| DM0DOS-11 | 2026-09-01 00:24:23 | 50.74710 | 5.83904 | 74° | 37km/h | 17578m | -20.1m/s | -273.1°C | 0.7% | 85.8hPa | 3.5V | 00:00:00 | 01:57:43 | 00:00:00 | |
| BIOWL1-15 | 2026-09-01 00:24:22 | 50.74707 | 5.83872 | 84° | 37km/h | 17618m | -19m/s | -273.1°C | 0.7% | 85.3hPa | 3.5V | 00:00:00 | 00:00:00 | 00:00:00 | |
| DL1XH-west | 2026-09-01 00:24:21 | 50.74710 | 5.83904 | 0° | 0km/h | 17578m | 0m/s | -273.1°C | 0.7% | 85.8hPa | 3.5V | 00:00:00 | 00:00:00 | 00:00:00 | |
| DB0UT-7 | 2026-09-01 00:24:20 | 50.74710 | 5.83903 | 75° | 35km/h | 17578m | -20.0m/s | 0°C | 0.7% | 85.7hPa | 3.5V | 00:00:00 | 01:57:43 | 00:00:00 | |
| DL1XH1-15 | 2026-09-01 00:24:19 | 50.74704 | 5.83817 | 80° | 33km/h | 17698m | -21.1m/s | -273.1°C | 0.7% | 84.2hPa | 3.5V | 00:00:00 | 01:57:37 | 00:00:00 | |
| GOEST3-10 | 2026-09-01 00:24:16 | 50.74705 | 5.83842 | 77° | 33km/h | 17656m | -20.7m/s | 0°C | 0.7% | 84.7hPa | 3.5V | 00:00:00 | 01:57:39 | 00:00:00 | |
| DM0DOS-11 | 2026-09-01 00:24:13 | 50.74697 | 5.83774 | 61° | 33km/h | 17782m | -21.7m/s | -273.1°C | 0.7% | 83.2hPa | 3.5V | 00:00:00 | 01:57:33 | 00:00:00 | |
| DL1XH-west | 2026-09-01 00:24:10 | 50.74691 | 5.83752 | 0° | 0km/h | 17826m | 0m/s | -273.1°C | 0.7% | 82.7hPa | 3.5V | 00:00:00 | 00:00:00 | 00:00:00 | |
| BIOWL1-15 | 2026-09-01 00:24:08 | 50.74660 | 5.83646 | 69° | 35km/h | 17995m | -20m/s | -273.1°C | 0.7% | 80.7hPa | 3.5V | 00:00:00 | 00:00:00 | 00:00:00 | |
| DL1XH1-15 | 2026-09-01 00:24:05 | 50.74677 | 5.83702 | 62° | 38km/h | 17915m | -19.7m/s | -273.1°C | 0.7% | 81.5hPa | 3.5V | 00:00:00 | 01:57:27 | 00:00:00 | |
| GOEST3-10 | 2026-09-01 00:24:04 | 50.74677 | 5.83702 | 63° | 37km/h | 17915m | -19.4m/s | 0°C | 0.7% | 81.5hPa | 3.5V | 00:00:00 | 01:57:27 | 00:00:00 | |
| DM0DOS-11 | 2026-09-01 00:24:03 | 50.74660 | 5.83646 | 69° | 37km/h | 17995m | -19.4m/s | -273.1°C | 0.7% | 80.7hPa | 3.5V | 00:00:00 | 01:57:23 | 00:00:00 | |
| DL1XH-west | 2026-09-01 00:23:59 | 50.74654 | 5.83617 | 0° | 0km/h | 18035m | 0m/s | -273.1°C | 0.7% | 80.3hPa | 3.5V | 00:00:00 | 00:00:00 | 00:00:00 | |
| BIOWL1-15 | 2026-09-01 00:23:51 | 50.74604 | 5.83360 | 72° | 35km/h | 18411m | -17m/s | -273.1°C | 0.7% | 75.9hPa | 3.5V | 00:00:00 | 00:00:00 | 00:00:00 | |
| DL1XH-west | 2026-09-01 00:23:49 | 50.74626 | 5.83485 | 0° | 0km/h | 18223m | 0m/s | -273.1°C | 0.7% | 78hPa | 3.5V | 00:00:00 | 00:00:00 | 00:00:00 | |
| GOEST3-10 | 2026-09-01 00:23:44 | 50.74619 | 5.83436 | 80° | 33km/h | 18299m | -18.0m/s | 0°C | 0.7% | 77.1hPa | 3.5V | 00:00:00 | 00:00:00 | 00:00:00 | |
| DM0DOS-11 | 2026-09-01 00:23:42 | 50.74611 | 5.83387 | 65° | 33km/h | 18373m | -17.4m/s | -273.1°C | 0.7% | 76.3hPa | 3.5V | 00:00:00 | 01:57:03 | 00:00:00 | |
| DL1XH-west | 2026-09-01 00:23:40 | 50.74602 | 5.83347 | 0° | 0km/h | 18428m | 0m/s | -273.1°C | 0.7% | 75.7hPa | 3.5V | 00:00:00 | 00:00:00 | 00:00:00 | |
| DL1XH1-15 | 2026-09-01 00:23:39 | 50.74598 | 5.83309 | 75° | 22km/h | 18476m | -15.3m/s | -273.1°C | 0.7% | 75.1hPa | 3.5V | 00:00:00 | 01:56:57 | 00:00:00 | |
| BIOWL1-15 | 2026-09-01 00:23:36 | 50.74596 | 5.83295 | 86° | 26km/h | 18492m | -15.2m/s | -273.1°C | 0.7% | 74.9hPa | 3.5V | 00:00:00 | 00:00:00 | 00:00:00 | |
| GOEST3-10 | 2026-09-01 00:23:33 | 50.74595 | 5.83295 | 84° | 16km/h | 18492m | -15.1m/s | 0°C | 0.7% | 74.9hPa | 3.5V | 00:00:00 | 00:00:00 | 00:00:00 | |
| DM0DOS-11 | 2026-09-01 00:23:32 | 50.74593 | 5.83264 | 100° | 18km/h | 18537m | -15.2m/s | -273.1°C | 0.7% | 74.3hPa | 3.6V | 00:00:00 | 01:56:53 | 00:00:00 | |
| DL1XH-west | 2026-09-01 00:23:29 | 50.74593 | 5.83241 | 0° | 0km/h | 18587m | 0m/s | -273.1°C | 0.7% | 73.8hPa | 3.6V | 00:00:00 | 00:00:00 | 00:00:00 | |
| BIOWL1-15 | 2026-09-01 00:23:26 | 50.74592 | 5.83224 | 25° | 2km/h | 18614m | -13m/s | -273.1°C | 0.7% | 73.5hPa | 3.6V | 00:00:00 | 00:00:00 | 00:00:00 | |
| DL1XH1-15 | 2026-09-01 00:23:26 | 50.74591 | 5.83224 | 126° | 15km/h | 18627m | -13.5m/s | -273.1°C | 0.7% | 73.3hPa | 3.6V | 00:00:00 | 01:56:47 | 00:00:00 | |
| GOEST3-10 | 2026-09-01 00:23:25 | 50.74592 | 5.83224 | 26° | 13km/h | 18614m | -13.4m/s | 0°C | 0.7% | 73.4hPa | 3.6V | 00:00:00 | 01:56:48 | 00:00:00 | |
| DM0DOS-11 | 2026-09-01 00:23:22 | 50.74595 | 5.83205 | 63° | 13km/h | 18681m | -13.4m/s | -273.1°C | 0.7% | 72.8hPa | 3.6V | 00:00:00 | 01:56:43 | 00:00:00 | |
| NBG1-10 | 2026-09-01 00:23:21 | 50.74593 | 5.83208 | 102° | 27km/h | 18666m | -14.2m/s | 0°C | 0.6% | 72.9hPa | 3.6V | 00:00:00 | 01:56:44 | 00:00:00 | |
| DL1XH1-15 | 2026-09-01 00:23:19 | 50.74588 | 5.83182 | 51° | 18km/h | 18763m | -14.7m/s | -273.1°C | 0.7% | 72hPa | 3.6V | 00:00:00 | 01:56:37 | 00:00:00 | |
| DL1XH-west | 2026-09-01 00:23:17 | 50.74592 | 5.83191 | 0° | 0km/h | 18732m | 0m/s | -273.1°C | 0.7% | 72.2hPa | 3.6V | 00:00:00 | 00:00:00 | 00:00:00 | |
| GOEST3-10 | 2026-09-01 00:23:14 | 50.74588 | 5.83182 | 52° | 20km/h | 18763m | -14.6m/s | 0°C | 0.7% | 71.9hPa | 3.6V | 00:00:00 | 01:56:37 | 00:00:00 | |
| DM0DOS-11 | 2026-09-01 00:23:11 | 50.74580 | 5.83157 | 58° | 22km/h | 18822m | -14.6m/s | -273.1°C | 0.7% | 71.3hPa | 3.6V | 00:00:00 | 01:56:33 | 00:00:00 | |
| DL1XH-west | 2026-09-01 00:23:07 | 50.74567 | 5.83127 | 0° | 0km/h | 18883m | 0m/s | -273.1°C | 0.7% | 70.6hPa | 3.6V | 00:00:00 | 00:00:00 | 00:00:00 | |
| DL1XH1-15 | 2026-09-01 00:23:06 | 50.74564 | 5.83116 | 27° | 26km/h | 18911m | -13.8m/s | -273.1°C | 0.7% | 70.4hPa | 3.6V | 00:00:00 | 01:56:27 | 00:00:00 | |
| DM0DOS-11 | 2026-09-01 00:23:05 | 50.74544 | 5.83092 | 49° | 27km/h | 18965m | -14.4m/s | -273.1°C | 0.7% | 69.8hPa | 3.6V | 00:00:00 | 01:56:23 | 00:00:00 | |
| BIOWL1-15 | 2026-09-01 00:23:05 | 50.74540 | 5.83085 | 33° | 27km/h | 18980m | -14m/s | -273.1°C | 0.7% | 69.7hPa | 3.6V | 00:00:00 | 00:00:00 | 00:00:00 | |
| GOEST3-10 | 2026-09-01 00:23:04 | 50.74564 | 5.83116 | 28° | 27km/h | 18911m | -14.0m/s | 0°C | 0.7% | 70.3hPa | 3.6V | 00:00:00 | 01:56:27 | 00:00:00 | |
| DL1XH1-15 | 2026-09-01 00:22:59 | 50.74511 | 5.83049 | 25° | 33km/h | 19051m | -15m/s | -273.1°C | 0.7% | 68.9hPa | 3.6V | 00:00:00 | 01:56:17 | 00:00:00 | |
| DL1XH-west | 2026-09-01 00:22:57 | 50.74524 | 5.83065 | 0° | 0km/h | 19021m | 0m/s | -273.1°C | 0.7% | 69.2hPa | 3.6V | 00:00:00 | 00:00:00 | 00:00:00 | |
| BIOWL1-15 | 2026-09-01 00:22:53 | 50.74495 | 5.83034 | 37° | 35km/h | 19077m | -15m/s | -273.1°C | 0.6% | 68.7hPa | 3.6V | 00:00:00 | 00:00:00 | 00:00:00 | |
| DJ8HS-15 | 2026-09-01 00:22:51 | 50.74488 | 5.83025 | 34° | 31km/h | 19092m | -17.1m/s | 0°C | 0.7% | 68.4hPa | 3.6V | 00:00:00 | 01:56:14 | 00:00:00 | |
| DB0UT-7 | 2026-09-01 00:22:48 | 50.74470 | 5.83005 | 45° | 29km/h | 19145m | -16.6m/s | 0°C | 0.7% | 67.9hPa | 3.6V | 00:00:00 | 00:00:00 | 00:00:00 | |
| DL1XH1-15 | 2026-09-01 00:22:46 | 50.74454 | 5.82977 | 57° | 31km/h | 19211m | -16.8m/s | -273.1°C | 0.7% | 67.3hPa | 3.6V | 00:00:00 | 01:56:07 | 00:00:00 | |
| DL1XH-west | 2026-09-01 00:22:45 | 50.74454 | 5.82977 | 0° | 0km/h | 19211m | 0m/s | -273.1°C | 0.7% | 67.3hPa | 3.6V | 00:00:00 | 00:00:00 | 00:00:00 | |
| BIOWL1-15 | 2026-09-01 00:22:42 | 50.74433 | 5.82925 | 60° | 37km/h | 19292m | -19m/s | -273.1°C | 0.7% | 66.5hPa | 3.6V | 00:00:00 | 00:00:00 | 00:00:00 | |
| GOEST3-10 | 2026-09-01 00:22:42 | 50.74447 | 5.82957 | 51° | 35km/h | 19243m | -17.4m/s | 0°C | 0.7% | 66.9hPa | 3.6V | 00:00:00 | 01:56:05 | 00:00:00 | |
| DM0DOS-11 | 2026-09-01 00:22:41 | 50.74437 | 5.82937 | 61° | 35km/h | 19275m | -18.7m/s | -273.1°C | 0.7% | 66.6hPa | 3.6V | 00:00:00 | 01:56:03 | 00:00:00 | |
| DL1XH1-15 | 2026-09-01 00:22:39 | 50.74413 | 5.82861 | 75° | 31km/h | 19389m | -18.8m/s | -273.1°C | 0.7% | 65.5hPa | 3.6V | 00:00:00 | 01:55:57 | 00:00:00 | |
| DL1XH-west | 2026-09-01 00:22:35 | 50.74411 | 5.82847 | 0° | 0km/h | 19408m | 0m/s | -273.1°C | 0.7% | 65.4hPa | 3.6V | 00:00:00 | 00:00:00 | 00:00:00 | |
| DM0DOS-11 | 2026-09-01 00:22:31 | 50.74404 | 5.82811 | 74° | 26km/h | 19467m | -17.4m/s | -273.1°C | 0.7% | 64.8hPa | 3.6V | 00:00:00 | 01:55:53 | 00:00:00 | |
| BIOWL1-15 | 2026-09-01 00:22:30 | 50.74379 | 5.82670 | 87° | 27km/h | 19715m | -22m/s | -273.1°C | 0.7% | 62.4hPa | 3.6V | 00:00:00 | 00:00:00 | 00:00:00 | |
| DL1XH1-15 | 2026-09-01 00:22:28 | 50.74393 | 5.82754 | 67° | 27km/h | 19571m | -18.6m/s | -273.1°C | 0.7% | 63.8hPa | 3.6V | 00:00:00 | 01:55:47 | 00:00:00 | |
| DL1XH-west | 2026-09-01 00:22:25 | 50.74389 | 5.82734 | 0° | 0km/h | 19609m | 0m/s | -273.1°C | 0.7% | 63.5hPa | 3.6V | 00:00:00 | 00:00:00 | 00:00:00 | |
| DM0DOS-11 | 2026-09-01 00:22:21 | 50.74385 | 5.82712 | 67° | 27km/h | 19646m | -18.4m/s | -273.1°C | 0.7% | 63hPa | 3.6V | 00:00:00 | 01:55:43 | 00:00:00 | |
| BIOWL1-15 | 2026-09-01 00:22:20 | 50.74378 | 5.82647 | 96° | 29km/h | 19758m | -21m/s | -273.1°C | 0.7% | 62.1hPa | 3.6V | 00:00:00 | 00:00:00 | 00:00:00 | |
| DB0UT-7 | 2026-09-01 00:22:18 | 50.74382 | 5.82692 | 79° | 18km/h | 19678m | -20.4m/s | 0°C | 0.7% | 62.7hPa | 3.6V | 00:00:00 | 01:55:41 | 00:00:00 | |
| DL1XH1-15 | 2026-09-01 00:22:16 | 50.74378 | 5.82647 | 95° | 27km/h | 19758m | -22.2m/s | -273.1°C | 0.7% | 62.1hPa | 3.6V | 00:00:00 | 01:55:37 | 00:00:00 | |
| DL1XH-west | 2026-09-01 00:22:13 | 50.74379 | 5.82623 | 0° | 0km/h | 19801m | 0m/s | -273.1°C | 0.7% | 61.7hPa | 3.6V | 00:00:00 | 00:00:00 | 00:00:00 | |
| NBG1-10 | 2026-09-01 00:22:12 | 50.74379 | 5.82623 | 97° | 9km/h | 19801m | -21.9m/s | 0°C | 0.6% | 61.6hPa | 3.6V | 00:00:00 | 01:55:35 | 00:00:00 | |
| DM0DOS-11 | 2026-09-01 00:22:11 | 50.74380 | 5.82601 | 103° | 24km/h | 19850m | -21.4m/s | -273.1°C | 0.7% | 61.3hPa | 3.6V | 00:00:00 | 01:55:33 | 00:00:00 | |
| GOEST3-10 | 2026-09-01 00:22:10 | 50.74380 | 5.82601 | 104° | 22km/h | 19850m | -21.4m/s | 0°C | 0.7% | 61.2hPa | 3.6V | 00:00:00 | 01:55:33 | 00:00:00 | |
| DL1XH1-15 | 2026-09-01 00:22:09 | 50.74392 | 5.82547 | 103° | 16km/h | 19978m | -21.7m/s | -273.1°C | 0.7% | 60.1hPa | 3.6V | 00:00:00 | 01:55:27 | 00:00:00 | |
| BIOWL1-15 | 2026-09-01 00:22:07 | 50.74388 | 5.82562 | 115° | 22km/h | 19935m | -22m/s | -273.1°C | 0.7% | 60.5hPa | 3.6V | 00:00:00 | 00:00:00 | 00:00:00 | |
| DL1XH-west | 2026-09-01 00:22:03 | 50.74393 | 5.82534 | 0° | 0km/h | 20020m | 0m/s | -273.1°C | 0.7% | 59.7hPa | 3.6V | 00:00:00 | 00:00:00 | 00:00:00 | |
| DM0DOS-11 | 2026-09-01 00:22:01 | 50.74395 | 5.82519 | 95° | 15km/h | 20066m | -21.5m/s | -273.1°C | 0.7% | 59.3hPa | 3.6V | 00:00:00 | 01:55:23 | 00:00:00 | |
| BIOWL1-15 | 2026-09-01 00:21:57 | 50.74414 | 5.82466 | 140° | 9km/h | 20287m | -20m/s | -273.1°C | 0.7% | 57.3hPa | 3.6V | 00:00:00 | 00:00:00 | 00:00:00 | |
| DL1XH1-15 | 2026-09-01 00:21:56 | 50.74403 | 5.82488 | 147° | 15km/h | 20194m | -18.5m/s | -273.1°C | 0.7% | 58.1hPa | 3.6V | 00:00:00 | 01:55:17 | 00:00:00 | |
| DM0DOS-11 | 2026-09-01 00:21:55 | 50.74412 | 5.82470 | 126° | 11km/h | 20267m | -19.5m/s | -273.1°C | 0.7% | 57.4hPa | 3.6V | 00:00:00 | 01:55:13 | 00:00:00 | |
| DL1XH-west | 2026-09-01 00:21:53 | 50.74410 | 5.82473 | 0° | 0km/h | 20248m | 0m/s | -273.1°C | 0.7% | 57.7hPa | 3.6V | 00:00:00 | 00:00:00 | 00:00:00 | |
| DJ8HS-15 | 2026-09-01 00:21:51 | 50.74410 | 5.82473 | 144° | 11km/h | 20248m | -19.3m/s | 0°C | 0.7% | 57.6hPa | 3.6V | 00:00:00 | 01:55:14 | 00:00:00 | |
| GOEST3-10 | 2026-09-01 00:21:50 | 50.74412 | 5.82470 | 127° | 11km/h | 20267m | -19.4m/s | 0°C | 0.7% | 57.4hPa | 3.7V | 00:00:00 | 01:55:13 | 00:00:00 | |
| DL1XH1-15 | 2026-09-01 00:21:49 | 50.74424 | 5.82449 | 140° | 13km/h | 20385m | -18.2m/s | -273.1°C | 0.5% | 56.5hPa | 3.7V | 00:00:00 | 01:55:07 | 00:00:00 | |
| BIOWL1-15 | 2026-09-01 00:21:45 | 50.74424 | 5.82449 | 129° | 15km/h | 20385m | -17.5m/s | -273.1°C | 0.6% | 56.5hPa | 3.7V | 00:00:00 | 00:00:00 | 00:00:00 | |
| DM0DOS-11 | 2026-09-01 00:21:45 | 50.74432 | 5.82432 | 116° | 9km/h | 20457m | -19.1m/s | -273.1°C | 0.7% | 55.8hPa | 3.7V | 00:00:00 | 01:55:03 | 00:00:00 | |
| DL1XH-west | 2026-09-01 00:21:42 | 50.74432 | 5.82432 | 0° | 0km/h | 20457m | 0m/s | -273.1°C | 0.7% | 55.8hPa | 3.7V | 00:00:00 | 00:00:00 | 00:00:00 | |
| GOEST3-10 | 2026-09-01 00:21:40 | 50.74432 | 5.82432 | 117° | 9km/h | 20457m | -19.1m/s | 0°C | 0.7% | 55.8hPa | 3.7V | 00:00:00 | 01:55:03 | 00:00:00 | |
| DL1XH1-15 | 2026-09-01 00:21:36 | 50.74429 | 5.82417 | 29° | 11km/h | 20572m | -19.1m/s | -273.1°C | 0.7% | 54.8hPa | 3.7V | 00:00:00 | 01:54:57 | 00:00:00 | |
| DM0DOS-11 | 2026-09-01 00:21:35 | 50.74422 | 5.82403 | 63° | 13km/h | 20648m | -19.3m/s | -273.1°C | 0.7% | 54.2hPa | 3.7V | 00:00:00 | 01:54:53 | 00:00:00 | |
| DL1XH-west | 2026-09-01 00:21:32 | 50.74419 | 5.82394 | 0° | 0km/h | 20687m | 0m/s | -273.1°C | 0.7% | 53.9hPa | 3.7V | 00:00:00 | 00:00:00 | 00:00:00 | |
| DJ8HS-15 | 2026-09-01 00:21:31 | 50.74423 | 5.82408 | 64° | 9km/h | 20629m | -19.1m/s | 0°C | 0.7% | 54.3hPa | 3.7V | 00:00:00 | 01:54:54 | 00:00:00 | |
| GOEST3-10 | 2026-09-01 00:21:30 | 50.74422 | 5.82403 | 64° | 13km/h | 20648m | -19.2m/s | 0°C | 0.7% | 54.2hPa | 3.7V | 00:00:00 | 01:54:53 | 00:00:00 | |
| DL1XH1-15 | 2026-09-01 00:21:29 | 50.74420 | 5.82372 | 83° | 13km/h | 20763m | -19.1m/s | -273.1°C | 0.7% | 53.3hPa | 3.7V | 00:00:00 | 01:54:47 | 00:00:00 | |
| DM0DOS-11 | 2026-09-01 00:21:25 | 50.74418 | 5.82351 | 69° | 11km/h | 20839m | -19.3m/s | -273.1°C | 0.7% | 52.6hPa | 3.7V | 00:00:00 | 01:54:43 | 00:00:00 | |
| BIOWL1-15 | 2026-09-01 00:21:23 | 50.74406 | 5.82327 | 258° | 7km/h | 21127m | -19m/s | -273.1°C | 0.7% | 50.5hPa | 3.7V | 00:00:00 | 00:00:00 | 00:00:00 | |
| DL1XH-west | 2026-09-01 00:21:18 | 50.74405 | 5.82326 | 0° | 0km/h | 21051m | 0m/s | -273.1°C | 0.7% | 51hPa | 3.7V | 00:00:00 | 00:00:00 | 00:00:00 | |
| DL1XH1-15 | 2026-09-01 00:21:17 | 50.74408 | 5.82332 | 41° | 5km/h | 20954m | -19.3m/s | -273.1°C | 0.7% | 51.8hPa | 3.7V | 00:00:00 | 01:54:37 | 00:00:00 | |
| DM0DOS-11 | 2026-09-01 00:21:15 | 50.74405 | 5.82327 | 115° | 4km/h | 21031m | -19.3m/s | -273.1°C | 0.7% | 51.2hPa | 3.7V | 00:00:00 | 01:54:33 | 00:00:00 | |
| GOEST3-10 | 2026-09-01 00:21:11 | 50.74405 | 5.82326 | 91° | 7km/h | 21051m | -19.0m/s | 0°C | 0.7% | 51.0hPa | 3.7V | 00:00:00 | 00:00:00 | 00:00:00 | |
| DL1XH1-15 | 2026-09-01 00:21:10 | 50.74406 | 5.82330 | 294° | 9km/h | 21146m | -19m/s | -273.1°C | 0.7% | 50.3hPa | 3.7V | 00:00:00 | 01:54:27 | 00:00:00 | |
| BIOWL1-15 | 2026-09-01 00:21:07 | 50.74406 | 5.82330 | 295° | 7km/h | 21146m | -19m/s | -273.1°C | 0.7% | 50.3hPa | 3.7V | 00:00:00 | 00:00:00 | 00:00:00 | |
| DM0DOS-11 | 2026-09-01 00:21:01 | 50.74402 | 5.82342 | 302° | 11km/h | 21222m | -19.2m/s | -273.1°C | 0.7% | 49.8hPa | 3.7V | 00:00:00 | 01:54:23 | 00:00:00 | |
| DL1XH-west | 2026-09-01 00:21:01 | 50.74402 | 5.82342 | 0° | 0km/h | 21222m | 0m/s | -273.1°C | 0.7% | 49.8hPa | 3.7V | 00:00:00 | 00:00:00 | 00:00:00 | |
| BIOWL1-15 | 2026-09-01 00:20:57 | 50.74391 | 5.82358 | 336° | 15km/h | 21319m | -18.7m/s | -273.1°C | 0.7% | 49.1hPa | 3.7V | 00:00:00 | 00:00:00 | 00:00:00 | |
| DL1XH1-15 | 2026-09-01 00:20:55 | 50.74388 | 5.82361 | 332° | 11km/h | 21339m | -18.9m/s | -273.1°C | 0.7% | 49hPa | 3.7V | 00:00:00 | 01:54:17 | 00:00:00 | |
| DM0DOS-11 | 2026-09-01 00:20:53 | 50.74377 | 5.82365 | 359° | 9km/h | 21416m | -18.8m/s | -273.1°C | 0.7% | 48.5hPa | 3.7V | 00:00:00 | 01:54:13 | 00:00:00 | |
| DL1XH-west | 2026-09-01 00:20:51 | 50.74375 | 5.82367 | 0° | 0km/h | 21454m | 0m/s | -273.1°C | 0.7% | 48.2hPa | 3.7V | 00:00:00 | 00:00:00 | 00:00:00 | |
| DL1XH1-15 | 2026-09-01 00:20:50 | 50.74369 | 5.82360 | 355° | 9km/h | 21528m | -18.6m/s | -273.1°C | 0.7% | 47.7hPa | 3.7V | 00:00:00 | 01:54:07 | 00:00:00 | |
| BIOWL1-15 | 2026-09-01 00:20:46 | 50.74369 | 5.82360 | 356° | 7km/h | 21528m | -17m/s | -273.1°C | 0.7% | 47.7hPa | 3.7V | 00:00:00 | 00:00:00 | 00:00:00 | |
| GOEST3-10 | 2026-09-01 00:20:45 | 50.74369 | 5.82362 | 104° | 9km/h | 21509m | -18.5m/s | 0°C | 0.7% | 47.8hPa | 3.7V | 00:00:00 | 00:00:00 | 00:00:00 | |
| DM0DOS-11 | 2026-09-01 00:20:42 | 50.74364 | 5.82356 | 43° | 11km/h | 21605m | -18.2m/s | -273.1°C | 0.7% | 47.2hPa | 3.7V | 00:00:00 | 01:54:03 | 00:00:00 | |
| DL1XH-west | 2026-09-01 00:20:39 | 50.74361 | 5.82351 | 0° | 0km/h | 21643m | 0m/s | -273.1°C | 0.7% | 46.9hPa | 3.7V | 00:00:00 | 00:00:00 | 00:00:00 | |
| AA1-15 | 2026-09-01 00:20:37 | 50.74358 | 5.82343 | 0° | 0km/h | 21677m | 0m/s | -273.1°C | 0.7% | 46.7hPa | 3.7V | 00:00:00 | 00:00:00 | 00:00:00 | |
| DM0DOS-11 | 2026-09-01 00:20:35 | 50.74348 | 5.82316 | 57° | 20km/h | 21786m | -17.7m/s | -273.1°C | 0.7% | 45.9hPa | 3.7V | 00:00:00 | 01:53:53 | 00:00:00 | |
| BIOWL1-15 | 2026-09-01 00:20:35 | 50.74348 | 5.82316 | 58° | 16km/h | 21786m | -15m/s | -273.1°C | 0.7% | 45.9hPa | 3.7V | 00:00:00 | 00:00:00 | 00:00:00 | |
| DL1XH-west | 2026-09-01 00:20:29 | 50.74345 | 5.82300 | 0° | 0km/h | 21817m | 0m/s | -273.1°C | 0.7% | 45.7hPa | 3.7V | 00:00:00 | 00:00:00 | 00:00:00 | |
| DJ8HS-15 | 2026-09-01 00:20:29 | 50.74345 | 5.82310 | 91° | 13km/h | 21801m | -18.4m/s | 0°C | 0.7% | 45.7hPa | 3.7V | 00:00:00 | 01:53:52 | 00:00:00 | |
| DM0DOS-11 | 2026-09-01 00:20:25 | 50.74348 | 5.82242 | 123° | 13km/h | 21974m | -18.6m/s | -273.1°C | 0.7% | 44.6hPa | 3.7V | 00:00:00 | 01:53:43 | 00:00:00 | |
| BIOWL1-15 | 2026-09-01 00:20:23 | 50.74368 | 5.82233 | 314° | 9km/h | 22122m | -19m/s | -273.1°C | 0.7% | 43.7hPa | 3.7V | 00:00:00 | 00:00:00 | 00:00:00 | |
| GOEST3-10 | 2026-09-01 00:20:20 | 50.74348 | 5.82242 | 133° | 13km/h | 21974m | -18.4m/s | 0°C | 0.7% | 44.6hPa | 3.7V | 00:00:00 | 01:53:43 | 00:00:00 | |
| DL1XH1-15 | 2026-09-01 00:20:19 | 50.74364 | 5.82227 | 226° | 9km/h | 22085m | -18.5m/s | -273.1°C | 0.7% | 44hPa | 3.7V | 00:00:00 | 01:53:37 | 00:00:00 | |
| DL1XH-west | 2026-09-01 00:20:19 | 50.74356 | 5.82232 | 0° | 0km/h | 22030m | 0m/s | -273.1°C | 0.7% | 44.3hPa | 3.7V | 00:00:00 | 00:00:00 | 00:00:00 | |
| DB0UT-7 | 2026-09-01 00:20:18 | 50.74353 | 5.82234 | 160° | 15km/h | 22012m | -18.2m/s | 0°C | 0.7% | 44.3hPa | 3.7V | 00:00:00 | 01:53:41 | 00:00:00 | |
| GOEST3-10 | 2026-09-01 00:20:15 | 50.74362 | 5.82226 | 216° | 11km/h | 22066m | -18.5m/s | 0°C | 0.7% | 44.0hPa | 3.7V | 00:00:00 | 00:00:00 | 00:00:00 | |
| DM0DOS-11 | 2026-09-01 00:20:11 | 50.74366 | 5.82238 | 315° | 13km/h | 22160m | -18m/s | -273.1°C | 0.7% | 43.4hPa | 3.7V | 00:00:00 | 01:53:33 | 00:00:00 | |
| BIOWL1-15 | 2026-09-01 00:20:10 | 50.74348 | 5.82246 | 22° | 20km/h | 22267m | -19m/s | -273.1°C | 0.7% | 42.8hPa | 3.7V | 00:00:00 | 00:00:00 | 00:00:00 | |
| DL1XH-west | 2026-09-01 00:20:08 | 50.74360 | 5.82243 | 0° | 0km/h | 22212m | 0m/s | -273.1°C | 0.7% | 43hPa | 3.7V | 00:00:00 | 00:00:00 | 00:00:00 | |
| DL1XH1-15 | 2026-09-01 00:20:05 | 50.74348 | 5.82246 | 22° | 18km/h | 22267m | -19.9m/s | -273.1°C | 0.7% | 42.8hPa | 3.7V | 00:00:00 | 01:53:27 | 00:00:00 | |
| DM0DOS-11 | 2026-09-01 00:20:05 | 50.74331 | 5.82243 | 343° | 18km/h | 22345m | -21.1m/s | -273.1°C | 0.7% | 42.3hPa | 3.7V | 00:00:00 | 01:53:23 | 00:00:00 | |
| AA1-15 | 2026-09-01 00:19:57 | 50.74313 | 5.82242 | 0° | 0km/h | 22431m | 0m/s | -273.1°C | 0.7% | 41.8hPa | 3.7V | 00:00:00 | 00:00:00 | 00:00:00 | |
| BIOWL1-15 | 2026-09-01 00:19:47 | 50.74273 | 5.82209 | 52° | 20km/h | 22640m | -22m/s | -273.1°C | 0.7% | 40.5hPa | 3.7V | 00:00:00 | 00:00:00 | 00:00:00 | |
| DL1XH-west | 2026-09-01 00:19:47 | 50.74270 | 5.82203 | 0° | 0km/h | 22662m | 0m/s | -273.1°C | 0.7% | 40.4hPa | 3.7V | 00:00:00 | 00:00:00 | 00:00:00 | |
| DL1XH1-15 | 2026-09-01 00:19:45 | 50.74268 | 5.82198 | 28° | 11km/h | 22684m | -23.7m/s | -273.1°C | 0.7% | 40.2hPa | 3.7V | 00:00:00 | 01:53:07 | 00:00:00 | |
| GOEST3-10 | 2026-09-01 00:19:44 | 50.74268 | 5.82197 | 29° | 9km/h | 22684m | -23.7m/s | 0°C | 0.7% | 40.2hPa | 3.7V | 00:00:00 | 00:00:00 | 00:00:00 | |
| DL1XH1-15 | 2026-09-01 00:19:39 | 50.74266 | 5.82178 | 190° | 9km/h | 22919m | -24.2m/s | -273.1°C | 0.7% | 38.9hPa | 3.7V | 00:00:00 | 01:52:57 | 00:00:00 | |
| AA1-15 | 2026-09-01 00:19:38 | 50.74264 | 5.82175 | 0° | 0km/h | 22847m | 0m/s | -273.1°C | 0.7% | 39.3hPa | 3.7V | 00:00:00 | 00:00:00 | 00:00:00 | |
| BIOWL1-15 | 2026-09-01 00:19:36 | 50.74269 | 5.82179 | 211° | 4km/h | 22945m | -27m/s | -273.1°C | 0.7% | 38.8hPa | 3.7V | 00:00:00 | 00:00:00 | 00:00:00 | |
| DL1XH-west | 2026-09-01 00:19:36 | 50.74266 | 5.82178 | 0° | 0km/h | 22919m | 0m/s | -273.1°C | 0.7% | 38.9hPa | 3.7V | 00:00:00 | 00:00:00 | 00:00:00 | |
| GOEST3-10 | 2026-09-01 00:19:34 | 50.74266 | 5.82178 | 191° | 9km/h | 22919m | -24.2m/s | 0°C | 0.7% | 38.9hPa | 3.7V | 00:00:00 | 00:00:00 | 00:00:00 | |
| DM0DOS-11 | 2026-09-01 00:19:33 | 50.74274 | 5.82184 | 270° | 9km/h | 23020m | -21.4m/s | -273.1°C | 0.7% | 38.3hPa | 3.7V | 00:00:00 | 01:52:53 | 00:00:00 | |
| DJ8HS-15 | 2026-09-01 00:19:29 | 50.74274 | 5.82186 | 271° | 13km/h | 23041m | -21.2m/s | 0°C | 0.7% | 38.2hPa | 3.7V | 00:00:00 | 01:52:52 | 00:00:00 | |
| DL1XH1-15 | 2026-09-01 00:19:28 | 50.74272 | 5.82202 | 175° | 7km/h | 23149m | -20.7m/s | -273.1°C | 0.7% | 37.5hPa | 3.7V | 00:00:00 | 01:52:47 | 00:00:00 | |
| AA1-15 | 2026-09-01 00:19:28 | 50.74276 | 5.82198 | 0° | 0km/h | 23106m | 0m/s | -273.1°C | 0.7% | 37.9hPa | 3.7V | 00:00:00 | 00:00:00 | 00:00:00 | |
| BIOWL1-15 | 2026-09-01 00:19:27 | 50.74266 | 5.82198 | 52° | 13km/h | 23252m | -20m/s | -273.1°C | 0.7% | 37hPa | 3.7V | 00:00:00 | 00:00:00 | 00:00:00 | |
| DL1XH-west | 2026-09-01 00:19:25 | 50.74272 | 5.82202 | 0° | 0km/h | 23170m | 0m/s | -273.1°C | 0.7% | 37.5hPa | 3.7V | 00:00:00 | 00:00:00 | 00:00:00 | |
| AA1-15 | 2026-09-01 00:19:16 | 50.74256 | 5.82174 | 0° | 0km/h | 23359m | 0m/s | -273.1°C | 0.7% | 36.5hPa | 3.7V | 00:00:00 | 00:00:00 | 00:00:00 | |
| DL1XH1-15 | 2026-09-01 00:19:15 | 50.74256 | 5.82174 | 67° | 16km/h | 23359m | -19.3m/s | -273.1°C | 0.7% | 36.5hPa | 3.7V | 00:00:00 | 01:52:37 | 00:00:00 | |
| DL1XH-west | 2026-09-01 00:19:13 | 50.74252 | 5.82158 | 0° | 0km/h | 23396m | 0m/s | -273.1°C | 0.7% | 36.3hPa | 3.7V | 00:00:00 | 00:00:00 | 00:00:00 | |
| DL1XH1-15 | 2026-09-01 00:19:09 | 50.74246 | 5.82123 | 338° | 5km/h | 23551m | -22.5m/s | -273.1°C | 0.7% | 35.5hPa | 3.7V | 00:00:00 | 01:52:27 | 00:00:00 | |
| BIOWL1-15 | 2026-09-01 00:19:06 | 50.74247 | 5.82126 | 62° | 5km/h | 23531m | -20m/s | -273.1°C | 0.7% | 35.6hPa | 3.7V | 00:00:00 | 00:00:00 | 00:00:00 | |
| AA1-15 | 2026-09-01 00:19:04 | 50.74245 | 5.82124 | 0° | 0km/h | 23572m | 0m/s | -273.1°C | 0.7% | 35.4hPa | 3.7V | 00:00:00 | 00:00:00 | 00:00:00 | |
| DL1XH-west | 2026-09-01 00:19:02 | 50.74247 | 5.82122 | 0° | 0km/h | 23617m | 0m/s | -273.1°C | 0.7% | 35.1hPa | 3.8V | 00:00:00 | 00:00:00 | 00:00:00 | |
| BIOWL1-15 | 2026-09-01 00:18:56 | 50.74237 | 5.82172 | 4° | 7km/h | 24052m | -23m/s | -273.1°C | 0.7% | 33hPa | 3.8V | 00:00:00 | 00:00:00 | 00:00:00 | |
| AA1-15 | 2026-09-01 00:18:54 | 50.74252 | 5.82149 | 0° | 0km/h | 23813m | 0m/s | -273.1°C | 0.7% | 34.2hPa | 3.8V | 00:00:00 | 00:00:00 | 00:00:00 | |
| GOEST3-10 | 2026-09-01 00:18:54 | 50.74252 | 5.82145 | 271° | 9km/h | 23786m | -25.3m/s | 0°C | 0.7% | 34.3hPa | 3.8V | 00:00:00 | 00:00:00 | 00:00:00 | |
| DM0DOS-11 | 2026-09-01 00:18:51 | 50.74249 | 5.82162 | 301° | 9km/h | 23890m | -23.2m/s | -273.1°C | 0.7% | 33.8hPa | 3.8V | 00:00:00 | 01:52:13 | 00:00:00 | |
| DL1XH-west | 2026-09-01 00:18:51 | 50.74249 | 5.82162 | 0° | 0km/h | 23890m | 0m/s | -273.1°C | 0.7% | 33.8hPa | 3.8V | 00:00:00 | 00:00:00 | 00:00:00 | |
| DL1XH1-15 | 2026-09-01 00:18:49 | 50.74239 | 5.82172 | 343° | 7km/h | 24028m | -24.1m/s | -273.1°C | 0.7% | 33.1hPa | 3.8V | 00:00:00 | 01:52:07 | 00:00:00 | |
| DB0UT-7 | 2026-09-01 00:18:48 | 50.74246 | 5.82169 | 337° | 11km/h | 23936m | -23.3m/s | 0°C | 0.7% | 33.4hPa | 3.8V | 00:00:00 | 00:00:00 | 00:00:00 | |
| DM0DOS-11 | 2026-09-01 00:18:46 | 50.74232 | 5.82170 | 344° | 7km/h | 24124m | -24.6m/s | -273.1°C | 0.7% | 32.6hPa | 3.8V | 00:00:00 | 01:52:03 | 00:00:00 | |
| AA1-15 | 2026-09-01 00:18:44 | 50.74235 | 5.82172 | 0° | 0km/h | 24075m | 0m/s | -273.1°C | 0.7% | 32.8hPa | 3.8V | 00:00:00 | 00:00:00 | 00:00:00 | |
| DL1XH-west | 2026-09-01 00:18:41 | 50.74232 | 5.82170 | 0° | 0km/h | 24124m | 0m/s | -273.1°C | 0.7% | 32.6hPa | 3.8V | 00:00:00 | 00:00:00 | 00:00:00 | |
| BIOWL1-15 | 2026-09-01 00:18:41 | 50.74227 | 5.82170 | 326° | 5km/h | 24201m | -25m/s | -273.1°C | 0.7% | 32.2hPa | 3.8V | 00:00:00 | 00:00:00 | 00:00:00 | |
| GOEST3-10 | 2026-09-01 00:18:39 | 50.74230 | 5.82170 | 354° | 11km/h | 24151m | -22.9m/s | 0°C | 0.7% | 32.5hPa | 3.8V | 00:00:00 | 01:52:02 | 00:00:00 | |
| DM0DOS-11 | 2026-09-01 00:18:35 | 50.74210 | 5.82183 | 331° | 16km/h | 24382m | -22m/s | -273.1°C | 0.7% | 31.4hPa | 3.8V | 00:00:00 | 01:51:52 | 00:00:00 | |
| AA1-15 | 2026-09-01 00:18:33 | 50.74216 | 5.82176 | 0° | 0km/h | 24338m | 0m/s | -273.1°C | 0.7% | 31.6hPa | 3.8V | 00:00:00 | 00:00:00 | 00:00:00 | |
| DL1XH-west | 2026-09-01 00:18:30 | 50.74210 | 5.82183 | 0° | 0km/h | 24382m | 0m/s | -273.1°C | 0.7% | 31.4hPa | 3.8V | 00:00:00 | 00:00:00 | 00:00:00 | |
| BIOWL1-15 | 2026-09-01 00:18:28 | 50.74167 | 5.82220 | 272° | 9km/h | 24677m | -22m/s | -273.1°C | 0.7% | 30.1hPa | 3.8V | 00:00:00 | 00:00:00 | 00:00:00 | |
| DJ8HS-15 | 2026-09-01 00:18:28 | 50.74206 | 5.82185 | 338° | 13km/h | 24404m | -22.0m/s | 0°C | 0.7% | 31.3hPa | 3.8V | 00:00:00 | 01:51:51 | 00:00:00 | |
| AM1SDL-15 | 2026-09-01 00:18:26 | 50.74198 | 5.82193 | 337° | 11km/h | 24446m | -22.1m/s | 0°C | 0.7% | 31.1hPa | 3.8V | 00:00:00 | 01:51:49 | 00:00:00 | |
| DM0DOS-11 | 2026-09-01 00:18:24 | 50.74174 | 5.82210 | 309° | 11km/h | 24607m | -22.3m/s | -273.1°C | 0.7% | 30.4hPa | 3.8V | 00:00:00 | 01:51:42 | 00:00:00 | |
| AA1-15 | 2026-09-01 00:18:22 | 50.74176 | 5.82209 | 0° | 0km/h | 24584m | 0m/s | -273.1°C | 0.7% | 30.5hPa | 3.8V | 00:00:00 | 00:00:00 | 00:00:00 | |
| DL1XH1-15 | 2026-09-01 00:18:19 | 50.74167 | 5.82231 | 270° | 11km/h | 24744m | -19.2m/s | -273.1°C | 0.7% | 29.9hPa | 3.8V | 00:00:00 | 01:51:36 | 00:00:00 | |
| DL1XH-west | 2026-09-01 00:18:18 | 50.74170 | 5.82218 | 0° | 0km/h | 24654m | 0m/s | -273.1°C | 0.7% | 30.2hPa | 3.8V | 00:00:00 | 00:00:00 | 00:00:00 | |
| DB0UT-7 | 2026-09-01 00:18:18 | 50.74171 | 5.82216 | 313° | 20km/h | 24630m | -21.8m/s | 0°C | 0.7% | 30.3hPa | 3.7V | 00:00:00 | 01:51:41 | 00:00:00 | |
| GOEST3-10 | 2026-09-01 00:18:16 | 50.74167 | 5.82220 | 283° | 11km/h | 24677m | -20.5m/s | 0°C | 0.7% | 30.1hPa | 3.8V | 00:00:00 | 01:51:39 | 00:00:00 | |
| DM0DOS-11 | 2026-09-01 00:18:14 | 50.74164 | 5.82244 | 250° | 13km/h | 24821m | -18.4m/s | -273.1°C | 0.7% | 29.5hPa | 3.8V | 00:00:00 | 01:51:32 | 00:00:00 | |
| AA1-15 | 2026-09-01 00:18:10 | 50.74164 | 5.82244 | 0° | 0km/h | 24821m | 0m/s | -273.1°C | 0.7% | 29.5hPa | 3.8V | 00:00:00 | 00:00:00 | 00:00:00 | |
| DL1XH-west | 2026-09-01 00:18:08 | 50.74167 | 5.82250 | 0° | 0km/h | 24858m | 0m/s | -273.1°C | 0.7% | 29.3hPa | 3.8V | 00:00:00 | 00:00:00 | 00:00:00 | |
| BIOWL1-15 | 2026-09-01 00:18:05 | 50.74181 | 5.82277 | 243° | 16km/h | 24967m | -17m/s | -273.1°C | 0.7% | 28.9hPa | 3.8V | 00:00:00 | 00:00:00 | 00:00:00 | |
| GOEST3-10 | 2026-09-01 00:18:04 | 50.74176 | 5.82263 | 241° | 20km/h | 24913m | -17.9m/s | 0°C | 0.7% | 29.0hPa | 3.8V | 00:00:00 | 01:51:27 | 00:00:00 | |
| DM0DOS-11 | 2026-09-01 00:18:03 | 50.74186 | 5.82290 | 212° | 20km/h | 25001m | -18.4m/s | -273.1°C | 0.7% | 28.8hPa | 3.8V | 00:00:00 | 01:51:22 | 00:00:00 | |
| AA1-15 | 2026-09-01 00:18:00 | 50.74190 | 5.82295 | 0° | 0km/h | 25019m | 0m/s | -273.1°C | 0.7% | 28.6hPa | 3.8V | 00:00:00 | 00:00:00 | 00:00:00 | |
| DL1XH-west | 2026-09-01 00:17:57 | 50.74193 | 5.82304 | 0° | 0km/h | 25056m | 0m/s | -273.1°C | 0.7% | 28.5hPa | 3.8V | 00:00:00 | 00:00:00 | 00:00:00 | |
| BIOWL1-15 | 2026-09-01 00:17:54 | 50.74190 | 5.82367 | 280° | 26km/h | 25169m | -18m/s | -273.1°C | 0.7% | 28.1hPa | 3.8V | 00:00:00 | 00:00:00 | 00:00:00 | |
| DM0DOS-11 | 2026-09-01 00:17:53 | 50.74189 | 5.82378 | 291° | 29km/h | 25187m | -18m/s | -273.1°C | 0.7% | 28hPa | 3.8V | 00:00:00 | 01:51:12 | 00:00:00 | |
| AA1-15 | 2026-09-01 00:17:49 | 50.74184 | 5.82398 | 0° | 0km/h | 25221m | 0m/s | -273.1°C | 0.7% | 27.8hPa | 3.8V | 00:00:00 | 00:00:00 | 00:00:00 | |
| DL1XH1-15 | 2026-09-01 00:17:48 | 50.74166 | 5.82437 | 325° | 29km/h | 25294m | -20.4m/s | -273.1°C | 0.7% | 27.5hPa | 3.8V | 00:00:00 | 01:51:06 | 00:00:00 | |
| DL1XH-west | 2026-09-01 00:17:46 | 50.74177 | 5.82418 | 0° | 0km/h | 25256m | 0m/s | -273.1°C | 0.7% | 27.7hPa | 3.8V | 00:00:00 | 00:00:00 | 00:00:00 | |
| DM0DOS-11 | 2026-09-01 00:17:43 | 50.74144 | 5.82468 | 329° | 27km/h | 25374m | -22.4m/s | -273.1°C | 0.7% | 27.2hPa | 3.8V | 00:00:00 | 01:51:02 | 00:00:00 | |
| BIOWL1-15 | 2026-09-01 00:17:42 | 50.74071 | 5.82477 | 16° | 27km/h | 25620m | -23m/s | -273.1°C | 0.7% | 26.3hPa | 3.8V | 00:00:00 | 00:00:00 | 00:00:00 | |
| AA1-15 | 2026-09-01 00:17:38 | 50.74131 | 5.82481 | 0° | 0km/h | 25419m | 0m/s | -273.1°C | 0.8% | 27.1hPa | 3.8V | 00:00:00 | 00:00:00 | 00:00:00 | |
| DL1XH-west | 2026-09-01 00:17:36 | 50.74118 | 5.82485 | 0° | 0km/h | 25462m | 0m/s | -273.1°C | 0.7% | 26.9hPa | 3.8V | 00:00:00 | 00:00:00 | 00:00:00 | |
| DM0DOS-11 | 2026-09-01 00:17:32 | 50.74077 | 5.82480 | 14° | 24km/h | 25596m | -23.4m/s | -273.1°C | 0.7% | 26.4hPa | 3.8V | 00:00:00 | 01:50:52 | 00:00:00 | |
| AA1-15 | 2026-09-01 00:17:28 | 50.74064 | 5.82474 | 0° | 0km/h | 25643m | 0m/s | -273.1°C | 0.7% | 26.2hPa | 3.8V | 00:00:00 | 00:00:00 | 00:00:00 | |
| DL1XH-west | 2026-09-01 00:17:25 | 50.74047 | 5.82469 | 0° | 0km/h | 25713m | 0m/s | -273.1°C | 0.8% | 25.9hPa | 3.8V | 00:00:00 | 00:00:00 | 00:00:00 | |
| AM1SDL-15 | 2026-09-01 00:17:23 | 50.74042 | 5.82466 | 4° | 11km/h | 25737m | -23.9m/s | 0°C | 0.7% | 25.7hPa | 3.8V | 00:00:00 | 01:50:46 | 00:00:00 | |
| DM0DOS-11 | 2026-09-01 00:17:22 | 50.74021 | 5.82464 | 8° | 16km/h | 25828m | -24.4m/s | -273.1°C | 0.7% | 25.5hPa | 3.8V | 00:00:00 | 01:50:42 | 00:00:00 | |
| BIOWL1-15 | 2026-09-01 00:17:21 | 50.74021 | 5.82464 | 8° | 22km/h | 25828m | -23m/s | -273.1°C | 0.8% | 25.5hPa | 3.8V | 00:00:00 | 00:00:00 | 00:00:00 | |
| AA1-15 | 2026-09-01 00:17:17 | 50.74006 | 5.82464 | 0° | 0km/h | 25901m | 0m/s | -273.1°C | 0.8% | 25.3hPa | 3.8V | 00:00:00 | 00:00:00 | 00:00:00 | |
| DL1XH-west | 2026-09-01 00:17:15 | 50.73998 | 5.82461 | 0° | 0km/h | 25950m | 0m/s | -273.1°C | 0.8% | 25hPa | 3.8V | 00:00:00 | 00:00:00 | 00:00:00 | |
| DL1XH1-15 | 2026-09-01 00:17:13 | 50.73992 | 5.82460 | 14° | 7km/h | 26000m | -24.9m/s | -273.1°C | 0.7% | 24.9hPa | 3.8V | 00:00:00 | 01:50:35 | 00:00:00 | |
| BIOWL1-15 | 2026-09-01 00:17:09 | 50.73981 | 5.82449 | 61° | 4km/h | 26201m | -25m/s | -273.1°C | 0.8% | 24.2hPa | 3.8V | 00:00:00 | 00:00:00 | 00:00:00 | |
| DL1XH1-15 | 2026-09-01 00:17:08 | 50.73979 | 5.82447 | 7° | 5km/h | 26251m | -24.9m/s | -273.1°C | 0.7% | 24hPa | 3.8V | 00:00:00 | 01:50:25 | 00:00:00 | |
| AA1-15 | 2026-09-01 00:17:07 | 50.73982 | 5.82450 | 0° | 0km/h | 26175m | 0m/s | -273.1°C | 0.8% | 24.3hPa | 3.8V | 00:00:00 | 00:00:00 | 00:00:00 | |
| DL1XH-west | 2026-09-01 00:17:04 | 50.73980 | 5.82448 | 0° | 0km/h | 26226m | 0m/s | -273.1°C | 0.7% | 24.1hPa | 3.8V | 00:00:00 | 00:00:00 | 00:00:00 | |
| DM0DOS-11 | 2026-09-01 00:17:02 | 50.73977 | 5.82445 | 24° | 5km/h | 26326m | -24.8m/s | -273.1°C | 0.7% | 23.8hPa | 3.8V | 00:00:00 | 01:50:22 | 00:00:00 | |
| AA1-15 | 2026-09-01 00:16:56 | 50.73971 | 5.82443 | 0° | 0km/h | 26449m | 0m/s | -273.1°C | 0.8% | 23.3hPa | 3.8V | 00:00:00 | 00:00:00 | 00:00:00 | |
| BIOWL1-15 | 2026-09-01 00:16:55 | 50.73960 | 5.82440 | 29° | 13km/h | 26549m | -25.5m/s | -273.1°C | 0.8% | 23.1hPa | 3.8V | 00:00:00 | 00:00:00 | 00:00:00 | |
| DL1XH-west | 2026-09-01 00:16:53 | 50.73967 | 5.82444 | 0° | 0km/h | 26500m | 0m/s | -273.1°C | 0.8% | 23.3hPa | 3.8V | 00:00:00 | 00:00:00 | 00:00:00 | |
| GOEST3-10 | 2026-09-01 00:16:52 | 50.73967 | 5.82444 | 20° | 15km/h | 26500m | -24.2m/s | 0°C | 0.7% | 23.2hPa | 3.8V | 00:00:00 | 00:00:00 | 00:00:00 | |
| DL1XH1-15 | 2026-09-01 00:16:47 | 50.73933 | 5.82414 | 75° | 13km/h | 26745m | -22.4m/s | -273.1°C | 0.7% | 22.4hPa | 3.8V | 00:00:00 | 01:50:05 | 00:00:00 | |
| AA1-15 | 2026-09-01 00:16:46 | 50.73941 | 5.82418 | 0° | 0km/h | 26697m | 0m/s | -273.1°C | 0.8% | 22.6hPa | 3.8V | 00:00:00 | 00:00:00 | 00:00:00 | |
| BIOWL1-15 | 2026-09-01 00:16:41 | 50.73925 | 5.82383 | 151° | 4km/h | 26906m | -21m/s | -273.1°C | 0.8% | 22hPa | 3.8V | 00:00:00 | 00:00:00 | 00:00:00 | |
| DL1XH-west | 2026-09-01 00:16:40 | 50.73928 | 5.82396 | 0° | 0km/h | 26816m | 0m/s | -273.1°C | 0.8% | 22.2hPa | 3.8V | 00:00:00 | 00:00:00 | 00:00:00 | |
| DL1XH1-15 | 2026-09-01 00:16:37 | 50.73925 | 5.82384 | 231° | 11km/h | 26966m | -20.4m/s | -273.1°C | 0.7% | 21.7hPa | 3.8V | 00:00:00 | 01:49:55 | 00:00:00 | |
| AA1-15 | 2026-09-01 00:16:35 | 50.73925 | 5.82384 | 0° | 0km/h | 26966m | 0m/s | -273.1°C | 0.8% | 21.7hPa | 3.8V | 00:00:00 | 00:00:00 | 00:00:00 | |
| DM0DOS-11 | 2026-09-01 00:16:32 | 50.73928 | 5.82392 | 246° | 13km/h | 27022m | -23m/s | -273.1°C | 0.7% | 21.6hPa | 3.8V | 00:00:00 | 01:49:52 | 00:00:00 | |
| DL1XH-west | 2026-09-01 00:16:28 | 50.73930 | 5.82400 | 0° | 0km/h | 27065m | 0m/s | -273.1°C | 0.8% | 21.4hPa | 3.8V | 00:00:00 | 00:00:00 | 00:00:00 | |
| DL1XH1-15 | 2026-09-01 00:16:27 | 50.73940 | 5.82419 | 222° | 16km/h | 27184m | -24.4m/s | -273.1°C | 0.7% | 21.1hPa | 3.8V | 00:00:00 | 01:49:45 | 00:00:00 | |
| BIOWL1-15 | 2026-09-01 00:16:25 | 50.73936 | 5.82409 | 229° | 11km/h | 27137m | -24m/s | -273.1°C | 0.8% | 21.3hPa | 3.8V | 00:00:00 | 00:00:00 | 00:00:00 | |
| AA1-15 | 2026-09-01 00:16:24 | 50.73940 | 5.82419 | 0° | 0km/h | 27184m | 0m/s | -273.1°C | 0.7% | 21.1hPa | 3.8V | 00:00:00 | 00:00:00 | 00:00:00 | |
| DM0DOS-11 | 2026-09-01 00:16:22 | 50.73944 | 5.82431 | 201° | 20km/h | 27261m | -23.2m/s | -273.1°C | 0.7% | 20.9hPa | 3.8V | 00:00:00 | 01:49:42 | 00:00:00 | |
| DL1XH-west | 2026-09-01 00:16:18 | 50.73951 | 5.82439 | 0° | 0km/h | 27309m | 0m/s | -273.1°C | 0.7% | 20.8hPa | 3.8V | 00:00:00 | 00:00:00 | 00:00:00 | |
| DL1XH1-15 | 2026-09-01 00:16:17 | 50.73973 | 5.82471 | 235° | 15km/h | 27418m | -23.8m/s | -273.1°C | 0.7% | 20.4hPa | 3.8V | 00:00:00 | 01:49:35 | 00:00:00 | |
| BIOWL1-15 | 2026-09-01 00:16:15 | 50.73978 | 5.82482 | 210° | 18km/h | 27466m | -22m/s | -273.1°C | 0.8% | 20.3hPa | 3.8V | 00:00:00 | 00:00:00 | 00:00:00 | |
| AA1-15 | 2026-09-01 00:16:14 | 50.73969 | 5.82461 | 0° | 0km/h | 27398m | 0m/s | -273.1°C | 0.8% | 20.5hPa | 3.8V | 00:00:00 | 00:00:00 | 00:00:00 | |
| GOEST3-10 | 2026-09-01 00:16:10 | 50.73978 | 5.82482 | 211° | 13km/h | 27466m | -23.6m/s | 0°C | 0.7% | 20.2hPa | 3.8V | 00:00:00 | 00:00:00 | 00:00:00 | |
| DL1XH1-15 | 2026-09-01 00:16:07 | 50.73983 | 5.82516 | 280° | 11km/h | 27660m | -23.1m/s | -273.1°C | 0.7% | 19.7hPa | 3.8V | 00:00:00 | 01:49:25 | 00:00:00 | |
| BIOWL1-15 | 2026-09-01 00:16:04 | 50.73986 | 5.82511 | 312° | 16km/h | 27637m | -23m/s | -273.1°C | 0.8% | 19.8hPa | 3.8V | 00:00:00 | 00:00:00 | 00:00:00 | |
| AA1-15 | 2026-09-01 00:16:04 | 50.73983 | 5.82519 | 0° | 0km/h | 27683m | 0m/s | -273.1°C | 0.8% | 19.7hPa | 3.8V | 00:00:00 | 00:00:00 | 00:00:00 | |
| DM0DOS-11 | 2026-09-01 00:16:02 | 50.73977 | 5.82524 | 333° | 11km/h | 27729m | -22.9m/s | -273.1°C | 0.7% | 19.6hPa | 3.8V | 00:00:00 | 01:49:22 | 00:00:00 | |
| DL1XH-west | 2026-09-01 00:16:01 | 50.73980 | 5.82522 | 0° | 0km/h | 27706m | 0m/s | -273.1°C | 0.8% | 19.6hPa | 3.8V | 00:00:00 | 00:00:00 | 00:00:00 | |
| GOEST3-10 | 2026-09-01 00:16:00 | 50.73980 | 5.82522 | 339° | 9km/h | 27706m | -23.7m/s | 0°C | 0.7% | 19.6hPa | 3.8V | 00:00:00 | 01:49:23 | 00:00:00 | |
| AM1SDL-15 | 2026-09-01 00:15:59 | 50.73977 | 5.82524 | 334° | 7km/h | 27729m | -23.3m/s | 0°C | 0.7% | 19.5hPa | 3.8V | 00:00:00 | 01:49:22 | 00:00:00 | |
| DL1XH1-15 | 2026-09-01 00:15:57 | 50.73963 | 5.82522 | 93° | 9km/h | 27892m | -23.4m/s | -273.1°C | 0.7% | 19.1hPa | 3.8V | 00:00:00 | 01:49:15 | 00:00:00 | |
| AA1-15 | 2026-09-01 00:15:53 | 50.73963 | 5.82522 | 0° | 0km/h | 27892m | 0m/s | -273.1°C | 0.8% | 19.1hPa | 3.8V | 00:00:00 | 00:00:00 | 00:00:00 | |
| BIOWL1-15 | 2026-09-01 00:15:53 | 50.73963 | 5.82513 | 125° | 11km/h | 27939m | -25m/s | -273.1°C | 0.8% | 19hPa | 3.8V | 00:00:00 | 00:00:00 | 00:00:00 | |
| DM0DOS-11 | 2026-09-01 00:15:52 | 50.73965 | 5.82509 | 90° | 7km/h | 27964m | -22.8m/s | -273.1°C | 0.7% | 19hPa | 3.8V | 00:00:00 | 01:49:12 | 00:00:00 | |
| DL1XH-west | 2026-09-01 00:15:51 | 50.73965 | 5.82509 | 0° | 0km/h | 27964m | 0m/s | -273.1°C | 0.8% | 19hPa | 3.8V | 00:00:00 | 00:00:00 | 00:00:00 | |
| AA1-15 | 2026-09-01 00:15:43 | 50.73964 | 5.82489 | 0° | 0km/h | 28141m | 0m/s | -273.1°C | 0.8% | 18.5hPa | 3.8V | 00:00:00 | 00:00:00 | 00:00:00 | |
| BIOWL1-15 | 2026-09-01 00:15:42 | 50.73964 | 5.82486 | 205° | 9km/h | 28186m | -24m/s | -273.1°C | 0.8% | 18.4hPa | 3.8V | 00:00:00 | 00:00:00 | 00:00:00 | |
| DL1XH1-15 | 2026-09-01 00:15:42 | 50.73964 | 5.82489 | 357° | 9km/h | 28141m | -24.4m/s | -273.1°C | 0.7% | 18.5hPa | 3.8V | 00:00:00 | 01:49:04 | 00:00:00 | |
| DL1XH-west | 2026-09-01 00:15:39 | 50.73966 | 5.82487 | 0° | 0km/h | 28210m | 0m/s | -273.1°C | 0.8% | 18.3hPa | 3.8V | 00:00:00 | 00:00:00 | 00:00:00 | |
| GOEST3-10 | 2026-09-01 00:15:39 | 50.73964 | 5.82486 | 206° | 11km/h | 28186m | -26.2m/s | 0°C | 0.7% | 18.3hPa | 3.7V | 00:00:00 | 00:00:00 | 00:00:00 | |
| GOEST3-10 | 2026-09-01 00:15:34 | 50.73974 | 5.82469 | 197° | 9km/h | 28315m | -27.8m/s | 0°C | 0.7% | 18.0hPa | 3.7V | 00:00:00 | 01:48:57 | 00:00:00 | |
| DL1XH1-15 | 2026-09-01 00:15:32 | 50.73980 | 5.82468 | 290° | 9km/h | 28399m | -27.4m/s | -273.1°C | 0.7% | 17.9hPa | 3.8V | 00:00:00 | 01:48:54 | 00:00:00 | |
| DM0DOS-11 | 2026-09-01 00:15:30 | 50.73980 | 5.82469 | 279° | 9km/h | 28454m | -26.9m/s | -273.1°C | 0.7% | 17.7hPa | 3.8V | 00:00:00 | 01:48:52 | 00:00:00 | |
| BIOWL1-15 | 2026-09-01 00:15:30 | 50.73980 | 5.82473 | 338° | 4km/h | 28480m | -26m/s | -273.1°C | 0.8% | 17.7hPa | 3.8V | 00:00:00 | 00:00:00 | 00:00:00 | |
| DL1XH-west | 2026-09-01 00:15:23 | 50.73980 | 5.82465 | 0° | 0km/h | 28644m | 0m/s | -273.1°C | 0.8% | 17.3hPa | 3.8V | 00:00:00 | 00:00:00 | 00:00:00 | |
| DL1XH1-15 | 2026-09-01 00:15:22 | 50.73980 | 5.82460 | 78° | 16km/h | 28669m | -27.9m/s | -273.1°C | 0.7% | 17.2hPa | 3.8V | 00:00:00 | 01:48:44 | 00:00:00 | |
| AA1-15 | 2026-09-01 00:15:20 | 50.73978 | 5.82449 | 0° | 0km/h | 28723m | 0m/s | -273.1°C | 0.8% | 17.1hPa | 3.8V | 00:00:00 | 00:00:00 | 00:00:00 | |
| DM0DOS-11 | 2026-09-01 00:15:20 | 50.73978 | 5.82449 | 90° | 16km/h | 28723m | -28.8m/s | -273.1°C | 0.7% | 17.1hPa | 3.8V | 00:00:00 | 01:48:42 | 00:00:00 | |
| AM1SDL-15 | 2026-09-01 00:15:20 | 50.73979 | 5.82454 | 84° | 15km/h | 28695m | -28.2m/s | 0°C | 0.7% | 17.1hPa | 3.8V | 00:00:00 | 01:48:43 | 00:00:00 | |
| DL1XH1-15 | 2026-09-01 00:15:17 | 50.73989 | 5.82401 | 135° | 11km/h | 28952m | -27.2m/s | -273.1°C | 0.7% | 16.6hPa | 3.8V | 00:00:00 | 01:48:34 | 00:00:00 | |
| DB0UT-7 | 2026-09-01 00:15:14 | 50.73984 | 5.82414 | 127° | 7km/h | 28868m | -27.4m/s | 0°C | 0.7% | 16.7hPa | 3.7V | 00:00:00 | 01:48:37 | 00:00:00 | |
| DM0DOS-11 | 2026-09-01 00:15:13 | 50.73991 | 5.82398 | 184° | 13km/h | 29008m | -27.1m/s | -273.1°C | 0.7% | 16.4hPa | 3.8V | 00:00:00 | 01:48:32 | 00:00:00 | |
| DL1XH-west | 2026-09-01 00:15:12 | 50.73991 | 5.82398 | 0° | 0km/h | 29008m | 0m/s | -273.1°C | 0.8% | 16.4hPa | 3.8V | 00:00:00 | 00:00:00 | 00:00:00 | |
| AA1-15 | 2026-09-01 00:15:10 | 50.73995 | 5.82398 | 0° | 0km/h | 29033m | 0m/s | -273.1°C | 0.7% | 16.4hPa | 3.8V | 00:00:00 | 00:00:00 | 00:00:00 | |
| BIOWL1-15 | 2026-09-01 00:15:09 | 50.74010 | 5.82410 | 209° | 11km/h | 29176m | -29m/s | -273.1°C | 0.7% | 16.1hPa | 3.8V | 00:00:00 | 00:00:00 | 00:00:00 | |
| AM1SDL-15 | 2026-09-01 00:15:08 | 50.73995 | 5.82398 | 205° | 7km/h | 29033m | -27.4m/s | 0°C | 0.7% | 16.3hPa | 3.7V | 00:00:00 | 01:48:31 | 00:00:00 | |
| DJ8HS-15 | 2026-09-01 00:15:06 | 50.74001 | 5.82400 | 209° | 7km/h | 29088m | -27.5m/s | 0°C | 0.7% | 16.2hPa | 3.8V | 00:00:00 | 01:48:29 | 00:00:00 | |
| DL1XH1-15 | 2026-09-01 00:15:05 | 50.74011 | 5.82411 | 38° | 5km/h | 29263m | -22.8m/s | -273.1°C | 0.7% | 15.9hPa | 3.8V | 00:00:00 | 01:48:23 | 00:00:00 | |
| DM0DOS-11 | 2026-09-01 00:15:02 | 50.74010 | 5.82410 | 90° | 5km/h | 29290m | -21.9m/s | -273.1°C | 0.7% | 15.8hPa | 3.8V | 00:00:00 | 01:48:22 | 00:00:00 | |
| DL1XH-west | 2026-09-01 00:14:59 | 50.74010 | 5.82408 | 0° | 0km/h | 29319m | 0m/s | -273.1°C | 0.7% | 15.8hPa | 3.8V | 00:00:00 | 00:00:00 | 00:00:00 | |
| BIOWL1-15 | 2026-09-01 00:14:55 | 50.74003 | 5.82393 | 127° | 5km/h | 29446m | 6m/s | -273.1°C | 0.7% | 15.4hPa | 3.8V | 00:00:00 | 00:00:00 | 00:00:00 | |
| DM0DOS-11 | 2026-09-01 00:14:51 | 50.74004 | 5.82392 | 171° | 5km/h | 29440m | 5m/s | -273.1°C | 0.7% | 15.5hPa | 3.8V | 00:00:00 | 01:48:12 | 00:00:00 | |
| AA1-15 | 2026-09-01 00:14:49 | 50.74004 | 5.82392 | 0° | 0km/h | 29436m | 0m/s | -273.1°C | 0.7% | 15.5hPa | 3.8V | 00:00:00 | 00:00:00 | 00:00:00 | |
| DL1XH-west | 2026-09-01 00:14:45 | 50.73997 | 5.82398 | 0° | 0km/h | 29415m | 0m/s | -273.1°C | 0.7% | 15.5hPa | 3.8V | 00:00:00 | 00:00:00 | 00:00:00 | |
| DL1XH1-15 | 2026-09-01 00:14:45 | 50.73996 | 5.82383 | 192° | 7km/h | 29389m | 5.1m/s | -273.1°C | 0.7% | 15.6hPa | 3.8V | 00:00:00 | 01:48:02 | 00:00:00 | |
| DB0UT-7 | 2026-09-01 00:14:44 | 50.73997 | 5.82398 | 38° | 9km/h | 29415m | 5.0m/s | 0°C | 0.7% | 15.5hPa | 3.8V | 00:00:00 | 00:00:00 | 00:00:00 | |
| DM0DOS-11 | 2026-09-01 00:14:41 | 50.73996 | 5.82383 | 192° | 7km/h | 29389m | 5.1m/s | -273.1°C | 0.7% | 15.6hPa | 3.8V | 00:00:00 | 01:48:02 | 00:00:00 | |
| BIOWL1-15 | 2026-09-01 00:14:41 | 50.73990 | 5.82383 | 90° | 13km/h | 29359m | 6m/s | -273.1°C | 0.7% | 15.6hPa | 3.8V | 00:00:00 | 00:00:00 | 00:00:00 | |
| AA1-15 | 2026-09-01 00:14:40 | 50.73998 | 5.82384 | 0° | 0km/h | 29384m | 0m/s | -273.1°C | 0.7% | 15.6hPa | 3.8V | 00:00:00 | 00:00:00 | 00:00:00 | |
| DL1XH-west | 2026-09-01 00:14:33 | 50.73992 | 5.82374 | 0° | 0km/h | 29348m | 0m/s | -273.1°C | 0.7% | 15.7hPa | 3.8V | 00:00:00 | 00:00:00 | 00:00:00 | |
| DL1XH1-15 | 2026-09-01 00:14:33 | 50.73994 | 5.82373 | 207° | 7km/h | 29343m | 5.3m/s | -273.1°C | 0.7% | 15.7hPa | 3.8V | 00:00:00 | 01:47:53 | 00:00:00 | |
| AA1-15 | 2026-09-01 00:14:28 | 50.73990 | 5.82379 | 0° | 0km/h | 29322m | 0m/s | -273.1°C | 0.7% | 15.7hPa | 3.8V | 00:00:00 | 00:00:00 | 00:00:00 | |
| BIOWL1-15 | 2026-09-01 00:14:27 | 50.73988 | 5.82379 | 358° | 7km/h | 29316m | 5m/s | -273.1°C | 0.7% | 15.7hPa | 3.8V | 00:00:00 | 00:00:00 | 00:00:00 | |
| DL1XH-west | 2026-09-01 00:14:22 | 50.73988 | 5.82373 | 0° | 0km/h | 29296m | 0m/s | -273.1°C | 0.7% | 15.8hPa | 3.8V | 00:00:00 | 00:00:00 | 00:00:00 | |
| DL1XH1-15 | 2026-09-01 00:14:22 | 50.73988 | 5.82371 | 227° | 7km/h | 29291m | 5.5m/s | -273.1°C | 0.7% | 15.8hPa | 3.8V | 00:00:00 | 01:47:43 | 00:00:00 | |
| DM0DOS-11 | 2026-09-01 00:14:21 | 50.73989 | 5.82372 | 287° | 9km/h | 29285m | 5.3m/s | -273.1°C | 0.7% | 15.8hPa | 3.8V | 00:00:00 | 01:47:42 | 00:00:00 | |
| AA1-15 | 2026-09-01 00:14:17 | 50.73980 | 5.82383 | 0° | 0km/h | 29264m | 0m/s | -273.1°C | 0.7% | 15.8hPa | 3.8V | 00:00:00 | 00:00:00 | 00:00:00 | |
| BIOWL1-15 | 2026-09-01 00:14:16 | 50.73979 | 5.82383 | 147° | 5km/h | 29248m | 5m/s | -273.1°C | 0.7% | 15.9hPa | 3.8V | 00:00:00 | 00:00:00 | 00:00:00 | |
| DL1XH-west | 2026-09-01 00:14:12 | 50.73980 | 5.82383 | 0° | 0km/h | 29237m | 0m/s | -273.1°C | 0.7% | 15.9hPa | 3.8V | 00:00:00 | 00:00:00 | 00:00:00 | |
| DM0DOS-11 | 2026-09-01 00:14:11 | 50.73978 | 5.82387 | 317° | 11km/h | 29231m | 5.2m/s | -273.1°C | 0.7% | 15.9hPa | 3.8V | 00:00:00 | 01:47:32 | 00:00:00 | |
| AA1-15 | 2026-09-01 00:14:06 | 50.73969 | 5.82399 | 0° | 0km/h | 29205m | 0m/s | -273.1°C | 0.6% | 15.9hPa | 3.8V | 00:00:00 | 00:00:00 | 00:00:00 | |
| DJ8HS-15 | 2026-09-01 00:14:06 | 50.73969 | 5.82399 | 320° | 9km/h | 29216m | 5.4m/s | 0°C | 0.5% | 15.9hPa | 3.8V | 00:00:00 | 01:47:29 | 00:00:00 | |
| DM0DOS-11 | 2026-09-01 00:14:04 | 50.73970 | 5.82410 | 290° | 9km/h | 29178m | 5.2m/s | -273.1°C | 0.7% | 16hPa | 3.8V | 00:00:00 | 01:47:22 | 00:00:00 | |
| BIOWL1-15 | 2026-09-01 00:14:02 | 50.73969 | 5.82415 | 298° | 5km/h | 29173m | 5m/s | -273.1°C | 0.7% | 16hPa | 3.8V | 00:00:00 | 00:00:00 | 00:00:00 | |
| DL1XH-west | 2026-09-01 00:14:01 | 50.73970 | 5.82410 | 0° | 0km/h | 29178m | 0m/s | -273.1°C | 0.7% | 16hPa | 3.8V | 00:00:00 | 00:00:00 | 00:00:00 | |
| AA1-15 | 2026-09-01 00:13:55 | 50.73971 | 5.82412 | 0° | 0km/h | 29147m | 0m/s | -273.1°C | 0.7% | 16.1hPa | 3.8V | 00:00:00 | 00:00:00 | 00:00:00 | |
| GOEST3-10 | 2026-09-01 00:13:54 | 50.73969 | 5.82412 | 177° | 9km/h | 29152m | 5.0m/s | 0°C | 0.7% | 16.0hPa | 3.8V | 00:00:00 | 00:00:00 | 00:00:00 | |
| DL1XH1-15 | 2026-09-01 00:13:52 | 50.73977 | 5.82423 | 270° | 7km/h | 29132m | 5.3m/s | -273.1°C | 0.7% | 16.1hPa | 3.8V | 00:00:00 | 01:47:13 | 00:00:00 | |
| BIOWL1-15 | 2026-09-01 00:13:49 | 50.73976 | 5.82429 | 50° | 2km/h | 29121m | 5m/s | -273.1°C | 0.7% | 16.1hPa | 3.8V | 00:00:00 | 00:00:00 | 00:00:00 | |
| AA1-15 | 2026-09-01 00:13:44 | 50.73981 | 5.82424 | 0° | 0km/h | 29095m | 0m/s | -273.1°C | 0.7% | 16.2hPa | 3.8V | 00:00:00 | 00:00:00 | 00:00:00 | |
| GOEST3-10 | 2026-09-01 00:13:44 | 50.73978 | 5.82423 | 194° | 9km/h | 29100m | 5.2m/s | 0°C | 0.7% | 16.1hPa | 3.7V | 00:00:00 | 00:00:00 | 00:00:00 | |
| AM1SDL-15 | 2026-09-01 00:13:43 | 50.73981 | 5.82424 | 211° | 11km/h | 29095m | 5.3m/s | 0°C | 0.7% | 16.1hPa | 3.8V | 00:00:00 | 01:47:06 | 00:00:00 | |
| DL1XH1-15 | 2026-09-01 00:13:42 | 50.73987 | 5.82433 | 244° | 9km/h | 29079m | 5.2m/s | -273.1°C | 0.7% | 16.2hPa | 3.8V | 00:00:00 | 01:47:03 | 00:00:00 | |
| BIOWL1-15 | 2026-09-01 00:13:39 | 50.74002 | 5.82417 | 153° | 11km/h | 29030m | 5m/s | -273.1°C | 0.7% | 16.3hPa | 3.8V | 00:00:00 | 00:00:00 | 00:00:00 | |
| DL1XH-west | 2026-09-01 00:13:38 | 50.73985 | 5.82431 | 0° | 0km/h | 29064m | 0m/s | -273.1°C | 0.7% | 16.2hPa | 3.8V | 00:00:00 | 00:00:00 | 00:00:00 | |
| AA1-15 | 2026-09-01 00:13:34 | 50.73998 | 5.82419 | 0° | 0km/h | 29036m | 0m/s | -273.1°C | 0.7% | 16.3hPa | 3.8V | 00:00:00 | 00:00:00 | 00:00:00 | |
| DM0DOS-11 | 2026-09-01 00:13:34 | 50.74004 | 5.82413 | 75° | 13km/h | 29019m | 5.4m/s | -273.1°C | 0.7% | 16.4hPa | 3.8V | 00:00:00 | 01:46:52 | 00:00:00 | |
| DL1XH1-15 | 2026-09-01 00:13:33 | 50.74004 | 5.82416 | 90° | 11km/h | 29025m | 5.5m/s | -273.1°C | 0.7% | 16.3hPa | 3.8V | 00:00:00 | 01:46:53 | 00:00:00 | |
| BIOWL1-15 | 2026-09-01 00:13:28 | 50.74012 | 5.82400 | 159° | 22km/h | 28997m | 5m/s | -273.1°C | 0.7% | 16.4hPa | 3.8V | 00:00:00 | 00:00:00 | 00:00:00 | |
| DL1XH-west | 2026-09-01 00:13:28 | 50.74004 | 5.82408 | 0° | 0km/h | 29009m | 0m/s | -273.1°C | 0.7% | 16.4hPa | 3.8V | 00:00:00 | 00:00:00 | 00:00:00 | |
| AA1-15 | 2026-09-01 00:13:23 | 50.74023 | 5.82390 | 0° | 0km/h | 28981m | 0m/s | -273.1°C | 0.7% | 16.4hPa | 3.8V | 00:00:00 | 00:00:00 | 00:00:00 | |
| GOEST3-10 | 2026-09-01 00:13:23 | 50.74021 | 5.82393 | 129° | 16km/h | 28987m | 5.5m/s | 0°C | 0.7% | 16.4hPa | 3.8V | 00:00:00 | 00:00:00 | 00:00:00 | |
| DM0DOS-11 | 2026-09-01 00:13:21 | 50.74024 | 5.82380 | 136° | 18km/h | 28965m | 5.5m/s | -273.1°C | 0.7% | 16.5hPa | 3.8V | 00:00:00 | 01:46:42 | 00:00:00 | |
| DL1XH-west | 2026-09-01 00:13:18 | 50.74031 | 5.82373 | 0° | 0km/h | 28954m | 0m/s | -273.1°C | 0.7% | 16.5hPa | 3.8V | 00:00:00 | 00:00:00 | 00:00:00 | |
| BIOWL1-15 | 2026-09-01 00:13:15 | 50.74043 | 5.82358 | 84° | 15km/h | 28938m | 6m/s | -273.1°C | 0.7% | 16.5hPa | 3.8V | 00:00:00 | 00:00:00 | 00:00:00 | |
| AA1-15 | 2026-09-01 00:13:13 | 50.74043 | 5.82341 | 0° | 0km/h | 28922m | 0m/s | -273.1°C | 0.7% | 16.6hPa | 3.8V | 00:00:00 | 00:00:00 | 00:00:00 | |
| DL1XH1-15 | 2026-09-01 00:13:12 | 50.74045 | 5.82335 | 121° | 22km/h | 28916m | 5.6m/s | -273.1°C | 0.7% | 16.6hPa | 3.8V | 00:00:00 | 01:46:33 | 00:00:00 | |
| DL1XH-west | 2026-09-01 00:13:07 | 50.74061 | 5.82309 | 0° | 0km/h | 28894m | 0m/s | -273.1°C | 0.7% | 16.6hPa | 3.8V | 00:00:00 | 00:00:00 | 00:00:00 | |
| BIOWL1-15 | 2026-09-01 00:13:04 | 50.74062 | 5.82286 | 112° | 24km/h | 28877m | 6m/s | -273.1°C | 0.7% | 16.7hPa | 3.8V | 00:00:00 | 00:00:00 | 00:00:00 | |
| DM0DOS-11 | 2026-09-01 00:13:02 | 50.74077 | 5.82248 | 96° | 22km/h | 28854m | 5.6m/s | -273.1°C | 0.7% | 16.7hPa | 3.8V | 00:00:00 | 01:46:22 | 00:00:00 | |
| AA1-15 | 2026-09-01 00:13:01 | 50.74073 | 5.82259 | 0° | 0km/h | 28859m | 0m/s | -273.1°C | 0.7% | 16.7hPa | 3.8V | 00:00:00 | 00:00:00 | 00:00:00 | |
| DL1XH-west | 2026-09-01 00:12:56 | 50.74076 | 5.82215 | 0° | 0km/h | 28832m | 0m/s | -273.1°C | 0.7% | 16.8hPa | 3.8V | 00:00:00 | 00:00:00 | 00:00:00 | |
| BIOWL1-15 | 2026-09-01 00:12:53 | 50.74086 | 5.82188 | 114° | 18km/h | 28815m | 5m/s | -273.1°C | 0.7% | 16.8hPa | 3.8V | 00:00:00 | 00:00:00 | 00:00:00 | |
| AA1-15 | 2026-09-01 00:12:51 | 50.74087 | 5.82174 | 0° | 0km/h | 28804m | 0m/s | -273.1°C | 0.7% | 16.8hPa | 3.8V | 00:00:00 | 00:00:00 | 00:00:00 | |
| DM0DOS-11 | 2026-09-01 00:12:50 | 50.74086 | 5.82168 | 62° | 22km/h | 28799m | 5.5m/s | -273.1°C | 0.7% | 16.8hPa | 3.8V | 00:00:00 | 01:46:12 | 00:00:00 | |
| DL1XH-west | 2026-09-01 00:12:44 | 50.74087 | 5.82113 | 0° | 0km/h | 28767m | 0m/s | -273.1°C | 0.7% | 16.9hPa | 3.8V | 00:00:00 | 00:00:00 | 00:00:00 | |
| AA1-15 | 2026-09-01 00:12:40 | 50.74081 | 5.82087 | 0° | 0km/h | 28744m | 0m/s | -273.1°C | 0.7% | 17hPa | 3.8V | 00:00:00 | 00:00:00 | 00:00:00 | |
| DM0DOS-11 | 2026-09-01 00:12:40 | 50.74081 | 5.82087 | 45° | 22km/h | 28744m | 5.7m/s | -273.1°C | 0.7% | 16.9hPa | 3.8V | 00:00:00 | 01:46:02 | 00:00:00 | |
| DL1XH-west | 2026-09-01 00:12:34 | 50.74076 | 5.82036 | 0° | 0km/h | 28710m | 0m/s | -273.1°C | 0.7% | 17hPa | 3.8V | 00:00:00 | 00:00:00 | 00:00:00 | |
| DL1XH1-15 | 2026-09-01 00:12:32 | 50.74068 | 5.82024 | 67° | 18km/h | 28693m | 5.3m/s | -273.1°C | 0.7% | 17.1hPa | 3.8V | 00:00:00 | 01:45:53 | 00:00:00 | |
| BIOWL1-15 | 2026-09-01 00:12:31 | 50.74068 | 5.82024 | 67° | 15km/h | 28693m | 5m/s | -273.1°C | 0.7% | 17.1hPa | 3.8V | 00:00:00 | 00:00:00 | 00:00:00 | |
| AA1-15 | 2026-09-01 00:12:30 | 50.74066 | 5.82019 | 0° | 0km/h | 28688m | 0m/s | -273.1°C | 0.7% | 17.1hPa | 3.8V | 00:00:00 | 00:00:00 | 00:00:00 | |
| DL1XH-west | 2026-09-01 00:12:24 | 50.74060 | 5.81983 | 0° | 0km/h | 28656m | 0m/s | -273.1°C | 0.7% | 17.2hPa | 3.8V | 00:00:00 | 00:00:00 | 00:00:00 | |
| DL1XH1-15 | 2026-09-01 00:12:22 | 50.74062 | 5.81967 | 112° | 13km/h | 28639m | 5.3m/s | -273.1°C | 0.7% | 17.2hPa | 3.8V | 00:00:00 | 01:45:43 | 00:00:00 | |
| BIOWL1-15 | 2026-09-01 00:12:20 | 50.74063 | 5.81948 | 37° | 9km/h | 28623m | 5m/s | -273.1°C | 0.7% | 17.2hPa | 3.8V | 00:00:00 | 00:00:00 | 00:00:00 | |
| AA1-15 | 2026-09-01 00:12:20 | 50.74065 | 5.81953 | 0° | 0km/h | 28629m | 0m/s | -273.1°C | 0.7% | 17.2hPa | 3.8V | 00:00:00 | 00:00:00 | 00:00:00 | |
| DL1XH-west | 2026-09-01 00:12:13 | 50.74063 | 5.81941 | 0° | 0km/h | 28596m | 0m/s | -273.1°C | 0.7% | 17.3hPa | 3.8V | 00:00:00 | 00:00:00 | 00:00:00 | |
| DL1XH1-15 | 2026-09-01 00:12:12 | 50.74068 | 5.81932 | 122° | 11km/h | 28585m | 5.1m/s | -273.1°C | 0.7% | 17.3hPa | 3.8V | 00:00:00 | 01:45:33 | 00:00:00 | |
| AA1-15 | 2026-09-01 00:12:09 | 50.74070 | 5.81924 | 0° | 0km/h | 28575m | 0m/s | -273.1°C | 0.7% | 17.4hPa | 3.8V | 00:00:00 | 00:00:00 | 00:00:00 | |
| BIOWL1-15 | 2026-09-01 00:12:08 | 50.74069 | 5.81921 | 20° | 9km/h | 28569m | 5m/s | -273.1°C | 0.7% | 17.4hPa | 3.8V | 00:00:00 | 00:00:00 | 00:00:00 | |
| DO3MHA-12 | 2026-09-01 00:12:07 | 50.74069 | 5.81921 | 7° | 9km/h | 28569m | 5.1m/s | 0°C | 0.7% | 17.3hPa | 3.8V | 00:00:00 | 01:45:30 | 00:00:00 | |
| DJ8HS-15 | 2026-09-01 00:12:06 | 50.74067 | 5.81919 | 345° | 11km/h | 28564m | 4.9m/s | 0°C | 0.7% | 17.3hPa | 3.8V | 00:00:00 | 01:45:29 | 00:00:00 | |
| DL1XH1-15 | 2026-09-01 00:12:04 | 50.74076 | 5.81924 | 127° | 9km/h | 28533m | 5.2m/s | -273.1°C | 0.7% | 17.4hPa | 3.8V | 00:00:00 | 01:45:23 | 00:00:00 | |
| DL1XH-west | 2026-09-01 00:12:03 | 50.74072 | 5.81926 | 0° | 0km/h | 28544m | 0m/s | -273.1°C | 0.7% | 17.4hPa | 3.8V | 00:00:00 | 00:00:00 | 00:00:00 | |
| GOEST3-10 | 2026-09-01 00:12:02 | 50.74071 | 5.81926 | 177° | 9km/h | 28544m | 5.2m/s | 0°C | 0.7% | 17.4hPa | 3.8V | 00:00:00 | 00:00:00 | 00:00:00 | |
| DM0DOS-11 | 2026-09-01 00:12:00 | 50.74077 | 5.81921 | 90° | 9km/h | 28528m | 5.2m/s | -273.1°C | 0.7% | 17.4hPa | 3.8V | 00:00:00 | 01:45:22 | 00:00:00 | |
| AA1-15 | 2026-09-01 00:11:59 | 50.74077 | 5.81918 | 0° | 0km/h | 28523m | 0m/s | -273.1°C | 0.7% | 17.5hPa | 3.8V | 00:00:00 | 00:00:00 | 00:00:00 | |
| BIOWL1-15 | 2026-09-01 00:11:57 | 50.74084 | 5.81935 | 179° | 13km/h | 28491m | 5m/s | -273.1°C | 0.7% | 17.5hPa | 3.8V | 00:00:00 | 00:00:00 | 00:00:00 | |
| GOEST3-10 | 2026-09-01 00:11:57 | 50.74075 | 5.81920 | 262° | 11km/h | 28512m | 5.1m/s | 0°C | 0.7% | 17.5hPa | 3.7V | 00:00:00 | 01:45:19 | 00:00:00 | |
| DO3MHA-12 | 2026-09-01 00:11:56 | 50.74075 | 5.81920 | 217° | 11km/h | 28512m | 5.1m/s | 0°C | 0.7% | 17.5hPa | 3.8V | 00:00:00 | 01:45:19 | 00:00:00 | |
| DL1XH1-15 | 2026-09-01 00:11:54 | 50.74089 | 5.81934 | 157° | 9km/h | 28481m | 5.2m/s | -273.1°C | 0.7% | 17.6hPa | 3.8V | 00:00:00 | 01:45:13 | 00:00:00 | |
| DL1XH-west | 2026-09-01 00:11:52 | 50.74088 | 5.81935 | 0° | 0km/h | 28486m | 0m/s | -273.1°C | 0.7% | 17.6hPa | 3.8V | 00:00:00 | 00:00:00 | 00:00:00 | |
| GOEST3-10 | 2026-09-01 00:11:51 | 50.74088 | 5.81934 | 161° | 11km/h | 28486m | 5.1m/s | 0°C | 0.7% | 17.5hPa | 3.8V | 00:00:00 | 00:00:00 | 00:00:00 | |
| DM0DOS-11 | 2026-09-01 00:11:50 | 50.74091 | 5.81933 | 270° | 11km/h | 28476m | 5.3m/s | -273.1°C | 0.7% | 17.6hPa | 3.8V | 00:00:00 | 01:45:12 | 00:00:00 | |
| AA1-15 | 2026-09-01 00:11:49 | 50.74090 | 5.81938 | 0° | 0km/h | 28465m | 0m/s | -273.1°C | 0.7% | 17.6hPa | 3.8V | 00:00:00 | 00:00:00 | 00:00:00 | |
| BIOWL1-15 | 2026-09-01 00:11:45 | 50.74094 | 5.81956 | 204° | 18km/h | 28450m | 6m/s | -273.1°C | 0.7% | 17.6hPa | 3.8V | 00:00:00 | 00:00:00 | 00:00:00 | |
| DL1XH1-15 | 2026-09-01 00:11:44 | 50.74105 | 5.81959 | 219° | 9km/h | 28429m | 5.4m/s | -273.1°C | 0.7% | 17.7hPa | 3.8V | 00:00:00 | 01:45:03 | 00:00:00 | |
| DL1XH-west | 2026-09-01 00:11:42 | 50.74104 | 5.81959 | 0° | 0km/h | 28434m | 0m/s | -273.1°C | 0.7% | 17.7hPa | 3.8V | 00:00:00 | 00:00:00 | 00:00:00 | |
| DM0DOS-11 | 2026-09-01 00:11:40 | 50.74106 | 5.81960 | 270° | 9km/h | 28423m | 5.2m/s | -273.1°C | 0.7% | 17.7hPa | 3.8V | 00:00:00 | 01:45:02 | 00:00:00 | |
| AA1-15 | 2026-09-01 00:11:37 | 50.74107 | 5.81968 | 0° | 0km/h | 28407m | 0m/s | -273.1°C | 0.7% | 17.8hPa | 3.8V | 00:00:00 | 00:00:00 | 00:00:00 | |
| BIOWL1-15 | 2026-09-01 00:11:37 | 50.74126 | 5.81966 | 205° | 4km/h | 28366m | 5m/s | -273.1°C | 0.7% | 17.8hPa | 3.8V | 00:00:00 | 00:00:00 | 00:00:00 | |
| DO3MHA-12 | 2026-09-01 00:11:36 | 50.74107 | 5.81968 | 228° | 11km/h | 28407m | 5.0m/s | 0°C | 0.7% | 17.7hPa | 3.8V | 00:00:00 | 01:44:59 | 00:00:00 | |
| GOEST3-10 | 2026-09-01 00:11:35 | 50.74110 | 5.81972 | 205° | 11km/h | 28402m | 5.1m/s | 0°C | 0.7% | 17.7hPa | 3.8V | 00:00:00 | 01:44:58 | 00:00:00 | |
| DL1XH1-15 | 2026-09-01 00:11:34 | 50.74125 | 5.81968 | 90° | 7km/h | 28377m | 5.3m/s | -273.1°C | 0.7% | 17.8hPa | 3.8V | 00:00:00 | 01:44:53 | 00:00:00 | |
| DL1XH-west | 2026-09-01 00:11:32 | 50.74125 | 5.81971 | 0° | 0km/h | 28382m | 0m/s | -273.1°C | 0.7% | 17.8hPa | 3.8V | 00:00:00 | 00:00:00 | 00:00:00 | |
| DM0DOS-11 | 2026-09-01 00:11:30 | 50.74125 | 5.81966 | 154° | 7km/h | 28371m | 5.1m/s | -273.1°C | 0.7% | 17.8hPa | 3.8V | 00:00:00 | 01:44:52 | 00:00:00 | |
| AA1-15 | 2026-09-01 00:11:26 | 50.74131 | 5.81970 | 0° | 0km/h | 28350m | 0m/s | -273.1°C | 0.7% | 17.9hPa | 3.8V | 00:00:00 | 00:00:00 | 00:00:00 | |
| DO3MHA-12 | 2026-09-01 00:11:26 | 50.74128 | 5.81968 | 175° | 9km/h | 28356m | 5.2m/s | 0°C | 0.7% | 17.8hPa | 3.7V | 00:00:00 | 01:44:49 | 00:00:00 | |
| GOEST3-10 | 2026-09-01 00:11:25 | 50.74131 | 5.81969 | 178° | 13km/h | 28350m | 5.0m/s | 0°C | 0.7% | 17.8hPa | 3.7V | 00:00:00 | 01:44:48 | 00:00:00 | |
| DL1XH1-15 | 2026-09-01 00:11:21 | 50.74144 | 5.81952 | 103° | 9km/h | 28324m | 5.1m/s | -273.1°C | 0.7% | 17.9hPa | 3.8V | 00:00:00 | 01:44:43 | 00:00:00 | |
| DL1XH-west | 2026-09-01 00:11:21 | 50.74144 | 5.81952 | 0° | 0km/h | 28324m | 0m/s | -273.1°C | 0.8% | 17.9hPa | 3.8V | 00:00:00 | 00:00:00 | 00:00:00 | |
| BIOWL1-15 | 2026-09-01 00:11:18 | 50.74147 | 5.81948 | 185° | 11km/h | 28308m | 4m/s | -273.1°C | 0.7% | 18hPa | 3.8V | 00:00:00 | 00:00:00 | 00:00:00 | |
| AA1-15 | 2026-09-01 00:11:16 | 50.74155 | 5.81943 | 0° | 0km/h | 28293m | 0m/s | -273.1°C | 0.7% | 18hPa | 3.8V | 00:00:00 | 00:00:00 | 00:00:00 | |
| GOEST3-10 | 2026-09-01 00:11:15 | 50.74153 | 5.81947 | 133° | 13km/h | 28299m | 5.3m/s | 0°C | 0.7% | 18.0hPa | 3.8V | 00:00:00 | 01:44:38 | 00:00:00 | |
| DM0DOS-11 | 2026-09-01 00:11:14 | 50.74157 | 5.81917 | 270° | 9km/h | 28268m | 5.2m/s | -273.1°C | 0.7% | 18.1hPa | 3.8V | 00:00:00 | 01:44:32 | 00:00:00 | |
| DL1XH1-15 | 2026-09-01 00:11:11 | 50.74158 | 5.81918 | 28° | 7km/h | 28273m | 5.1m/s | -273.1°C | 0.7% | 18.1hPa | 3.8V | 00:00:00 | 01:44:33 | 00:00:00 | |
| DL1XH-west | 2026-09-01 00:11:10 | 50.74157 | 5.81918 | 0° | 0km/h | 28263m | 0m/s | -273.1°C | 0.7% | 18.1hPa | 3.8V | 00:00:00 | 00:00:00 | 00:00:00 | |
| BIOWL1-15 | 2026-09-01 00:11:08 | 50.74165 | 5.81905 | 84° | 13km/h | 28242m | 5m/s | -273.1°C | 0.7% | 18.1hPa | 3.8V | 00:00:00 | 00:00:00 | 00:00:00 | |
| AA1-15 | 2026-09-01 00:11:04 | 50.74163 | 5.81896 | 0° | 0km/h | 28232m | 0m/s | -273.1°C | 0.7% | 18.2hPa | 3.8V | 00:00:00 | 00:00:00 | 00:00:00 | |
| DL1XH1-15 | 2026-09-01 00:11:01 | 50.74163 | 5.81890 | 220° | 9km/h | 28221m | 5.2m/s | -273.1°C | 0.7% | 18.2hPa | 3.8V | 00:00:00 | 01:44:23 | 00:00:00 | |
| DM0DOS-11 | 2026-09-01 00:11:00 | 50.74164 | 5.81890 | 231° | 9km/h | 28215m | 4.9m/s | -273.1°C | 0.7% | 18.2hPa | 3.8V | 00:00:00 | 01:44:22 | 00:00:00 | |
| DL1XH-west | 2026-09-01 00:10:59 | 50.74165 | 5.81893 | 0° | 0km/h | 28211m | 0m/s | -273.1°C | 0.7% | 18.2hPa | 3.8V | 00:00:00 | 00:00:00 | 00:00:00 | |
| BIOWL1-15 | 2026-09-01 00:10:56 | 50.74168 | 5.81880 | 61° | 13km/h | 28190m | 5m/s | -273.1°C | 0.8% | 18.3hPa | 3.8V | 00:00:00 | 00:00:00 | 00:00:00 | |
| AA1-15 | 2026-09-01 00:10:53 | 50.74165 | 5.81872 | 0° | 0km/h | 28174m | 0m/s | -273.1°C | 0.7% | 18.3hPa | 3.8V | 00:00:00 | 00:00:00 | 00:00:00 | |
| DM0DOS-11 | 2026-09-01 00:10:50 | 50.74166 | 5.81877 | 109° | 9km/h | 28165m | 5.3m/s | -273.1°C | 0.7% | 18.3hPa | 3.8V | 00:00:00 | 01:44:12 | 00:00:00 | |
| DL1XH-west | 2026-09-01 00:10:47 | 50.74166 | 5.81862 | 0° | 0km/h | 28149m | 0m/s | -273.1°C | 0.7% | 18.4hPa | 3.8V | 00:00:00 | 00:00:00 | 00:00:00 | |
| BIOWL1-15 | 2026-09-01 00:10:45 | 50.74164 | 5.81864 | 72° | 5km/h | 28122m | 5m/s | -273.1°C | 0.7% | 18.4hPa | 3.8V | 00:00:00 | 00:00:00 | 00:00:00 | |
| DM0DOS-11 | 2026-09-01 00:10:44 | 50.74163 | 5.81849 | 90° | 9km/h | 28107m | 5.5m/s | -273.1°C | 0.7% | 18.5hPa | 3.8V | 00:00:00 | 01:44:01 | 00:00:00 | |
| AA1-15 | 2026-09-01 00:10:42 | 50.74163 | 5.81862 | 0° | 0km/h | 28117m | 0m/s | -273.1°C | 0.7% | 18.5hPa | 3.8V | 00:00:00 | 00:00:00 | 00:00:00 | |
| DL1XH1-15 | 2026-09-01 00:10:41 | 50.74163 | 5.81849 | 56° | 9km/h | 28107m | 5.4m/s | -273.1°C | 0.7% | 18.5hPa | 3.8V | 00:00:00 | 01:44:01 | 00:00:00 | |
| DL1XH-west | 2026-09-01 00:10:36 | 50.74161 | 5.81849 | 0° | 0km/h | 28090m | 0m/s | -273.1°C | 0.7% | 18.5hPa | 3.8V | 00:00:00 | 00:00:00 | 00:00:00 | |
| BIOWL1-15 | 2026-09-01 00:10:32 | 50.74156 | 5.81834 | 68° | 13km/h | 28069m | 5m/s | -273.1°C | 0.7% | 18.6hPa | 3.8V | 00:00:00 | 00:00:00 | 00:00:00 | |
| AA1-15 | 2026-09-01 00:10:31 | 50.74154 | 5.81828 | 0° | 0km/h | 28058m | 0m/s | -273.1°C | 0.8% | 18.6hPa | 3.8V | 00:00:00 | 00:00:00 | 00:00:00 | |
| DM0DOS-11 | 2026-09-01 00:10:30 | 50.74153 | 5.81830 | 306° | 11km/h | 28053m | 5.3m/s | -273.1°C | 0.7% | 18.6hPa | 3.8V | 00:00:00 | 01:43:51 | 00:00:00 | |
| DL1XH-west | 2026-09-01 00:10:24 | 50.74149 | 5.81814 | 0° | 0km/h | 28027m | 0m/s | -273.1°C | 0.8% | 18.7hPa | 3.8V | 00:00:00 | 00:00:00 | 00:00:00 | |
| BIOWL1-15 | 2026-09-01 00:10:24 | 50.74144 | 5.81814 | 345° | 5km/h | 28011m | 5m/s | -273.1°C | 0.8% | 18.7hPa | 3.8V | 00:00:00 | 00:00:00 | 00:00:00 | |
| GOEST3-10 | 2026-09-01 00:10:22 | 50.74147 | 5.81810 | 329° | 13km/h | 28021m | 5.3m/s | 0°C | 0.7% | 18.6hPa | 3.7V | 00:00:00 | 01:43:45 | 00:00:00 | |
| DM0DOS-11 | 2026-09-01 00:10:21 | 50.74141 | 5.81810 | 80° | 15km/h | 28000m | 5.6m/s | -273.1°C | 0.7% | 18.7hPa | 3.8V | 00:00:00 | 01:43:41 | 00:00:00 | |
| AA1-15 | 2026-09-01 00:10:20 | 50.74141 | 5.81810 | 0° | 0km/h | 28000m | 0m/s | -273.1°C | 0.8% | 18.7hPa | 3.8V | 00:00:00 | 00:00:00 | 00:00:00 | |
| DL1XH-west | 2026-09-01 00:10:14 | 50.74131 | 5.81793 | 0° | 0km/h | 27967m | 0m/s | -273.1°C | 0.7% | 18.8hPa | 3.8V | 00:00:00 | 00:00:00 | 00:00:00 | |
| BIOWL1-15 | 2026-09-01 00:10:13 | 50.74117 | 5.81771 | 340° | 7km/h | 27929m | 4m/s | -273.1°C | 0.8% | 18.9hPa | 3.8V | 00:00:00 | 00:00:00 | 00:00:00 | |
| AA1-15 | 2026-09-01 00:10:09 | 50.74121 | 5.81769 | 0° | 0km/h | 27940m | 0m/s | -273.1°C | 0.8% | 18.9hPa | 3.8V | 00:00:00 | 00:00:00 | 00:00:00 | |
| DL1XH-west | 2026-09-01 00:10:03 | 50.74113 | 5.81769 | 0° | 0km/h | 27913m | 0m/s | -273.1°C | 0.7% | 19hPa | 3.8V | 00:00:00 | 00:00:00 | 00:00:00 | |
| GOEST3-10 | 2026-09-01 00:10:01 | 50.74111 | 5.81764 | 52° | 11km/h | 27908m | 5.0m/s | 0°C | 0.7% | 19.0hPa | 3.8V | 00:00:00 | 01:43:24 | 00:00:00 | |
| DM0DOS-11 | 2026-09-01 00:10:00 | 50.74105 | 5.81750 | 305° | 9km/h | 27893m | 5m/s | -273.1°C | 0.7% | 19hPa | 3.8V | 00:00:00 | 01:43:21 | 00:00:00 | |
| AA1-15 | 2026-09-01 00:09:59 | 50.74105 | 5.81751 | 0° | 0km/h | 27888m | 0m/s | -273.1°C | 0.8% | 19hPa | 3.8V | 00:00:00 | 00:00:00 | 00:00:00 | |
| BIOWL1-15 | 2026-09-01 00:09:58 | 50.74094 | 5.81757 | 33° | 18km/h | 27863m | 5m/s | -273.1°C | 0.8% | 19.1hPa | 3.8V | 00:00:00 | 00:00:00 | 00:00:00 | |
| DL1XH-west | 2026-09-01 00:09:52 | 50.74091 | 5.81753 | 0° | 0km/h | 27858m | 0m/s | -273.1°C | 0.8% | 19.1hPa | 3.8V | 00:00:00 | 00:00:00 | 00:00:00 | |
| DL1XH1-15 | 2026-09-01 00:09:52 | 50.74086 | 5.81760 | 331° | 13km/h | 27837m | 5.2m/s | -273.1°C | 0.7% | 19.2hPa | 3.8V | 00:00:00 | 01:43:10 | 00:00:00 | |
| DM0DOS-11 | 2026-09-01 00:09:50 | 50.74086 | 5.81757 | 270° | 11km/h | 27842m | 5.2m/s | -273.1°C | 0.7% | 19.1hPa | 3.8V | 00:00:00 | 01:43:11 | 00:00:00 | |
| AA1-15 | 2026-09-01 00:09:47 | 50.74084 | 5.81762 | 0° | 0km/h | 27832m | 0m/s | -273.1°C | 0.8% | 19.2hPa | 3.8V | 00:00:00 | 00:00:00 | 00:00:00 | |
| BIOWL1-15 | 2026-09-01 00:09:43 | 50.74068 | 5.81761 | 305° | 7km/h | 27811m | 6m/s | -273.1°C | 0.8% | 19.2hPa | 3.8V | 00:00:00 | 00:00:00 | 00:00:00 | |
| DL1XH1-15 | 2026-09-01 00:09:42 | 50.74063 | 5.81777 | 353° | 18km/h | 27785m | 5.3m/s | -273.1°C | 0.7% | 19.3hPa | 3.8V | 00:00:00 | 01:43:00 | 00:00:00 | |
| DL1XH-west | 2026-09-01 00:09:41 | 50.74068 | 5.81769 | 0° | 0km/h | 27800m | 0m/s | -273.1°C | 0.8% | 19.3hPa | 3.8V | 00:00:00 | 00:00:00 | 00:00:00 | |
| DM0DOS-11 | 2026-09-01 00:09:40 | 50.74067 | 5.81776 | 356° | 16km/h | 27790m | 5.2m/s | -273.1°C | 0.7% | 19.3hPa | 3.8V | 00:00:00 | 01:43:01 | 00:00:00 | |
| AA1-15 | 2026-09-01 00:09:37 | 50.74054 | 5.81779 | 0° | 0km/h | 27775m | 0m/s | -273.1°C | 0.8% | 19.3hPa | 3.8V | 00:00:00 | 00:00:00 | 00:00:00 | |
| BIOWL1-15 | 2026-09-01 00:09:32 | 50.74030 | 5.81825 | 274° | 20km/h | 27726m | 5m/s | -273.1°C | 0.8% | 19.5hPa | 3.8V | 00:00:00 | 00:00:00 | 00:00:00 | |
| DL1XH1-15 | 2026-09-01 00:09:32 | 50.74032 | 5.81816 | 290° | 18km/h | 27732m | 5.2m/s | -273.1°C | 0.7% | 19.4hPa | 3.8V | 00:00:00 | 01:42:50 | 00:00:00 | |
| DL1XH-west | 2026-09-01 00:09:32 | 50.74042 | 5.81807 | 0° | 0km/h | 27742m | 0m/s | -273.1°C | 0.8% | 19.4hPa | 3.8V | 00:00:00 | 00:00:00 | 00:00:00 | |
| DM0DOS-11 | 2026-09-01 00:09:31 | 50.74036 | 5.81810 | 317° | 20km/h | 27738m | 5.4m/s | -273.1°C | 0.7% | 19.4hPa | 3.8V | 00:00:00 | 01:42:51 | 00:00:00 | |
| AA1-15 | 2026-09-01 00:09:27 | 50.74030 | 5.81833 | 0° | 0km/h | 27721m | 0m/s | -273.1°C | 0.8% | 19.5hPa | 3.8V | 00:00:00 | 00:00:00 | 00:00:00 | |
| DJ8HS-15 | 2026-09-01 00:09:26 | 50.74030 | 5.81825 | 275° | 18km/h | 27726m | 4.9m/s | 0°C | 0.7% | 19.4hPa | 3.8V | 00:00:00 | 01:42:49 | 00:00:00 | |
| GOEST3-10 | 2026-09-01 00:09:23 | 50.74028 | 5.81842 | 321° | 20km/h | 27711m | 5.0m/s | 0°C | 0.7% | 19.5hPa | 3.8V | 00:00:00 | 00:00:00 | 00:00:00 | |
| DL1XH1-15 | 2026-09-01 00:09:22 | 50.74008 | 5.81879 | 275° | 15km/h | 27681m | 5.2m/s | -273.1°C | 0.7% | 19.6hPa | 3.8V | 00:00:00 | 01:42:40 | 00:00:00 | |
| DM0DOS-11 | 2026-09-01 00:09:20 | 50.74009 | 5.81869 | 280° | 16km/h | 27686m | 5.2m/s | -273.1°C | 0.7% | 19.6hPa | 3.8V | 00:00:00 | 01:42:41 | 00:00:00 | |
| DL1XH-west | 2026-09-01 00:09:19 | 50.74009 | 5.81869 | 0° | 0km/h | 27686m | 0m/s | -273.1°C | 0.8% | 19.6hPa | 3.8V | 00:00:00 | 00:00:00 | 00:00:00 | |
| BIOWL1-15 | 2026-09-01 00:09:18 | 50.74008 | 5.81885 | 289° | 9km/h | 27676m | 6m/s | -273.1°C | 0.8% | 19.6hPa | 3.8V | 00:00:00 | 00:00:00 | 00:00:00 | |
| AA1-15 | 2026-09-01 00:09:16 | 50.74006 | 5.81891 | 0° | 0km/h | 27665m | 0m/s | -273.1°C | 0.8% | 19.6hPa | 3.8V | 00:00:00 | 00:00:00 | 00:00:00 | |
| DB0UT-7 | 2026-09-01 00:09:14 | 50.74006 | 5.81891 | 325° | 16km/h | 27665m | 5.0m/s | 0°C | 0.7% | 19.6hPa | 3.7V | 00:00:00 | 01:42:37 | 00:00:00 | |
| GOEST3-10 | 2026-09-01 00:09:13 | 50.74003 | 5.81894 | 321° | 18km/h | 27660m | 5.0m/s | 0°C | 0.7% | 19.6hPa | 3.8V | 00:00:00 | 00:00:00 | 00:00:00 | |
| DL1XH1-15 | 2026-09-01 00:09:12 | 50.73988 | 5.81937 | 254° | 13km/h | 27630m | 5.3m/s | -273.1°C | 0.7% | 19.7hPa | 3.8V | 00:00:00 | 01:42:30 | 00:00:00 | |
| DM0DOS-11 | 2026-09-01 00:09:11 | 50.73987 | 5.81931 | 255° | 15km/h | 27635m | 5.3m/s | -273.1°C | 0.7% | 19.7hPa | 3.8V | 00:00:00 | 01:42:31 | 00:00:00 | |
| DL1XH-west | 2026-09-01 00:09:09 | 50.73987 | 5.81931 | 0° | 0km/h | 27635m | 0m/s | -273.1°C | 0.8% | 19.7hPa | 3.8V | 00:00:00 | 00:00:00 | 00:00:00 | |
| BIOWL1-15 | 2026-09-01 00:09:07 | 50.73989 | 5.81942 | 256° | 5km/h | 27624m | 5m/s | -273.1°C | 0.8% | 19.8hPa | 3.8V | 00:00:00 | 00:00:00 | 00:00:00 | |
| AA1-15 | 2026-09-01 00:09:06 | 50.73988 | 5.81947 | 0° | 0km/h | 27614m | 0m/s | -273.1°C | 0.7% | 19.8hPa | 3.8V | 00:00:00 | 00:00:00 | 00:00:00 | |
| GOEST3-10 | 2026-09-01 00:09:03 | 50.73986 | 5.81951 | 307° | 18km/h | 27609m | 5.3m/s | 0°C | 0.7% | 19.7hPa | 3.7V | 00:00:00 | 00:00:00 | 00:00:00 | |
| DL1XH1-15 | 2026-09-01 00:09:02 | 50.73984 | 5.81995 | 243° | 13km/h | 27577m | 5.1m/s | -273.1°C | 0.7% | 19.9hPa | 3.8V | 00:00:00 | 01:42:20 | 00:00:00 | |
| DM0DOS-11 | 2026-09-01 00:08:59 | 50.73981 | 5.81991 | 229° | 13km/h | 27583m | 5.3m/s | -273.1°C | 0.7% | 19.9hPa | 3.8V | 00:00:00 | 01:42:21 | 00:00:00 | |
| DL1XH-west | 2026-09-01 00:08:57 | 50.73985 | 5.81997 | 0° | 0km/h | 27572m | 0m/s | -273.1°C | 0.8% | 19.9hPa | 3.8V | 00:00:00 | 00:00:00 | 00:00:00 | |
| BIOWL1-15 | 2026-09-01 00:08:57 | 50.73984 | 5.82000 | 312° | 11km/h | 27567m | 5m/s | -273.1°C | 0.8% | 19.9hPa | 3.8V | 00:00:00 | 00:00:00 | 00:00:00 | |
| AA1-15 | 2026-09-01 00:08:55 | 50.73982 | 5.82003 | 0° | 0km/h | 27562m | 0m/s | -273.1°C | 0.8% | 19.9hPa | 3.8V | 00:00:00 | 00:00:00 | 00:00:00 | |
| GOEST3-10 | 2026-09-01 00:08:53 | 50.73980 | 5.82008 | 288° | 18km/h | 27557m | 5.3m/s | 0°C | 0.7% | 19.9hPa | 3.8V | 00:00:00 | 00:00:00 | 00:00:00 | |
| DL1XH1-15 | 2026-09-01 00:08:52 | 50.73988 | 5.82048 | 270° | 15km/h | 27525m | 5.2m/s | -273.1°C | 0.7% | 20hPa | 3.8V | 00:00:00 | 01:42:10 | 00:00:00 | |
| DM0DOS-11 | 2026-09-01 00:08:52 | 50.73986 | 5.82045 | 233° | 13km/h | 27530m | 5.1m/s | -273.1°C | 0.7% | 20hPa | 3.8V | 00:00:00 | 01:42:11 | 00:00:00 | |
| DL1XH-west | 2026-09-01 00:08:47 | 50.73986 | 5.82060 | 0° | 0km/h | 27510m | 0m/s | -273.1°C | 0.8% | 20.1hPa | 3.8V | 00:00:00 | 00:00:00 | 00:00:00 | |
| BIOWL1-15 | 2026-09-01 00:08:46 | 50.73990 | 5.82078 | 231° | 26km/h | 27499m | 5m/s | -273.1°C | 0.8% | 20.1hPa | 3.8V | 00:00:00 | 00:00:00 | 00:00:00 | |
| AA1-15 | 2026-09-01 00:08:45 | 50.73987 | 5.82069 | 0° | 0km/h | 27505m | 0m/s | -273.1°C | 0.8% | 20.1hPa | 3.8V | 00:00:00 | 00:00:00 | 00:00:00 | |
| DB0UT-7 | 2026-09-01 00:08:44 | 50.73986 | 5.82060 | 263° | 22km/h | 27510m | 5.2m/s | 0°C | 0.7% | 20.0hPa | 3.7V | 00:00:00 | 00:00:00 | 00:00:00 | |
| AM1SDL-15 | 2026-09-01 00:08:43 | 50.73987 | 5.82069 | 246° | 20km/h | 27505m | 5.3m/s | 0°C | 0.7% | 20.0hPa | 3.7V | 00:00:00 | 01:42:06 | 00:00:00 | |
| DL1XH1-15 | 2026-09-01 00:08:42 | 50.74006 | 5.82100 | 253° | 20km/h | 27473m | 5.1m/s | -273.1°C | 0.7% | 20.2hPa | 3.8V | 00:00:00 | 01:42:00 | 00:00:00 | |
| AA1-15 | 2026-09-01 00:08:34 | 50.74015 | 5.82132 | 0° | 0km/h | 27453m | 0m/s | -273.1°C | 0.8% | 20.2hPa | 3.8V | 00:00:00 | 00:00:00 | 00:00:00 | |
| BIOWL1-15 | 2026-09-01 00:08:34 | 50.74044 | 5.82176 | 229° | 26km/h | 27411m | 6m/s | -273.1°C | 0.8% | 20.3hPa | 3.8V | 00:00:00 | 00:00:00 | 00:00:00 | |
| BIOWL1-15 | 2026-09-01 00:08:24 | 50.74062 | 5.82194 | 187° | 22km/h | 27395m | 5m/s | -273.1°C | 0.8% | 20.4hPa | 3.8V | 00:00:00 | 00:00:00 | 00:00:00 | |
| AA1-15 | 2026-09-01 00:08:23 | 50.74068 | 5.82195 | 0° | 0km/h | 27390m | 0m/s | -273.1°C | 0.8% | 20.4hPa | 3.8V | 00:00:00 | 00:00:00 | 00:00:00 | |
| GOEST3-10 | 2026-09-01 00:08:22 | 50.74062 | 5.82194 | 187° | 20km/h | 27395m | 5.3m/s | 0°C | 0.7% | 20.3hPa | 3.8V | 00:00:00 | 00:00:00 | 00:00:00 | |
| DM0DOS-11 | 2026-09-01 00:08:19 | 50.74077 | 5.82203 | 233° | 24km/h | 27374m | 5.3m/s | -273.1°C | 0.7% | 20.4hPa | 3.8V | 00:00:00 | 01:41:41 | 00:00:00 | |
| BIOWL1-15 | 2026-09-01 00:08:13 | 50.74119 | 5.82238 | 221° | 16km/h | 27326m | 5m/s | -273.1°C | 0.8% | 20.6hPa | 3.8V | 00:00:00 | 00:00:00 | 00:00:00 | |
| DL1XH-west | 2026-09-01 00:08:13 | 50.74114 | 5.82234 | 0° | 0km/h | 27336m | 0m/s | -273.1°C | 0.8% | 20.5hPa | 3.8V | 00:00:00 | 00:00:00 | 00:00:00 | |
| AA1-15 | 2026-09-01 00:08:12 | 50.74117 | 5.82235 | 0° | 0km/h | 27331m | 0m/s | -273.1°C | 0.8% | 20.5hPa | 3.8V | 00:00:00 | 00:00:00 | 00:00:00 | |
| DL1XH1-15 | 2026-09-01 00:08:12 | 50.74126 | 5.82248 | 211° | 22km/h | 27316m | 5.2m/s | -273.1°C | 0.7% | 20.6hPa | 3.8V | 00:00:00 | 01:41:30 | 00:00:00 | |
| DM0DOS-11 | 2026-09-01 00:08:09 | 50.74122 | 5.82243 | 192° | 15km/h | 27321m | 5.2m/s | -273.1°C | 0.7% | 20.6hPa | 3.8V | 00:00:00 | 01:41:31 | 00:00:00 | |
| BIOWL1-15 | 2026-09-01 00:08:04 | 50.74174 | 5.82269 | 174° | 22km/h | 27259m | 5m/s | -273.1°C | 0.8% | 20.8hPa | 3.8V | 00:00:00 | 00:00:00 | 00:00:00 | |
| DL1XH-west | 2026-09-01 00:08:02 | 50.74158 | 5.82257 | 0° | 0km/h | 27280m | 0m/s | -273.1°C | 0.8% | 20.7hPa | 3.8V | 00:00:00 | 00:00:00 | 00:00:00 | |
| AA1-15 | 2026-09-01 00:08:01 | 50.74160 | 5.82260 | 0° | 0km/h | 27275m | 0m/s | -273.1°C | 0.8% | 20.7hPa | 3.8V | 00:00:00 | 00:00:00 | 00:00:00 | |
| DL1XH1-15 | 2026-09-01 00:07:58 | 50.74168 | 5.82267 | 187° | 15km/h | 27264m | 5.2m/s | -273.1°C | 0.7% | 20.8hPa | 3.8V | 00:00:00 | 01:41:20 | 00:00:00 | |
| DL1XH-west | 2026-09-01 00:07:52 | 50.74192 | 5.82277 | 0° | 0km/h | 27222m | 0m/s | -273.1°C | 0.8% | 20.9hPa | 3.8V | 00:00:00 | 00:00:00 | 00:00:00 | |
| AA1-15 | 2026-09-01 00:07:50 | 50.74197 | 5.82279 | 0° | 0km/h | 27217m | 0m/s | -273.1°C | 0.8% | 20.9hPa | 3.8V | 00:00:00 | 00:00:00 | 00:00:00 | |
| DM0DOS-11 | 2026-09-01 00:07:49 | 50.74201 | 5.82279 | 170° | 9km/h | 27212m | 5.2m/s | -273.1°C | 0.7% | 20.9hPa | 3.8V | 00:00:00 | 01:41:10 | 00:00:00 | |
| BIOWL1-15 | 2026-09-01 00:07:48 | 50.74206 | 5.82278 | 347° | 4km/h | 27201m | 5m/s | -273.1°C | 0.8% | 20.9hPa | 3.8V | 00:00:00 | 00:00:00 | 00:00:00 | |
| DL1XH-west | 2026-09-01 00:07:40 | 50.74223 | 5.82286 | 0° | 0km/h | 27167m | 0m/s | -273.1°C | 0.8% | 21hPa | 3.8V | 00:00:00 | 00:00:00 | 00:00:00 | |
| DM0DOS-11 | 2026-09-01 00:07:39 | 50.74226 | 5.82288 | 188° | 7km/h | 27161m | 5.3m/s | -273.1°C | 0.7% | 21hPa | 3.8V | 00:00:00 | 01:41:00 | 00:00:00 | |
| AA1-15 | 2026-09-01 00:07:39 | 50.74226 | 5.82288 | 0° | 0km/h | 27161m | 0m/s | -273.1°C | 0.8% | 21hPa | 3.8V | 00:00:00 | 00:00:00 | 00:00:00 | |
| BIOWL1-15 | 2026-09-01 00:07:36 | 50.74228 | 5.82288 | 9° | 2km/h | 27150m | 4m/s | -273.1°C | 0.8% | 21.1hPa | 3.8V | 00:00:00 | 00:00:00 | 00:00:00 | |
| DL1XH-west | 2026-09-01 00:07:30 | 50.74244 | 5.82308 | 0° | 0km/h | 27114m | 0m/s | -273.1°C | 0.8% | 21.2hPa | 3.8V | 00:00:00 | 00:00:00 | 00:00:00 | |
| AA1-15 | 2026-09-01 00:07:29 | 50.74244 | 5.82309 | 0° | 0km/h | 27107m | 0m/s | -273.1°C | 0.8% | 21.2hPa | 3.8V | 00:00:00 | 00:00:00 | 00:00:00 | |
| BIOWL1-15 | 2026-09-01 00:07:26 | 50.74257 | 5.82319 | 90° | 2km/h | 27075m | 7m/s | -273.1°C | 0.8% | 21.3hPa | 3.8V | 00:00:00 | 00:00:00 | 00:00:00 | |
| GOEST3-10 | 2026-09-01 00:07:21 | 50.74256 | 5.82319 | 91° | 9km/h | 27075m | 5.6m/s | 0°C | 0.7% | 21.2hPa | 3.8V | 00:00:00 | 00:00:00 | 00:00:00 | |
| DM0DOS-11 | 2026-09-01 00:07:19 | 50.74258 | 5.82314 | 208° | 11km/h | 27052m | 5.1m/s | -273.1°C | 0.7% | 21.4hPa | 3.8V | 00:00:00 | 01:40:40 | 00:00:00 | |
| DL1XH-west | 2026-09-01 00:07:19 | 50.74258 | 5.82314 | 0° | 0km/h | 27052m | 0m/s | -273.1°C | 0.8% | 21.4hPa | 3.8V | 00:00:00 | 00:00:00 | 00:00:00 | |
| AA1-15 | 2026-09-01 00:07:17 | 50.74260 | 5.82316 | 0° | 0km/h | 27047m | 0m/s | -273.1°C | 0.8% | 21.4hPa | 3.8V | 00:00:00 | 00:00:00 | 00:00:00 | |
| BIOWL1-15 | 2026-09-01 00:07:14 | 50.74266 | 5.82321 | 22° | 9km/h | 27016m | 4m/s | -273.1°C | 0.8% | 21.5hPa | 3.8V | 00:00:00 | 00:00:00 | 00:00:00 | |
| DB0UT-7 | 2026-09-01 00:07:14 | 50.74266 | 5.82322 | 180° | 9km/h | 27037m | 5.2m/s | 0°C | 0.7% | 21.4hPa | 3.8V | 00:00:00 | 01:40:37 | 00:00:00 | |
| GOEST3-10 | 2026-09-01 00:07:12 | 50.74268 | 5.82322 | 12° | 9km/h | 27021m | 5.1m/s | 0°C | 0.7% | 21.4hPa | 3.8V | 00:00:00 | 00:00:00 | 00:00:00 | |
| DM0DOS-11 | 2026-09-01 00:07:09 | 50.74265 | 5.82323 | 234° | 11km/h | 27000m | 5.4m/s | -273.1°C | 0.7% | 21.5hPa | 3.8V | 00:00:00 | 01:40:30 | 00:00:00 | |
| DL1XH-west | 2026-09-01 00:07:08 | 50.74265 | 5.82323 | 0° | 0km/h | 27000m | 0m/s | -273.1°C | 0.8% | 21.5hPa | 3.8V | 00:00:00 | 00:00:00 | 00:00:00 | |
| AA1-15 | 2026-09-01 00:07:07 | 50.74269 | 5.82327 | 0° | 0km/h | 26984m | 0m/s | -273.1°C | 0.8% | 21.6hPa | 3.8V | 00:00:00 | 00:00:00 | 00:00:00 | |
| BIOWL1-15 | 2026-09-01 00:07:03 | 50.74263 | 5.82324 | 264° | 15km/h | 26968m | 6m/s | -273.1°C | 0.8% | 21.6hPa | 3.8V | 00:00:00 | 00:00:00 | 00:00:00 | |
| DM0DOS-11 | 2026-09-01 00:07:02 | 50.74265 | 5.82333 | 60° | 9km/h | 26946m | 5.3m/s | -273.1°C | 0.7% | 21.7hPa | 3.8V | 00:00:00 | 01:40:20 | 00:00:00 | |
| DL1XH-west | 2026-09-01 00:06:58 | 50.74265 | 5.82333 | 0° | 0km/h | 26946m | 0m/s | -273.1°C | 0.8% | 21.7hPa | 3.8V | 00:00:00 | 00:00:00 | 00:00:00 | |
| AA1-15 | 2026-09-01 00:06:55 | 50.74258 | 5.82324 | 0° | 0km/h | 26925m | 0m/s | -273.1°C | 0.8% | 21.7hPa | 3.8V | 00:00:00 | 00:00:00 | 00:00:00 | |
| BIOWL1-15 | 2026-09-01 00:06:54 | 50.74257 | 5.82330 | 41° | 7km/h | 26914m | 6m/s | -273.1°C | 0.8% | 21.8hPa | 3.8V | 00:00:00 | 00:00:00 | 00:00:00 | |
| DM0DOS-11 | 2026-09-01 00:06:52 | 50.74249 | 5.82313 | 28° | 9km/h | 26892m | 5.6m/s | -273.1°C | 0.7% | 21.8hPa | 3.8V | 00:00:00 | 01:40:10 | 00:00:00 | |
| DL1XH-west | 2026-09-01 00:06:48 | 50.74248 | 5.82314 | 0° | 0km/h | 26880m | 0m/s | -273.1°C | 0.8% | 21.9hPa | 3.8V | 00:00:00 | 00:00:00 | 00:00:00 | |
| AA1-15 | 2026-09-01 00:06:45 | 50.74248 | 5.82315 | 0° | 0km/h | 26875m | 0m/s | -273.1°C | 0.8% | 21.9hPa | 3.8V | 00:00:00 | 00:00:00 | 00:00:00 | |
| DB0UT-7 | 2026-09-01 00:06:44 | 50.74248 | 5.82315 | 43° | 18km/h | 26875m | 5.4m/s | 0°C | 0.7% | 21.8hPa | 3.8V | 00:00:00 | 00:00:00 | 00:00:00 | |
| DM0DOS-11 | 2026-09-01 00:06:42 | 50.74236 | 5.82283 | 110° | 18km/h | 26837m | 5.1m/s | -273.1°C | 0.7% | 22hPa | 3.8V | 00:00:00 | 01:40:00 | 00:00:00 | |
| BIOWL1-15 | 2026-09-01 00:06:40 | 50.74235 | 5.82259 | 60° | 24km/h | 26822m | 5m/s | -273.1°C | 0.8% | 22.1hPa | 3.8V | 00:00:00 | 00:00:00 | 00:00:00 | |
| AA1-15 | 2026-09-01 00:06:35 | 50.74229 | 5.82246 | 0° | 0km/h | 26811m | 0m/s | -273.1°C | 0.8% | 22.1hPa | 3.8V | 00:00:00 | 00:00:00 | 00:00:00 | |
| BIOWL1-15 | 2026-09-01 00:06:28 | 50.74190 | 5.82170 | 64° | 35km/h | 26735m | 5m/s | -273.1°C | 0.8% | 22.3hPa | 3.8V | 00:00:00 | 00:00:00 | 00:00:00 | |
| AA1-15 | 2026-09-01 00:06:24 | 50.74207 | 5.82192 | 0° | 0km/h | 26757m | 0m/s | -273.1°C | 0.9% | 22.2hPa | 3.8V | 00:00:00 | 00:00:00 | 00:00:00 | |
| DL1XH-west | 2026-09-01 00:06:23 | 50.74203 | 5.82190 | 0° | 0km/h | 26752m | 0m/s | -273.1°C | 0.8% | 22.3hPa | 3.8V | 00:00:00 | 00:00:00 | 00:00:00 | |
| DL1XH1-15 | 2026-09-01 00:06:22 | 50.74186 | 5.82158 | 63° | 24km/h | 26730m | 5.4m/s | -273.1°C | 0.7% | 22.3hPa | 3.9V | 00:00:00 | 01:39:40 | 00:00:00 | |
| AA1-15 | 2026-09-01 00:06:13 | 50.74165 | 5.82121 | 0° | 0km/h | 26697m | 0m/s | -273.1°C | 0.8% | 22.4hPa | 3.8V | 00:00:00 | 00:00:00 | 00:00:00 | |
| DM0DOS-11 | 2026-09-01 00:06:12 | 50.74151 | 5.82089 | 49° | 16km/h | 26675m | 5.4m/s | -273.1°C | 0.7% | 22.5hPa | 3.8V | 00:00:00 | 01:39:30 | 00:00:00 | |
| DL1XH-west | 2026-09-01 00:06:11 | 50.74162 | 5.82115 | 0° | 0km/h | 26691m | 0m/s | -273.1°C | 0.8% | 22.5hPa | 3.8V | 00:00:00 | 00:00:00 | 00:00:00 | |
| AM1SDL-15 | 2026-09-01 00:06:08 | 50.74147 | 5.82081 | 49° | 13km/h | 26670m | 5.4m/s | 0°C | 0.7% | 22.5hPa | 3.9V | 00:00:00 | 01:39:29 | 00:00:00 | |
| BIOWL1-15 | 2026-09-01 00:06:04 | 50.74089 | 5.82035 | 20° | 24km/h | 26556m | 5m/s | -273.1°C | 0.8% | 22.9hPa | 3.9V | 00:00:00 | 00:00:00 | 00:00:00 | |
| AA1-15 | 2026-09-01 00:06:02 | 50.74097 | 5.82037 | 0° | 0km/h | 26572m | 0m/s | -273.1°C | 0.8% | 22.9hPa | 3.8V | 00:00:00 | 00:00:00 | 00:00:00 | |
| DM0DOS-11 | 2026-09-01 00:06:02 | 50.74097 | 5.82037 | 313° | 13km/h | 26572m | 5.3m/s | -273.1°C | 0.7% | 22.9hPa | 3.8V | 00:00:00 | 01:39:11 | 00:00:00 | |
| DL1XH-west | 2026-09-01 00:06:01 | 50.74079 | 5.82030 | 0° | 0km/h | 26546m | 0m/s | -273.1°C | 0.8% | 22.9hPa | 3.8V | 00:00:00 | 00:00:00 | 00:00:00 | |
| GOEST3-10 | 2026-09-01 00:05:58 | 50.74121 | 5.82051 | 5° | 15km/h | 26626m | 5.4m/s | 0°C | 0.7% | 22.6hPa | 3.9V | 00:00:00 | 00:00:00 | 00:00:00 | |
| DM0DOS-11 | 2026-09-01 00:05:57 | 50.74078 | 5.82034 | 301° | 13km/h | 26534m | 5.4m/s | -273.1°C | 0.7% | 22.9hPa | 3.9V | 00:00:00 | 01:39:04 | 00:00:00 | |
| BIOWL1-15 | 2026-09-01 00:05:45 | 50.74077 | 5.82031 | 248° | 7km/h | 26540m | 6m/s | -273.1°C | 0.8% | 22.9hPa | 3.8V | 00:00:00 | 00:00:00 | 00:00:00 | |
| DL1XH-west | 2026-09-01 00:05:43 | 50.74078 | 5.82034 | 0° | 0km/h | 26534m | 0m/s | -273.1°C | 0.8% | 22.9hPa | 3.9V | 00:00:00 | 00:00:00 | 00:00:00 | |
| DL1XH1-15 | 2026-09-01 00:05:42 | 50.74061 | 5.82037 | 346° | 11km/h | 26500m | 5.3m/s | -273.1°C | 0.7% | 23.1hPa | 3.8V | 00:00:00 | 01:38:58 | 00:00:00 | |
| AA1-15 | 2026-09-01 00:05:41 | 50.74072 | 5.82035 | 0° | 0km/h | 26523m | 0m/s | -273.1°C | 0.8% | 23hPa | 3.9V | 00:00:00 | 00:00:00 | 00:00:00 | |
| BIOWL1-15 | 2026-09-01 00:05:33 | 50.74051 | 5.82035 | 12° | 20km/h | 26484m | 5m/s | -273.1°C | 0.8% | 23.1hPa | 3.9V | 00:00:00 | 00:00:00 | 00:00:00 | |
| DL1XH-west | 2026-09-01 00:05:31 | 50.74043 | 5.82032 | 0° | 0km/h | 26474m | 0m/s | -273.1°C | 0.8% | 23.1hPa | 3.9V | 00:00:00 | 00:00:00 | 00:00:00 | |
| AA1-15 | 2026-09-01 00:05:30 | 50.74041 | 5.82033 | 0° | 0km/h | 26462m | 0m/s | -273.1°C | 0.8% | 23.2hPa | 3.9V | 00:00:00 | 00:00:00 | 00:00:00 | |
| AM1SDL-15 | 2026-09-01 00:05:30 | 50.74041 | 5.82031 | 271° | 9km/h | 26468m | 5.5m/s | 0°C | 0.7% | 23.1hPa | 3.9V | 00:00:00 | 01:38:52 | 00:00:00 | |
| DM0DOS-11 | 2026-09-01 00:05:28 | 50.74030 | 5.82030 | 221° | 9km/h | 26423m | 5.5m/s | -273.1°C | 0.7% | 23.3hPa | 3.9V | 00:00:00 | 01:38:44 | 00:00:00 | |
| BIOWL1-15 | 2026-09-01 00:05:25 | 50.74032 | 5.82032 | 22° | 7km/h | 26418m | 6m/s | -273.1°C | 0.8% | 23.3hPa | 3.9V | 00:00:00 | 00:00:00 | 00:00:00 | |
| DL1XH-west | 2026-09-01 00:05:23 | 50.74021 | 5.82026 | 0° | 0km/h | 26396m | 0m/s | -273.1°C | 0.8% | 23.4hPa | 3.9V | 00:00:00 | 00:00:00 | 00:00:00 | |
| DL1XH1-15 | 2026-09-01 00:05:22 | 50.74020 | 5.82026 | 243° | 9km/h | 26390m | 5.6m/s | -273.1°C | 0.9% | 23.4hPa | 3.9V | 00:00:00 | 01:38:38 | 00:00:00 | |
| AA1-15 | 2026-09-01 00:05:20 | 50.74020 | 5.82026 | 0° | 0km/h | 26390m | 0m/s | -273.1°C | 0.9% | 23.4hPa | 3.9V | 00:00:00 | 00:00:00 | 00:00:00 | |
| AM1SDL-15 | 2026-09-01 00:05:19 | 50.74024 | 5.82027 | 18° | 7km/h | 26401m | 5.5m/s | 0°C | 0.9% | 23.3hPa | 3.9V | 00:00:00 | 01:38:40 | 00:00:00 | |
| DM0DOS-11 | 2026-09-01 00:05:16 | 50.74022 | 5.82033 | 17° | 11km/h | 26373m | 5.6m/s | -273.1°C | 0.7% | 23.5hPa | 3.9V | 00:00:00 | 01:38:35 | 00:00:00 | |
| BIOWL1-15 | 2026-09-01 00:05:10 | 50.74005 | 5.82020 | 39° | 11km/h | 26318m | 5m/s | -273.1°C | 0.9% | 23.7hPa | 3.9V | 00:00:00 | 00:00:00 | 00:00:00 | |
| DL1XH-west | 2026-09-01 00:05:10 | 50.74012 | 5.82025 | 0° | 0km/h | 26357m | 0m/s | -273.1°C | 0.9% | 23.5hPa | 3.9V | 00:00:00 | 00:00:00 | 00:00:00 | |
| DL1XH1-15 | 2026-09-01 00:05:08 | 50.74014 | 5.82027 | 144° | 9km/h | 26340m | 5.7m/s | -273.1°C | 0.9% | 23.6hPa | 3.9V | 00:00:00 | 01:38:29 | 00:00:00 | |
| AA1-15 | 2026-09-01 00:05:07 | 50.74013 | 5.82025 | 0° | 0km/h | 26328m | 0m/s | -273.1°C | 0.8% | 23.6hPa | 3.9V | 00:00:00 | 00:00:00 | 00:00:00 | |
| DJ8HS-15 | 2026-09-01 00:05:07 | 50.74014 | 5.82027 | 145° | 9km/h | 26340m | 5.7m/s | 0°C | 0.9% | 23.6hPa | 3.9V | 00:00:00 | 01:38:29 | 00:00:00 | |
| AM1SDL-15 | 2026-09-01 00:05:06 | 50.74014 | 5.82026 | 28° | 9km/h | 26334m | 5.6m/s | 0°C | 0.7% | 23.6hPa | 3.9V | 00:00:00 | 01:38:28 | 00:00:00 | |
| GOEST3-10 | 2026-09-01 00:05:05 | 50.74013 | 5.82025 | 26° | 9km/h | 26328m | 5.7m/s | 0°C | 0.7% | 23.6hPa | 3.9V | 00:00:00 | 00:00:00 | 00:00:00 | |
| DM0DOS-11 | 2026-09-01 00:05:04 | 50.74005 | 5.82020 | 38° | 9km/h | 26318m | 5.8m/s | -273.1°C | 0.9% | 23.7hPa | 3.9V | 00:00:00 | 01:38:25 | 00:00:00 | |
| DL1XH1-15 | 2026-09-01 00:05:01 | 50.73999 | 5.82011 | 6° | 7km/h | 26278m | 5.7m/s | -273.1°C | 0.9% | 23.8hPa | 3.9V | 00:00:00 | 01:38:18 | 00:00:00 | |
| DL1XH-west | 2026-09-01 00:05:00 | 50.74007 | 5.82017 | 0° | 0km/h | 26295m | 0m/s | -273.1°C | 0.9% | 23.7hPa | 3.9V | 00:00:00 | 00:00:00 | 00:00:00 | |
| GOEST3-10 | 2026-09-01 00:04:59 | 50.74006 | 5.82017 | 39° | 9km/h | 26295m | 5.7m/s | 0°C | 0.9% | 23.7hPa | 3.9V | 00:00:00 | 01:38:21 | 00:00:00 | |
| DM0DOS-11 | 2026-09-01 00:04:58 | 50.74002 | 5.82014 | 45° | 9km/h | 26261m | 5.7m/s | -273.1°C | 0.9% | 23.9hPa | 3.9V | 00:00:00 | 01:38:15 | 00:00:00 | |
| BIOWL1-15 | 2026-09-01 00:04:55 | 50.73999 | 5.82012 | 193° | 15km/h | 26266m | 5m/s | -273.1°C | 0.8% | 23.8hPa | 3.9V | 00:00:00 | 00:00:00 | 00:00:00 | |
| DL1XH-west | 2026-09-01 00:04:49 | 50.73996 | 5.82006 | 0° | 0km/h | 26232m | 0m/s | -273.1°C | 0.9% | 23.9hPa | 3.9V | 00:00:00 | 00:00:00 | 00:00:00 | |
| DL1XH1-15 | 2026-09-01 00:04:48 | 50.73998 | 5.82007 | 38° | 9km/h | 26227m | 5.6m/s | -273.1°C | 0.9% | 24hPa | 3.9V | 00:00:00 | 01:38:09 | 00:00:00 | |
| AA1-15 | 2026-09-01 00:04:46 | 50.73989 | 5.81998 | 0° | 0km/h | 26205m | 0m/s | -273.1°C | 0.9% | 24hPa | 3.9V | 00:00:00 | 00:00:00 | 00:00:00 | |
| BIOWL1-15 | 2026-09-01 00:04:46 | 50.73969 | 5.81961 | 148° | 7km/h | 26127m | 6m/s | -273.1°C | 0.9% | 24.3hPa | 3.9V | 00:00:00 | 00:00:00 | 00:00:00 | |
| GOEST3-10 | 2026-09-01 00:04:45 | 50.73991 | 5.82001 | 42° | 11km/h | 26210m | 5.4m/s | 0°C | 0.9% | 24.0hPa | 3.9V | 00:00:00 | 00:00:00 | 00:00:00 | |
| DL1XH1-15 | 2026-09-01 00:04:41 | 50.73981 | 5.81984 | 109° | 13km/h | 26166m | 5.5m/s | -273.1°C | 0.9% | 24.2hPa | 3.9V | 00:00:00 | 01:37:58 | 00:00:00 | |
| DL1XH-west | 2026-09-01 00:04:39 | 50.73982 | 5.81980 | 0° | 0km/h | 26160m | 0m/s | -273.1°C | 0.8% | 24.2hPa | 3.9V | 00:00:00 | 00:00:00 | 00:00:00 | |
| GOEST3-10 | 2026-09-01 00:04:38 | 50.73991 | 5.81992 | 15° | 13km/h | 26183m | 5.5m/s | 0°C | 0.9% | 24.1hPa | 3.9V | 00:00:00 | 01:38:01 | 00:00:00 | |
| DM0DOS-11 | 2026-09-01 00:04:36 | 50.73983 | 5.81974 | 35° | 15km/h | 26150m | 5.7m/s | -273.1°C | 0.9% | 24.2hPa | 3.9V | 00:00:00 | 01:37:55 | 00:00:00 | |
| AA1-15 | 2026-09-01 00:04:34 | 50.73980 | 5.81971 | 0° | 0km/h | 26144m | 0m/s | -273.1°C | 0.8% | 24.2hPa | 3.9V | 00:00:00 | 00:00:00 | 00:00:00 | |
| BIOWL1-15 | 2026-09-01 00:04:31 | 50.73969 | 5.81956 | 20° | 22km/h | 26110m | 5m/s | -273.1°C | 0.9% | 24.4hPa | 3.9V | 00:00:00 | 00:00:00 | 00:00:00 | |
| DL1XH1-15 | 2026-09-01 00:04:29 | 50.73972 | 5.81958 | 26° | 15km/h | 26116m | 5.6m/s | -273.1°C | 0.9% | 24.3hPa | 3.9V | 00:00:00 | 01:37:49 | 00:00:00 | |
| DL1XH-west | 2026-09-01 00:04:28 | 50.73971 | 5.81959 | 0° | 0km/h | 26121m | 0m/s | -273.1°C | 0.9% | 24.3hPa | 3.9V | 00:00:00 | 00:00:00 | 00:00:00 | |
| AA1-15 | 2026-09-01 00:04:23 | 50.73961 | 5.81949 | 0° | 0km/h | 26083m | 0m/s | -273.1°C | 0.9% | 24.4hPa | 3.9V | 00:00:00 | 00:00:00 | 00:00:00 | |
| DL1XH1-15 | 2026-09-01 00:04:22 | 50.73948 | 5.81942 | 123° | 13km/h | 26054m | 5.5m/s | -273.1°C | 0.9% | 24.6hPa | 3.9V | 00:00:00 | 01:37:38 | 00:00:00 | |
| BIOWL1-15 | 2026-09-01 00:04:18 | 50.73940 | 5.81941 | 8° | 26km/h | 26037m | 5m/s | -273.1°C | 0.9% | 24.6hPa | 3.9V | 00:00:00 | 00:00:00 | 00:00:00 | |
| DL1XH-west | 2026-09-01 00:04:18 | 50.73949 | 5.81941 | 0° | 0km/h | 26050m | 0m/s | -273.1°C | 0.9% | 24.6hPa | 3.9V | 00:00:00 | 00:00:00 | 00:00:00 | |
| AA1-15 | 2026-09-01 00:04:12 | 50.73930 | 5.81938 | 0° | 0km/h | 26026m | 0m/s | -273.1°C | 0.9% | 24.7hPa | 3.9V | 00:00:00 | 00:00:00 | 00:00:00 | |
| DL1XH1-15 | 2026-09-01 00:04:08 | 50.73920 | 5.81936 | 7° | 20km/h | 26003m | 5.6m/s | -273.1°C | 0.9% | 24.7hPa | 3.9V | 00:00:00 | 01:37:29 | 00:00:00 | |
| DL1XH-west | 2026-09-01 00:04:07 | 50.73920 | 5.81936 | 0° | 0km/h | 26003m | 0m/s | -273.1°C | 0.9% | 24.7hPa | 3.9V | 00:00:00 | 00:00:00 | 00:00:00 | |
| BIOWL1-15 | 2026-09-01 00:04:06 | 50.73912 | 5.81934 | 358° | 22km/h | 25997m | 5m/s | -273.1°C | 0.9% | 24.8hPa | 3.9V | 00:00:00 | 00:00:00 | 00:00:00 | |
| DJ8HS-15 | 2026-09-01 00:04:06 | 50.73920 | 5.81936 | 8° | 20km/h | 26003m | 5.5m/s | 0°C | 0.9% | 24.7hPa | 3.9V | 00:00:00 | 01:37:29 | 00:00:00 | |
| DM0DOS-11 | 2026-09-01 00:04:04 | 50.73904 | 5.81937 | 354° | 20km/h | 25981m | 5.6m/s | -273.1°C | 0.7% | 24.8hPa | 3.9V | 00:00:00 | 01:37:25 | 00:00:00 | |
| DL1XH1-15 | 2026-09-01 00:04:02 | 50.73871 | 5.81933 | 314° | 18km/h | 25947m | 5.5m/s | -273.1°C | 0.9% | 24.9hPa | 3.9V | 00:00:00 | 01:37:19 | 00:00:00 | |
| AA1-15 | 2026-09-01 00:03:59 | 50.73882 | 5.81934 | 0° | 0km/h | 25959m | 0m/s | -273.1°C | 0.9% | 24.9hPa | 3.9V | 00:00:00 | 00:00:00 | 00:00:00 | |
| DL1XH-west | 2026-09-01 00:03:57 | 50.73870 | 5.81935 | 0° | 0km/h | 25941m | 0m/s | -273.1°C | 0.9% | 25hPa | 3.9V | 00:00:00 | 00:00:00 | 00:00:00 | |
| BIOWL1-15 | 2026-09-01 00:03:56 | 50.73838 | 5.81930 | 360° | 22km/h | 25914m | 7m/s | -273.1°C | 0.9% | 25.1hPa | 3.9V | 00:00:00 | 00:00:00 | 00:00:00 | |
| AA1-15 | 2026-09-01 00:03:49 | 50.73827 | 5.81932 | 0° | 0km/h | 25898m | 0m/s | -273.1°C | 0.9% | 25.1hPa | 3.9V | 00:00:00 | 00:00:00 | 00:00:00 | |
| DL1XH1-15 | 2026-09-01 00:03:48 | 50.73824 | 5.81933 | 4° | 24km/h | 25893m | 5.8m/s | -273.1°C | 0.9% | 25.1hPa | 3.9V | 00:00:00 | 01:37:09 | 00:00:00 | |
| DL1XH-west | 2026-09-01 00:03:47 | 50.73801 | 5.81933 | 0° | 0km/h | 25876m | 0m/s | -273.1°C | 0.9% | 25.2hPa | 3.9V | 00:00:00 | 00:00:00 | 00:00:00 | |
| BIOWL1-15 | 2026-09-01 00:03:45 | 50.73799 | 5.81934 | 3° | 9km/h | 25869m | 5m/s | -273.1°C | 0.9% | 25.2hPa | 3.9V | 00:00:00 | 00:00:00 | 00:00:00 | |
| DM0DOS-11 | 2026-09-01 00:03:45 | 50.73799 | 5.81934 | 351° | 16km/h | 25869m | 5.2m/s | -273.1°C | 0.9% | 25.2hPa | 3.9V | 00:00:00 | 01:37:05 | 00:00:00 | |
| AM1SDL-15 | 2026-09-01 00:03:44 | 50.73790 | 5.81932 | 7° | 18km/h | 25853m | 5.1m/s | 0°C | 0.9% | 25.2hPa | 3.9V | 00:00:00 | 01:37:02 | 00:00:00 | |
| DL1XH1-15 | 2026-09-01 00:03:42 | 50.73770 | 5.81930 | 354° | 15km/h | 25838m | 5.4m/s | -273.1°C | 0.9% | 25.3hPa | 3.9V | 00:00:00 | 01:36:59 | 00:00:00 | |
| AA1-15 | 2026-09-01 00:03:39 | 50.73775 | 5.81930 | 0° | 0km/h | 25844m | 0m/s | -273.1°C | 0.9% | 25.3hPa | 3.9V | 00:00:00 | 00:00:00 | 00:00:00 | |
| DM0DOS-11 | 2026-09-01 00:03:38 | 50.73750 | 5.81928 | 358° | 20km/h | 25811m | 5.3m/s | -273.1°C | 0.9% | 25.4hPa | 3.9V | 00:00:00 | 01:36:54 | 00:00:00 | |
| DL1XH-west | 2026-09-01 00:03:36 | 50.73768 | 5.81930 | 0° | 0km/h | 25832m | 0m/s | -273.1°C | 0.9% | 25.3hPa | 3.9V | 00:00:00 | 00:00:00 | 00:00:00 | |
| BIOWL1-15 | 2026-09-01 00:03:32 | 50.73714 | 5.81922 | 15° | 33km/h | 25769m | 5m/s | -273.1°C | 0.9% | 25.6hPa | 3.9V | 00:00:00 | 00:00:00 | 00:00:00 | |
| AA1-15 | 2026-09-01 00:03:27 | 50.73730 | 5.81927 | 0° | 0km/h | 25785m | 0m/s | -273.1°C | 0.9% | 25.5hPa | 3.9V | 00:00:00 | 00:00:00 | 00:00:00 | |
| DL1XH-west | 2026-09-01 00:03:25 | 50.73721 | 5.81925 | 0° | 0km/h | 25774m | 0m/s | -273.1°C | 0.9% | 25.6hPa | 3.9V | 00:00:00 | 00:00:00 | 00:00:00 | |
| DL1XH1-15 | 2026-09-01 00:03:22 | 50.73675 | 5.81905 | 16° | 24km/h | 25731m | 5.6m/s | -273.1°C | 0.9% | 25.7hPa | 3.9V | 00:00:00 | 01:36:39 | 00:00:00 | |
| GOEST3-10 | 2026-09-01 00:03:21 | 50.73573 | 5.81887 | 4° | 27km/h | 25644m | 5.7m/s | 0°C | 0.9% | 26.0hPa | 3.9V | 00:00:00 | 00:00:00 | 00:00:00 | |
| BIOWL1-15 | 2026-09-01 00:03:18 | 50.73628 | 5.81898 | 5° | 22km/h | 25693m | 7m/s | -273.1°C | 0.9% | 25.9hPa | 3.9V | 00:00:00 | 00:00:00 | 00:00:00 | |
| AA1-15 | 2026-09-01 00:03:17 | 50.73675 | 5.81905 | 0° | 0km/h | 25731m | 0m/s | -273.1°C | 0.9% | 25.7hPa | 3.9V | 00:00:00 | 00:00:00 | 00:00:00 | |
| GOEST3-10 | 2026-09-01 00:03:16 | 50.73532 | 5.81880 | 353° | 27km/h | 25615m | 5.4m/s | 0°C | 0.9% | 26.1hPa | 3.9V | 00:00:00 | 01:36:18 | 00:00:00 | |
| DL1XH-west | 2026-09-01 00:03:15 | 50.73661 | 5.81904 | 0° | 0km/h | 25714m | 0m/s | -273.1°C | 0.9% | 25.8hPa | 3.9V | 00:00:00 | 00:00:00 | 00:00:00 | |
| GOEST3-10 | 2026-09-01 00:03:13 | 50.73495 | 5.81879 | 3° | 27km/h | 25588m | 5.6m/s | 0°C | 0.9% | 26.2hPa | 3.9V | 00:00:00 | 00:00:00 | 00:00:00 | |
| AM1SDL-15 | 2026-09-01 00:03:10 | 50.73488 | 5.81878 | 360° | 27km/h | 25577m | 5.3m/s | 0°C | 0.9% | 26.2hPa | 3.9V | 00:00:00 | 01:36:11 | 00:00:00 | |
| DL1XH1-15 | 2026-09-01 00:03:09 | 50.73615 | 5.81898 | 12° | 31km/h | 25676m | 5.6m/s | -273.1°C | 0.9% | 25.9hPa | 3.9V | 00:00:00 | 01:36:29 | 00:00:00 | |
| BIOWL1-15 | 2026-09-01 00:03:08 | 50.73573 | 5.81887 | 4° | 29km/h | 25644m | 6m/s | -273.1°C | 0.9% | 26hPa | 3.9V | 00:00:00 | 00:00:00 | 00:00:00 | |
| AA1-15 | 2026-09-01 00:03:07 | 50.73607 | 5.81896 | 0° | 0km/h | 25670m | 0m/s | -273.1°C | 0.9% | 25.9hPa | 3.9V | 00:00:00 | 00:00:00 | 00:00:00 | |
| DM0DOS-11 | 2026-09-01 00:03:05 | 50.73581 | 5.81888 | 6° | 24km/h | 25653m | 5.2m/s | -273.1°C | 0.9% | 26hPa | 3.9V | 00:00:00 | 01:36:25 | 00:00:00 | |
| DL1XH-west | 2026-09-01 00:03:05 | 50.73532 | 5.81880 | 0° | 0km/h | 25615m | 0m/s | -273.1°C | 0.9% | 26.1hPa | 3.9V | 00:00:00 | 00:00:00 | 00:00:00 | |
| GOEST3-10 | 2026-09-01 00:03:04 | 50.73462 | 5.81880 | 347° | 26km/h | 25560m | 5.1m/s | 0°C | 0.9% | 26.3hPa | 3.9V | 00:00:00 | 01:36:08 | 00:00:00 | |
| DL1XH1-15 | 2026-09-01 00:03:03 | 50.73532 | 5.81880 | 352° | 26km/h | 25615m | 5.4m/s | -273.1°C | 0.9% | 26.1hPa | 3.9V | 00:00:00 | 01:36:18 | 00:00:00 | |
| DB0UT-7 | 2026-09-01 00:03:02 | 50.73455 | 5.81882 | 342° | 29km/h | 25555m | 5.2m/s | 0°C | 0.9% | 26.3hPa | 3.9V | 00:00:00 | 00:00:00 | 00:00:00 | |
| DM0DOS-11 | 2026-09-01 00:02:58 | 50.73502 | 5.81879 | 0° | 24km/h | 25594m | 5.7m/s | -273.1°C | 0.9% | 26.2hPa | 3.9V | 00:00:00 | 01:36:14 | 00:00:00 | |
| AA1-15 | 2026-09-01 00:02:57 | 50.73529 | 5.81880 | 0° | 0km/h | 25610m | 0m/s | -273.1°C | 0.9% | 26.2hPa | 3.9V | 00:00:00 | 00:00:00 | 00:00:00 | |
| DL1XH-west | 2026-09-01 00:02:53 | 50.73513 | 5.81879 | 0° | 0km/h | 25598m | 0m/s | -273.1°C | 0.9% | 26.2hPa | 3.9V | 00:00:00 | 00:00:00 | 00:00:00 | |
| BIOWL1-15 | 2026-09-01 00:02:52 | 50.73502 | 5.81879 | 1° | 27km/h | 25594m | 6m/s | -273.1°C | 0.9% | 26.2hPa | 3.9V | 00:00:00 | 00:00:00 | 00:00:00 | |
| DL1XH1-15 | 2026-09-01 00:02:49 | 50.73472 | 5.81879 | 355° | 27km/h | 25565m | 5.2m/s | -273.1°C | 0.9% | 26.3hPa | 3.9V | 00:00:00 | 01:36:09 | 00:00:00 | |
| GOEST3-10 | 2026-09-01 00:02:47 | 50.73399 | 5.81908 | 328° | 31km/h | 25509m | 5.1m/s | 0°C | 0.9% | 26.5hPa | 3.9V | 00:00:00 | 01:35:58 | 00:00:00 | |
| AM1SDL-15 | 2026-09-01 00:02:46 | 50.73395 | 5.81912 | 338° | 29km/h | 25504m | 5.0m/s | 0°C | 0.9% | 26.5hPa | 3.9V | 00:00:00 | 01:35:57 | 00:00:00 | |
| DM0DOS-11 | 2026-09-01 00:02:45 | 50.73447 | 5.81886 | 0° | 27km/h | 25544m | 5m/s | -273.1°C | 0.9% | 26.4hPa | 3.9V | 00:00:00 | 01:36:05 | 00:00:00 | |
| AA1-15 | 2026-09-01 00:02:44 | 50.73450 | 5.81885 | 0° | 0km/h | 25549m | 0m/s | -273.1°C | 0.9% | 26.4hPa | 3.9V | 00:00:00 | 00:00:00 | 00:00:00 | |
| GOEST3-10 | 2026-09-01 00:02:44 | 50.73363 | 5.81929 | 324° | 29km/h | 25484m | 5.3m/s | 0°C | 0.9% | 26.6hPa | 3.9V | 00:00:00 | 00:00:00 | 00:00:00 | |
| DL1XH-west | 2026-09-01 00:02:43 | 50.73404 | 5.81903 | 0° | 0km/h | 25514m | 0m/s | -273.1°C | 0.9% | 26.5hPa | 3.9V | 00:00:00 | 00:00:00 | 00:00:00 | |
| DL1XH1-15 | 2026-09-01 00:02:43 | 50.73399 | 5.81908 | 327° | 27km/h | 25509m | 5.1m/s | -273.1°C | 0.9% | 26.5hPa | 3.9V | 00:00:00 | 01:35:58 | 00:00:00 | |
| BIOWL1-15 | 2026-09-01 00:02:42 | 50.73373 | 5.81922 | 337° | 40km/h | 25488m | 4m/s | -273.1°C | 0.9% | 26.6hPa | 3.9V | 00:00:00 | 00:00:00 | 00:00:00 | |
| DM0DOS-11 | 2026-09-01 00:02:35 | 50.73383 | 5.81918 | 344° | 33km/h | 25493m | 5m/s | -273.1°C | 0.9% | 26.6hPa | 3.9V | 00:00:00 | 01:35:55 | 00:00:00 | |
| DJ8HS-15 | 2026-09-01 00:02:35 | 50.73346 | 5.81957 | 320° | 29km/h | 25463m | 5.2m/s | 0°C | 0.9% | 26.7hPa | 3.9V | 00:00:00 | 01:35:49 | 00:00:00 | |
| AA1-15 | 2026-09-01 00:02:34 | 50.73383 | 5.81918 | 0° | 0km/h | 25493m | 0m/s | -273.1°C | 0.9% | 26.6hPa | 3.9V | 00:00:00 | 00:00:00 | 00:00:00 | |
| GOEST3-10 | 2026-09-01 00:02:33 | 50.73341 | 5.81964 | 335° | 31km/h | 25458m | 5.1m/s | 0°C | 0.9% | 26.7hPa | 3.9V | 00:00:00 | 01:35:48 | 00:00:00 | |
| DL1XH-west | 2026-09-01 00:02:32 | 50.73353 | 5.81945 | 0° | 0km/h | 25473m | 0m/s | -273.1°C | 0.9% | 26.7hPa | 3.9V | 00:00:00 | 00:00:00 | 00:00:00 | |
| DL1XH1-15 | 2026-09-01 00:02:30 | 50.73341 | 5.81964 | 328° | 31km/h | 25458m | 5.2m/s | -273.1°C | 0.9% | 26.8hPa | 3.9V | 00:00:00 | 01:35:48 | 00:00:00 | |
| AM1SDL-15 | 2026-09-01 00:02:29 | 50.73319 | 5.81978 | 328° | 29km/h | 25443m | 5.3m/s | 0°C | 0.9% | 26.8hPa | 3.9V | 00:00:00 | 01:35:45 | 00:00:00 | |
| BIOWL1-15 | 2026-09-01 00:02:27 | 50.73346 | 5.81957 | 320° | 26km/h | 25463m | 5m/s | -273.1°C | 0.9% | 26.7hPa | 3.9V | 00:00:00 | 00:00:00 | 00:00:00 | |
| DM0DOS-11 | 2026-09-01 00:02:25 | 50.73319 | 5.81978 | 327° | 31km/h | 25443m | 5.3m/s | -273.1°C | 0.9% | 26.8hPa | 3.9V | 00:00:00 | 01:35:45 | 00:00:00 | |
| GOEST3-10 | 2026-09-01 00:02:25 | 50.73302 | 5.82009 | 297° | 26km/h | 25427m | 5.3m/s | 0°C | 0.9% | 26.8hPa | 3.9V | 00:00:00 | 00:00:00 | 00:00:00 | |
| AA1-15 | 2026-09-01 00:02:23 | 50.73311 | 5.81986 | 0° | 0km/h | 25438m | 0m/s | -273.1°C | 0.9% | 26.8hPa | 3.9V | 00:00:00 | 00:00:00 | 00:00:00 | |
| DL1XH1-15 | 2026-09-01 00:02:22 | 50.73287 | 5.82039 | 321° | 29km/h | 25405m | 5.2m/s | -273.1°C | 0.9% | 26.9hPa | 3.9V | 00:00:00 | 01:35:38 | 00:00:00 | |
| DL1XH-west | 2026-09-01 00:02:19 | 50.73299 | 5.82020 | 0° | 0km/h | 25422m | 0m/s | -273.1°C | 0.9% | 26.9hPa | 3.9V | 00:00:00 | 00:00:00 | 00:00:00 | |
| BIOWL1-15 | 2026-09-01 00:02:17 | 50.73279 | 5.82053 | 292° | 40km/h | 25395m | 6m/s | -273.1°C | 0.9% | 27hPa | 3.9V | 00:00:00 | 00:00:00 | 00:00:00 | |
| DM0DOS-11 | 2026-09-01 00:02:15 | 50.73275 | 5.82068 | 295° | 29km/h | 25389m | 5.1m/s | -273.1°C | 0.9% | 27hPa | 3.9V | 00:00:00 | 01:35:35 | 00:00:00 | |
| AM1SDL-15 | 2026-09-01 00:02:13 | 50.73267 | 5.82093 | 307° | 29km/h | 25379m | 5.4m/s | 0°C | 0.9% | 27.0hPa | 3.9V | 00:00:00 | 01:35:33 | 00:00:00 | |
| AA1-15 | 2026-09-01 00:02:11 | 50.73267 | 5.82093 | 0° | 0km/h | 25379m | 0m/s | -273.1°C | 0.9% | 27hPa | 3.9V | 00:00:00 | 00:00:00 | 00:00:00 | |
| DL1XH-west | 2026-09-01 00:02:10 | 50.73244 | 5.82166 | 0° | 0km/h | 25342m | 0m/s | -273.1°C | 0.9% | 27.2hPa | 3.9V | 00:00:00 | 00:00:00 | 00:00:00 | |
| GOEST3-10 | 2026-09-01 00:02:09 | 50.73261 | 5.82106 | 311° | 31km/h | 25368m | 5.3m/s | 0°C | 0.9% | 27.0hPa | 3.9V | 00:00:00 | 00:00:00 | 00:00:00 | |
| DL1XH1-15 | 2026-09-01 00:02:08 | 50.73250 | 5.82136 | 286° | 33km/h | 25352m | 5.4m/s | -273.1°C | 0.9% | 27.1hPa | 3.9V | 00:00:00 | 01:35:28 | 00:00:00 | |
| BIOWL1-15 | 2026-09-01 00:02:07 | 50.73247 | 5.82152 | 289° | 38km/h | 25347m | 5m/s | -273.1°C | 0.9% | 27.2hPa | 3.9V | 00:00:00 | 00:00:00 | 00:00:00 | |
| DM0DOS-11 | 2026-09-01 00:02:05 | 50.73241 | 5.82174 | 301° | 26km/h | 25335m | 5.2m/s | -273.1°C | 0.9% | 27.2hPa | 3.9V | 00:00:00 | 01:35:25 | 00:00:00 | |
| AA1-15 | 2026-09-01 00:02:02 | 50.73235 | 5.82198 | 0° | 0km/h | 25319m | 0m/s | -273.1°C | 0.9% | 27.3hPa | 3.9V | 00:00:00 | 00:00:00 | 00:00:00 | |
| DL1XH1-15 | 2026-09-01 00:02:02 | 50.73226 | 5.82253 | 307° | 27km/h | 25298m | 5.3m/s | -273.1°C | 0.9% | 27.3hPa | 3.9V | 00:00:00 | 01:35:18 | 00:00:00 | |
| DB0UT-7 | 2026-09-01 00:02:00 | 50.73210 | 5.82367 | 268° | 24km/h | 25239m | 5.1m/s | 0°C | 0.9% | 27.5hPa | 3.9V | 00:00:00 | 00:00:00 | 00:00:00 | |
| DL1XH-west | 2026-09-01 00:01:59 | 50.73232 | 5.82229 | 0° | 0km/h | 25309m | 0m/s | -273.1°C | 0.9% | 27.3hPa | 3.9V | 00:00:00 | 00:00:00 | 00:00:00 | |
| BIOWL1-15 | 2026-09-01 00:01:56 | 50.73213 | 5.82344 | 299° | 16km/h | 25255m | 5m/s | -273.1°C | 0.9% | 27.5hPa | 3.9V | 00:00:00 | 00:00:00 | 00:00:00 | |
| DM0DOS-11 | 2026-09-01 00:01:55 | 50.73217 | 5.82279 | 281° | 31km/h | 25282m | 5.3m/s | -273.1°C | 0.9% | 27.4hPa | 3.9V | 00:00:00 | 01:35:15 | 00:00:00 | |
| GOEST3-10 | 2026-09-01 00:01:53 | 50.73210 | 5.82428 | 272° | 22km/h | 25209m | 5.2m/s | 0°C | 0.9% | 27.7hPa | 3.9V | 00:00:00 | 00:00:00 | 00:00:00 | |
| DM0DOS-11 | 2026-09-01 00:01:48 | 50.73211 | 5.82395 | 267° | 24km/h | 25229m | 5.2m/s | -273.1°C | 0.9% | 27.6hPa | 3.9V | 00:00:00 | 01:35:05 | 00:00:00 | |
| DL1XH-west | 2026-09-01 00:01:48 | 50.73211 | 5.82350 | 0° | 0km/h | 25250m | 0m/s | -273.1°C | 0.9% | 27.5hPa | 3.9V | 00:00:00 | 00:00:00 | 00:00:00 | |
| DL1XH1-15 | 2026-09-01 00:01:48 | 50.73210 | 5.82357 | 270° | 27km/h | 25245m | 5.4m/s | -273.1°C | 0.9% | 27.6hPa | 3.9V | 00:00:00 | 01:35:08 | 00:00:00 | |
| BIOWL1-15 | 2026-09-01 00:01:43 | 50.73211 | 5.82409 | 270° | 22km/h | 25224m | 6m/s | -273.1°C | 0.9% | 27.6hPa | 3.9V | 00:00:00 | 00:00:00 | 00:00:00 | |
| GOEST3-10 | 2026-09-01 00:01:41 | 50.73214 | 5.82484 | 245° | 22km/h | 25177m | 5.2m/s | 0°C | 0.9% | 27.8hPa | 3.9V | 00:00:00 | 01:34:55 | 00:00:00 | |
| DL1XH-west | 2026-09-01 00:01:38 | 50.73209 | 5.82449 | 0° | 0km/h | 25198m | 0m/s | -273.1°C | 0.9% | 27.8hPa | 3.9V | 00:00:00 | 00:00:00 | 00:00:00 | |
| DJ8HS-15 | 2026-09-01 00:01:37 | 50.73220 | 5.82537 | 219° | 22km/h | 25145m | 5.1m/s | 0°C | 0.9% | 27.9hPa | 3.9V | 00:00:00 | 01:34:49 | 00:00:00 | |
| BIOWL1-15 | 2026-09-01 00:01:36 | 50.73261 | 5.82691 | 234° | 15km/h | 25044m | 6m/s | -273.1°C | 0.9% | 28.4hPa | 3.9V | 00:00:00 | 00:00:00 | 00:00:00 | |
| DM0DOS-11 | 2026-09-01 00:01:35 | 50.73214 | 5.82484 | 244° | 22km/h | 25177m | 5.3m/s | -273.1°C | 0.9% | 27.8hPa | 3.9V | 00:00:00 | 01:34:55 | 00:00:00 | |
| GOEST3-10 | 2026-09-01 00:01:30 | 50.73228 | 5.82575 | 237° | 22km/h | 25124m | 5.1m/s | 0°C | 0.9% | 28.0hPa | 3.9V | 00:00:00 | 01:34:45 | 00:00:00 | |
| AA1-15 | 2026-09-01 00:01:28 | 50.73236 | 5.82589 | 0° | 0km/h | 25113m | 0m/s | -273.1°C | 0.9% | 28.1hPa | 3.9V | 00:00:00 | 00:00:00 | 00:00:00 | |
| DL1XH-west | 2026-09-01 00:01:28 | 50.73240 | 5.82596 | 0° | 0km/h | 25104m | 0m/s | -273.1°C | 1% | 28.1hPa | 3.9V | 00:00:00 | 00:00:00 | 00:00:00 | |
| DL1XH1-15 | 2026-09-01 00:01:28 | 50.73222 | 5.82540 | 251° | 26km/h | 25141m | 5.5m/s | -273.1°C | 0.9% | 28hPa | 3.9V | 00:00:00 | 01:34:48 | 00:00:00 | |
| DL1XH1-15 | 2026-09-01 00:01:22 | 50.73245 | 5.82623 | 259° | 24km/h | 25088m | 5.4m/s | -273.1°C | 0.9% | 28.2hPa | 3.9V | 00:00:00 | 01:34:38 | 00:00:00 | |
| BIOWL1-15 | 2026-09-01 00:01:19 | 50.73263 | 5.82696 | 193° | 13km/h | 25038m | 5m/s | -273.1°C | 1% | 28.4hPa | 3.9V | 00:00:00 | 00:00:00 | 00:00:00 | |
| DB0UT-7 | 2026-09-01 00:01:18 | 50.73247 | 5.82636 | 235° | 18km/h | 25083m | 5.5m/s | 0°C | 0.9% | 28.2hPa | 3.9V | 00:00:00 | 01:34:37 | 00:00:00 | |
| DL1XH-west | 2026-09-01 00:01:16 | 50.73247 | 5.82636 | 0° | 0km/h | 25083m | 0m/s | -273.1°C | 0.9% | 28.2hPa | 3.9V | 00:00:00 | 00:00:00 | 00:00:00 | |
| GOEST3-10 | 2026-09-01 00:01:16 | 50.73255 | 5.82655 | 227° | 22km/h | 25066m | 5.5m/s | 0°C | 1.0% | 28.2hPa | 3.9V | 00:00:00 | 01:34:34 | 00:00:00 | |
| DM0DOS-11 | 2026-09-01 00:01:15 | 50.73257 | 5.82659 | 255° | 24km/h | 25061m | 5.7m/s | -273.1°C | 1% | 28.3hPa | 3.9V | 00:00:00 | 01:34:33 | 00:00:00 | |
| AA1-15 | 2026-09-01 00:01:14 | 50.73252 | 5.82652 | 0° | 0km/h | 25072m | 0m/s | -273.1°C | 1% | 28.3hPa | 3.9V | 00:00:00 | 00:00:00 | 00:00:00 | |
| AM1SDL-15 | 2026-09-01 00:01:12 | 50.73259 | 5.82668 | 257° | 20km/h | 25055m | 5.4m/s | 0°C | 0.9% | 28.3hPa | 3.9V | 00:00:00 | 01:34:32 | 00:00:00 | |
| DL1XH1-15 | 2026-09-01 00:01:08 | 50.73266 | 5.82698 | 196° | 20km/h | 25033m | 5.5m/s | -273.1°C | 0.9% | 28.4hPa | 3.9V | 00:00:00 | 01:34:28 | 00:00:00 | |
| DL1XH-west | 2026-09-01 00:01:07 | 50.73266 | 5.82698 | 0° | 0km/h | 25033m | 0m/s | -273.1°C | 0.9% | 28.4hPa | 3.9V | 00:00:00 | 00:00:00 | 00:00:00 | |
| BIOWL1-15 | 2026-09-01 00:01:06 | 50.73269 | 5.82699 | 246° | 22km/h | 25028m | 6m/s | -273.1°C | 0.9% | 28.4hPa | 3.9V | 00:00:00 | 00:00:00 | 00:00:00 | |
| AA1-15 | 2026-09-01 00:01:04 | 50.73273 | 5.82719 | 0° | 0km/h | 25016m | 0m/s | -273.1°C | 1% | 28.5hPa | 3.9V | 00:00:00 | 00:00:00 | 00:00:00 | |
| DM0DOS-11 | 2026-09-01 00:01:02 | 50.73279 | 5.82734 | 186° | 18km/h | 25005m | 5.3m/s | -273.1°C | 1% | 28.5hPa | 3.9V | 00:00:00 | 01:34:23 | 00:00:00 | |
| DL1XH1-15 | 2026-09-01 00:01:01 | 50.73301 | 5.82774 | 180° | 16km/h | 24967m | 5.1m/s | -273.1°C | 1% | 28.7hPa | 3.9V | 00:00:00 | 01:34:16 | 00:00:00 | |
| GOEST3-10 | 2026-09-01 00:01:00 | 50.73295 | 5.82759 | 239° | 16km/h | 24978m | 5.2m/s | 0°C | 1.0% | 28.6hPa | 3.9V | 00:00:00 | 00:00:00 | 00:00:00 | |
| DM0DOS-11 | 2026-09-01 00:00:56 | 50.73313 | 5.82776 | 237° | 16km/h | 24952m | 5.3m/s | -273.1°C | 1% | 28.7hPa | 3.9V | 00:00:00 | 01:34:13 | 00:00:00 | |
| BIOWL1-15 | 2026-09-01 00:00:56 | 50.73305 | 5.82774 | 179° | 18km/h | 24962m | 5m/s | -273.1°C | 1% | 28.7hPa | 3.9V | 00:00:00 | 00:00:00 | 00:00:00 | |
| AA1-15 | 2026-09-01 00:00:53 | 50.73313 | 5.82776 | 0° | 0km/h | 24952m | 0m/s | -273.1°C | 1% | 28.7hPa | 3.9V | 00:00:00 | 00:00:00 | 00:00:00 | |
| DJ8HS-15 | 2026-09-01 00:00:50 | 50.73321 | 5.82800 | 187° | 11km/h | 24931m | 5.2m/s | 0°C | 0.9% | 28.8hPa | 3.9V | 00:00:00 | 01:34:09 | 00:00:00 | |
| GOEST3-10 | 2026-09-01 00:00:49 | 50.73325 | 5.82801 | 155° | 13km/h | 24925m | 5.1m/s | 0°C | 1.0% | 28.8hPa | 3.9V | 00:00:00 | 00:00:00 | 00:00:00 | |
| DB0UT-7 | 2026-09-01 00:00:47 | 50.73329 | 5.82798 | 160° | 11km/h | 24921m | 5.2m/s | 0°C | 1.0% | 28.8hPa | 3.9V | 00:00:00 | 00:00:00 | 00:00:00 | |
| AM1SDL-15 | 2026-09-01 00:00:45 | 50.73331 | 5.82797 | 258° | 11km/h | 24916m | 5.3m/s | 0°C | 0.9% | 28.8hPa | 3.9V | 00:00:00 | 01:34:06 | 00:00:00 | |
| DL1XH1-15 | 2026-09-01 00:00:45 | 50.73331 | 5.82797 | 257° | 11km/h | 24916m | 5.4m/s | -273.1°C | 0.9% | 28.9hPa | 3.9V | 00:00:00 | 01:34:06 | 00:00:00 | |
| DL1XH-west | 2026-09-01 00:00:44 | 50.73333 | 5.82805 | 0° | 0km/h | 24904m | 0m/s | -273.1°C | 0.9% | 28.9hPa | 3.9V | 00:00:00 | 00:00:00 | 00:00:00 | |
| DM0DOS-11 | 2026-09-01 00:00:43 | 50.73334 | 5.82811 | 245° | 13km/h | 24900m | 5.2m/s | -273.1°C | 0.9% | 29hPa | 3.9V | 00:00:00 | 01:34:03 | 00:00:00 | |
| AA1-15 | 2026-09-01 00:00:43 | 50.73334 | 5.82811 | 0° | 0km/h | 24900m | 0m/s | -273.1°C | 0.9% | 29hPa | 3.9V | 00:00:00 | 00:00:00 | 00:00:00 | |
| GOEST3-10 | 2026-09-01 00:00:40 | 50.73335 | 5.82817 | 183° | 11km/h | 24895m | 5.1m/s | 0°C | 1.0% | 28.9hPa | 3.9V | 00:00:00 | 01:34:02 | 00:00:00 | |
| DL1XH1-15 | 2026-09-01 00:00:38 | 50.73346 | 5.82825 | 258° | 11km/h | 24864m | 5.3m/s | -273.1°C | 0.9% | 29.1hPa | 3.9V | 00:00:00 | 01:33:56 | 00:00:00 | |
| DM0DOS-11 | 2026-09-01 00:00:35 | 50.73349 | 5.82833 | 139° | 11km/h | 24848m | 5.2m/s | -273.1°C | 0.9% | 29.2hPa | 3.9V | 00:00:00 | 01:33:53 | 00:00:00 | |
| GOEST3-10 | 2026-09-01 00:00:34 | 50.73345 | 5.82819 | 260° | 11km/h | 24868m | 4.9m/s | 0°C | 0.9% | 29.0hPa | 3.9V | 00:00:00 | 00:00:00 | 00:00:00 | |
| DL1XH-west | 2026-09-01 00:00:34 | 50.73347 | 5.82831 | 0° | 0km/h | 24859m | 0m/s | -273.1°C | 1% | 29.1hPa | 3.9V | 00:00:00 | 00:00:00 | 00:00:00 | |
| AA1-15 | 2026-09-01 00:00:32 | 50.73347 | 5.82833 | 0° | 0km/h | 24853m | 0m/s | -273.1°C | 0.9% | 29.2hPa | 3.9V | 00:00:00 | 00:00:00 | 00:00:00 | |
| AM1SDL-15 | 2026-09-01 00:00:32 | 50.73349 | 5.82833 | 140° | 11km/h | 24848m | 5.1m/s | 0°C | 0.9% | 29.1hPa | 3.9V | 00:00:00 | 01:33:53 | 00:00:00 | |
| GOEST3-10 | 2026-09-01 00:00:30 | 50.73351 | 5.82830 | 152° | 13km/h | 24843m | 5.3m/s | 0°C | 0.9% | 29.2hPa | 3.9V | 00:00:00 | 01:33:52 | 00:00:00 | |
| DL1XH1-15 | 2026-09-01 00:00:28 | 50.73361 | 5.82845 | 108° | 9km/h | 24810m | 5.3m/s | -273.1°C | 1% | 29.3hPa | 3.9V | 00:00:00 | 01:33:46 | 00:00:00 | |
| GOEST3-10 | 2026-09-01 00:00:25 | 50.73364 | 5.82843 | 247° | 9km/h | 24788m | 5.1m/s | 0°C | 1.0% | 29.4hPa | 3.9V | 00:00:00 | 01:33:42 | 00:00:00 | |
| AM1SDL-15 | 2026-09-01 00:00:24 | 50.73366 | 5.82849 | 263° | 9km/h | 24783m | 5.3m/s | 0°C | 1.0% | 29.4hPa | 3.9V | 00:00:00 | 01:33:41 | 00:00:00 | |
| DL1XH-west | 2026-09-01 00:00:23 | 50.73371 | 5.82856 | 0° | 0km/h | 24751m | 0m/s | -273.1°C | 1% | 29.6hPa | 3.9V | 00:00:00 | 00:00:00 | 00:00:00 | |
| DM0DOS-11 | 2026-09-01 00:00:23 | 50.73363 | 5.82840 | 245° | 11km/h | 24794m | 5.3m/s | -273.1°C | 1% | 29.4hPa | 3.9V | 00:00:00 | 01:33:43 | 00:00:00 | |
| AA1-15 | 2026-09-01 00:00:22 | 50.73370 | 5.82853 | 0° | 0km/h | 24762m | 0m/s | -273.1°C | 1% | 29.6hPa | 3.9V | 00:00:00 | 00:00:00 | 00:00:00 | |
| DB0UT-7 | 2026-09-01 00:00:19 | 50.73370 | 5.82853 | 169° | 11km/h | 24762m | 5.2m/s | 0°C | 1.0% | 29.5hPa | 3.9V | 00:00:00 | 01:33:37 | 00:00:00 | |
| DM0DOS-11 | 2026-09-01 00:00:17 | 50.73371 | 5.82868 | 270° | 9km/h | 24742m | 5.7m/s | -273.1°C | 1% | 29.6hPa | 3.9V | 00:00:00 | 01:33:33 | 00:00:00 | |
| DL1XH-west | 2026-09-01 00:00:13 | 50.73371 | 5.82868 | 0° | 0km/h | 24742m | 0m/s | -273.1°C | 1% | 29.6hPa | 3.9V | 00:00:00 | 00:00:00 | 00:00:00 | |
| BIOWL1-15 | 2026-09-01 00:00:13 | 50.73373 | 5.82868 | 280° | 16km/h | 24713m | 4m/s | -273.1°C | 0.9% | 29.8hPa | 3.9V | 00:00:00 | 00:00:00 | 00:00:00 | |
| GOEST3-10 | 2026-09-01 00:00:10 | 50.73371 | 5.82869 | 125° | 11km/h | 24736m | 5.5m/s | 0°C | 1.0% | 29.6hPa | 3.9V | 00:00:00 | 01:33:32 | 00:00:00 | |
| AA1-15 | 2026-09-01 00:00:09 | 50.73374 | 5.82861 | 0° | 0km/h | 24725m | 0m/s | -273.1°C | 1% | 29.7hPa | 3.9V | 00:00:00 | 00:00:00 | 00:00:00 | |
| AM1SDL-15 | 2026-09-01 00:00:07 | 50.73374 | 5.82862 | 281° | 11km/h | 24719m | 5.3m/s | 0°C | 1.0% | 29.7hPa | 3.9V | 00:00:00 | 01:33:29 | 00:00:00 | |
| GOEST3-10 | 2026-09-01 00:00:04 | 50.73373 | 5.82875 | 299° | 11km/h | 24709m | 5.7m/s | 0°C | 1.0% | 29.7hPa | 3.9V | 00:00:00 | 00:00:00 | 00:00:00 | |
| DM0DOS-11 | 2026-09-01 00:00:03 | 50.73372 | 5.82870 | 289° | 13km/h | 24686m | 5.5m/s | -273.1°C | 1% | 29.9hPa | 3.9V | 00:00:00 | 01:33:23 | 00:00:00 | |
| DL1XH-west | 2026-09-01 00:00:02 | 50.73370 | 5.82875 | 0° | 0km/h | 24680m | 0m/s | -273.1°C | 1% | 29.9hPa | 3.9V | 00:00:00 | 00:00:00 | 00:00:00 | |
| GOEST3-10 | 2026-08-31 23:59:58 | 50.73368 | 5.82882 | 305° | 13km/h | 24675m | 5.4m/s | 0°C | 1.0% | 29.9hPa | 3.9V | 00:00:00 | 01:33:21 | 00:00:00 | |
| AA1-15 | 2026-08-31 23:59:57 | 50.73366 | 5.82883 | 0° | 0km/h | 24663m | 0m/s | -273.1°C | 1% | 30hPa | 3.9V | 00:00:00 | 00:00:00 | 00:00:00 | |
| BIOWL1-15 | 2026-08-31 23:59:56 | 50.73342 | 5.82889 | 51° | 15km/h | 24597m | 5m/s | -273.1°C | 1% | 30.3hPa | 3.9V | 00:00:00 | 00:00:00 | 00:00:00 | |
| DL1XH1-15 | 2026-08-31 23:59:55 | 50.73360 | 5.82888 | 312° | 13km/h | 24648m | 5.6m/s | -273.1°C | 1% | 30.1hPa | 3.9V | 00:00:00 | 01:33:16 | 00:00:00 | |
| DM0DOS-11 | 2026-08-31 23:59:54 | 50.73355 | 5.82887 | 58° | 13km/h | 24631m | 5.5m/s | -273.1°C | 1% | 30.1hPa | 3.9V | 00:00:00 | 01:33:13 | 00:00:00 | |
| GOEST3-10 | 2026-08-31 23:59:53 | 50.73360 | 5.82888 | 313° | 13km/h | 24648m | 5.5m/s | 0°C | 1.0% | 30.0hPa | 3.9V | 00:00:00 | 00:00:00 | 00:00:00 | |
| DL1XH-west | 2026-08-31 23:59:51 | 50.73355 | 5.82887 | 0° | 0km/h | 24631m | 0m/s | -273.1°C | 1% | 30.1hPa | 3.9V | 00:00:00 | 00:00:00 | 00:00:00 | |
| AM1SDL-15 | 2026-08-31 23:59:49 | 50.73353 | 5.82883 | 315° | 15km/h | 24627m | 5.7m/s | 0°C | 1.0% | 30.1hPa | 3.9V | 00:00:00 | 01:33:12 | 00:00:00 | |
| GOEST3-10 | 2026-08-31 23:59:48 | 50.73351 | 5.82886 | 314° | 15km/h | 24620m | 5.6m/s | 0°C | 1.0% | 30.1hPa | 3.9V | 00:00:00 | 01:33:11 | 00:00:00 | |
| AA1-15 | 2026-08-31 23:59:47 | 50.73346 | 5.82896 | 0° | 0km/h | 24609m | 0m/s | -273.1°C | 1% | 30.2hPa | 3.9V | 00:00:00 | 00:00:00 | 00:00:00 | |
| DJ8HS-15 | 2026-08-31 23:59:46 | 50.73345 | 5.82895 | 35° | 18km/h | 24609m | 5.7m/s | 0°C | 1.0% | 30.1hPa | 3.9V | 00:00:00 | 01:33:09 | 00:00:00 | |
| DB0UT-7 | 2026-08-31 23:59:44 | 50.73342 | 5.82889 | 52° | 16km/h | 24597m | 5.4m/s | 0°C | 1.0% | 30.2hPa | 3.9V | 00:00:00 | 00:00:00 | 00:00:00 | |
| GOEST3-10 | 2026-08-31 23:59:43 | 50.73340 | 5.82885 | 2° | 15km/h | 24592m | 5.5m/s | 0°C | 1.0% | 30.2hPa | 3.9V | 00:00:00 | 00:00:00 | 00:00:00 | |
| DM0DOS-11 | 2026-08-31 23:59:43 | 50.73332 | 5.82897 | 319° | 15km/h | 24576m | 5.6m/s | -273.1°C | 0.9% | 30.3hPa | 3.9V | 00:00:00 | 01:33:03 | 00:00:00 | |
| DL1XH-west | 2026-08-31 23:59:40 | 50.73330 | 5.82900 | 0° | 0km/h | 24570m | 0m/s | -273.1°C | 1% | 30.4hPa | 3.9V | 00:00:00 | 00:00:00 | 00:00:00 | |
| BIOWL1-15 | 2026-08-31 23:59:38 | 50.73324 | 5.82894 | 11° | 15km/h | 24559m | 6m/s | -273.1°C | 0.9% | 30.4hPa | 3.9V | 00:00:00 | 00:00:00 | 00:00:00 | |
| DL1XH1-15 | 2026-08-31 23:59:37 | 50.73308 | 5.82913 | 1° | 20km/h | 24532m | 5.4m/s | -273.1°C | 1% | 30.5hPa | 3.9V | 00:00:00 | 01:32:55 | 00:00:00 | |
| GOEST3-10 | 2026-08-31 23:59:37 | 50.73324 | 5.82894 | 11° | 18km/h | 24559m | 5.4m/s | 0°C | 0.9% | 30.4hPa | 3.9V | 00:00:00 | 01:33:00 | 00:00:00 | |
| AA1-15 | 2026-08-31 23:59:36 | 50.73318 | 5.82895 | 0° | 0km/h | 24547m | 0m/s | -273.1°C | 0.9% | 30.5hPa | 3.9V | 00:00:00 | 00:00:00 | 00:00:00 | |
| AM1SDL-15 | 2026-08-31 23:59:36 | 50.73321 | 5.82893 | 330° | 18km/h | 24553m | 5.2m/s | 0°C | 0.9% | 30.4hPa | 3.9V | 00:00:00 | 01:32:59 | 00:00:00 | |
| DM0DOS-11 | 2026-08-31 23:59:34 | 50.73299 | 5.82911 | 13° | 20km/h | 24521m | 5.2m/s | -273.1°C | 1% | 30.6hPa | 3.9V | 00:00:00 | 01:32:53 | 00:00:00 | |
| GOEST3-10 | 2026-08-31 23:59:31 | 50.73303 | 5.82913 | 13° | 20km/h | 24526m | 5.1m/s | 0°C | 1.0% | 30.5hPa | 3.9V | 00:00:00 | 00:00:00 | 00:00:00 | |
| DL1XH-west | 2026-08-31 23:59:30 | 50.73289 | 5.82909 | 0° | 0km/h | 24511m | 0m/s | -273.1°C | 1% | 30.6hPa | 3.9V | 00:00:00 | 00:00:00 | 00:00:00 | |
| BIOWL1-15 | 2026-08-31 23:59:27 | 50.73281 | 5.82923 | 354° | 15km/h | 24500m | 5.3m/s | -273.1°C | 1% | 30.7hPa | 3.9V | 00:00:00 | 00:00:00 | 00:00:00 | |
| AA1-15 | 2026-08-31 23:59:26 | 50.73274 | 5.82929 | 0° | 0km/h | 24489m | 0m/s | -273.1°C | 1% | 30.8hPa | 3.9V | 00:00:00 | 00:00:00 | 00:00:00 | |
| DL1XH1-15 | 2026-08-31 23:59:25 | 50.73266 | 5.82923 | 323° | 16km/h | 24479m | 5.4m/s | -273.1°C | 1% | 30.8hPa | 3.9V | 00:00:00 | 01:32:45 | 00:00:00 | |
| AM1SDL-15 | 2026-08-31 23:59:23 | 50.73269 | 5.82925 | 327° | 13km/h | 24484m | 5.2m/s | 0°C | 1.0% | 30.7hPa | 3.9V | 00:00:00 | 01:32:46 | 00:00:00 | |
| GOEST3-10 | 2026-08-31 23:59:20 | 50.73259 | 5.82934 | 310° | 15km/h | 24468m | 5.2m/s | 0°C | 1.0% | 30.8hPa | 3.9V | 00:00:00 | 00:00:00 | 00:00:00 | |
| DL1XH-west | 2026-08-31 23:59:19 | 50.73250 | 5.82939 | 0° | 0km/h | 24452m | 0m/s | -273.1°C | 1% | 30.9hPa | 3.9V | 00:00:00 | 00:00:00 | 00:00:00 | |
| DL1XH1-15 | 2026-08-31 23:59:17 | 50.73227 | 5.82953 | 351° | 11km/h | 24422m | 5.4m/s | -273.1°C | 1% | 31hPa | 3.9V | 00:00:00 | 01:32:34 | 00:00:00 | |
| AA1-15 | 2026-08-31 23:59:16 | 50.73240 | 5.82938 | 0° | 0km/h | 24437m | 0m/s | -273.1°C | 1% | 31hPa | 3.9V | 00:00:00 | 00:00:00 | 00:00:00 | |
| GOEST3-10 | 2026-08-31 23:59:15 | 50.73243 | 5.82935 | 336° | 13km/h | 24442m | 5.1m/s | 0°C | 1.0% | 30.9hPa | 3.9V | 00:00:00 | 01:32:38 | 00:00:00 | |
| DM0DOS-11 | 2026-08-31 23:59:15 | 50.73224 | 5.82953 | 39° | 11km/h | 24416m | 5.2m/s | -273.1°C | 1% | 31.1hPa | 3.9V | 00:00:00 | 01:32:33 | 00:00:00 | |
| DB0UT-7 | 2026-08-31 23:59:14 | 50.73240 | 5.82938 | 325° | 11km/h | 24437m | 5.2m/s | 0°C | 1.0% | 30.9hPa | 3.9V | 00:00:00 | 01:32:37 | 00:00:00 | |
| AM1SDL-15 | 2026-08-31 23:59:12 | 50.73227 | 5.82953 | 352° | 9km/h | 24422m | 5.2m/s | 0°C | 1.0% | 31.0hPa | 3.9V | 00:00:00 | 01:32:34 | 00:00:00 | |
| GOEST3-10 | 2026-08-31 23:59:10 | 50.73224 | 5.82953 | 40° | 11km/h | 24416m | 5.2m/s | 0°C | 1.0% | 31.0hPa | 3.9V | 00:00:00 | 00:00:00 | 00:00:00 | |
| DL1XH-west | 2026-08-31 23:59:08 | 50.73220 | 5.82945 | 0° | 0km/h | 24400m | 0m/s | -273.1°C | 1% | 31.1hPa | 3.9V | 00:00:00 | 00:00:00 | 00:00:00 | |
| DL1XH1-15 | 2026-08-31 23:59:06 | 50.73214 | 5.82949 | 11° | 9km/h | 24369m | 5.5m/s | -273.1°C | 1% | 31.3hPa | 3.9V | 00:00:00 | 01:32:24 | 00:00:00 | |
| AA1-15 | 2026-08-31 23:59:05 | 50.73214 | 5.82957 | 0° | 0km/h | 24379m | 0m/s | -273.1°C | 1% | 31.2hPa | 3.9V | 00:00:00 | 00:00:00 | 00:00:00 | |
| BIOWL1-15 | 2026-08-31 23:59:04 | 50.73214 | 5.82949 | 12° | 7km/h | 24369m | 6m/s | -273.1°C | 1% | 31.3hPa | 3.9V | 00:00:00 | 00:00:00 | 00:00:00 | |
| DM0DOS-11 | 2026-08-31 23:59:02 | 50.73212 | 5.82948 | 290° | 9km/h | 24363m | 5.4m/s | -273.1°C | 1% | 31.3hPa | 3.9V | 00:00:00 | 01:32:23 | 00:00:00 | |
| DL1XH-west | 2026-08-31 23:58:58 | 50.73209 | 5.82954 | 0° | 0km/h | 24341m | 0m/s | -273.1°C | 1% | 31.4hPa | 3.9V | 00:00:00 | 00:00:00 | 00:00:00 | |
| AA1-15 | 2026-08-31 23:58:54 | 50.73208 | 5.82943 | 0° | 0km/h | 24320m | 0m/s | -273.1°C | 1% | 31.5hPa | 3.9V | 00:00:00 | 00:00:00 | 00:00:00 | |
| BIOWL1-15 | 2026-08-31 23:58:53 | 50.73207 | 5.82945 | 111° | 9km/h | 24316m | 6m/s | -273.1°C | 1% | 31.5hPa | 3.9V | 00:00:00 | 00:00:00 | 00:00:00 | |
| DM0DOS-11 | 2026-08-31 23:58:52 | 50.73208 | 5.82942 | 107° | 15km/h | 24310m | 5.4m/s | -273.1°C | 1% | 31.6hPa | 3.9V | 00:00:00 | 01:32:13 | 00:00:00 | |
| DL1XH-west | 2026-08-31 23:58:46 | 50.73212 | 5.82930 | 0° | 0km/h | 24283m | 0m/s | -273.1°C | 1% | 31.7hPa | 3.9V | 00:00:00 | 00:00:00 | 00:00:00 | |
| DJ8HS-15 | 2026-08-31 23:58:46 | 50.73212 | 5.82932 | 91° | 11km/h | 24289m | 5.6m/s | 0°C | 1.0% | 31.6hPa | 3.9V | 00:00:00 | 01:32:09 | 00:00:00 | |
| DL1XH1-15 | 2026-08-31 23:58:45 | 50.73215 | 5.82918 | 289° | 11km/h | 24260m | 4.8m/s | -273.1°C | 1% | 31.8hPa | 3.9V | 00:00:00 | 01:32:04 | 00:00:00 | |
| AA1-15 | 2026-08-31 23:58:42 | 50.73215 | 5.82918 | 0° | 0km/h | 24260m | 0m/s | -273.1°C | 1% | 31.8hPa | 3.9V | 00:00:00 | 00:00:00 | 00:00:00 | |
| BIOWL1-15 | 2026-08-31 23:58:42 | 50.73213 | 5.82903 | 96° | 15km/h | 24214m | 5m/s | -273.1°C | 1% | 32hPa | 3.9V | 00:00:00 | 00:00:00 | 00:00:00 | |
| DL1XH-west | 2026-08-31 23:58:35 | 50.73215 | 5.82907 | 0° | 0km/h | 24225m | 0m/s | -273.1°C | 1% | 31.9hPa | 3.9V | 00:00:00 | 00:00:00 | 00:00:00 | |
| DL1XH1-15 | 2026-08-31 23:58:35 | 50.73214 | 5.82897 | 90° | 11km/h | 24209m | 4.8m/s | -273.1°C | 1% | 32hPa | 3.9V | 00:00:00 | 01:31:54 | 00:00:00 | |
| AA1-15 | 2026-08-31 23:58:32 | 50.73214 | 5.82892 | 0° | 0km/h | 24205m | 0m/s | -273.1°C | 1% | 32hPa | 3.9V | 00:00:00 | 00:00:00 | 00:00:00 | |
| GOEST3-10 | 2026-08-31 23:58:30 | 50.73214 | 5.82892 | 68° | 11km/h | 24205m | 5.1m/s | 0°C | 1.0% | 32.0hPa | 3.9V | 00:00:00 | 00:00:00 | 00:00:00 | |
| DJ8HS-15 | 2026-08-31 23:58:26 | 50.73212 | 5.82898 | 47° | 9km/h | 24185m | 5.2m/s | 0°C | 1.0% | 32.1hPa | 3.9V | 00:00:00 | 01:31:49 | 00:00:00 | |
| DL1XH1-15 | 2026-08-31 23:58:25 | 50.73204 | 5.82881 | 270° | 11km/h | 24158m | 4.9m/s | -273.1°C | 1% | 32.2hPa | 3.9V | 00:00:00 | 01:31:44 | 00:00:00 | |
| DL1XH-west | 2026-08-31 23:58:24 | 50.73206 | 5.82883 | 0° | 0km/h | 24169m | 0m/s | -273.1°C | 1% | 32.2hPa | 3.9V | 00:00:00 | 00:00:00 | 00:00:00 | |
| BIOWL1-15 | 2026-08-31 23:58:24 | 50.73204 | 5.82885 | 8° | 7km/h | 24154m | 5m/s | -273.1°C | 1% | 32.3hPa | 3.9V | 00:00:00 | 00:00:00 | 00:00:00 | |
| DM0DOS-11 | 2026-08-31 23:58:23 | 50.73204 | 5.82885 | 285° | 11km/h | 24154m | 5.2m/s | -273.1°C | 1% | 32.3hPa | 3.9V | 00:00:00 | 01:31:43 | 00:00:00 | |
| AA1-15 | 2026-08-31 23:58:21 | 50.73203 | 5.82887 | 0° | 0km/h | 24150m | 0m/s | -273.1°C | 1% | 32.3hPa | 3.9V | 00:00:00 | 00:00:00 | 00:00:00 | |
| AM1SDL-15 | 2026-08-31 23:58:20 | 50.73203 | 5.82885 | 35° | 9km/h | 24154m | 5.1m/s | 0°C | 1.0% | 32.2hPa | 3.9V | 00:00:00 | 01:31:43 | 00:00:00 | |
| DL1XH1-15 | 2026-08-31 23:58:15 | 50.73190 | 5.82869 | 70° | 9km/h | 24106m | 5m/s | -273.1°C | 1% | 32.5hPa | 3.9V | 00:00:00 | 01:31:34 | 00:00:00 | |
| BIOWL1-15 | 2026-08-31 23:58:14 | 50.73195 | 5.82877 | 38° | 11km/h | 24117m | 6m/s | -273.1°C | 1% | 32.4hPa | 3.9V | 00:00:00 | 00:00:00 | 00:00:00 | |
| DL1XH-west | 2026-08-31 23:58:14 | 50.73193 | 5.82874 | 0° | 0km/h | 24111m | 0m/s | -273.1°C | 1% | 32.5hPa | 3.9V | 00:00:00 | 00:00:00 | 00:00:00 | |
| DM0DOS-11 | 2026-08-31 23:58:12 | 50.73189 | 5.82864 | 90° | 7km/h | 24101m | 4.9m/s | -273.1°C | 1% | 32.5hPa | 3.9V | 00:00:00 | 01:31:33 | 00:00:00 | |
| AA1-15 | 2026-08-31 23:58:09 | 50.73190 | 5.82865 | 0° | 0km/h | 24091m | 0m/s | -273.1°C | 1% | 32.6hPa | 3.9V | 00:00:00 | 00:00:00 | 00:00:00 | |
| AM1SDL-15 | 2026-08-31 23:58:07 | 50.73192 | 5.82868 | 200° | 9km/h | 24086m | 4.9m/s | 0°C | 1.0% | 32.6hPa | 3.9V | 00:00:00 | 01:31:30 | 00:00:00 | |
| DJ8HS-15 | 2026-08-31 23:58:06 | 50.73193 | 5.82869 | 58° | 11km/h | 24081m | 4.8m/s | 0°C | 1.0% | 32.6hPa | 3.9V | 00:00:00 | 01:31:29 | 00:00:00 | |
| GOEST3-10 | 2026-08-31 23:58:05 | 50.73192 | 5.82867 | 57° | 11km/h | 24076m | 4.7m/s | 0°C | 1.0% | 32.6hPa | 3.9V | 00:00:00 | 01:31:28 | 00:00:00 | |
| DL1XH1-15 | 2026-08-31 23:58:04 | 50.73185 | 5.82866 | 263° | 9km/h | 24057m | 4.9m/s | -273.1°C | 1% | 32.7hPa | 3.9V | 00:00:00 | 01:31:24 | 00:00:00 | |
| DL1XH-west | 2026-08-31 23:58:03 | 50.73186 | 5.82861 | 0° | 0km/h | 24062m | 0m/s | -273.1°C | 1% | 32.7hPa | 3.9V | 00:00:00 | 00:00:00 | 00:00:00 | |
| DM0DOS-11 | 2026-08-31 23:58:02 | 50.73185 | 5.82872 | 259° | 9km/h | 24052m | 4.9m/s | -273.1°C | 1% | 32.8hPa | 3.9V | 00:00:00 | 01:31:23 | 00:00:00 | |
| AA1-15 | 2026-08-31 23:57:59 | 50.73183 | 5.82873 | 0° | 0km/h | 24037m | 0m/s | -273.1°C | 1% | 32.8hPa | 3.9V | 00:00:00 | 00:00:00 | 00:00:00 | |
| DL1XH1-15 | 2026-08-31 23:57:56 | 50.73183 | 5.82880 | 23° | 13km/h | 24007m | 5.2m/s | -273.1°C | 1% | 33hPa | 3.9V | 00:00:00 | 01:31:14 | 00:00:00 | |
| DL1XH-west | 2026-08-31 23:57:53 | 50.73184 | 5.82879 | 0° | 0km/h | 24013m | 0m/s | -273.1°C | 1% | 33hPa | 3.9V | 00:00:00 | 00:00:00 | 00:00:00 | |
| DM0DOS-11 | 2026-08-31 23:57:52 | 50.73180 | 5.82878 | 0° | 13km/h | 24002m | 5.3m/s | -273.1°C | 1% | 33hPa | 3.9V | 00:00:00 | 01:31:13 | 00:00:00 | |
| AA1-15 | 2026-08-31 23:57:48 | 50.73177 | 5.82888 | 0° | 0km/h | 23986m | 0m/s | -273.1°C | 1% | 33.1hPa | 3.9V | 00:00:00 | 00:00:00 | 00:00:00 | |
| DJ8HS-15 | 2026-08-31 23:57:46 | 50.73179 | 5.82894 | 289° | 16km/h | 23981m | 5.4m/s | 0°C | 1.0% | 33.1hPa | 3.9V | 00:00:00 | 01:31:09 | 00:00:00 | |
| DL1XH1-15 | 2026-08-31 23:57:45 | 50.73174 | 5.82911 | 251° | 16km/h | 23954m | 5.2m/s | -273.1°C | 1% | 33.2hPa | 3.9V | 00:00:00 | 01:31:04 | 00:00:00 | |
| DB0UT-7 | 2026-08-31 23:57:44 | 50.73176 | 5.82897 | 1° | 16km/h | 23969m | 4.9m/s | 0°C | 1.0% | 33.1hPa | 3.9V | 00:00:00 | 00:00:00 | 00:00:00 | |
| DM0DOS-11 | 2026-08-31 23:57:42 | 50.73176 | 5.82920 | 281° | 13km/h | 23950m | 5.6m/s | -273.1°C | 1% | 33.2hPa | 3.9V | 00:00:00 | 01:31:03 | 00:00:00 | |
| DL1XH-west | 2026-08-31 23:57:42 | 50.73174 | 5.82911 | 0° | 0km/h | 23954m | 0m/s | -273.1°C | 1% | 33.2hPa | 3.9V | 00:00:00 | 00:00:00 | 00:00:00 | |
| BIOWL1-15 | 2026-08-31 23:57:38 | 50.73171 | 5.82924 | 250° | 22km/h | 23934m | 7m/s | -273.1°C | 1% | 33.3hPa | 3.9V | 00:00:00 | 00:00:00 | 00:00:00 | |
| AA1-15 | 2026-08-31 23:57:38 | 50.73173 | 5.82933 | 0° | 0km/h | 23927m | 0m/s | -273.1°C | 1% | 33.4hPa | 3.9V | 00:00:00 | 00:00:00 | 00:00:00 | |
| GOEST3-10 | 2026-08-31 23:57:35 | 50.73176 | 5.82943 | 256° | 15km/h | 23922m | 5.2m/s | 0°C | 1.0% | 33.3hPa | 3.9V | 00:00:00 | 01:30:58 | 00:00:00 | |
| DL1XH1-15 | 2026-08-31 23:57:34 | 50.73172 | 5.82957 | 263° | 16km/h | 23901m | 5.3m/s | -273.1°C | 1% | 33.5hPa | 3.9V | 00:00:00 | 01:30:54 | 00:00:00 | |
| DL1XH-west | 2026-08-31 23:57:32 | 50.73172 | 5.82957 | 0° | 0km/h | 23901m | 0m/s | -273.1°C | 1% | 33.5hPa | 3.9V | 00:00:00 | 00:00:00 | 00:00:00 | |
| BIOWL1-15 | 2026-08-31 23:57:28 | 50.73180 | 5.82987 | 318° | 18km/h | 23875m | 6m/s | -273.1°C | 1% | 33.6hPa | 3.9V | 00:00:00 | 00:00:00 | 00:00:00 | |
| AA1-15 | 2026-08-31 23:57:27 | 50.73177 | 5.82992 | 0° | 0km/h | 23869m | 0m/s | -273.1°C | 1% | 33.7hPa | 3.9V | 00:00:00 | 00:00:00 | 00:00:00 | |
| DL1XH-west | 2026-08-31 23:57:21 | 50.73183 | 5.83018 | 0° | 0km/h | 23842m | 0m/s | -273.1°C | 1% | 33.8hPa | 3.9V | 00:00:00 | 00:00:00 | 00:00:00 | |
| BIOWL1-15 | 2026-08-31 23:57:18 | 50.73180 | 5.83034 | 229° | 18km/h | 23827m | 6m/s | -273.1°C | 1% | 33.9hPa | 3.9V | 00:00:00 | 00:00:00 | 00:00:00 | |
| AA1-15 | 2026-08-31 23:57:15 | 50.73193 | 5.83051 | 0° | 0km/h | 23806m | 0m/s | -273.1°C | 1% | 34hPa | 3.9V | 00:00:00 | 00:00:00 | 00:00:00 | |
| DB0UT-7 | 2026-08-31 23:57:14 | 50.73191 | 5.83048 | 228° | 13km/h | 23812m | 5.2m/s | 0°C | 1.0% | 33.9hPa | 3.9V | 00:00:00 | 01:30:37 | 00:00:00 | |
| DM0DOS-11 | 2026-08-31 23:57:12 | 50.73191 | 5.83066 | 233° | 16km/h | 23791m | 5.1m/s | -273.1°C | 1% | 34hPa | 3.9V | 00:00:00 | 01:30:33 | 00:00:00 | |
| DL1XH-west | 2026-08-31 23:57:11 | 50.73194 | 5.83071 | 0° | 0km/h | 23785m | 0m/s | -273.1°C | 1% | 34.1hPa | 3.9V | 00:00:00 | 00:00:00 | 00:00:00 | |
| BIOWL1-15 | 2026-08-31 23:57:10 | 50.73210 | 5.83094 | 270° | 9km/h | 23759m | 4m/s | -273.1°C | 1% | 34.2hPa | 3.9V | 00:00:00 | 00:00:00 | 00:00:00 | |
| NBG1-10 | 2026-08-31 23:57:08 | 50.73203 | 5.83079 | 233° | 13km/h | 23776m | 5.2m/s | 0°C | 1.0% | 34.1hPa | 3.9V | 00:00:00 | 01:30:30 | 00:00:00 | |
| AM1SDL-15 | 2026-08-31 23:57:07 | 50.73203 | 5.83079 | 238° | 13km/h | 23776m | 5.0m/s | 0°C | 1.0% | 34.1hPa | 3.9V | 00:00:00 | 01:30:30 | 00:00:00 | |
| DL1XH1-15 | 2026-08-31 23:57:06 | 50.73213 | 5.83109 | 211° | 16km/h | 23744m | 5m/s | -273.1°C | 1% | 34.3hPa | 3.9V | 00:00:00 | 01:30:24 | 00:00:00 | |
| AA1-15 | 2026-08-31 23:57:04 | 50.73210 | 5.83098 | 0° | 0km/h | 23755m | 0m/s | -273.1°C | 1% | 34.2hPa | 3.9V | 00:00:00 | 00:00:00 | 00:00:00 | |
| DL1XH-west | 2026-08-31 23:57:00 | 50.73227 | 5.83122 | 0° | 0km/h | 23729m | 0m/s | -273.1°C | 1% | 34.3hPa | 3.9V | 00:00:00 | 00:00:00 | 00:00:00 | |
| BIOWL1-15 | 2026-08-31 23:56:57 | 50.73230 | 5.83126 | 202° | 18km/h | 23708m | 6m/s | -273.1°C | 1% | 34.5hPa | 3.9V | 00:00:00 | 00:00:00 | 00:00:00 | |
| DL1XH1-15 | 2026-08-31 23:56:54 | 50.73241 | 5.83136 | 249° | 9km/h | 23693m | 5.4m/s | -273.1°C | 1% | 34.5hPa | 3.9V | 00:00:00 | 01:30:14 | 00:00:00 | |
| AA1-15 | 2026-08-31 23:56:53 | 50.73238 | 5.83133 | 0° | 0km/h | 23698m | 0m/s | -273.1°C | 1% | 34.5hPa | 3.9V | 00:00:00 | 00:00:00 | 00:00:00 | |
| AM1SDL-15 | 2026-08-31 23:56:53 | 50.73234 | 5.83129 | 226° | 9km/h | 23702m | 5.0m/s | 0°C | 1.0% | 34.4hPa | 3.9V | 00:00:00 | 01:30:16 | 00:00:00 | |
| DM0DOS-11 | 2026-08-31 23:56:52 | 50.73242 | 5.83138 | 340° | 9km/h | 23687m | 5.2m/s | -273.1°C | 1% | 34.6hPa | 3.9V | 00:00:00 | 01:30:13 | 00:00:00 | |
| DL1XH-west | 2026-08-31 23:56:49 | 50.73241 | 5.83140 | 0° | 0km/h | 23672m | 0m/s | -273.1°C | 1% | 34.6hPa | 3.9V | 00:00:00 | 00:00:00 | 00:00:00 | |
| GOEST3-10 | 2026-08-31 23:56:48 | 50.73239 | 5.83139 | 191° | 11km/h | 23678m | 5.6m/s | 0°C | 1.0% | 34.6hPa | 3.9V | 00:00:00 | 00:00:00 | 00:00:00 | |
| DL1XH1-15 | 2026-08-31 23:56:46 | 50.73249 | 5.83146 | 187° | 13km/h | 23639m | 5.4m/s | -273.1°C | 1% | 34.8hPa | 3.9V | 00:00:00 | 01:30:04 | 00:00:00 | |
| BIOWL1-15 | 2026-08-31 23:56:44 | 50.73248 | 5.83145 | 353° | 5km/h | 23650m | 4m/s | -273.1°C | 1% | 34.8hPa | 3.9V | 00:00:00 | 00:00:00 | 00:00:00 | |
| AA1-15 | 2026-08-31 23:56:43 | 50.73247 | 5.83145 | 0° | 0km/h | 23646m | 0m/s | -273.1°C | 1% | 34.8hPa | 3.9V | 00:00:00 | 00:00:00 | 00:00:00 | |
| GOEST3-10 | 2026-08-31 23:56:43 | 50.73248 | 5.83145 | 354° | 11km/h | 23650m | 5.3m/s | 0°C | 1.0% | 34.7hPa | 3.9V | 00:00:00 | 01:30:06 | 00:00:00 | |
| DM0DOS-11 | 2026-08-31 23:56:42 | 50.73254 | 5.83147 | 183° | 11km/h | 23634m | 5.5m/s | -273.1°C | 1% | 34.8hPa | 3.9V | 00:00:00 | 01:30:03 | 00:00:00 | |
| DL1XH-west | 2026-08-31 23:56:39 | 50.73254 | 5.83143 | 0° | 0km/h | 23617m | 0m/s | -273.1°C | 1% | 34.9hPa | 3.9V | 00:00:00 | 00:00:00 | 00:00:00 | |
| BIOWL1-15 | 2026-08-31 23:56:34 | 50.73264 | 5.83138 | 342° | 4km/h | 23565m | 6m/s | -273.1°C | 1% | 35.2hPa | 3.9V | 00:00:00 | 00:00:00 | 00:00:00 | |
| DL1XH1-15 | 2026-08-31 23:56:34 | 50.73257 | 5.83141 | 40° | 9km/h | 23584m | 5.1m/s | -273.1°C | 1% | 35.1hPa | 3.9V | 00:00:00 | 01:29:54 | 00:00:00 | |
| AA1-15 | 2026-08-31 23:56:32 | 50.73257 | 5.83141 | 0° | 0km/h | 23584m | 0m/s | -273.1°C | 1% | 35.1hPa | 3.9V | 00:00:00 | 00:00:00 | 00:00:00 | |
| DM0DOS-11 | 2026-08-31 23:56:31 | 50.73256 | 5.83139 | 174° | 11km/h | 23579m | 5.1m/s | -273.1°C | 1% | 35.1hPa | 3.9V | 00:00:00 | 01:29:53 | 00:00:00 | |
| DL1XH-west | 2026-08-31 23:56:28 | 50.73264 | 5.83138 | 0° | 0km/h | 23559m | 0m/s | -273.1°C | 1% | 35.2hPa | 3.9V | 00:00:00 | 00:00:00 | 00:00:00 | |
| DJ8HS-15 | 2026-08-31 23:56:26 | 50.73264 | 5.83138 | 351° | 16km/h | 23559m | 5.5m/s | 0°C | 1.0% | 35.2hPa | 3.9V | 00:00:00 | 01:29:49 | 00:00:00 | |
| DM0DOS-11 | 2026-08-31 23:56:25 | 50.73263 | 5.83121 | 9° | 15km/h | 23525m | 5.3m/s | -273.1°C | 1% | 35.4hPa | 3.9V | 00:00:00 | 01:29:43 | 00:00:00 | |
| AA1-15 | 2026-08-31 23:56:22 | 50.73263 | 5.83121 | 0° | 0km/h | 23525m | 0m/s | -273.1°C | 1% | 35.4hPa | 3.9V | 00:00:00 | 00:00:00 | 00:00:00 | |
| BIOWL1-15 | 2026-08-31 23:56:17 | 50.73259 | 5.83111 | 121° | 15km/h | 23503m | 4m/s | -273.1°C | 1% | 35.5hPa | 3.9V | 00:00:00 | 00:00:00 | 00:00:00 | |
| DL1XH-west | 2026-08-31 23:56:17 | 50.73261 | 5.83106 | 0° | 0km/h | 23499m | 0m/s | -273.1°C | 1% | 35.5hPa | 3.9V | 00:00:00 | 00:00:00 | 00:00:00 | |
| AM1SDL-15 | 2026-08-31 23:56:16 | 50.73259 | 5.83111 | 43° | 16km/h | 23503m | 5.3m/s | 0°C | 1.0% | 35.5hPa | 3.9V | 00:00:00 | 01:29:39 | 00:00:00 | |
| DL1XH1-15 | 2026-08-31 23:56:14 | 50.73252 | 5.83092 | 104° | 20km/h | 23476m | 5.3m/s | -273.1°C | 1.1% | 35.6hPa | 3.9V | 00:00:00 | 01:29:34 | 00:00:00 | |
| AA1-15 | 2026-08-31 23:56:10 | 50.73252 | 5.83076 | 0° | 0km/h | 23466m | 0m/s | -273.1°C | 1% | 35.7hPa | 3.9V | 00:00:00 | 00:00:00 | 00:00:00 | |
| DL1XH-west | 2026-08-31 23:56:06 | 50.73243 | 5.83048 | 0° | 0km/h | 23439m | 0m/s | -273.1°C | 1% | 35.9hPa | 3.9V | 00:00:00 | 00:00:00 | 00:00:00 | |
| AM1SDL-15 | 2026-08-31 23:56:04 | 50.73243 | 5.83048 | 35° | 18km/h | 23439m | 5.5m/s | 0°C | 1.0% | 35.8hPa | 3.9V | 00:00:00 | 01:29:27 | 00:00:00 | |
| DM0DOS-11 | 2026-08-31 23:56:03 | 50.73229 | 5.83033 | 111° | 18km/h | 23418m | 5.8m/s | -273.1°C | 1% | 36hPa | 3.9V | 00:00:00 | 01:29:23 | 00:00:00 | |
| AA1-15 | 2026-08-31 23:56:00 | 50.73230 | 5.83027 | 0° | 0km/h | 23411m | 0m/s | -273.1°C | 1.1% | 36hPa | 3.9V | 00:00:00 | 00:00:00 | 00:00:00 | |
| GOEST3-10 | 2026-08-31 23:55:58 | 50.73231 | 5.83020 | 48° | 20km/h | 23406m | 5.5m/s | 0°C | 1.0% | 36.0hPa | 3.9V | 00:00:00 | 00:00:00 | 00:00:00 | |
| DM0DOS-11 | 2026-08-31 23:55:55 | 50.73210 | 5.82973 | 46° | 22km/h | 23363m | 5.5m/s | -273.1°C | 1% | 36.2hPa | 3.9V | 00:00:00 | 01:29:13 | 00:00:00 | |
| DL1XH1-15 | 2026-08-31 23:55:55 | 50.73213 | 5.82980 | 55° | 22km/h | 23368m | 5.4m/s | -273.1°C | 1% | 36.2hPa | 3.9V | 00:00:00 | 01:29:14 | 00:00:00 | |
| DL1XH-west | 2026-08-31 23:55:54 | 50.73213 | 5.82991 | 0° | 0km/h | 23378m | 0m/s | -273.1°C | 1.1% | 36.2hPa | 3.9V | 00:00:00 | 00:00:00 | 00:00:00 | |
| BIOWL1-15 | 2026-08-31 23:55:52 | 50.73192 | 5.82944 | 46° | 16km/h | 23331m | 5m/s | -273.1°C | 1.1% | 36.4hPa | 3.9V | 00:00:00 | 00:00:00 | 00:00:00 | |
| AA1-15 | 2026-08-31 23:55:50 | 50.73199 | 5.82958 | 0° | 0km/h | 23352m | 0m/s | -273.1°C | 1% | 36.3hPa | 3.9V | 00:00:00 | 00:00:00 | 00:00:00 | |
| DL1XH-west | 2026-08-31 23:55:44 | 50.73178 | 5.82925 | 0° | 0km/h | 23315m | 0m/s | -273.1°C | 1.1% | 36.5hPa | 3.9V | 00:00:00 | 00:00:00 | 00:00:00 | |
| DM0DOS-11 | 2026-08-31 23:55:43 | 50.73175 | 5.82921 | 47° | 11km/h | 23310m | 5.5m/s | -273.1°C | 1% | 36.5hPa | 3.9V | 00:00:00 | 01:29:03 | 00:00:00 | |
| AA1-15 | 2026-08-31 23:55:39 | 50.73175 | 5.82918 | 0° | 0km/h | 23299m | 0m/s | -273.1°C | 1.1% | 36.6hPa | 3.9V | 00:00:00 | 00:00:00 | 00:00:00 | |
| BIOWL1-15 | 2026-08-31 23:55:37 | 50.73170 | 5.82910 | 28° | 29km/h | 23287m | 4m/s | -273.1°C | 1% | 36.6hPa | 3.9V | 00:00:00 | 00:00:00 | 00:00:00 | |
| DL1XH1-15 | 2026-08-31 23:55:35 | 50.73160 | 5.82897 | 31° | 15km/h | 23261m | 5.4m/s | -273.1°C | 1.1% | 36.8hPa | 3.9V | 00:00:00 | 01:28:54 | 00:00:00 | |
| DL1XH-west | 2026-08-31 23:55:33 | 50.73152 | 5.82891 | 0° | 0km/h | 23250m | 0m/s | -273.1°C | 1.1% | 36.8hPa | 3.9V | 00:00:00 | 00:00:00 | 00:00:00 | |
| AA1-15 | 2026-08-31 23:55:29 | 50.73146 | 5.82883 | 0° | 0km/h | 23240m | 0m/s | -273.1°C | 1% | 36.9hPa | 3.9V | 00:00:00 | 00:00:00 | 00:00:00 | |
| BIOWL1-15 | 2026-08-31 23:55:27 | 50.73146 | 5.82879 | 357° | 22km/h | 23223m | 6m/s | -273.1°C | 1% | 37hPa | 3.9V | 00:00:00 | 00:00:00 | 00:00:00 | |
| GOEST3-10 | 2026-08-31 23:55:26 | 50.73147 | 5.82880 | 156° | 11km/h | 23234m | 5.3m/s | 0°C | 1.1% | 36.9hPa | 3.9V | 00:00:00 | 00:00:00 | 00:00:00 | |
| DL1XH1-15 | 2026-08-31 23:55:25 | 50.73136 | 5.82882 | 171° | 9km/h | 23207m | 5.3m/s | -273.1°C | 1.1% | 37.1hPa | 3.9V | 00:00:00 | 01:28:44 | 00:00:00 | |
| DM0DOS-11 | 2026-08-31 23:55:22 | 50.73138 | 5.82881 | 125° | 11km/h | 23202m | 5.4m/s | -273.1°C | 1.1% | 37.1hPa | 3.9V | 00:00:00 | 01:28:43 | 00:00:00 | |
| DL1XH-west | 2026-08-31 23:55:22 | 50.73136 | 5.82882 | 0° | 0km/h | 23207m | 0m/s | -273.1°C | 1.1% | 37.1hPa | 3.9V | 00:00:00 | 00:00:00 | 00:00:00 | |
| AA1-15 | 2026-08-31 23:55:18 | 50.73132 | 5.82881 | 0° | 0km/h | 23185m | 0m/s | -273.1°C | 1.1% | 37.2hPa | 3.9V | 00:00:00 | 00:00:00 | 00:00:00 | |
| BIOWL1-15 | 2026-08-31 23:55:17 | 50.73128 | 5.82887 | 239° | 9km/h | 23165m | 5m/s | -273.1°C | 1.1% | 37.3hPa | 3.9V | 00:00:00 | 00:00:00 | 00:00:00 | |
| DM0DOS-11 | 2026-08-31 23:55:15 | 50.73123 | 5.82894 | 325° | 11km/h | 23149m | 5.3m/s | -273.1°C | 1.1% | 37.4hPa | 3.9V | 00:00:00 | 01:28:33 | 00:00:00 | |
| DL1XH1-15 | 2026-08-31 23:55:15 | 50.73127 | 5.82892 | 340° | 13km/h | 23154m | 5.2m/s | -273.1°C | 1.1% | 37.4hPa | 3.9V | 00:00:00 | 01:28:34 | 00:00:00 | |
| DL1XH-west | 2026-08-31 23:55:12 | 50.73127 | 5.82892 | 0° | 0km/h | 23154m | 0m/s | -273.1°C | 1.1% | 37.4hPa | 3.9V | 00:00:00 | 00:00:00 | 00:00:00 | |
| AA1-15 | 2026-08-31 23:55:08 | 50.73126 | 5.82910 | 0° | 0km/h | 23123m | 0m/s | -273.1°C | 1.1% | 37.5hPa | 3.9V | 00:00:00 | 00:00:00 | 00:00:00 | |
| DJ8HS-15 | 2026-08-31 23:55:06 | 50.73124 | 5.82906 | 229° | 13km/h | 23128m | 5.3m/s | 0°C | 1.1% | 37.5hPa | 3.9V | 00:00:00 | 01:28:29 | 00:00:00 | |
| DL1XH1-15 | 2026-08-31 23:55:05 | 50.73119 | 5.82921 | 186° | 15km/h | 23101m | 5.3m/s | -273.1°C | 1.1% | 37.7hPa | 3.9V | 00:00:00 | 01:28:24 | 00:00:00 | |
| BIOWL1-15 | 2026-08-31 23:55:03 | 50.73128 | 5.82931 | 309° | 9km/h | 23086m | 7m/s | -273.1°C | 1.1% | 37.8hPa | 3.9V | 00:00:00 | 00:00:00 | 00:00:00 | |
| DM0DOS-11 | 2026-08-31 23:55:02 | 50.73122 | 5.82921 | 212° | 15km/h | 23096m | 5.3m/s | -273.1°C | 1.1% | 37.7hPa | 3.9V | 00:00:00 | 01:28:23 | 00:00:00 | |
| DL1XH-west | 2026-08-31 23:55:01 | 50.73122 | 5.82921 | 0° | 0km/h | 23096m | 0m/s | -273.1°C | 1.1% | 37.7hPa | 3.9V | 00:00:00 | 00:00:00 | 00:00:00 | |
| AA1-15 | 2026-08-31 23:54:57 | 50.73121 | 5.82941 | 0° | 0km/h | 23069m | 0m/s | -273.1°C | 1.1% | 37.8hPa | 3.9V | 00:00:00 | 00:00:00 | 00:00:00 | |
| DM0DOS-11 | 2026-08-31 23:54:56 | 50.73133 | 5.82964 | 291° | 11km/h | 23042m | 4.9m/s | -273.1°C | 1.1% | 38hPa | 3.9V | 00:00:00 | 01:28:13 | 00:00:00 | |
| DL1XH1-15 | 2026-08-31 23:54:55 | 50.73132 | 5.82961 | 249° | 11km/h | 23047m | 4.9m/s | -273.1°C | 1.1% | 38hPa | 3.9V | 00:00:00 | 01:28:14 | 00:00:00 | |
| DL1XH-west | 2026-08-31 23:54:51 | 50.73133 | 5.82964 | 0° | 0km/h | 23042m | 0m/s | -273.1°C | 1.1% | 38hPa | 3.9V | 00:00:00 | 00:00:00 | 00:00:00 | |
| AA1-15 | 2026-08-31 23:54:47 | 50.73135 | 5.82979 | 0° | 0km/h | 23022m | 0m/s | -273.1°C | 1.1% | 38.1hPa | 3.9V | 00:00:00 | 00:00:00 | 00:00:00 | |
| DJ8HS-15 | 2026-08-31 23:54:46 | 50.73134 | 5.82979 | 194° | 13km/h | 23022m | 4.9m/s | 0°C | 1.1% | 38.1hPa | 3.9V | 00:00:00 | 01:28:09 | 00:00:00 | |
| GOEST3-10 | 2026-08-31 23:54:45 | 50.73140 | 5.82981 | 181° | 13km/h | 23017m | 4.9m/s | 0°C | 1.1% | 38.1hPa | 3.9V | 00:00:00 | 00:00:00 | 00:00:00 | |
| DB0UT-7 | 2026-08-31 23:54:44 | 50.73146 | 5.82981 | 185° | 13km/h | 23012m | 4.8m/s | 0°C | 1.1% | 38.1hPa | 3.9V | 00:00:00 | 00:00:00 | 00:00:00 | |
| DM0DOS-11 | 2026-08-31 23:54:42 | 50.73152 | 5.82987 | 246° | 16km/h | 22993m | 5m/s | -273.1°C | 1.1% | 38.3hPa | 3.9V | 00:00:00 | 01:28:03 | 00:00:00 | |
| BIOWL1-15 | 2026-08-31 23:54:41 | 50.73152 | 5.82987 | 246° | 11km/h | 22993m | 5m/s | -273.1°C | 1.1% | 38.3hPa | 3.9V | 00:00:00 | 00:00:00 | 00:00:00 | |
| DL1XH-west | 2026-08-31 23:54:40 | 50.73153 | 5.82991 | 0° | 0km/h | 22988m | 0m/s | -273.1°C | 1.1% | 38.3hPa | 3.9V | 00:00:00 | 00:00:00 | 00:00:00 | |
| AA1-15 | 2026-08-31 23:54:36 | 50.73172 | 5.83002 | 0° | 0km/h | 22968m | 0m/s | -273.1°C | 1.1% | 38.4hPa | 3.9V | 00:00:00 | 00:00:00 | 00:00:00 | |
| BIOWL1-15 | 2026-08-31 23:54:31 | 50.73189 | 5.83010 | 199° | 13km/h | 22921m | 6m/s | -273.1°C | 1.1% | 38.7hPa | 3.9V | 00:00:00 | 00:00:00 | 00:00:00 | |
| DL1XH-west | 2026-08-31 23:54:30 | 50.73188 | 5.83013 | 0° | 0km/h | 22938m | 0m/s | -273.1°C | 1.1% | 38.6hPa | 3.9V | 00:00:00 | 00:00:00 | 00:00:00 | |
| AA1-15 | 2026-08-31 23:54:25 | 50.73198 | 5.83016 | 0° | 0km/h | 22910m | 0m/s | -273.1°C | 1.1% | 38.8hPa | 3.9V | 00:00:00 | 00:00:00 | 00:00:00 | |
| DL1XH1-15 | 2026-08-31 23:54:25 | 50.73199 | 5.83014 | 146° | 11km/h | 22894m | 5.6m/s | -273.1°C | 1.1% | 38.8hPa | 3.9V | 00:00:00 | 01:27:44 | 00:00:00 | |
| DM0DOS-11 | 2026-08-31 23:54:22 | 50.73200 | 5.83013 | 213° | 15km/h | 22889m | 5.8m/s | -273.1°C | 1.1% | 38.9hPa | 3.9V | 00:00:00 | 01:27:43 | 00:00:00 | |
| DL1XH-west | 2026-08-31 23:54:19 | 50.73208 | 5.83021 | 0° | 0km/h | 22878m | 0m/s | -273.1°C | 1.1% | 38.9hPa | 3.9V | 00:00:00 | 00:00:00 | 00:00:00 | |
| BIOWL1-15 | 2026-08-31 23:54:17 | 50.73211 | 5.83012 | 211° | 18km/h | 22854m | 5m/s | -273.1°C | 1.1% | 39hPa | 3.9V | 00:00:00 | 00:00:00 | 00:00:00 | |
| DM0DOS-11 | 2026-08-31 23:54:15 | 50.73218 | 5.83012 | 61° | 9km/h | 22833m | 5.4m/s | -273.1°C | 1.1% | 39.2hPa | 3.9V | 00:00:00 | 01:27:33 | 00:00:00 | |
| AA1-15 | 2026-08-31 23:54:14 | 50.73215 | 5.83016 | 0° | 0km/h | 22849m | 0m/s | -273.1°C | 1.1% | 39.1hPa | 3.9V | 00:00:00 | 00:00:00 | 00:00:00 | |
| DL1XH-west | 2026-08-31 23:54:09 | 50.73218 | 5.83010 | 0° | 0km/h | 22822m | 0m/s | -273.1°C | 1.1% | 39.2hPa | 3.9V | 00:00:00 | 00:00:00 | 00:00:00 | |
| DJ8HS-15 | 2026-08-31 23:54:06 | 50.73223 | 5.83015 | 59° | 11km/h | 22812m | 5.5m/s | 0°C | 1.1% | 39.2hPa | 3.9V | 00:00:00 | 01:27:29 | 00:00:00 | |
| DL1XH1-15 | 2026-08-31 23:54:05 | 50.73223 | 5.83010 | 225° | 9km/h | 22785m | 5.3m/s | -273.1°C | 1.1% | 39.5hPa | 3.9V | 00:00:00 | 01:27:24 | 00:00:00 | |
| AA1-15 | 2026-08-31 23:54:02 | 50.73223 | 5.83010 | 0° | 0km/h | 22785m | 0m/s | -273.1°C | 1.1% | 39.5hPa | 3.9V | 00:00:00 | 00:00:00 | 00:00:00 | |
| DM0DOS-11 | 2026-08-31 23:54:02 | 50.73224 | 5.83012 | 56° | 11km/h | 22780m | 5.4m/s | -273.1°C | 1.1% | 39.5hPa | 3.9V | 00:00:00 | 01:27:23 | 00:00:00 | |
| DL1XH-west | 2026-08-31 23:53:58 | 50.73217 | 5.83002 | 0° | 0km/h | 22765m | 0m/s | -273.1°C | 1.1% | 39.6hPa | 3.9V | 00:00:00 | 00:00:00 | 00:00:00 | |
| BIOWL1-15 | 2026-08-31 23:53:55 | 50.73220 | 5.83005 | 12° | 9km/h | 22748m | 6m/s | -273.1°C | 1.1% | 39.7hPa | 3.9V | 00:00:00 | 00:00:00 | 00:00:00 | |
| DM0DOS-11 | 2026-08-31 23:53:55 | 50.73210 | 5.82996 | 238° | 13km/h | 22726m | 5.1m/s | -273.1°C | 1.1% | 39.8hPa | 3.9V | 00:00:00 | 01:27:13 | 00:00:00 | |
| DL1XH1-15 | 2026-08-31 23:53:55 | 50.73209 | 5.82996 | 208° | 11km/h | 22733m | 5.5m/s | -273.1°C | 1.1% | 39.8hPa | 3.9V | 00:00:00 | 01:27:14 | 00:00:00 | |
| AA1-15 | 2026-08-31 23:53:51 | 50.73211 | 5.83000 | 0° | 0km/h | 22722m | 0m/s | -273.1°C | 1.1% | 39.8hPa | 3.9V | 00:00:00 | 00:00:00 | 00:00:00 | |
| DL1XH-west | 2026-08-31 23:53:47 | 50.73201 | 5.82987 | 0° | 0km/h | 22706m | 0m/s | -273.1°C | 1.1% | 39.9hPa | 3.9V | 00:00:00 | 00:00:00 | 00:00:00 | |
| BIOWL1-15 | 2026-08-31 23:53:44 | 50.73184 | 5.82974 | 30° | 13km/h | 22675m | 6m/s | -273.1°C | 1.1% | 40.1hPa | 3.9V | 00:00:00 | 00:00:00 | 00:00:00 | |
| DM0DOS-11 | 2026-08-31 23:53:42 | 50.73184 | 5.82974 | 29° | 15km/h | 22675m | 5.5m/s | -273.1°C | 1.1% | 40.1hPa | 3.9V | 00:00:00 | 01:27:03 | 00:00:00 | |
| AA1-15 | 2026-08-31 23:53:40 | 50.73180 | 5.82973 | 0° | 0km/h | 22663m | 0m/s | -273.1°C | 1.1% | 40.2hPa | 3.9V | 00:00:00 | 00:00:00 | 00:00:00 | |
| DL1XH-west | 2026-08-31 23:53:36 | 50.73169 | 5.82962 | 0° | 0km/h | 22647m | 0m/s | -273.1°C | 1.1% | 40.3hPa | 3.9V | 00:00:00 | 00:00:00 | 00:00:00 | |
| BIOWL1-15 | 2026-08-31 23:53:35 | 50.73156 | 5.82954 | 349° | 9km/h | 22631m | 3m/s | -273.1°C | 1.1% | 40.4hPa | 3.9V | 00:00:00 | 00:00:00 | 00:00:00 | |
| DL1XH1-15 | 2026-08-31 23:53:35 | 50.73154 | 5.82955 | 7° | 22km/h | 22628m | 5.1m/s | -273.1°C | 1.1% | 40.4hPa | 3.9V | 00:00:00 | 01:26:54 | 00:00:00 | |
| AA1-15 | 2026-08-31 23:53:29 | 50.73134 | 5.82946 | 0° | 0km/h | 22613m | 0m/s | -273.1°C | 1.1% | 40.5hPa | 3.9V | 00:00:00 | 00:00:00 | 00:00:00 | |
| DL1XH-west | 2026-08-31 23:53:25 | 50.73121 | 5.82935 | 0° | 0km/h | 22593m | 0m/s | -273.1°C | 1.1% | 40.6hPa | 3.9V | 00:00:00 | 00:00:00 | 00:00:00 | |
| DL1XH1-15 | 2026-08-31 23:53:25 | 50.73108 | 5.82919 | 28° | 15km/h | 22578m | 5.3m/s | -273.1°C | 1.1% | 40.7hPa | 3.9V | 00:00:00 | 01:26:44 | 00:00:00 | |
| BIOWL1-15 | 2026-08-31 23:53:23 | 50.73108 | 5.82919 | 29° | 20km/h | 22578m | 5m/s | -273.1°C | 1.1% | 40.7hPa | 3.9V | 00:00:00 | 00:00:00 | 00:00:00 | |
| AA1-15 | 2026-08-31 23:53:19 | 50.73100 | 5.82916 | 0° | 0km/h | 22562m | 0m/s | -273.1°C | 1.1% | 40.8hPa | 3.9V | 00:00:00 | 00:00:00 | 00:00:00 | |
| DL1XH-west | 2026-08-31 23:53:15 | 50.73079 | 5.82900 | 0° | 0km/h | 22536m | 0m/s | -273.1°C | 1.2% | 40.9hPa | 3.9V | 00:00:00 | 00:00:00 | 00:00:00 | |
| BIOWL1-15 | 2026-08-31 23:53:11 | 50.73059 | 5.82890 | 321° | 15km/h | 22511m | 6m/s | -273.1°C | 1.2% | 41.1hPa | 3.9V | 00:00:00 | 00:00:00 | 00:00:00 | |
| AA1-15 | 2026-08-31 23:53:08 | 50.73056 | 5.82894 | 0° | 0km/h | 22505m | 0m/s | -273.1°C | 1.2% | 41.1hPa | 3.9V | 00:00:00 | 00:00:00 | 00:00:00 | |
| DJ8HS-15 | 2026-08-31 23:53:06 | 50.73054 | 5.82898 | 18° | 22km/h | 22501m | 5.2m/s | 0°C | 1.1% | 41.1hPa | 3.9V | 00:00:00 | 01:26:29 | 00:00:00 | |
| GOEST3-10 | 2026-08-31 23:53:05 | 50.73050 | 5.82896 | 26° | 22km/h | 22495m | 5.0m/s | 0°C | 1.1% | 41.1hPa | 3.9V | 00:00:00 | 00:00:00 | 00:00:00 | |
| DL1XH1-15 | 2026-08-31 23:53:04 | 50.73031 | 5.82889 | 317° | 22km/h | 22475m | 5m/s | -273.1°C | 1.1% | 41.3hPa | 3.9V | 00:00:00 | 01:26:24 | 00:00:00 | |
| DL1XH-west | 2026-08-31 23:53:04 | 50.73040 | 5.82885 | 0° | 0km/h | 22486m | 0m/s | -273.1°C | 1.2% | 41.2hPa | 3.9V | 00:00:00 | 00:00:00 | 00:00:00 | |
| BIOWL1-15 | 2026-08-31 23:52:59 | 50.73002 | 5.82888 | 321° | 26km/h | 22444m | 3m/s | -273.1°C | 1.2% | 41.5hPa | 3.9V | 00:00:00 | 00:00:00 | 00:00:00 | |
| AA1-15 | 2026-08-31 23:52:55 | 50.72997 | 5.82894 | 0° | 0km/h | 22441m | 0m/s | -273.1°C | 1.2% | 41.5hPa | 3.9V | 00:00:00 | 00:00:00 | 00:00:00 | |
| DM0DOS-11 | 2026-08-31 23:52:55 | 50.72976 | 5.82888 | 311° | 22km/h | 22419m | 4.8m/s | -273.1°C | 1.1% | 41.6hPa | 3.9V | 00:00:00 | 01:26:13 | 00:00:00 | |
| DL1XH-west | 2026-08-31 23:52:54 | 50.72992 | 5.82895 | 0° | 0km/h | 22435m | 0m/s | -273.1°C | 1.2% | 41.5hPa | 3.9V | 00:00:00 | 00:00:00 | 00:00:00 | |
| DL1XH1-15 | 2026-08-31 23:52:54 | 50.72981 | 5.82884 | 339° | 22km/h | 22425m | 5.1m/s | -273.1°C | 1.1% | 41.6hPa | 3.9V | 00:00:00 | 01:26:14 | 00:00:00 | |
| BIOWL1-15 | 2026-08-31 23:52:48 | 50.72961 | 5.82894 | 33° | 27km/h | 22404m | 4m/s | -273.1°C | 1.2% | 41.7hPa | 3.9V | 00:00:00 | 00:00:00 | 00:00:00 | |
| AM1SDL-15 | 2026-08-31 23:52:46 | 50.72956 | 5.82888 | 341° | 11km/h | 22400m | 4.9m/s | 0°C | 1.1% | 41.7hPa | 3.9V | 00:00:00 | 01:26:09 | 00:00:00 | |
| DM0DOS-11 | 2026-08-31 23:52:45 | 50.72934 | 5.82891 | 344° | 15km/h | 22371m | 5.1m/s | -273.1°C | 1.1% | 41.9hPa | 3.9V | 00:00:00 | 01:26:03 | 00:00:00 | |
| DL1XH1-15 | 2026-08-31 23:52:44 | 50.72938 | 5.82896 | 35° | 16km/h | 22374m | 4.6m/s | -273.1°C | 1.1% | 41.9hPa | 3.9V | 00:00:00 | 01:26:04 | 00:00:00 | |
| DL1XH-west | 2026-08-31 23:52:44 | 50.72946 | 5.82898 | 0° | 0km/h | 22384m | 0m/s | -273.1°C | 1.2% | 41.8hPa | 3.9V | 00:00:00 | 00:00:00 | 00:00:00 | |
| BIOWL1-15 | 2026-08-31 23:52:38 | 50.72924 | 5.82905 | 339° | 7km/h | 22356m | 6m/s | -273.1°C | 1.2% | 42hPa | 3.9V | 00:00:00 | 00:00:00 | 00:00:00 | |
| GOEST3-10 | 2026-08-31 23:52:37 | 50.72924 | 5.82905 | 340° | 11km/h | 22356m | 5.1m/s | 0°C | 1.1% | 42.0hPa | 3.9V | 00:00:00 | 01:26:00 | 00:00:00 | |
| DM0DOS-11 | 2026-08-31 23:52:35 | 50.72913 | 5.82919 | 313° | 9km/h | 22321m | 5.1m/s | -273.1°C | 1.1% | 42.2hPa | 3.9V | 00:00:00 | 01:25:53 | 00:00:00 | |
| DL1XH1-15 | 2026-08-31 23:52:34 | 50.72916 | 5.82911 | 299° | 13km/h | 22326m | 5.1m/s | -273.1°C | 1.1% | 42.2hPa | 3.9V | 00:00:00 | 01:25:54 | 00:00:00 | |
| DL1XH-west | 2026-08-31 23:52:33 | 50.72918 | 5.82905 | 0° | 0km/h | 22331m | 0m/s | -273.1°C | 1.2% | 42.2hPa | 3.9V | 00:00:00 | 00:00:00 | 00:00:00 | |
| GOEST3-10 | 2026-08-31 23:52:31 | 50.72916 | 5.82911 | 300° | 11km/h | 22326m | 5.0m/s | 0°C | 1.1% | 42.2hPa | 3.9V | 00:00:00 | 00:00:00 | 00:00:00 | |
| GOEST3-10 | 2026-08-31 23:52:26 | 50.72909 | 5.82918 | 276° | 13km/h | 22301m | 5.1m/s | 0°C | 1.1% | 42.3hPa | 3.9V | 00:00:00 | 01:25:49 | 00:00:00 | |
| DM0DOS-11 | 2026-08-31 23:52:25 | 50.72907 | 5.82934 | 265° | 13km/h | 22271m | 5.2m/s | -273.1°C | 1.1% | 42.5hPa | 3.9V | 00:00:00 | 01:25:43 | 00:00:00 | |
| DL1XH1-15 | 2026-08-31 23:52:24 | 50.72906 | 5.82930 | 252° | 13km/h | 22276m | 5.2m/s | -273.1°C | 1.1% | 42.5hPa | 3.9V | 00:00:00 | 01:25:44 | 00:00:00 | |
| DL1XH-west | 2026-08-31 23:52:23 | 50.72906 | 5.82933 | 0° | 0km/h | 22280m | 0m/s | -273.1°C | 1.2% | 42.5hPa | 3.9V | 00:00:00 | 00:00:00 | 00:00:00 | |
| BIOWL1-15 | 2026-08-31 23:52:16 | 50.72908 | 5.82949 | 300° | 5km/h | 22245m | 5m/s | -273.1°C | 1.2% | 42.7hPa | 3.9V | 00:00:00 | 00:00:00 | 00:00:00 | |
| DM0DOS-11 | 2026-08-31 23:52:15 | 50.72911 | 5.82977 | 121° | 11km/h | 22220m | 4.9m/s | -273.1°C | 1.1% | 42.9hPa | 3.9V | 00:00:00 | 01:25:33 | 00:00:00 | |
| DB0UT-7 | 2026-08-31 23:52:14 | 50.72907 | 5.82951 | 265° | 15km/h | 22240m | 5.0m/s | 0°C | 1.1% | 42.7hPa | 3.9V | 00:00:00 | 01:25:37 | 00:00:00 | |
| DL1XH1-15 | 2026-08-31 23:52:13 | 50.72910 | 5.82973 | 244° | 11km/h | 22225m | 5m/s | -273.1°C | 1.1% | 42.8hPa | 3.9V | 00:00:00 | 01:25:34 | 00:00:00 | |
| DL1XH-west | 2026-08-31 23:52:13 | 50.72909 | 5.82965 | 0° | 0km/h | 22230m | 0m/s | -273.1°C | 1.2% | 42.8hPa | 3.9V | 00:00:00 | 00:00:00 | 00:00:00 | |
| AA1-15 | 2026-08-31 23:52:12 | 50.72910 | 5.82973 | 0° | 0km/h | 22225m | 0m/s | -273.1°C | 1.2% | 42.8hPa | 3.9V | 00:00:00 | 00:00:00 | 00:00:00 | |
| GOEST3-10 | 2026-08-31 23:52:11 | 50.72910 | 5.82973 | 245° | 13km/h | 22225m | 4.9m/s | 0°C | 1.1% | 42.8hPa | 3.9V | 00:00:00 | 00:00:00 | 00:00:00 | |
| DL1XH1-15 | 2026-08-31 23:52:06 | 50.72918 | 5.82997 | 261° | 16km/h | 22175m | 4.8m/s | -273.1°C | 1.1% | 43.1hPa | 3.9V | 00:00:00 | 01:25:24 | 00:00:00 | |
| DM0DOS-11 | 2026-08-31 23:52:05 | 50.72919 | 5.83005 | 270° | 15km/h | 22170m | 4.8m/s | -273.1°C | 1.1% | 43.2hPa | 3.9V | 00:00:00 | 01:25:23 | 00:00:00 | |
| BIOWL1-15 | 2026-08-31 23:52:05 | 50.72917 | 5.82995 | 226° | 7km/h | 22180m | 5m/s | -273.1°C | 1.2% | 43.1hPa | 3.9V | 00:00:00 | 00:00:00 | 00:00:00 | |
| DL1XH-west | 2026-08-31 23:52:02 | 50.72918 | 5.82997 | 0° | 0km/h | 22175m | 0m/s | -273.1°C | 1.2% | 43.2hPa | 3.9V | 00:00:00 | 00:00:00 | 00:00:00 | |
| AA1-15 | 2026-08-31 23:52:00 | 50.72919 | 5.83014 | 0° | 0km/h | 22166m | 0m/s | -273.1°C | 1.2% | 43.2hPa | 3.9V | 00:00:00 | 00:00:00 | 00:00:00 | |
| DL1XH1-15 | 2026-08-31 23:51:56 | 50.72939 | 5.83030 | 231° | 18km/h | 22122m | 5.2m/s | -273.1°C | 1.1% | 43.5hPa | 3.9V | 00:00:00 | 01:25:13 | 00:00:00 | |
| DM0DOS-11 | 2026-08-31 23:51:55 | 50.72939 | 5.83030 | 231° | 18km/h | 22122m | 5.2m/s | -273.1°C | 1.1% | 43.5hPa | 3.9V | 00:00:00 | 01:25:13 | 00:00:00 | |
| DL1XH-west | 2026-08-31 23:51:51 | 50.72941 | 5.83035 | 0° | 0km/h | 22116m | 0m/s | -273.1°C | 1.2% | 43.5hPa | 3.9V | 00:00:00 | 00:00:00 | 00:00:00 | |
| AA1-15 | 2026-08-31 23:51:49 | 50.72944 | 5.83044 | 0° | 0km/h | 22111m | 0m/s | -273.1°C | 1.2% | 43.6hPa | 3.9V | 00:00:00 | 00:00:00 | 00:00:00 | |
| DJ8HS-15 | 2026-08-31 23:51:46 | 50.72951 | 5.83051 | 156° | 15km/h | 22101m | 4.9m/s | 0°C | 1.1% | 43.6hPa | 3.9V | 00:00:00 | 01:25:09 | 00:00:00 | |
| DL1XH1-15 | 2026-08-31 23:51:45 | 50.72976 | 5.83063 | 173° | 15km/h | 22071m | 5.2m/s | -273.1°C | 1.1% | 43.8hPa | 3.9V | 00:00:00 | 01:25:03 | 00:00:00 | |
| BIOWL1-15 | 2026-08-31 23:51:42 | 50.72972 | 5.83060 | 209° | 15km/h | 22077m | 6m/s | -273.1°C | 1.2% | 43.8hPa | 3.9V | 00:00:00 | 00:00:00 | 00:00:00 | |
| DL1XH-west | 2026-08-31 23:51:40 | 50.72979 | 5.83063 | 0° | 0km/h | 22065m | 0m/s | -273.1°C | 1.2% | 43.9hPa | 3.9V | 00:00:00 | 00:00:00 | 00:00:00 | |
| AA1-15 | 2026-08-31 23:51:37 | 50.72985 | 5.83050 | 0° | 0km/h | 22051m | 0m/s | -273.1°C | 1.2% | 44hPa | 3.9V | 00:00:00 | 00:00:00 | 00:00:00 | |
| DL1XH1-15 | 2026-08-31 23:51:36 | 50.73000 | 5.83044 | 125° | 15km/h | 22019m | 4.9m/s | -273.1°C | 1.1% | 44.1hPa | 3.9V | 00:00:00 | 01:24:53 | 00:00:00 | |
| BIOWL1-15 | 2026-08-31 23:51:31 | 50.73000 | 5.83044 | 126° | 11km/h | 22019m | 5m/s | -273.1°C | 1.2% | 44.2hPa | 3.9V | 00:00:00 | 00:00:00 | 00:00:00 | |
| DL1XH-west | 2026-08-31 23:51:30 | 50.73005 | 5.83040 | 0° | 0km/h | 22008m | 0m/s | -273.1°C | 1.3% | 44.2hPa | 3.9V | 00:00:00 | 00:00:00 | 00:00:00 | |
| AA1-15 | 2026-08-31 23:51:26 | 50.73014 | 5.83027 | 0° | 0km/h | 21990m | 0m/s | -273.1°C | 1.3% | 44.4hPa | 3.9V | 00:00:00 | 00:00:00 | 00:00:00 | |
| DL1XH1-15 | 2026-08-31 23:51:26 | 50.73023 | 5.83012 | 119° | 16km/h | 21971m | 5.2m/s | -273.1°C | 1.1% | 44.5hPa | 3.9V | 00:00:00 | 01:24:43 | 00:00:00 | |
| BIOWL1-15 | 2026-08-31 23:51:20 | 50.73023 | 5.82992 | 106° | 16km/h | 21956m | 6m/s | -273.1°C | 1.3% | 44.6hPa | 3.9V | 00:00:00 | 00:00:00 | 00:00:00 | |
| DL1XH-west | 2026-08-31 23:51:20 | 50.73024 | 5.83008 | 0° | 0km/h | 21965m | 0m/s | -273.1°C | 1.3% | 44.5hPa | 3.9V | 00:00:00 | 00:00:00 | 00:00:00 | |
| AA1-15 | 2026-08-31 23:51:15 | 50.73030 | 5.82982 | 0° | 0km/h | 21940m | 0m/s | -273.1°C | 1.3% | 44.7hPa | 3.9V | 00:00:00 | 00:00:00 | 00:00:00 | |
| DL1XH1-15 | 2026-08-31 23:51:15 | 50.73028 | 5.82955 | 133° | 16km/h | 21921m | 5.1m/s | -273.1°C | 1.2% | 44.8hPa | 3.9V | 00:00:00 | 01:24:33 | 00:00:00 | |
| BIOWL1-15 | 2026-08-31 23:51:12 | 50.73036 | 5.82944 | 77° | 20km/h | 21906m | 6m/s | -273.1°C | 1.3% | 44.9hPa | 3.9V | 00:00:00 | 00:00:00 | 00:00:00 | |
| DL1XH-west | 2026-08-31 23:51:10 | 50.73031 | 5.82951 | 0° | 0km/h | 21915m | 0m/s | -273.1°C | 1.2% | 44.8hPa | 3.9V | 00:00:00 | 00:00:00 | 00:00:00 | |
| DJ8HS-15 | 2026-08-31 23:51:06 | 50.73035 | 5.82936 | 69° | 18km/h | 21900m | 4.7m/s | 0°C | 1.1% | 44.9hPa | 3.9V | 00:00:00 | 01:24:29 | 00:00:00 | |
| DL1XH1-15 | 2026-08-31 23:51:05 | 50.73035 | 5.82899 | 69° | 20km/h | 21871m | 5.1m/s | -273.1°C | 1.1% | 45.1hPa | 3.9V | 00:00:00 | 01:24:23 | 00:00:00 | |
| DL1XH-west | 2026-08-31 23:50:59 | 50.73029 | 5.82882 | 0° | 0km/h | 21861m | 0m/s | -273.1°C | 1.2% | 45.2hPa | 3.9V | 00:00:00 | 00:00:00 | 00:00:00 | |
| AA1-15 | 2026-08-31 23:50:57 | 50.73025 | 5.82872 | 0° | 0km/h | 21850m | 0m/s | -273.1°C | 1.3% | 45.3hPa | 3.9V | 00:00:00 | 00:00:00 | 00:00:00 | |
| DL1XH1-15 | 2026-08-31 23:50:55 | 50.73014 | 5.82830 | 77° | 18km/h | 21819m | 4.7m/s | -273.1°C | 1.1% | 45.5hPa | 3.9V | 00:00:00 | 01:24:13 | 00:00:00 | |
| DL1XH-west | 2026-08-31 23:50:50 | 50.73011 | 5.82819 | 0° | 0km/h | 21810m | 0m/s | -273.1°C | 1.3% | 45.5hPa | 3.9V | 00:00:00 | 00:00:00 | 00:00:00 | |
| BIOWL1-15 | 2026-08-31 23:50:48 | 50.73007 | 5.82806 | 59° | 29km/h | 21805m | 4m/s | -273.1°C | 1.2% | 45.6hPa | 3.9V | 00:00:00 | 00:00:00 | 00:00:00 | |
| DJ8HS-15 | 2026-08-31 23:50:46 | 50.73003 | 5.82796 | 46° | 15km/h | 21801m | 5.3m/s | 0°C | 1.2% | 45.5hPa | 3.9V | 00:00:00 | 01:24:09 | 00:00:00 | |
| DL1XH1-15 | 2026-08-31 23:50:45 | 50.72990 | 5.82759 | 74° | 13km/h | 21769m | 5.1m/s | -273.1°C | 1.1% | 45.8hPa | 3.9V | 00:00:00 | 01:24:03 | 00:00:00 | |
| DB0UT-7 | 2026-08-31 23:50:44 | 50.73001 | 5.82792 | 55° | 15km/h | 21790m | 5.1m/s | 0°C | 1.1% | 45.6hPa | 3.9V | 00:00:00 | 00:00:00 | 00:00:00 | |
| NBG1-10 | 2026-08-31 23:50:41 | 50.72992 | 5.82766 | 72° | 11km/h | 21775m | 5.0m/s | 0°C | 1.1% | 45.7hPa | 3.9V | 00:00:00 | 01:24:04 | 00:00:00 | |
| GOEST3-10 | 2026-08-31 23:50:40 | 50.72990 | 5.82759 | 64° | 16km/h | 21769m | 5.0m/s | 0°C | 1.1% | 45.8hPa | 3.9V | 00:00:00 | 00:00:00 | 00:00:00 | |
| DL1XH-west | 2026-08-31 23:50:39 | 50.72959 | 5.82690 | 0° | 0km/h | 21677m | 0m/s | -273.1°C | 1.3% | 46.4hPa | 3.9V | 00:00:00 | 00:00:00 | 00:00:00 | |
| BIOWL1-15 | 2026-08-31 23:50:39 | 50.72955 | 5.82685 | 54° | 24km/h | 21666m | 4m/s | -273.1°C | 1.2% | 46.5hPa | 3.9V | 00:00:00 | 00:00:00 | 00:00:00 | |
| GOEST3-10 | 2026-08-31 23:50:37 | 50.72979 | 5.82728 | 304° | 13km/h | 21738m | 5.0m/s | 0°C | 1.1% | 45.9hPa | 3.9V | 00:00:00 | 01:23:57 | 00:00:00 | |
| DL1XH1-15 | 2026-08-31 23:50:36 | 50.72960 | 5.82688 | 32° | 9km/h | 21687m | 5.1m/s | -273.1°C | 1.1% | 46.4hPa | 3.9V | 00:00:00 | 01:23:47 | 00:00:00 | |
| DJ8HS-15 | 2026-08-31 23:50:36 | 50.72965 | 5.82703 | 57° | 11km/h | 21697m | 5.0m/s | 0°C | 1.2% | 46.2hPa | 3.9V | 00:00:00 | 01:23:49 | 00:00:00 | |
| GOEST3-10 | 2026-08-31 23:50:33 | 50.72959 | 5.82687 | 318° | 11km/h | 21681m | 4.9m/s | 0°C | 1.2% | 46.4hPa | 3.9V | 00:00:00 | 01:23:46 | 00:00:00 | |
| DM0DOS-11 | 2026-08-31 23:50:30 | 50.72952 | 5.82677 | 57° | 9km/h | 21662m | 5.1m/s | -273.1°C | 1.2% | 46.5hPa | 3.9V | 00:00:00 | 01:23:42 | 00:00:00 | |
| BIOWL1-15 | 2026-08-31 23:50:25 | 50.72952 | 5.82677 | 57° | 15km/h | 21662m | 6m/s | -273.1°C | 1.3% | 46.5hPa | 3.9V | 00:00:00 | 00:00:00 | 00:00:00 | |
| DL1XH1-15 | 2026-08-31 23:50:18 | 50.72950 | 5.82676 | 70° | 15km/h | 21642m | 5.1m/s | -273.1°C | 1.1% | 46.7hPa | 3.9V | 00:00:00 | 01:23:38 | 00:00:00 | |
| DL1XH-west | 2026-08-31 23:50:17 | 50.72950 | 5.82676 | 0° | 0km/h | 21647m | 0m/s | -273.1°C | 1.3% | 46.6hPa | 3.9V | 00:00:00 | 00:00:00 | 00:00:00 | |
| BIOWL1-15 | 2026-08-31 23:50:11 | 50.72944 | 5.82667 | 15° | 11km/h | 21617m | 6m/s | -273.1°C | 1.3% | 46.9hPa | 3.9V | 00:00:00 | 00:00:00 | 00:00:00 | |
| DM0DOS-11 | 2026-08-31 23:50:10 | 50.72942 | 5.82666 | 34° | 13km/h | 21611m | 5.1m/s | -273.1°C | 1.2% | 46.9hPa | 3.9V | 00:00:00 | 01:23:32 | 00:00:00 | |
| DL1XH1-15 | 2026-08-31 23:50:10 | 50.72933 | 5.82663 | 280° | 11km/h | 21590m | 4.8m/s | -273.1°C | 1.2% | 47hPa | 3.9V | 00:00:00 | 01:23:28 | 00:00:00 | |
| GOEST3-10 | 2026-08-31 23:50:07 | 50.72935 | 5.82659 | 348° | 11km/h | 21601m | 5.1m/s | 0°C | 1.2% | 46.9hPa | 3.9V | 00:00:00 | 00:00:00 | 00:00:00 | |
| DJ8HS-15 | 2026-08-31 23:50:06 | 50.72934 | 5.82660 | 280° | 11km/h | 21595m | 4.8m/s | 0°C | 1.2% | 47.0hPa | 3.9V | 00:00:00 | 01:23:29 | 00:00:00 | |
| DL1XH-west | 2026-08-31 23:50:06 | 50.72933 | 5.82663 | 0° | 0km/h | 21590m | 0m/s | -273.1°C | 1.3% | 47hPa | 3.9V | 00:00:00 | 00:00:00 | 00:00:00 | |
| DM0DOS-11 | 2026-08-31 23:50:03 | 50.72926 | 5.82659 | 349° | 11km/h | 21560m | 5m/s | -273.1°C | 1.2% | 47.2hPa | 3.9V | 00:00:00 | 01:23:22 | 00:00:00 | |
| BIOWL1-15 | 2026-08-31 23:50:00 | 50.72922 | 5.82655 | 56° | 18km/h | 21550m | 4m/s | -273.1°C | 1.3% | 47.3hPa | 3.9V | 00:00:00 | 00:00:00 | 00:00:00 | |
| DO3MHA-12 | 2026-08-31 23:49:59 | 50.72926 | 5.82658 | 44° | 53km/h | 21560m | 2.2m/s | 0°C | 1.2% | 47.2hPa | 3.9V | 00:00:00 | 01:23:22 | 00:00:00 | |
| DL1XH1-15 | 2026-08-31 23:49:58 | 50.72917 | 5.82645 | 334° | 9km/h | 21541m | 5.4m/s | -273.1°C | 1.2% | 47.4hPa | 3.9V | 00:00:00 | 01:23:18 | 00:00:00 | |
| DL1XH-west | 2026-08-31 23:49:56 | 50.72917 | 5.82645 | 0° | 0km/h | 21541m | 0m/s | -273.1°C | 1.3% | 47.4hPa | 3.9V | 00:00:00 | 00:00:00 | 00:00:00 | |
| GOEST3-10 | 2026-08-31 23:49:52 | 50.72917 | 5.82651 | 55° | 13km/h | 21525m | 5.3m/s | 0°C | 1.2% | 47.5hPa | 3.9V | 00:00:00 | 01:23:15 | 00:00:00 | |
| DM0DOS-11 | 2026-08-31 23:49:51 | 50.72908 | 5.82636 | 251° | 11km/h | 21509m | 5.4m/s | -273.1°C | 1.2% | 47.6hPa | 3.9V | 00:00:00 | 01:23:12 | 00:00:00 | |
| DL1XH1-15 | 2026-08-31 23:49:50 | 50.72902 | 5.82626 | 156° | 9km/h | 21483m | 5.5m/s | -273.1°C | 1.2% | 47.8hPa | 3.9V | 00:00:00 | 01:23:07 | 00:00:00 | |
| BIOWL1-15 | 2026-08-31 23:49:48 | 50.72904 | 5.82632 | 60° | 18km/h | 21487m | 4m/s | -273.1°C | 1.3% | 47.8hPa | 3.9V | 00:00:00 | 00:00:00 | 00:00:00 | |
| DL1XH-west | 2026-08-31 23:49:45 | 50.72902 | 5.82626 | 0° | 0km/h | 21483m | 0m/s | -273.1°C | 1.3% | 47.8hPa | 3.9V | 00:00:00 | 00:00:00 | 00:00:00 | |
| DB0UT-7 | 2026-08-31 23:49:44 | 50.72901 | 5.82626 | 157° | 13km/h | 21483m | 5.5m/s | 0°C | 1.2% | 47.7hPa | 3.9V | 00:00:00 | 00:00:00 | 00:00:00 | |
| DM0DOS-11 | 2026-08-31 23:49:43 | 50.72898 | 5.82615 | 90° | 7km/h | 21456m | 5.1m/s | -273.1°C | 1.2% | 48hPa | 3.9V | 00:00:00 | 01:23:02 | 00:00:00 | |
| GOEST3-10 | 2026-08-31 23:49:42 | 50.72905 | 5.82628 | 56° | 9km/h | 21471m | 5.1m/s | 0°C | 1.2% | 47.8hPa | 3.9V | 00:00:00 | 01:23:05 | 00:00:00 | |
| DL1XH1-15 | 2026-08-31 23:49:38 | 50.72898 | 5.82617 | 42° | 15km/h | 21436m | 5.3m/s | -273.1°C | 1.2% | 48.1hPa | 3.9V | 00:00:00 | 01:22:58 | 00:00:00 | |
| DL1XH-west | 2026-08-31 23:49:35 | 50.72896 | 5.82613 | 0° | 0km/h | 21430m | 0m/s | -273.1°C | 1.3% | 48.2hPa | 3.9V | 00:00:00 | 00:00:00 | 00:00:00 | |
| GOEST3-10 | 2026-08-31 23:49:32 | 50.72890 | 5.82605 | 259° | 15km/h | 21420m | 5.2m/s | 0°C | 1.2% | 48.2hPa | 3.9V | 00:00:00 | 01:22:55 | 00:00:00 | |
| DL1XH1-15 | 2026-08-31 23:49:30 | 50.72874 | 5.82612 | 301° | 16km/h | 21384m | 4.7m/s | -273.1°C | 1.2% | 48.5hPa | 3.9V | 00:00:00 | 01:22:48 | 00:00:00 | |
| DL1XH-west | 2026-08-31 23:49:25 | 50.72869 | 5.82625 | 0° | 0km/h | 21375m | 0m/s | -273.1°C | 1.3% | 48.5hPa | 3.9V | 00:00:00 | 00:00:00 | 00:00:00 | |
| DM0DOS-11 | 2026-08-31 23:49:23 | 50.72855 | 5.82622 | 300° | 13km/h | 21357m | 5m/s | -273.1°C | 1.2% | 48.7hPa | 3.9V | 00:00:00 | 01:22:42 | 00:00:00 | |
| GOEST3-10 | 2026-08-31 23:49:22 | 50.72866 | 5.82626 | 14° | 13km/h | 21370m | 4.6m/s | 0°C | 1.2% | 48.5hPa | 3.9V | 00:00:00 | 01:22:45 | 00:00:00 | |
| DL1XH1-15 | 2026-08-31 23:49:17 | 50.72851 | 5.82640 | 359° | 13km/h | 21338m | 5.1m/s | -273.1°C | 1.2% | 48.8hPa | 3.9V | 00:00:00 | 01:22:38 | 00:00:00 | |
| BIOWL1-15 | 2026-08-31 23:49:14 | 50.72842 | 5.82639 | 350° | 11km/h | 21328m | 5m/s | -273.1°C | 1.3% | 48.9hPa | 3.9V | 00:00:00 | 00:00:00 | 00:00:00 | |
| DL1XH-west | 2026-08-31 23:49:13 | 50.72840 | 5.82640 | 0° | 0km/h | 21323m | 0m/s | -273.1°C | 1.3% | 48.9hPa | 3.9V | 00:00:00 | 00:00:00 | 00:00:00 | |
| GOEST3-10 | 2026-08-31 23:49:12 | 50.72840 | 5.82640 | 232° | 11km/h | 21323m | 5.0m/s | 0°C | 1.2% | 48.9hPa | 3.9V | 00:00:00 | 01:22:35 | 00:00:00 | |
| DM0DOS-11 | 2026-08-31 23:49:11 | 50.72841 | 5.82650 | 17° | 11km/h | 21308m | 5m/s | -273.1°C | 1.2% | 49hPa | 3.9V | 00:00:00 | 01:22:32 | 00:00:00 | |
| DL1XH1-15 | 2026-08-31 23:49:10 | 50.72833 | 5.82648 | 232° | 11km/h | 21288m | 4.9m/s | -273.1°C | 1.2% | 49.2hPa | 3.9V | 00:00:00 | 01:22:28 | 00:00:00 | |
| GOEST3-10 | 2026-08-31 23:49:07 | 50.72835 | 5.82646 | 10° | 9km/h | 21298m | 4.9m/s | 0°C | 1.2% | 49.1hPa | 3.9V | 00:00:00 | 00:00:00 | 00:00:00 | |
| DJ8HS-15 | 2026-08-31 23:49:06 | 50.72833 | 5.82645 | 257° | 11km/h | 21293m | 4.8m/s | 0°C | 1.2% | 49.1hPa | 3.9V | 00:00:00 | 01:22:29 | 00:00:00 | |
| DM0DOS-11 | 2026-08-31 23:49:03 | 50.72830 | 5.82651 | 196° | 11km/h | 21259m | 5m/s | -273.1°C | 1.2% | 49.4hPa | 3.9V | 00:00:00 | 01:22:22 | 00:00:00 | |
| DL1XH-west | 2026-08-31 23:49:02 | 50.72833 | 5.82657 | 0° | 0km/h | 21268m | 0m/s | -273.1°C | 1.3% | 49.3hPa | 3.9V | 00:00:00 | 00:00:00 | 00:00:00 | |
| DL1XH1-15 | 2026-08-31 23:48:57 | 50.72836 | 5.82656 | 28° | 11km/h | 21239m | 5m/s | -273.1°C | 1.2% | 49.5hPa | 3.9V | 00:00:00 | 01:22:18 | 00:00:00 | |
| DL1XH-west | 2026-08-31 23:48:51 | 50.72841 | 5.82647 | 0° | 0km/h | 21215m | 0m/s | -273.1°C | 1.3% | 49.7hPa | 3.9V | 00:00:00 | 00:00:00 | 00:00:00 | |
| DL1XH1-15 | 2026-08-31 23:48:51 | 50.72839 | 5.82632 | 194° | 11km/h | 21189m | 4.4m/s | -273.1°C | 1.2% | 49.9hPa | 3.9V | 00:00:00 | 01:22:08 | 00:00:00 | |
| DM0DOS-11 | 2026-08-31 23:48:50 | 50.72841 | 5.82644 | 52° | 13km/h | 21210m | 5m/s | -273.1°C | 1.2% | 49.8hPa | 3.9V | 00:00:00 | 01:22:12 | 00:00:00 | |
| GOEST3-10 | 2026-08-31 23:48:47 | 50.72836 | 5.82634 | 91° | 11km/h | 21200m | 4.8m/s | 0°C | 1.2% | 49.8hPa | 3.9V | 00:00:00 | 00:00:00 | 00:00:00 | |
| DJ8HS-15 | 2026-08-31 23:48:46 | 50.72836 | 5.82631 | 186° | 13km/h | 21194m | 4.5m/s | 0°C | 1.2% | 49.8hPa | 3.9V | 00:00:00 | 01:22:09 | 00:00:00 | |
| DB0UT-7 | 2026-08-31 23:48:44 | 50.72841 | 5.82632 | 91° | 13km/h | 21186m | 4.9m/s | 0°C | 1.2% | 49.9hPa | 3.9V | 00:00:00 | 00:00:00 | 00:00:00 | |
| DM0DOS-11 | 2026-08-31 23:48:43 | 50.72836 | 5.82614 | 212° | 7km/h | 21161m | 4.5m/s | -273.1°C | 1.2% | 50.1hPa | 3.9V | 00:00:00 | 01:22:02 | 00:00:00 | |
| BIOWL1-15 | 2026-08-31 23:48:42 | 50.72837 | 5.82616 | 52° | 9km/h | 21171m | 5m/s | -273.1°C | 1.3% | 50.1hPa | 3.9V | 00:00:00 | 00:00:00 | 00:00:00 | |
| DL1XH-west | 2026-08-31 23:48:40 | 50.72836 | 5.82614 | 0° | 0km/h | 21161m | 0m/s | -273.1°C | 1.3% | 50.1hPa | 3.9V | 00:00:00 | 00:00:00 | 00:00:00 | |
| BIOWL1-15 | 2026-08-31 23:48:32 | 50.72831 | 5.82596 | 52° | 27km/h | 21119m | 6m/s | -273.1°C | 1.3% | 50.4hPa | 3.9V | 00:00:00 | 00:00:00 | 00:00:00 | |
| DM0DOS-11 | 2026-08-31 23:48:31 | 50.72827 | 5.82587 | 54° | 15km/h | 21113m | 5.2m/s | -273.1°C | 1.2% | 50.5hPa | 3.9V | 00:00:00 | 01:21:52 | 00:00:00 | |
| DL1XH-west | 2026-08-31 23:48:31 | 50.72827 | 5.82587 | 0° | 0km/h | 21113m | 0m/s | -273.1°C | 1.3% | 50.5hPa | 3.9V | 00:00:00 | 00:00:00 | 00:00:00 | |
| DL1XH1-15 | 2026-08-31 23:48:30 | 50.72820 | 5.82583 | 58° | 18km/h | 21093m | 5.5m/s | -273.1°C | 1.2% | 50.6hPa | 3.9V | 00:00:00 | 01:21:48 | 00:00:00 | |
| GOEST3-10 | 2026-08-31 23:48:27 | 50.72823 | 5.82580 | 294° | 16km/h | 21102m | 5.0m/s | 0°C | 1.2% | 50.5hPa | 3.9V | 00:00:00 | 00:00:00 | 00:00:00 | |
| DJ8HS-15 | 2026-08-31 23:48:26 | 50.72822 | 5.82584 | 20° | 15km/h | 21097m | 5.0m/s | 0°C | 1.2% | 50.6hPa | 3.9V | 00:00:00 | 01:21:49 | 00:00:00 | |
| DM0DOS-11 | 2026-08-31 23:48:23 | 50.72804 | 5.82564 | 57° | 16km/h | 21061m | 5.1m/s | -273.1°C | 1.2% | 50.9hPa | 3.9V | 00:00:00 | 01:21:42 | 00:00:00 | |
| BIOWL1-15 | 2026-08-31 23:48:21 | 50.72783 | 5.82530 | 5° | 4km/h | 21020m | 6m/s | -273.1°C | 1.3% | 51.2hPa | 3.9V | 00:00:00 | 00:00:00 | 00:00:00 | |
| DL1XH-west | 2026-08-31 23:48:19 | 50.72800 | 5.82555 | 0° | 0km/h | 21056m | 0m/s | -273.1°C | 1.3% | 51hPa | 3.9V | 00:00:00 | 00:00:00 | 00:00:00 | |
| DL1XH1-15 | 2026-08-31 23:48:17 | 50.72794 | 5.82553 | 35° | 15km/h | 21041m | 5.2m/s | -273.1°C | 1.2% | 51hPa | 3.9V | 00:00:00 | 01:21:38 | 00:00:00 | |
| GOEST3-10 | 2026-08-31 23:48:17 | 50.72797 | 5.82550 | 346° | 15km/h | 21051m | 5.2m/s | 0°C | 1.2% | 50.9hPa | 3.9V | 00:00:00 | 00:00:00 | 00:00:00 | |
| DB0UT-7 | 2026-08-31 23:48:14 | 50.72792 | 5.82551 | 56° | 15km/h | 21035m | 4.9m/s | 0°C | 1.2% | 51.0hPa | 3.9V | 00:00:00 | 01:21:37 | 00:00:00 | |
| GOEST3-10 | 2026-08-31 23:48:12 | 50.72786 | 5.82534 | 44° | 13km/h | 21026m | 5.2m/s | 0°C | 1.2% | 51.1hPa | 3.9V | 00:00:00 | 01:21:35 | 00:00:00 | |
| DL1XH1-15 | 2026-08-31 23:48:10 | 50.72775 | 5.82499 | 30° | 15km/h | 20992m | 5.1m/s | -273.1°C | 1.2% | 51.4hPa | 3.9V | 00:00:00 | 01:21:28 | 00:00:00 | |
| DL1XH-west | 2026-08-31 23:48:08 | 50.72779 | 5.82519 | 0° | 0km/h | 21000m | 0m/s | -273.1°C | 1.3% | 51.4hPa | 3.9V | 00:00:00 | 00:00:00 | 00:00:00 | |
| GOEST3-10 | 2026-08-31 23:48:07 | 50.72779 | 5.82519 | 75° | 15km/h | 21000m | 4.8m/s | 0°C | 1.2% | 51.3hPa | 3.9V | 00:00:00 | 00:00:00 | 00:00:00 | |
| DJ8HS-15 | 2026-08-31 23:48:06 | 50.72777 | 5.82507 | 70° | 16km/h | 20996m | 4.8m/s | 0°C | 1.2% | 51.3hPa | 3.9V | 00:00:00 | 01:21:29 | 00:00:00 | |
| DM0DOS-11 | 2026-08-31 23:48:03 | 50.72770 | 5.82464 | 65° | 11km/h | 20963m | 5m/s | -273.1°C | 1.2% | 51.6hPa | 3.9V | 00:00:00 | 01:21:22 | 00:00:00 | |
| BIOWL1-15 | 2026-08-31 23:48:01 | 50.72771 | 5.82426 | 73° | 15km/h | 20929m | 5m/s | -273.1°C | 1.3% | 51.9hPa | 3.9V | 00:00:00 | 00:00:00 | 00:00:00 | |
| DL1XH-west | 2026-08-31 23:47:58 | 50.72768 | 5.82460 | 0° | 0km/h | 20952m | 0m/s | -273.1°C | 1.3% | 51.8hPa | 3.9V | 00:00:00 | 00:00:00 | 00:00:00 | |
| DL1XH1-15 | 2026-08-31 23:47:57 | 50.72768 | 5.82453 | 107° | 18km/h | 20943m | 4.8m/s | -273.1°C | 1.2% | 51.8hPa | 3.9V | 00:00:00 | 01:21:18 | 00:00:00 | |
| GOEST3-10 | 2026-08-31 23:47:57 | 50.72768 | 5.82460 | 56° | 16km/h | 20952m | 4.6m/s | 0°C | 1.2% | 51.7hPa | 3.9V | 00:00:00 | 00:00:00 | 00:00:00 | |
| GOEST3-10 | 2026-08-31 23:47:52 | 50.72771 | 5.82426 | 73° | 16km/h | 20929m | 4.9m/s | 0°C | 1.2% | 51.9hPa | 3.9V | 00:00:00 | 01:21:15 | 00:00:00 | |
| DM0DOS-11 | 2026-08-31 23:47:51 | 50.72767 | 5.82417 | 94° | 18km/h | 20915m | 5.1m/s | -273.1°C | 1.2% | 52hPa | 3.9V | 00:00:00 | 01:21:12 | 00:00:00 | |
| DL1XH1-15 | 2026-08-31 23:47:50 | 50.72770 | 5.82387 | 73° | 16km/h | 20890m | 5.2m/s | -273.1°C | 1.2% | 52.2hPa | 3.9V | 00:00:00 | 01:21:07 | 00:00:00 | |
| DL1XH-west | 2026-08-31 23:47:48 | 50.72769 | 5.82398 | 0° | 0km/h | 20905m | 0m/s | -273.1°C | 1.3% | 52.1hPa | 3.9V | 00:00:00 | 00:00:00 | 00:00:00 | |
| BIOWL1-15 | 2026-08-31 23:47:47 | 50.72765 | 5.82349 | 83° | 26km/h | 20853m | 4m/s | -273.1°C | 1.3% | 52.5hPa | 3.9V | 00:00:00 | 00:00:00 | 00:00:00 | |
| GOEST3-10 | 2026-08-31 23:47:47 | 50.72769 | 5.82398 | 101° | 15km/h | 20905m | 5.0m/s | 0°C | 1.2% | 52.1hPa | 3.9V | 00:00:00 | 00:00:00 | 00:00:00 | |
| DJ8HS-15 | 2026-08-31 23:47:46 | 50.72770 | 5.82389 | 91° | 13km/h | 20901m | 5.4m/s | 0°C | 1.2% | 52.1hPa | 3.9V | 00:00:00 | 01:21:09 | 00:00:00 | |
| DM0DOS-11 | 2026-08-31 23:47:44 | 50.72768 | 5.82362 | 63° | 15km/h | 20864m | 5.1m/s | -273.1°C | 1.2% | 52.4hPa | 3.9V | 00:00:00 | 01:21:02 | 00:00:00 | |
| GOEST3-10 | 2026-08-31 23:47:42 | 50.72768 | 5.82371 | 87° | 15km/h | 20879m | 4.9m/s | 0°C | 1.2% | 52.3hPa | 3.9V | 00:00:00 | 01:21:05 | 00:00:00 | |
| DL1XH1-15 | 2026-08-31 23:47:39 | 50.72765 | 5.82334 | 90° | 11km/h | 20843m | 4.7m/s | -273.1°C | 1.2% | 52.6hPa | 3.9V | 00:00:00 | 01:20:58 | 00:00:00 | |
| DL1XH-west | 2026-08-31 23:47:37 | 50.72765 | 5.82338 | 0° | 0km/h | 20849m | 0m/s | -273.1°C | 1.3% | 52.6hPa | 3.9V | 00:00:00 | 00:00:00 | 00:00:00 | |
| BIOWL1-15 | 2026-08-31 23:47:35 | 50.72765 | 5.82333 | 32° | 4km/h | 20838m | 4m/s | -273.1°C | 1.3% | 52.6hPa | 3.9V | 00:00:00 | 00:00:00 | 00:00:00 | |
| GOEST3-10 | 2026-08-31 23:47:32 | 50.72761 | 5.82328 | 70° | 13km/h | 20829m | 4.7m/s | 0°C | 1.2% | 52.7hPa | 3.9V | 00:00:00 | 01:20:55 | 00:00:00 | |
| DL1XH1-15 | 2026-08-31 23:47:28 | 50.72752 | 5.82293 | 60° | 15km/h | 20794m | 4.6m/s | -273.1°C | 1.2% | 53hPa | 3.9V | 00:00:00 | 01:20:48 | 00:00:00 | |
| DL1XH-west | 2026-08-31 23:47:27 | 50.72752 | 5.82293 | 0° | 0km/h | 20794m | 0m/s | -273.1°C | 1.3% | 53hPa | 3.9V | 00:00:00 | 00:00:00 | 00:00:00 | |
| BIOWL1-15 | 2026-08-31 23:47:24 | 50.72747 | 5.82282 | 317° | 5km/h | 20785m | 5m/s | -273.1°C | 1.3% | 53.1hPa | 3.9V | 00:00:00 | 00:00:00 | 00:00:00 | |
| DM0DOS-11 | 2026-08-31 23:47:23 | 50.72741 | 5.82275 | 42° | 15km/h | 20765m | 4.9m/s | -273.1°C | 1.2% | 53.2hPa | 3.9V | 00:00:00 | 01:20:42 | 00:00:00 | |
| GOEST3-10 | 2026-08-31 23:47:22 | 50.72746 | 5.82283 | 324° | 13km/h | 20780m | 4.8m/s | 0°C | 1.2% | 53.1hPa | 3.9V | 00:00:00 | 01:20:45 | 00:00:00 | |
| DL1XH1-15 | 2026-08-31 23:47:20 | 50.72729 | 5.82264 | 270° | 11km/h | 20745m | 4.9m/s | -273.1°C | 1.2% | 53.4hPa | 3.9V | 00:00:00 | 01:20:38 | 00:00:00 | |
| DL1XH-west | 2026-08-31 23:47:16 | 50.72729 | 5.82267 | 0° | 0km/h | 20741m | 0m/s | -273.1°C | 1.3% | 53.4hPa | 3.9V | 00:00:00 | 00:00:00 | 00:00:00 | |
| BIOWL1-15 | 2026-08-31 23:47:13 | 50.72726 | 5.82267 | 32° | 24km/h | 20730m | 5m/s | -273.1°C | 1.3% | 53.5hPa | 3.9V | 00:00:00 | 00:00:00 | 00:00:00 | |
| DM0DOS-11 | 2026-08-31 23:47:13 | 50.72719 | 5.82259 | 222° | 11km/h | 20714m | 4.8m/s | -273.1°C | 1.2% | 53.6hPa | 3.9V | 00:00:00 | 01:20:32 | 00:00:00 | |
| DL1XH-west | 2026-08-31 23:47:06 | 50.72711 | 5.82265 | 0° | 0km/h | 20685m | 0m/s | -273.1°C | 1.3% | 53.9hPa | 3.9V | 00:00:00 | 00:00:00 | 00:00:00 | |
| BIOWL1-15 | 2026-08-31 23:47:02 | 50.72710 | 5.82270 | 35° | 16km/h | 20675m | 5m/s | -273.1°C | 1.3% | 53.9hPa | 3.9V | 00:00:00 | 00:00:00 | 00:00:00 | |
| DL1XH1-15 | 2026-08-31 23:47:00 | 50.72700 | 5.82277 | 325° | 9km/h | 20641m | 5.3m/s | -273.1°C | 1.2% | 54.2hPa | 3.9V | 00:00:00 | 01:20:17 | 00:00:00 | |
| DL1XH-west | 2026-08-31 23:46:55 | 50.72699 | 5.82278 | 0° | 0km/h | 20635m | 0m/s | -273.1°C | 1.3% | 54.3hPa | 3.9V | 00:00:00 | 00:00:00 | 00:00:00 | |
| BIOWL1-15 | 2026-08-31 23:46:52 | 50.72700 | 5.82286 | 63° | 13km/h | 20609m | 4m/s | -273.1°C | 1.3% | 54.5hPa | 3.9V | 00:00:00 | 00:00:00 | 00:00:00 | |
| DL1XH1-15 | 2026-08-31 23:46:47 | 50.72696 | 5.82285 | 270° | 11km/h | 20594m | 4.8m/s | -273.1°C | 1.2% | 54.6hPa | 3.9V | 00:00:00 | 01:20:08 | 00:00:00 | |
| DL1XH-west | 2026-08-31 23:46:44 | 50.72696 | 5.82284 | 0° | 0km/h | 20579m | 0m/s | -273.1°C | 1.3% | 54.7hPa | 3.9V | 00:00:00 | 00:00:00 | 00:00:00 | |
| BIOWL1-15 | 2026-08-31 23:46:41 | 50.72699 | 5.82282 | 110° | 16km/h | 20555m | 5m/s | -273.1°C | 1.3% | 54.9hPa | 3.9V | 00:00:00 | 00:00:00 | 00:00:00 | |
| DL1XH1-15 | 2026-08-31 23:46:40 | 50.72702 | 5.82267 | 114° | 11km/h | 20545m | 4.8m/s | -273.1°C | 1.2% | 55hPa | 3.9V | 00:00:00 | 01:19:58 | 00:00:00 | |
| DL1XH-west | 2026-08-31 23:46:34 | 50.72706 | 5.82267 | 0° | 0km/h | 20531m | 0m/s | -273.1°C | 1.3% | 55.1hPa | 3.9V | 00:00:00 | 00:00:00 | 00:00:00 | |
| BIOWL1-15 | 2026-08-31 23:46:31 | 50.72715 | 5.82246 | 105° | 16km/h | 20502m | 5m/s | -273.1°C | 1.3% | 55.4hPa | 3.9V | 00:00:00 | 00:00:00 | 00:00:00 | |
| DL1XH1-15 | 2026-08-31 23:46:27 | 50.72716 | 5.82240 | 104° | 16km/h | 20497m | 4.7m/s | -273.1°C | 1.2% | 55.4hPa | 3.9V | 00:00:00 | 01:19:48 | 00:00:00 | |
| DL1XH-west | 2026-08-31 23:46:23 | 50.72720 | 5.82221 | 0° | 0km/h | 20482m | 0m/s | -273.1°C | 1.3% | 55.5hPa | 3.9V | 00:00:00 | 00:00:00 | 00:00:00 | |
| DM0DOS-11 | 2026-08-31 23:46:23 | 50.72729 | 5.82217 | 129° | 18km/h | 20469m | 4.7m/s | -273.1°C | 1.2% | 55.6hPa | 3.9V | 00:00:00 | 01:19:42 | 00:00:00 | |
| DL1XH1-15 | 2026-08-31 23:46:21 | 50.72742 | 5.82196 | 162° | 15km/h | 20450m | 4.6m/s | -273.1°C | 1.2% | 55.8hPa | 3.9V | 00:00:00 | 01:19:38 | 00:00:00 | |
| BIOWL1-15 | 2026-08-31 23:46:18 | 50.72757 | 5.82160 | 167° | 13km/h | 20423m | 6m/s | -273.1°C | 1.3% | 56hPa | 3.9V | 00:00:00 | 00:00:00 | 00:00:00 | |
| DL1XH-west | 2026-08-31 23:46:13 | 50.72747 | 5.82184 | 0° | 0km/h | 20436m | 0m/s | -273.1°C | 1.4% | 55.9hPa | 3.9V | 00:00:00 | 00:00:00 | 00:00:00 | |
| GOEST3-10 | 2026-08-31 23:46:11 | 50.72751 | 5.82175 | 128° | 18km/h | 20431m | 4.6m/s | 0°C | 1.2% | 55.9hPa | 3.9V | 00:00:00 | 01:19:34 | 00:00:00 | |
| DM0DOS-11 | 2026-08-31 23:46:10 | 50.72757 | 5.82160 | 167° | 16km/h | 20423m | 5.1m/s | -273.1°C | 1.2% | 56hPa | 3.9V | 00:00:00 | 01:19:32 | 00:00:00 | |
| NBG1-10 | 2026-08-31 23:46:09 | 50.72757 | 5.82160 | 168° | 18km/h | 20423m | 5.1m/s | 0°C | 1.2% | 56.0hPa | 3.9V | 00:00:00 | 01:19:32 | 00:00:00 | |
| DJ8HS-15 | 2026-08-31 23:46:07 | 50.72765 | 5.82156 | 117° | 18km/h | 20407m | 4.8m/s | 0°C | 1.2% | 56.1hPa | 3.9V | 00:00:00 | 01:19:29 | 00:00:00 | |
| DL1XH1-15 | 2026-08-31 23:46:06 | 50.72768 | 5.82145 | 130° | 20km/h | 20402m | 4.8m/s | -273.1°C | 1.2% | 56.2hPa | 3.9V | 00:00:00 | 01:19:28 | 00:00:00 | |
| DM0DOS-11 | 2026-08-31 23:46:03 | 50.72792 | 5.82115 | 119° | 15km/h | 20373m | 5.1m/s | -273.1°C | 1.2% | 56.5hPa | 3.9V | 00:00:00 | 01:19:22 | 00:00:00 | |
| DL1XH-west | 2026-08-31 23:46:03 | 50.72782 | 5.82135 | 0° | 0km/h | 20383m | 0m/s | -273.1°C | 1.4% | 56.4hPa | 3.9V | 00:00:00 | 00:00:00 | 00:00:00 | |
| GOEST3-10 | 2026-08-31 23:46:01 | 50.72782 | 5.82135 | 128° | 16km/h | 20383m | 5.0m/s | 0°C | 1.3% | 56.3hPa | 3.9V | 00:00:00 | 01:19:24 | 00:00:00 | |
| DL1XH1-15 | 2026-08-31 23:46:00 | 50.72802 | 5.82101 | 126° | 20km/h | 20352m | 4.6m/s | -273.1°C | 1.2% | 56.6hPa | 3.9V | 00:00:00 | 01:19:18 | 00:00:00 | |
| BIOWL1-15 | 2026-08-31 23:45:52 | 50.72823 | 5.82046 | 113° | 7km/h | 20308m | 4m/s | -273.1°C | 1.4% | 57hPa | 3.9V | 00:00:00 | 00:00:00 | 00:00:00 | |
| DL1XH-west | 2026-08-31 23:45:52 | 50.72812 | 5.82076 | 0° | 0km/h | 20329m | 0m/s | -273.1°C | 1.4% | 56.8hPa | 3.9V | 00:00:00 | 00:00:00 | 00:00:00 | |
| DM0DOS-11 | 2026-08-31 23:45:51 | 50.72815 | 5.82065 | 118° | 20km/h | 20323m | 4.8m/s | -273.1°C | 1.3% | 56.9hPa | 3.9V | 00:00:00 | 01:19:12 | 00:00:00 | |
| DL1XH1-15 | 2026-08-31 23:45:46 | 50.72823 | 5.82043 | 115° | 20km/h | 20304m | 5m/s | -273.1°C | 1.3% | 57hPa | 3.9V | 00:00:00 | 01:19:08 | 00:00:00 | |
| BIOWL1-15 | 2026-08-31 23:45:44 | 50.72834 | 5.82007 | 90° | 4km/h | 20285m | 6m/s | -273.1°C | 1.3% | 57.2hPa | 3.9V | 00:00:00 | 00:00:00 | 00:00:00 | |
| DM0DOS-11 | 2026-08-31 23:45:43 | 50.72834 | 5.82003 | 114° | 20km/h | 20275m | 4.9m/s | -273.1°C | 1.3% | 57.3hPa | 3.9V | 00:00:00 | 01:19:02 | 00:00:00 | |
| DL1XH-west | 2026-08-31 23:45:41 | 50.72834 | 5.82006 | 0° | 0km/h | 20279m | 0m/s | -273.1°C | 1.3% | 57.2hPa | 3.9V | 00:00:00 | 00:00:00 | 00:00:00 | |
| BIOWL1-15 | 2026-08-31 23:45:34 | 50.72862 | 5.81907 | 120° | 24km/h | 20207m | 5m/s | -273.1°C | 1.4% | 57.9hPa | 3.9V | 00:00:00 | 00:00:00 | 00:00:00 | |
| DL1XH-west | 2026-08-31 23:45:31 | 50.72856 | 5.81933 | 0° | 0km/h | 20226m | 0m/s | -273.1°C | 1.4% | 57.7hPa | 3.9V | 00:00:00 | 00:00:00 | 00:00:00 | |
| DM0DOS-11 | 2026-08-31 23:45:30 | 50.72856 | 5.81933 | 107° | 16km/h | 20226m | 4.7m/s | -273.1°C | 1.3% | 57.7hPa | 3.9V | 00:00:00 | 01:18:52 | 00:00:00 | |
| DJ8HS-15 | 2026-08-31 23:45:26 | 50.72859 | 5.81916 | 118° | 18km/h | 20211m | 4.6m/s | 0°C | 1.2% | 57.8hPa | 3.9V | 00:00:00 | 01:18:49 | 00:00:00 | |
| GOEST3-10 | 2026-08-31 23:45:24 | 50.72865 | 5.81898 | 109° | 18km/h | 20202m | 4.7m/s | 0°C | 1.3% | 57.9hPa | 3.9V | 00:00:00 | 00:00:00 | 00:00:00 | |
| DM0DOS-11 | 2026-08-31 23:45:23 | 50.72864 | 5.81871 | 93° | 20km/h | 20178m | 4.6m/s | -273.1°C | 1.3% | 58.1hPa | 3.9V | 00:00:00 | 01:18:42 | 00:00:00 | |
| BIOWL1-15 | 2026-08-31 23:45:21 | 50.72865 | 5.81879 | 82° | 22km/h | 20183m | 5m/s | -273.1°C | 1.4% | 58.1hPa | 3.9V | 00:00:00 | 00:00:00 | 00:00:00 | |
| DL1XH-west | 2026-08-31 23:45:19 | 50.72865 | 5.81861 | 0° | 0km/h | 20173m | 0m/s | -273.1°C | 1.4% | 58.2hPa | 3.9V | 00:00:00 | 00:00:00 | 00:00:00 | |
| BIOWL1-15 | 2026-08-31 23:45:12 | 50.72867 | 5.81799 | 90° | 15km/h | 20131m | 5m/s | -273.1°C | 1.4% | 58.6hPa | 3.9V | 00:00:00 | 00:00:00 | 00:00:00 | |
| DM0DOS-11 | 2026-08-31 23:45:11 | 50.72867 | 5.81799 | 90° | 18km/h | 20131m | 4.8m/s | -273.1°C | 1.3% | 58.5hPa | 3.9V | 00:00:00 | 01:18:32 | 00:00:00 | |
| DL1XH-west | 2026-08-31 23:45:09 | 50.72867 | 5.81793 | 0° | 0km/h | 20126m | 0m/s | -273.1°C | 1.4% | 58.6hPa | 3.9V | 00:00:00 | 00:00:00 | 00:00:00 | |
| DL1XH1-15 | 2026-08-31 23:45:07 | 50.72860 | 5.81770 | 94° | 20km/h | 20113m | 5.1m/s | -273.1°C | 1.3% | 58.7hPa | 3.9V | 00:00:00 | 01:18:28 | 00:00:00 | |
| DJ8HS-15 | 2026-08-31 23:45:06 | 50.72863 | 5.81780 | 64° | 22km/h | 20117m | 4.7m/s | 0°C | 1.3% | 58.6hPa | 3.9V | 00:00:00 | 01:18:29 | 00:00:00 | |
| DM0DOS-11 | 2026-08-31 23:45:04 | 50.72862 | 5.81728 | 141° | 22km/h | 20083m | 4.8m/s | -273.1°C | 1.3% | 59hPa | 3.9V | 00:00:00 | 01:18:22 | 00:00:00 | |
| DL1XH1-15 | 2026-08-31 23:45:00 | 50.72867 | 5.81699 | 83° | 24km/h | 20064m | 4.7m/s | -273.1°C | 1.3% | 59.1hPa | 3.9V | 00:00:00 | 01:18:18 | 00:00:00 | |
| BIOWL1-15 | 2026-08-31 23:44:59 | 50.72866 | 5.81723 | 124° | 22km/h | 20078m | 5m/s | -273.1°C | 1.4% | 59hPa | 3.9V | 00:00:00 | 00:00:00 | 00:00:00 | |
| DL1XH-west | 2026-08-31 23:44:58 | 50.72869 | 5.81716 | 0° | 0km/h | 20073m | 0m/s | -273.1°C | 1.4% | 59.1hPa | 3.9V | 00:00:00 | 00:00:00 | 00:00:00 | |
| BIOWL1-15 | 2026-08-31 23:44:50 | 50.72877 | 5.81632 | 111° | 20km/h | 20027m | 5m/s | -273.1°C | 1.4% | 59.5hPa | 3.9V | 00:00:00 | 00:00:00 | 00:00:00 | |
| DM0DOS-11 | 2026-08-31 23:44:50 | 50.72879 | 5.81649 | 73° | 22km/h | 20036m | 4.6m/s | -273.1°C | 1.3% | 59.4hPa | 3.9V | 00:00:00 | 01:18:12 | 00:00:00 | |
| DL1XH-west | 2026-08-31 23:44:47 | 50.72879 | 5.81624 | 0° | 0km/h | 20022m | 0m/s | -273.1°C | 1.4% | 59.5hPa | 3.9V | 00:00:00 | 00:00:00 | 00:00:00 | |
| DL1XH1-15 | 2026-08-31 23:44:47 | 50.72882 | 5.81618 | 144° | 24km/h | 20017m | 4.4m/s | -273.1°C | 1.3% | 59.5hPa | 3.9V | 00:00:00 | 01:18:08 | 00:00:00 | |
| DJ8HS-15 | 2026-08-31 23:44:46 | 50.72879 | 5.81624 | 132° | 29km/h | 20022m | 4.5m/s | 0°C | 1.3% | 59.5hPa | 3.9V | 00:00:00 | 01:18:09 | 00:00:00 | |
| DB0UT-7 | 2026-08-31 23:44:44 | 50.72886 | 5.81613 | 133° | 31km/h | 20013m | 4.5m/s | 0°C | 1.3% | 59.5hPa | 3.9V | 00:00:00 | 00:00:00 | 00:00:00 | |
| DM0DOS-11 | 2026-08-31 23:44:43 | 50.72893 | 5.81571 | 129° | 29km/h | 19990m | 4.9m/s | -273.1°C | 1.3% | 59.8hPa | 3.9V | 00:00:00 | 01:18:02 | 00:00:00 | |
| GOEST3-10 | 2026-08-31 23:44:42 | 50.72891 | 5.81598 | 70° | 29km/h | 20004m | 4.6m/s | 0°C | 1.3% | 59.6hPa | 3.9V | 00:00:00 | 00:00:00 | 00:00:00 | |
| DL1XH1-15 | 2026-08-31 23:44:40 | 50.72898 | 5.81526 | 90° | 29km/h | 19971m | 4.9m/s | -273.1°C | 1.3% | 60hPa | 3.9V | 00:00:00 | 01:17:58 | 00:00:00 | |
| BIOWL1-15 | 2026-08-31 23:44:39 | 50.72900 | 5.81538 | 76° | 31km/h | 19975m | 4m/s | -273.1°C | 1.4% | 60hPa | 3.9V | 00:00:00 | 00:00:00 | 00:00:00 | |
| DL1XH-west | 2026-08-31 23:44:36 | 50.72898 | 5.81526 | 0° | 0km/h | 19971m | 0m/s | -273.1°C | 1.4% | 60hPa | 3.9V | 00:00:00 | 00:00:00 | 00:00:00 | |
| GOEST3-10 | 2026-08-31 23:44:32 | 50.72906 | 5.81499 | 91° | 33km/h | 19958m | 5.4m/s | 0°C | 1.3% | 60.1hPa | 3.9V | 00:00:00 | 00:00:00 | 00:00:00 | |
| DM0DOS-11 | 2026-08-31 23:44:31 | 50.72902 | 5.81459 | 99° | 33km/h | 19941m | 4.9m/s | -273.1°C | 1.3% | 60.2hPa | 3.9V | 00:00:00 | 01:17:52 | 00:00:00 | |
| DL1XH1-15 | 2026-08-31 23:44:27 | 50.72906 | 5.81408 | 69° | 35km/h | 19921m | 4.6m/s | -273.1°C | 1.3% | 60.4hPa | 3.9V | 00:00:00 | 01:17:48 | 00:00:00 | |
| BIOWL1-15 | 2026-08-31 23:44:27 | 50.72908 | 5.81424 | 75° | 42km/h | 19926m | 5m/s | -273.1°C | 1.4% | 60.4hPa | 3.9V | 00:00:00 | 00:00:00 | 00:00:00 | |
| DL1XH-west | 2026-08-31 23:44:25 | 50.72902 | 5.81392 | 0° | 0km/h | 19918m | 0m/s | -273.1°C | 1.4% | 60.5hPa | 3.9V | 00:00:00 | 00:00:00 | 00:00:00 | |
| DM0DOS-11 | 2026-08-31 23:44:23 | 50.72900 | 5.81332 | 80° | 29km/h | 19893m | 5.1m/s | -273.1°C | 1.3% | 60.7hPa | 3.9V | 00:00:00 | 01:17:42 | 00:00:00 | |
| NBG1-10 | 2026-08-31 23:44:22 | 50.72904 | 5.81370 | 86° | 29km/h | 19907m | 4.8m/s | 0°C | 1.3% | 60.5hPa | 3.9V | 00:00:00 | 01:17:45 | 00:00:00 | |
| GOEST3-10 | 2026-08-31 23:44:21 | 50.72907 | 5.81360 | 74° | 31km/h | 19903m | 5.1m/s | 0°C | 1.3% | 60.5hPa | 3.9V | 00:00:00 | 00:00:00 | 00:00:00 | |
| DL1XH1-15 | 2026-08-31 23:44:20 | 50.72903 | 5.81286 | 54° | 31km/h | 19872m | 4.8m/s | -273.1°C | 1.3% | 60.9hPa | 3.9V | 00:00:00 | 01:17:38 | 00:00:00 | |
| BIOWL1-15 | 2026-08-31 23:44:18 | 50.72895 | 5.81218 | 59° | 29km/h | 19843m | 4m/s | -273.1°C | 1.5% | 61.2hPa | 3.9V | 00:00:00 | 00:00:00 | 00:00:00 | |
| DL1XH-west | 2026-08-31 23:44:14 | 50.72896 | 5.81263 | 0° | 0km/h | 19863m | 0m/s | -273.1°C | 1.4% | 61hPa | 3.9V | 00:00:00 | 00:00:00 | 00:00:00 | |
| GOEST3-10 | 2026-08-31 23:44:10 | 50.72900 | 5.81230 | 58° | 29km/h | 19848m | 4.9m/s | 0°C | 1.3% | 61.0hPa | 3.9V | 00:00:00 | 00:00:00 | 00:00:00 | |
| DL1XH1-15 | 2026-08-31 23:44:07 | 50.72895 | 5.81177 | 56° | 31km/h | 19823m | 5m/s | -273.1°C | 1.3% | 61.3hPa | 3.9V | 00:00:00 | 01:17:28 | 00:00:00 | |
| DL1XH-west | 2026-08-31 23:44:04 | 50.72886 | 5.81156 | 0° | 0km/h | 19813m | 0m/s | -273.1°C | 1.4% | 61.4hPa | 3.9V | 00:00:00 | 00:00:00 | 00:00:00 | |
| BIOWL1-15 | 2026-08-31 23:44:01 | 50.72870 | 5.81064 | 99° | 29km/h | 19775m | 6m/s | -273.1°C | 1.4% | 61.8hPa | 3.9V | 00:00:00 | 00:00:00 | 00:00:00 | |
| DL1XH1-15 | 2026-08-31 23:44:00 | 50.72870 | 5.81064 | 98° | 29km/h | 19775m | 5.1m/s | -273.1°C | 1.3% | 61.8hPa | 3.9V | 00:00:00 | 01:17:18 | 00:00:00 | |
| DL1XH-west | 2026-08-31 23:43:53 | 50.72871 | 5.81030 | 0° | 0km/h | 19760m | 0m/s | -273.1°C | 1.5% | 61.9hPa | 3.9V | 00:00:00 | 00:00:00 | 00:00:00 | |
| DM0DOS-11 | 2026-08-31 23:43:50 | 50.72858 | 5.80997 | 93° | 29km/h | 19744m | 4.6m/s | -273.1°C | 1.5% | 62hPa | 3.9V | 00:00:00 | 01:17:12 | 00:00:00 | |
| DL1XH1-15 | 2026-08-31 23:43:47 | 50.72849 | 5.80953 | 44° | 27km/h | 19726m | 5m/s | -273.1°C | 1.5% | 62.2hPa | 3.9V | 00:00:00 | 01:17:08 | 00:00:00 | |
| BIOWL1-15 | 2026-08-31 23:43:45 | 50.72844 | 5.80945 | 74° | 22km/h | 19721m | 6m/s | -273.1°C | 1.5% | 62.3hPa | 3.9V | 00:00:00 | 00:00:00 | 00:00:00 | |
| DL1XH-west | 2026-08-31 23:43:44 | 50.72844 | 5.80927 | 0° | 0km/h | 19711m | 0m/s | -273.1°C | 1.5% | 62.4hPa | 3.9V | 00:00:00 | 00:00:00 | 00:00:00 | |
| DL1XH1-15 | 2026-08-31 23:43:40 | 50.72820 | 5.80862 | 44° | 29km/h | 19677m | 4.7m/s | -273.1°C | 1.5% | 62.7hPa | 3.9V | 00:00:00 | 01:16:58 | 00:00:00 | |
| DM0DOS-11 | 2026-08-31 23:43:40 | 50.72828 | 5.80897 | 68° | 26km/h | 19697m | 5m/s | -273.1°C | 1.5% | 62.5hPa | 3.9V | 00:00:00 | 01:17:02 | 00:00:00 | |
| BIOWL1-15 | 2026-08-31 23:43:35 | 50.72799 | 5.80811 | 33° | 38km/h | 19649m | 6m/s | -273.1°C | 1.5% | 63hPa | 3.9V | 00:00:00 | 00:00:00 | 00:00:00 | |
| DM0DOS-11 | 2026-08-31 23:43:34 | 50.72799 | 5.80811 | 33° | 29km/h | 19649m | 5m/s | -273.1°C | 1.5% | 63hPa | 3.9V | 00:00:00 | 01:16:52 | 00:00:00 | |
| DL1XH-west | 2026-08-31 23:43:32 | 50.72803 | 5.80829 | 0° | 0km/h | 19659m | 0m/s | -273.1°C | 1.5% | 62.9hPa | 3.9V | 00:00:00 | 00:00:00 | 00:00:00 | |
| GOEST3-10 | 2026-08-31 23:43:28 | 50.72790 | 5.80803 | 43° | 27km/h | 19643m | 4.6m/s | 0°C | 1.5% | 63.0hPa | 3.9V | 00:00:00 | 00:00:00 | 00:00:00 | |
| DL1XH1-15 | 2026-08-31 23:43:27 | 50.72783 | 5.80777 | 59° | 29km/h | 19629m | 4.8m/s | -273.1°C | 1.5% | 63.1hPa | 3.9V | 00:00:00 | 01:16:48 | 00:00:00 | |
| DJ8HS-15 | 2026-08-31 23:43:26 | 50.72783 | 5.80785 | 95° | 27km/h | 19633m | 4.6m/s | 0°C | 1.5% | 63.1hPa | 3.9V | 00:00:00 | 01:16:49 | 00:00:00 | |
| DM0DOS-11 | 2026-08-31 23:43:24 | 50.72762 | 5.80723 | 60° | 29km/h | 19601m | 5.1m/s | -273.1°C | 1.5% | 63.4hPa | 3.9V | 00:00:00 | 01:16:42 | 00:00:00 | |
| DL1XH-west | 2026-08-31 23:43:21 | 50.72762 | 5.80733 | 0° | 0km/h | 19605m | 0m/s | -273.1°C | 1.5% | 63.4hPa | 3.9V | 00:00:00 | 00:00:00 | 00:00:00 | |
| DL1XH1-15 | 2026-08-31 23:43:20 | 50.72741 | 5.80687 | 94° | 26km/h | 19580m | 4.8m/s | -273.1°C | 1.5% | 63.6hPa | 3.9V | 00:00:00 | 01:16:38 | 00:00:00 | |
| GOEST3-10 | 2026-08-31 23:43:18 | 50.72759 | 5.80714 | 33° | 27km/h | 19596m | 5.0m/s | 0°C | 1.5% | 63.4hPa | 3.9V | 00:00:00 | 00:00:00 | 00:00:00 | |
| DM0DOS-11 | 2026-08-31 23:43:14 | 50.72723 | 5.80637 | 90° | 27km/h | 19550m | 4.5m/s | -273.1°C | 1.5% | 63.9hPa | 3.9V | 00:00:00 | 01:16:32 | 00:00:00 | |
| BIOWL1-15 | 2026-08-31 23:43:11 | 50.72723 | 5.80644 | 81° | 20km/h | 19556m | 6m/s | -273.1°C | 1.5% | 63.8hPa | 3.9V | 00:00:00 | 00:00:00 | 00:00:00 | |
| DL1XH-west | 2026-08-31 23:43:10 | 50.72723 | 5.80637 | 0° | 0km/h | 19550m | 0m/s | -273.1°C | 1.5% | 63.9hPa | 3.9V | 00:00:00 | 00:00:00 | 00:00:00 | |
| BIOWL1-15 | 2026-08-31 23:43:01 | 50.72681 | 5.80511 | 72° | 24km/h | 19492m | 4m/s | -273.1°C | 1.5% | 64.5hPa | 3.9V | 00:00:00 | 00:00:00 | 00:00:00 | |
| DL1XH-west | 2026-08-31 23:43:00 | 50.72689 | 5.80533 | 0° | 0km/h | 19502m | 0m/s | -273.1°C | 1.5% | 64.4hPa | 3.9V | 00:00:00 | 00:00:00 | 00:00:00 | |
| DL1XH1-15 | 2026-08-31 23:43:00 | 50.72676 | 5.80493 | 47° | 38km/h | 19483m | 4.6m/s | -273.1°C | 1.5% | 64.5hPa | 3.9V | 00:00:00 | 01:16:18 | 00:00:00 | |
| DM0DOS-11 | 2026-08-31 23:43:00 | 50.72689 | 5.80533 | 52° | 33km/h | 19502m | 4.7m/s | -273.1°C | 1.5% | 64.4hPa | 3.9V | 00:00:00 | 01:16:22 | 00:00:00 | |
| GOEST3-10 | 2026-08-31 23:42:58 | 50.72683 | 5.80522 | 75° | 35km/h | 19498m | 4.8m/s | 0°C | 1.5% | 64.4hPa | 4V | 00:00:00 | 00:00:00 | 00:00:00 | |
| DM0DOS-11 | 2026-08-31 23:42:54 | 50.72650 | 5.80415 | 43° | 37km/h | 19455m | 4.7m/s | -273.1°C | 1.5% | 64.8hPa | 4V | 00:00:00 | 01:16:12 | 00:00:00 | |
| DL1XH-west | 2026-08-31 23:42:50 | 50.72644 | 5.80406 | 0° | 0km/h | 19450m | 0m/s | -273.1°C | 1.5% | 64.9hPa | 4V | 00:00:00 | 00:00:00 | 00:00:00 | |
| BIOWL1-15 | 2026-08-31 23:42:48 | 50.72639 | 5.80396 | 70° | 35km/h | 19446m | 6m/s | -273.1°C | 1.5% | 64.9hPa | 3.9V | 00:00:00 | 00:00:00 | 00:00:00 | |
| DL1XH1-15 | 2026-08-31 23:42:47 | 50.72632 | 5.80366 | 71° | 42km/h | 19436m | 4.5m/s | -273.1°C | 1.5% | 65hPa | 3.9V | 00:00:00 | 01:16:08 | 00:00:00 | |
| DJ8HS-15 | 2026-08-31 23:42:47 | 50.72636 | 5.80382 | 72° | 40km/h | 19440m | 4.3m/s | 0°C | 1.5% | 64.9hPa | 3.9V | 00:00:00 | 01:16:09 | 00:00:00 | |
| DM0DOS-11 | 2026-08-31 23:42:44 | 50.72599 | 5.80282 | 70° | 42km/h | 19409m | 4.6m/s | -273.1°C | 1.5% | 65.3hPa | 3.9V | 00:00:00 | 01:16:02 | 00:00:00 | |
| GOEST3-10 | 2026-08-31 23:42:43 | 50.72624 | 5.80335 | 51° | 42km/h | 19427m | 4.4m/s | 0°C | 1.5% | 65.1hPa | 3.9V | 00:00:00 | 01:16:06 | 00:00:00 | |
| DL1XH1-15 | 2026-08-31 23:42:40 | 50.72578 | 5.80230 | 49° | 44km/h | 19391m | 5m/s | -273.1°C | 1.5% | 65.5hPa | 3.9V | 00:00:00 | 01:15:58 | 00:00:00 | |
| DL1XH-west | 2026-08-31 23:42:38 | 50.72590 | 5.80248 | 0° | 0km/h | 19401m | 0m/s | -273.1°C | 1.5% | 65.4hPa | 3.9V | 00:00:00 | 00:00:00 | 00:00:00 | |
| BIOWL1-15 | 2026-08-31 23:42:37 | 50.72571 | 5.80218 | 63° | 53km/h | 19386m | 5m/s | -273.1°C | 1.5% | 65.5hPa | 3.9V | 00:00:00 | 00:00:00 | 00:00:00 | |
| DM0DOS-11 | 2026-08-31 23:42:33 | 50.72543 | 5.80150 | 52° | 42km/h | 19361m | 5m/s | -273.1°C | 1.5% | 65.8hPa | 3.9V | 00:00:00 | 01:15:52 | 00:00:00 | |
| DL1XH-west | 2026-08-31 23:42:27 | 50.72526 | 5.80101 | 0° | 0km/h | 19347m | 0m/s | -273.1°C | 1.5% | 65.9hPa | 3.9V | 00:00:00 | 00:00:00 | 00:00:00 | |
| DL1XH1-15 | 2026-08-31 23:42:27 | 50.72521 | 5.80088 | 41° | 35km/h | 19341m | 4.9m/s | -273.1°C | 1.5% | 65.9hPa | 4V | 00:00:00 | 01:15:48 | 00:00:00 | |
| BIOWL1-15 | 2026-08-31 23:42:27 | 50.72515 | 5.80079 | 44° | 29km/h | 19336m | 4m/s | -273.1°C | 1.5% | 66hPa | 4V | 00:00:00 | 00:00:00 | 00:00:00 | |
| DJ8HS-15 | 2026-08-31 23:42:27 | 50.72526 | 5.80101 | 60° | 33km/h | 19347m | 5.1m/s | 0°C | 1.5% | 65.9hPa | 4V | 00:00:00 | 01:15:49 | 00:00:00 | |
| GOEST3-10 | 2026-08-31 23:42:22 | 50.72503 | 5.80060 | 55° | 33km/h | 19327m | 5.0m/s | 0°C | 1.5% | 66.0hPa | 4V | 00:00:00 | 01:15:45 | 00:00:00 | |
| DM0DOS-11 | 2026-08-31 23:42:21 | 50.72484 | 5.80015 | 42° | 29km/h | 19312m | 5.2m/s | -273.1°C | 1.5% | 66.2hPa | 4V | 00:00:00 | 01:15:42 | 00:00:00 | |
| DL1XH1-15 | 2026-08-31 23:42:20 | 50.72464 | 5.79979 | 55° | 31km/h | 19291m | 5m/s | -273.1°C | 1.5% | 66.4hPa | 4V | 00:00:00 | 01:15:38 | 00:00:00 | |
| DL1XH-west | 2026-08-31 23:42:16 | 50.72464 | 5.79979 | 0° | 0km/h | 19291m | 0m/s | -273.1°C | 1.5% | 66.4hPa | 4V | 00:00:00 | 00:00:00 | 00:00:00 | |
| BIOWL1-15 | 2026-08-31 23:42:15 | 50.72433 | 5.79918 | 51° | 31km/h | 19261m | 5m/s | -273.1°C | 1.5% | 66.7hPa | 4V | 00:00:00 | 00:00:00 | 00:00:00 | |
| DB0UT-7 | 2026-08-31 23:42:14 | 50.72458 | 5.79965 | 48° | 29km/h | 19287m | 5.2m/s | 0°C | 1.5% | 66.4hPa | 3.9V | 00:00:00 | 01:15:37 | 00:00:00 | |
| GOEST3-10 | 2026-08-31 23:42:13 | 50.72449 | 5.79953 | 48° | 29km/h | 19276m | 4.9m/s | 0°C | 1.5% | 66.5hPa | 4V | 00:00:00 | 01:15:35 | 00:00:00 | |
| DM0DOS-11 | 2026-08-31 23:42:10 | 50.72433 | 5.79918 | 51° | 27km/h | 19261m | 5m/s | -273.1°C | 1.5% | 66.7hPa | 4V | 00:00:00 | 01:15:32 | 00:00:00 | |
| BIOWL1-15 | 2026-08-31 23:42:07 | 50.72402 | 5.79868 | 60° | 24km/h | 19232m | 6m/s | -273.1°C | 1.5% | 67.1hPa | 4V | 00:00:00 | 00:00:00 | 00:00:00 | |
| DL1XH-west | 2026-08-31 23:42:05 | 50.72408 | 5.79880 | 0° | 0km/h | 19236m | 0m/s | -273.1°C | 1.5% | 67hPa | 4V | 00:00:00 | 00:00:00 | 00:00:00 | |
| GOEST3-10 | 2026-08-31 23:42:01 | 50.72396 | 5.79857 | 27° | 29km/h | 19221m | 4.6m/s | 0°C | 1.5% | 67.1hPa | 4.0V | 00:00:00 | 01:15:24 | 00:00:00 | |
| DL1XH1-15 | 2026-08-31 23:42:00 | 50.72364 | 5.79814 | 39° | 26km/h | 19193m | 4.9m/s | -273.1°C | 1.5% | 67.4hPa | 4V | 00:00:00 | 01:15:18 | 00:00:00 | |
| BIOWL1-15 | 2026-08-31 23:41:54 | 50.72328 | 5.79769 | 27° | 31km/h | 19158m | 6m/s | -273.1°C | 1.5% | 67.8hPa | 3.9V | 00:00:00 | 00:00:00 | 00:00:00 | |
| DL1XH-west | 2026-08-31 23:41:54 | 50.72358 | 5.79805 | 0° | 0km/h | 19184m | 0m/s | -273.1°C | 1.5% | 67.5hPa | 4V | 00:00:00 | 00:00:00 | 00:00:00 | |
| DM0DOS-11 | 2026-08-31 23:41:54 | 50.72333 | 5.79770 | 9° | 29km/h | 19162m | 5m/s | -273.1°C | 1.5% | 67.8hPa | 4V | 00:00:00 | 01:15:12 | 00:00:00 | |
| GOEST3-10 | 2026-08-31 23:41:50 | 50.72338 | 5.79774 | 28° | 31km/h | 19169m | 5.5m/s | 0°C | 1.5% | 67.6hPa | 4V | 00:00:00 | 01:15:13 | 00:00:00 | |
| DL1XH1-15 | 2026-08-31 23:41:47 | 50.72306 | 5.79740 | 26° | 29km/h | 19143m | 5.5m/s | -273.1°C | 1.5% | 67.9hPa | 4V | 00:00:00 | 01:15:08 | 00:00:00 | |
| DL1XH-west | 2026-08-31 23:41:43 | 50.72287 | 5.79729 | 0° | 0km/h | 19126m | 0m/s | -273.1°C | 1.6% | 68.1hPa | 4V | 00:00:00 | 00:00:00 | 00:00:00 | |
| BIOWL1-15 | 2026-08-31 23:41:43 | 50.72281 | 5.79719 | 48° | 42km/h | 19120m | 4m/s | -273.1°C | 1.6% | 68.2hPa | 4V | 00:00:00 | 00:00:00 | 00:00:00 | |
| DM0DOS-11 | 2026-08-31 23:41:43 | 50.72266 | 5.79697 | 16° | 27km/h | 19111m | 5.1m/s | -273.1°C | 1.5% | 68.3hPa | 4V | 00:00:00 | 01:15:02 | 00:00:00 | |
| DL1XH1-15 | 2026-08-31 23:41:40 | 50.72241 | 5.79676 | 53° | 29km/h | 19090m | 4.9m/s | -273.1°C | 1.5% | 68.5hPa | 4V | 00:00:00 | 01:14:58 | 00:00:00 | |
| DL1XH-west | 2026-08-31 23:41:32 | 50.72220 | 5.79653 | 0° | 0km/h | 19071m | 0m/s | -273.1°C | 1.6% | 68.7hPa | 4V | 00:00:00 | 00:00:00 | 00:00:00 | |
| BIOWL1-15 | 2026-08-31 23:41:31 | 50.72169 | 5.79587 | 10° | 20km/h | 19019m | 5m/s | -273.1°C | 1.6% | 69.2hPa | 4V | 00:00:00 | 00:00:00 | 00:00:00 | |
| DM0DOS-11 | 2026-08-31 23:41:30 | 50.72209 | 5.79634 | 46° | 26km/h | 19060m | 5m/s | -273.1°C | 1.5% | 68.8hPa | 4V | 00:00:00 | 01:14:52 | 00:00:00 | |
| GOEST3-10 | 2026-08-31 23:41:30 | 50.72214 | 5.79645 | 52° | 26km/h | 19065m | 4.9m/s | 0°C | 1.5% | 68.7hPa | 4.0V | 00:00:00 | 01:14:53 | 00:00:00 | |
| DL1XH1-15 | 2026-08-31 23:41:28 | 50.72187 | 5.79619 | 60° | 27km/h | 19041m | 5.4m/s | -273.1°C | 1.5% | 69hPa | 4V | 00:00:00 | 01:14:48 | 00:00:00 | |
| DJ8HS-15 | 2026-08-31 23:41:28 | 50.72192 | 5.79621 | 15° | 24km/h | 19045m | 5.0m/s | 0°C | 1.5% | 68.9hPa | 4V | 00:00:00 | 01:14:49 | 00:00:00 | |
| GOEST3-10 | 2026-08-31 23:41:25 | 50.72187 | 5.79619 | 61° | 24km/h | 19041m | 5.4m/s | 0°C | 1.5% | 68.9hPa | 4V | 00:00:00 | 00:00:00 | 00:00:00 | |
| DM0DOS-11 | 2026-08-31 23:41:24 | 50.72159 | 5.79582 | 54° | 24km/h | 19009m | 5m/s | -273.1°C | 1.5% | 69.3hPa | 4V | 00:00:00 | 01:14:42 | 00:00:00 | |
| DL1XH-west | 2026-08-31 23:41:21 | 50.72159 | 5.79582 | 0° | 0km/h | 19009m | 0m/s | -273.1°C | 1.6% | 69.3hPa | 4V | 00:00:00 | 00:00:00 | 00:00:00 | |
| BIOWL1-15 | 2026-08-31 23:41:13 | 50.72126 | 5.79535 | 17° | 26km/h | 18969m | 5m/s | -273.1°C | 1.6% | 69.8hPa | 4V | 00:00:00 | 00:00:00 | 00:00:00 | |
| DM0DOS-11 | 2026-08-31 23:41:11 | 50.72113 | 5.79531 | 23° | 22km/h | 18959m | 5.2m/s | -273.1°C | 1.5% | 69.9hPa | 4V | 00:00:00 | 01:14:32 | 00:00:00 | |
| DL1XH-west | 2026-08-31 23:41:11 | 50.72113 | 5.79531 | 0° | 0km/h | 18959m | 0m/s | -273.1°C | 1.6% | 69.9hPa | 4V | 00:00:00 | 00:00:00 | 00:00:00 | |
| GOEST3-10 | 2026-08-31 23:41:09 | 50.72112 | 5.79531 | 24° | 22km/h | 18959m | 5.1m/s | 0°C | 1.5% | 69.8hPa | 4V | 00:00:00 | 01:14:32 | 00:00:00 | |
| DJ8HS-15 | 2026-08-31 23:41:06 | 50.72106 | 5.79513 | 35° | 20km/h | 18944m | 5.2m/s | 0°C | 1.5% | 70.0hPa | 4V | 00:00:00 | 01:14:29 | 00:00:00 | |
| DM0DOS-11 | 2026-08-31 23:41:04 | 50.72079 | 5.79479 | 21° | 22km/h | 18907m | 4.6m/s | -273.1°C | 1.5% | 70.4hPa | 4V | 00:00:00 | 01:14:22 | 00:00:00 | |
| BIOWL1-15 | 2026-08-31 23:41:01 | 50.72073 | 5.79475 | 39° | 24km/h | 18903m | 5m/s | -273.1°C | 1.6% | 70.5hPa | 4V | 00:00:00 | 00:00:00 | 00:00:00 | |
| DL1XH-west | 2026-08-31 23:41:00 | 50.72079 | 5.79479 | 0° | 0km/h | 18907m | 0m/s | -273.1°C | 1.6% | 70.4hPa | 4V | 00:00:00 | 00:00:00 | 00:00:00 | |
| GOEST3-10 | 2026-08-31 23:40:59 | 50.72079 | 5.79479 | 22° | 22km/h | 18907m | 4.6m/s | 0°C | 1.5% | 70.4hPa | 4.0V | 00:00:00 | 01:14:22 | 00:00:00 | |
| GOEST3-10 | 2026-08-31 23:40:54 | 50.72064 | 5.79446 | 39° | 18km/h | 18884m | 4.8m/s | 0°C | 1.6% | 70.6hPa | 4V | 00:00:00 | 00:00:00 | 00:00:00 | |
| DM0DOS-11 | 2026-08-31 23:40:51 | 50.72050 | 5.79420 | 90° | 18km/h | 18860m | 5m/s | -273.1°C | 1.5% | 70.9hPa | 4V | 00:00:00 | 01:14:12 | 00:00:00 | |
| DL1XH-west | 2026-08-31 23:40:50 | 50.72050 | 5.79413 | 0° | 0km/h | 18855m | 0m/s | -273.1°C | 1.7% | 71hPa | 4V | 00:00:00 | 00:00:00 | 00:00:00 | |
| BIOWL1-15 | 2026-08-31 23:40:49 | 50.72047 | 5.79409 | 32° | 22km/h | 18850m | 5m/s | -273.1°C | 1.7% | 71hPa | 4V | 00:00:00 | 00:00:00 | 00:00:00 | |
| DL1XH1-15 | 2026-08-31 23:40:49 | 50.72038 | 5.79400 | 54° | 20km/h | 18840m | 4.9m/s | -273.1°C | 1.5% | 71.1hPa | 4V | 00:00:00 | 01:14:08 | 00:00:00 | |
| BIOWL1-15 | 2026-08-31 23:40:40 | 50.72025 | 5.79349 | 49° | 20km/h | 18802m | 7m/s | -273.1°C | 1.7% | 71.5hPa | 4V | 00:00:00 | 00:00:00 | 00:00:00 | |
| DM0DOS-11 | 2026-08-31 23:40:40 | 50.72022 | 5.79363 | 109° | 20km/h | 18811m | 5.1m/s | -273.1°C | 1.6% | 71.4hPa | 4V | 00:00:00 | 01:14:02 | 00:00:00 | |
| DL1XH-west | 2026-08-31 23:40:39 | 50.72023 | 5.79356 | 0° | 0km/h | 18805m | 0m/s | -273.1°C | 1.7% | 71.5hPa | 4V | 00:00:00 | 00:00:00 | 00:00:00 | |
| DL1XH1-15 | 2026-08-31 23:40:37 | 50.72015 | 5.79337 | 51° | 20km/h | 18791m | 5.2m/s | -273.1°C | 1.5% | 71.7hPa | 4V | 00:00:00 | 01:13:58 | 00:00:00 | |
| GOEST3-10 | 2026-08-31 23:40:34 | 50.72012 | 5.79331 | 99° | 20km/h | 18785m | 4.8m/s | 0°C | 1.6% | 71.7hPa | 4V | 00:00:00 | 00:00:00 | 00:00:00 | |
| DM0DOS-11 | 2026-08-31 23:40:30 | 50.72000 | 5.79297 | 43° | 18km/h | 18761m | 5.1m/s | -273.1°C | 1.6% | 72hPa | 4V | 00:00:00 | 01:13:52 | 00:00:00 | |
| DL1XH1-15 | 2026-08-31 23:40:30 | 50.71996 | 5.79273 | 28° | 22km/h | 18741m | 5m/s | -273.1°C | 1.6% | 72.2hPa | 4V | 00:00:00 | 01:13:48 | 00:00:00 | |
| DL1XH-west | 2026-08-31 23:40:28 | 50.71997 | 5.79285 | 0° | 0km/h | 18750m | 0m/s | -273.1°C | 1.7% | 72.1hPa | 4V | 00:00:00 | 00:00:00 | 00:00:00 | |
| BIOWL1-15 | 2026-08-31 23:40:28 | 50.71984 | 5.79244 | 35° | 20km/h | 18716m | 5m/s | -273.1°C | 1.7% | 72.5hPa | 4V | 00:00:00 | 00:00:00 | 00:00:00 | |
| DJ8HS-15 | 2026-08-31 23:40:26 | 50.71998 | 5.79279 | 65° | 22km/h | 18746m | 4.9m/s | 0°C | 1.6% | 72.1hPa | 4V | 00:00:00 | 01:13:49 | 00:00:00 | |
| DM0DOS-11 | 2026-08-31 23:40:24 | 50.71975 | 5.79234 | 59° | 22km/h | 18707m | 4.8m/s | -273.1°C | 1.6% | 72.5hPa | 4V | 00:00:00 | 01:13:41 | 00:00:00 | |
| GOEST3-10 | 2026-08-31 23:40:24 | 50.71990 | 5.79268 | 37° | 20km/h | 18735m | 4.6m/s | 0°C | 1.5% | 72.2hPa | 4V | 00:00:00 | 00:00:00 | 00:00:00 | |
| DL1XH1-15 | 2026-08-31 23:40:19 | 50.71973 | 5.79209 | 80° | 22km/h | 18693m | 4.8m/s | -273.1°C | 1.6% | 72.7hPa | 4V | 00:00:00 | 01:13:38 | 00:00:00 | |
| DL1XH-west | 2026-08-31 23:40:18 | 50.71973 | 5.79218 | 0° | 0km/h | 18697m | 0m/s | -273.1°C | 1.7% | 72.7hPa | 4V | 00:00:00 | 00:00:00 | 00:00:00 | |
| BIOWL1-15 | 2026-08-31 23:40:13 | 50.71953 | 5.79102 | 45° | 24km/h | 18624m | 4m/s | -273.1°C | 1.7% | 73.5hPa | 4V | 00:00:00 | 00:00:00 | 00:00:00 | |
| DM0DOS-11 | 2026-08-31 23:40:10 | 50.71961 | 5.79164 | 106° | 22km/h | 18664m | 5m/s | -273.1°C | 1.6% | 73hPa | 4V | 00:00:00 | 01:13:32 | 00:00:00 | |
| GOEST3-10 | 2026-08-31 23:40:09 | 50.71961 | 5.79164 | 107° | 22km/h | 18664m | 4.9m/s | 0°C | 1.6% | 73.0hPa | 4V | 00:00:00 | 01:13:32 | 00:00:00 | |
| DL1XH1-15 | 2026-08-31 23:40:08 | 50.71953 | 5.79136 | 93° | 24km/h | 18645m | 5.2m/s | -273.1°C | 1.6% | 73.2hPa | 4V | 00:00:00 | 01:13:28 | 00:00:00 | |
| DL1XH-west | 2026-08-31 23:40:07 | 50.71955 | 5.79143 | 0° | 0km/h | 18649m | 0m/s | -273.1°C | 1.7% | 73.2hPa | 4V | 00:00:00 | 00:00:00 | 00:00:00 | |
| DJ8HS-15 | 2026-08-31 23:40:07 | 50.71955 | 5.79142 | 58° | 26km/h | 18649m | 4.8m/s | 0°C | 1.6% | 73.1hPa | 4V | 00:00:00 | 01:13:29 | 00:00:00 | |
| DM0DOS-11 | 2026-08-31 23:40:04 | 50.71945 | 5.79080 | 107° | 26km/h | 18611m | 5m/s | -273.1°C | 1.6% | 73.6hPa | 4V | 00:00:00 | 01:13:21 | 00:00:00 | |
| NBG1-10 | 2026-08-31 23:40:03 | 50.71955 | 5.79117 | 79° | 35km/h | 18634m | 4.5m/s | 0°C | 1.6% | 73.3hPa | 4V | 00:00:00 | 01:13:26 | 00:00:00 | |
| DL1XH1-15 | 2026-08-31 23:39:58 | 50.71947 | 5.79052 | 38° | 26km/h | 18596m | 5m/s | -273.1°C | 1.6% | 73.8hPa | 4V | 00:00:00 | 01:13:18 | 00:00:00 | |
| DL1XH-west | 2026-08-31 23:39:57 | 50.71947 | 5.79052 | 0° | 0km/h | 18596m | 0m/s | -273.1°C | 1.7% | 73.8hPa | 4V | 00:00:00 | 00:00:00 | 00:00:00 | |
| GOEST3-10 | 2026-08-31 23:39:54 | 50.71944 | 5.79047 | 76° | 27km/h | 18591m | 5.0m/s | 0°C | 1.6% | 73.8hPa | 4V | 00:00:00 | 00:00:00 | 00:00:00 | |
| DM0DOS-11 | 2026-08-31 23:39:52 | 50.71938 | 5.78993 | 54° | 29km/h | 18565m | 4.5m/s | -273.1°C | 1.6% | 74.1hPa | 4V | 00:00:00 | 01:13:12 | 00:00:00 | |
| BIOWL1-15 | 2026-08-31 23:39:51 | 50.71942 | 5.78999 | 51° | 22km/h | 18570m | 5m/s | -273.1°C | 1.7% | 74.1hPa | 4V | 00:00:00 | 00:00:00 | 00:00:00 | |
| GOEST3-10 | 2026-08-31 23:39:49 | 50.71938 | 5.78993 | 72° | 29km/h | 18565m | 4.7m/s | 0°C | 1.6% | 74.1hPa | 4V | 00:00:00 | 01:13:12 | 00:00:00 | |
| DL1XH1-15 | 2026-08-31 23:39:48 | 50.71935 | 5.78945 | 69° | 29km/h | 18547m | 4.9m/s | -273.1°C | 1.6% | 74.3hPa | 4V | 00:00:00 | 01:13:08 | 00:00:00 | |
| DL1XH-west | 2026-08-31 23:39:47 | 50.71935 | 5.78945 | 0° | 0km/h | 18547m | 0m/s | -273.1°C | 1.7% | 74.3hPa | 4V | 00:00:00 | 00:00:00 | 00:00:00 | |
| BIOWL1-15 | 2026-08-31 23:39:40 | 50.71920 | 5.78858 | 59° | 35km/h | 18509m | 5m/s | -273.1°C | 1.7% | 74.8hPa | 4V | 00:00:00 | 00:00:00 | 00:00:00 | |
| DM0DOS-11 | 2026-08-31 23:39:40 | 50.71926 | 5.78883 | 84° | 35km/h | 18519m | 4.9m/s | -273.1°C | 1.6% | 74.6hPa | 4V | 00:00:00 | 01:13:02 | 00:00:00 | |
| DL1XH1-15 | 2026-08-31 23:39:38 | 50.71912 | 5.78834 | 82° | 37km/h | 18499m | 4.7m/s | -273.1°C | 1.6% | 74.8hPa | 4V | 00:00:00 | 01:12:58 | 00:00:00 | |
| DL1XH-west | 2026-08-31 23:39:37 | 50.71912 | 5.78834 | 0° | 0km/h | 18499m | 0m/s | -273.1°C | 1.7% | 74.8hPa | 4V | 00:00:00 | 00:00:00 | 00:00:00 | |
| DM0DOS-11 | 2026-08-31 23:39:34 | 50.71897 | 5.78746 | 66° | 35km/h | 18472m | 4.9m/s | -273.1°C | 1.6% | 75.2hPa | 4V | 00:00:00 | 01:12:52 | 00:00:00 | |
| GOEST3-10 | 2026-08-31 23:39:33 | 50.71912 | 5.78807 | 80° | 37km/h | 18490m | 4.6m/s | 0°C | 1.6% | 74.9hPa | 4V | 00:00:00 | 00:00:00 | 00:00:00 | |
| DL1XH1-15 | 2026-08-31 23:39:28 | 50.71887 | 5.78698 | 68° | 42km/h | 18452m | 4.6m/s | -273.1°C | 1.6% | 75.4hPa | 4V | 00:00:00 | 01:12:48 | 00:00:00 | |
| DL1XH-west | 2026-08-31 23:39:25 | 50.71882 | 5.78680 | 0° | 0km/h | 18448m | 0m/s | -273.1°C | 1.7% | 75.4hPa | 4V | 00:00:00 | 00:00:00 | 00:00:00 | |
| GOEST3-10 | 2026-08-31 23:39:22 | 50.71873 | 5.78646 | 73° | 37km/h | 18438m | 4.5m/s | 0°C | 1.6% | 75.5hPa | 4V | 00:00:00 | 00:00:00 | 00:00:00 | |
| DL1XH1-15 | 2026-08-31 23:39:18 | 50.71851 | 5.78551 | 72° | 35km/h | 18406m | 4.9m/s | -273.1°C | 1.7% | 75.9hPa | 4V | 00:00:00 | 01:12:38 | 00:00:00 | |
| BIOWL1-15 | 2026-08-31 23:39:17 | 50.71837 | 5.78494 | 78° | 27km/h | 18386m | 5m/s | -273.1°C | 1.8% | 76.1hPa | 4V | 00:00:00 | 00:00:00 | 00:00:00 | |
| DM0DOS-11 | 2026-08-31 23:39:15 | 50.71836 | 5.78475 | 87° | 37km/h | 18376m | 4.7m/s | -273.1°C | 1.7% | 76.2hPa | 4V | 00:00:00 | 01:12:32 | 00:00:00 | |
| DL1XH-west | 2026-08-31 23:39:15 | 50.71845 | 5.78527 | 0° | 0km/h | 18396m | 0m/s | -273.1°C | 1.8% | 76hPa | 4V | 00:00:00 | 00:00:00 | 00:00:00 | |
| DB0UT-7 | 2026-08-31 23:39:14 | 50.71849 | 5.78542 | 71° | 33km/h | 18402m | 5.1m/s | 0°C | 1.7% | 75.9hPa | 4.0V | 00:00:00 | 01:12:37 | 00:00:00 | |
| GOEST3-10 | 2026-08-31 23:39:12 | 50.71841 | 5.78509 | 71° | 35km/h | 18391m | 4.8m/s | 0°C | 1.7% | 76.0hPa | 4.0V | 00:00:00 | 00:00:00 | 00:00:00 | |
| DL1XH1-15 | 2026-08-31 23:39:08 | 50.71827 | 5.78413 | 83° | 29km/h | 18357m | 4.6m/s | -273.1°C | 1.7% | 76.4hPa | 4V | 00:00:00 | 01:12:28 | 00:00:00 | |
| GOEST3-10 | 2026-08-31 23:39:07 | 50.71832 | 5.78445 | 75° | 35km/h | 18366m | 4.5m/s | 0°C | 1.7% | 76.3hPa | 4V | 00:00:00 | 01:12:30 | 00:00:00 | |
| DJ8HS-15 | 2026-08-31 23:39:06 | 50.71830 | 5.78427 | 72° | 33km/h | 18362m | 4.7m/s | 0°C | 1.7% | 76.4hPa | 4V | 00:00:00 | 01:12:29 | 00:00:00 | |
| DM0DOS-11 | 2026-08-31 23:39:04 | 50.71818 | 5.78327 | 86° | 33km/h | 18324m | 4.7m/s | -273.1°C | 1.7% | 76.8hPa | 4V | 00:00:00 | 01:12:21 | 00:00:00 | |
| DL1XH-west | 2026-08-31 23:39:04 | 50.71825 | 5.78382 | 0° | 0km/h | 18344m | 0m/s | -273.1°C | 1.8% | 76.6hPa | 4V | 00:00:00 | 00:00:00 | 00:00:00 | |
| BIOWL1-15 | 2026-08-31 23:39:03 | 50.71823 | 5.78365 | 77° | 47km/h | 18339m | 4m/s | -273.1°C | 1.8% | 76.7hPa | 4V | 00:00:00 | 00:00:00 | 00:00:00 | |
| GOEST3-10 | 2026-08-31 23:39:01 | 50.71823 | 5.78365 | 78° | 33km/h | 18339m | 4.8m/s | 0°C | 1.7% | 76.6hPa | 4V | 00:00:00 | 00:00:00 | 00:00:00 | |
| DL1XH1-15 | 2026-08-31 23:38:58 | 50.71813 | 5.78285 | 81° | 33km/h | 18309m | 4.4m/s | -273.1°C | 1.7% | 77hPa | 4V | 00:00:00 | 01:12:18 | 00:00:00 | |
| DL1XH-west | 2026-08-31 23:38:53 | 50.71811 | 5.78240 | 0° | 0km/h | 18292m | 0m/s | -273.1°C | 1.8% | 77.2hPa | 4V | 00:00:00 | 00:00:00 | 00:00:00 | |
| GOEST3-10 | 2026-08-31 23:38:51 | 50.71810 | 5.78240 | 86° | 35km/h | 18292m | 4.5m/s | 0°C | 1.7% | 77.2hPa | 4V | 00:00:00 | 00:00:00 | 00:00:00 | |
| BIOWL1-15 | 2026-08-31 23:38:51 | 50.71810 | 5.78225 | 88° | 47km/h | 18287m | 4m/s | -273.1°C | 1.8% | 77.3hPa | 4V | 00:00:00 | 00:00:00 | 00:00:00 | |
| DM0DOS-11 | 2026-08-31 23:38:50 | 50.71809 | 5.78206 | 83° | 35km/h | 18283m | 4.4m/s | -273.1°C | 1.7% | 77.3hPa | 4V | 00:00:00 | 01:12:12 | 00:00:00 | |
| DL1XH1-15 | 2026-08-31 23:38:47 | 50.71803 | 5.78160 | 91° | 38km/h | 18266m | 4.8m/s | -273.1°C | 1.7% | 77.5hPa | 4V | 00:00:00 | 01:12:08 | 00:00:00 | |
| DJ8HS-15 | 2026-08-31 23:38:46 | 50.71804 | 5.78171 | 81° | 37km/h | 18270m | 4.6m/s | 0°C | 1.7% | 77.4hPa | 4.0V | 00:00:00 | 01:12:09 | 00:00:00 | |
| DM0DOS-11 | 2026-08-31 23:38:44 | 50.71789 | 5.78058 | 73° | 37km/h | 18233m | 4.6m/s | -273.1°C | 1.7% | 77.9hPa | 4V | 00:00:00 | 01:12:01 | 00:00:00 | |
| DL1XH-west | 2026-08-31 23:38:41 | 50.71793 | 5.78092 | 0° | 0km/h | 18242m | 0m/s | -273.1°C | 1.8% | 77.8hPa | 4V | 00:00:00 | 00:00:00 | 00:00:00 | |
| BIOWL1-15 | 2026-08-31 23:38:41 | 50.71786 | 5.78042 | 63° | 37km/h | 18229m | 6m/s | -273.1°C | 1.8% | 78hPa | 4V | 00:00:00 | 00:00:00 | 00:00:00 | |
| DL1XH1-15 | 2026-08-31 23:38:40 | 50.71777 | 5.78018 | 53° | 35km/h | 18219m | 4.6m/s | -273.1°C | 1.7% | 78.1hPa | 4V | 00:00:00 | 01:11:58 | 00:00:00 | |
| GOEST3-10 | 2026-08-31 23:38:36 | 50.71782 | 5.78029 | 56° | 37km/h | 18223m | 4.4m/s | 0°C | 1.7% | 78.0hPa | 4V | 00:00:00 | 01:11:59 | 00:00:00 | |
| DM0DOS-11 | 2026-08-31 23:38:33 | 50.71756 | 5.77946 | 57° | 38km/h | 18191m | 4.6m/s | -273.1°C | 1.7% | 78.4hPa | 4V | 00:00:00 | 01:11:52 | 00:00:00 | |
| DL1XH-west | 2026-08-31 23:38:31 | 50.71762 | 5.77954 | 0° | 0km/h | 18196m | 0m/s | -273.1°C | 1.8% | 78.3hPa | 4V | 00:00:00 | 00:00:00 | 00:00:00 | |
| DL1XH1-15 | 2026-08-31 23:38:28 | 50.71742 | 5.77888 | 45° | 37km/h | 18173m | 4.8m/s | -273.1°C | 1.9% | 78.6hPa | 4V | 00:00:00 | 01:11:48 | 00:00:00 | |
| BIOWL1-15 | 2026-08-31 23:38:28 | 50.71745 | 5.77901 | 67° | 35km/h | 18178m | 5m/s | -273.1°C | 1.8% | 78.6hPa | 4V | 00:00:00 | 00:00:00 | 00:00:00 | |
| DL1XH-west | 2026-08-31 23:38:21 | 50.71717 | 5.77809 | 0° | 0km/h | 18144m | 0m/s | -273.1°C | 1.8% | 79hPa | 4V | 00:00:00 | 00:00:00 | 00:00:00 | |
| NBG1-10 | 2026-08-31 23:38:20 | 50.71722 | 5.77819 | 46° | 42km/h | 18150m | 4.8m/s | 0°C | 1.8% | 78.8hPa | 4V | 00:00:00 | 01:11:43 | 00:00:00 | |
| DL1XH1-15 | 2026-08-31 23:38:18 | 50.71704 | 5.77753 | 63° | 38km/h | 18126m | 4.8m/s | -273.1°C | 1.9% | 79.2hPa | 4V | 00:00:00 | 01:11:38 | 00:00:00 | |
| BIOWL1-15 | 2026-08-31 23:38:17 | 50.71704 | 5.77753 | 64° | 37km/h | 18126m | 6m/s | -273.1°C | 1.9% | 79.2hPa | 4V | 00:00:00 | 00:00:00 | 00:00:00 | |
| GOEST3-10 | 2026-08-31 23:38:16 | 50.71706 | 5.77769 | 73° | 42km/h | 18130m | 4.5m/s | 0°C | 1.9% | 79.1hPa | 4V | 00:00:00 | 01:11:39 | 00:00:00 | |
| DM0DOS-11 | 2026-08-31 23:38:14 | 50.71687 | 5.77662 | 49° | 44km/h | 18098m | 4.9m/s | -273.1°C | 1.9% | 79.5hPa | 4V | 00:00:00 | 01:11:32 | 00:00:00 | |
| DL1XH-west | 2026-08-31 23:38:10 | 50.71687 | 5.77662 | 0° | 0km/h | 18098m | 0m/s | -273.1°C | 1.9% | 79.5hPa | 4V | 00:00:00 | 00:00:00 | 00:00:00 | |
| DL1XH1-15 | 2026-08-31 23:38:07 | 50.71675 | 5.77597 | 78° | 44km/h | 18079m | 5m/s | -273.1°C | 1.9% | 79.8hPa | 4V | 00:00:00 | 01:11:28 | 00:00:00 | |
| BIOWL1-15 | 2026-08-31 23:38:05 | 50.71661 | 5.77551 | 81° | 47km/h | 18065m | 6m/s | -273.1°C | 1.9% | 79.9hPa | 4V | 00:00:00 | 00:00:00 | 00:00:00 | |
| DM0DOS-11 | 2026-08-31 23:38:03 | 50.71659 | 5.77496 | 57° | 44km/h | 18050m | 4.7m/s | -273.1°C | 1.9% | 80.1hPa | 4V | 00:00:00 | 01:11:22 | 00:00:00 | |
| DL1XH-west | 2026-08-31 23:38:00 | 50.71659 | 5.77496 | 0° | 0km/h | 18050m | 0m/s | -273.1°C | 1.9% | 80.1hPa | 4V | 00:00:00 | 00:00:00 | 00:00:00 | |
| BIOWL1-15 | 2026-08-31 23:37:54 | 50.71627 | 5.77373 | 85° | 49km/h | 18011m | 5m/s | -273.1°C | 1.9% | 80.5hPa | 4V | 00:00:00 | 00:00:00 | 00:00:00 | |
| DM0DOS-11 | 2026-08-31 23:37:52 | 50.71623 | 5.77337 | 51° | 40km/h | 18002m | 4.7m/s | -273.1°C | 1.9% | 80.7hPa | 4V | 00:00:00 | 01:11:12 | 00:00:00 | |
| DL1XH-west | 2026-08-31 23:37:51 | 50.71623 | 5.77337 | 0° | 0km/h | 18002m | 0m/s | -273.1°C | 1.9% | 80.7hPa | 4V | 00:00:00 | 00:00:00 | 00:00:00 | |
| BIOWL1-15 | 2026-08-31 23:37:43 | 50.71584 | 5.77225 | 68° | 44km/h | 17966m | 6m/s | -273.1°C | 1.9% | 81.1hPa | 4V | 00:00:00 | 00:00:00 | 00:00:00 | |
| GOEST3-10 | 2026-08-31 23:37:41 | 50.71584 | 5.77225 | 68° | 37km/h | 17966m | 4.8m/s | 0°C | 1.9% | 81.0hPa | 4.0V | 00:00:00 | 00:00:00 | 00:00:00 | |
| DM0DOS-11 | 2026-08-31 23:37:40 | 50.71578 | 5.77190 | 69° | 37km/h | 17956m | 4.7m/s | -273.1°C | 1.9% | 81.2hPa | 4V | 00:00:00 | 01:11:02 | 00:00:00 | |
| DL1XH-west | 2026-08-31 23:37:39 | 50.71575 | 5.77176 | 0° | 0km/h | 17952m | 0m/s | -273.1°C | 1.9% | 81.3hPa | 4V | 00:00:00 | 00:00:00 | 00:00:00 | |
| DL1XH1-15 | 2026-08-31 23:37:38 | 50.71558 | 5.77145 | 74° | 37km/h | 17937m | 4.6m/s | -273.1°C | 1.9% | 81.5hPa | 4V | 00:00:00 | 01:10:58 | 00:00:00 | |
| GOEST3-10 | 2026-08-31 23:37:36 | 50.71563 | 5.77157 | 60° | 35km/h | 17942m | 4.6m/s | 0°C | 2.0% | 81.4hPa | 4V | 00:00:00 | 01:10:59 | 00:00:00 | |
| DM0DOS-11 | 2026-08-31 23:37:34 | 50.71533 | 5.77072 | 92° | 33km/h | 17910m | 4.8m/s | -273.1°C | 2% | 81.8hPa | 4V | 00:00:00 | 01:10:52 | 00:00:00 | |
| DL1XH-west | 2026-08-31 23:37:29 | 50.71534 | 5.77059 | 0° | 0km/h | 17905m | 0m/s | -273.1°C | 1.9% | 81.9hPa | 4V | 00:00:00 | 00:00:00 | 00:00:00 | |
| DL1XH1-15 | 2026-08-31 23:37:27 | 50.71519 | 5.77027 | 67° | 31km/h | 17891m | 4.9m/s | -273.1°C | 2% | 82hPa | 4V | 00:00:00 | 01:10:48 | 00:00:00 | |
| DM0DOS-11 | 2026-08-31 23:37:21 | 50.71502 | 5.76955 | 72° | 31km/h | 17862m | 4.9m/s | -273.1°C | 2% | 82.4hPa | 4V | 00:00:00 | 01:10:42 | 00:00:00 | |
| DL1XH1-15 | 2026-08-31 23:37:20 | 50.71498 | 5.76908 | 48° | 35km/h | 17842m | 4.5m/s | -273.1°C | 2% | 82.6hPa | 4V | 00:00:00 | 01:10:38 | 00:00:00 | |
| BIOWL1-15 | 2026-08-31 23:37:18 | 50.71487 | 5.76883 | 93° | 33km/h | 17835m | 6m/s | -273.1°C | 2% | 82.7hPa | 4V | 00:00:00 | 00:00:00 | 00:00:00 | |
| DL1XH-west | 2026-08-31 23:37:18 | 50.71500 | 5.76932 | 0° | 0km/h | 17852m | 0m/s | -273.1°C | 2% | 82.5hPa | 4V | 00:00:00 | 00:00:00 | 00:00:00 | |
| GOEST3-10 | 2026-08-31 23:37:16 | 50.71501 | 5.76920 | 59° | 33km/h | 17848m | 4.7m/s | 0°C | 2.0% | 82.5hPa | 4.0V | 00:00:00 | 01:10:39 | 00:00:00 | |
| NBG1-10 | 2026-08-31 23:37:14 | 50.71491 | 5.76895 | 62° | 33km/h | 17838m | 4.6m/s | 0°C | 2.0% | 82.6hPa | 4.0V | 00:00:00 | 01:10:37 | 00:00:00 | |
| DM0DOS-11 | 2026-08-31 23:37:11 | 50.71481 | 5.76832 | 61° | 33km/h | 17813m | 4.7m/s | -273.1°C | 2% | 83hPa | 4V | 00:00:00 | 01:10:32 | 00:00:00 | |
| GOEST3-10 | 2026-08-31 23:37:09 | 50.71481 | 5.76832 | 62° | 31km/h | 17813m | 4.7m/s | 0°C | 2.0% | 83.0hPa | 4.0V | 00:00:00 | 00:00:00 | 00:00:00 | |
| DL1XH1-15 | 2026-08-31 23:37:08 | 50.71476 | 5.76780 | 78° | 31km/h | 17794m | 4.7m/s | -273.1°C | 2% | 83.2hPa | 4V | 00:00:00 | 01:10:28 | 00:00:00 | |
| DL1XH-west | 2026-08-31 23:37:07 | 50.71477 | 5.76792 | 0° | 0km/h | 17799m | 0m/s | -273.1°C | 2% | 83.2hPa | 4V | 00:00:00 | 00:00:00 | 00:00:00 | |
| BIOWL1-15 | 2026-08-31 23:37:05 | 50.71475 | 5.76768 | 58° | 31km/h | 17788m | 4m/s | -273.1°C | 2% | 83.3hPa | 4V | 00:00:00 | 00:00:00 | 00:00:00 | |
| DM0DOS-11 | 2026-08-31 23:37:05 | 50.71466 | 5.76713 | 73° | 29km/h | 17767m | 4.8m/s | -273.1°C | 2% | 83.6hPa | 4V | 00:00:00 | 01:10:22 | 00:00:00 | |
| GOEST3-10 | 2026-08-31 23:37:04 | 50.71475 | 5.76768 | 65° | 29km/h | 17788m | 4.3m/s | 0°C | 2.0% | 83.2hPa | 4V | 00:00:00 | 01:10:27 | 00:00:00 | |
| GOEST3-10 | 2026-08-31 23:36:59 | 50.71466 | 5.76712 | 74° | 29km/h | 17767m | 4.8m/s | 0°C | 2.0% | 83.5hPa | 4V | 00:00:00 | 00:00:00 | 00:00:00 | |
| DL1XH1-15 | 2026-08-31 23:36:58 | 50.71457 | 5.76672 | 106° | 29km/h | 17747m | 4.5m/s | -273.1°C | 2% | 83.8hPa | 4V | 00:00:00 | 01:10:18 | 00:00:00 | |
| DL1XH-west | 2026-08-31 23:36:56 | 50.71457 | 5.76672 | 0° | 0km/h | 17747m | 0m/s | -273.1°C | 2% | 83.8hPa | 4V | 00:00:00 | 00:00:00 | 00:00:00 | |
| BIOWL1-15 | 2026-08-31 23:36:55 | 50.71459 | 5.76662 | 90° | 27km/h | 17743m | 4m/s | -273.1°C | 2% | 83.9hPa | 4V | 00:00:00 | 00:00:00 | 00:00:00 | |
| DM0DOS-11 | 2026-08-31 23:36:54 | 50.71455 | 5.76592 | 67° | 33km/h | 17714m | 4.4m/s | -273.1°C | 2% | 84.2hPa | 4V | 00:00:00 | 01:10:11 | 00:00:00 | |
| GOEST3-10 | 2026-08-31 23:36:49 | 50.71454 | 5.76603 | 97° | 35km/h | 17718m | 4.3m/s | 0°C | 2.0% | 84.1hPa | 4V | 00:00:00 | 00:00:00 | 00:00:00 | |
| DL1XH1-15 | 2026-08-31 23:36:47 | 50.71449 | 5.76555 | 104° | 35km/h | 17701m | 4.5m/s | -273.1°C | 2% | 84.4hPa | 4V | 00:00:00 | 01:10:08 | 00:00:00 | |
| DL1XH-west | 2026-08-31 23:36:46 | 50.71449 | 5.76555 | 0° | 0km/h | 17701m | 0m/s | -273.1°C | 2.1% | 84.4hPa | 4V | 00:00:00 | 00:00:00 | 00:00:00 | |
| BIOWL1-15 | 2026-08-31 23:36:45 | 50.71451 | 5.76541 | 100° | 35km/h | 17696m | 4m/s | -273.1°C | 2% | 84.5hPa | 4V | 00:00:00 | 00:00:00 | 00:00:00 | |
| GOEST3-10 | 2026-08-31 23:36:44 | 50.71451 | 5.76541 | 100° | 35km/h | 17696m | 4.3m/s | 0°C | 2.0% | 84.4hPa | 4V | 00:00:00 | 01:10:07 | 00:00:00 | |
| DM0DOS-11 | 2026-08-31 23:36:43 | 50.71444 | 5.76475 | 117° | 37km/h | 17675m | 4.7m/s | -273.1°C | 2% | 84.7hPa | 4V | 00:00:00 | 01:10:02 | 00:00:00 | |
| NBG1-10 | 2026-08-31 23:36:41 | 50.71449 | 5.76501 | 89° | 40km/h | 17683m | 4.7m/s | 0°C | 2.0% | 84.6hPa | 4V | 00:00:00 | 01:10:04 | 00:00:00 | |
| DL1XH1-15 | 2026-08-31 23:36:40 | 50.71441 | 5.76419 | 87° | 38km/h | 17657m | 5m/s | -273.1°C | 2% | 85hPa | 4V | 00:00:00 | 01:09:58 | 00:00:00 | |
| BIOWL1-15 | 2026-08-31 23:36:37 | 50.71442 | 5.76391 | 94° | 40km/h | 17646m | 4m/s | -273.1°C | 2.1% | 85.1hPa | 4V | 00:00:00 | 00:00:00 | 00:00:00 | |
| DL1XH-west | 2026-08-31 23:36:35 | 50.71441 | 5.76405 | 0° | 0km/h | 17651m | 0m/s | -273.1°C | 2.1% | 85.1hPa | 4V | 00:00:00 | 00:00:00 | 00:00:00 | |
| GOEST3-10 | 2026-08-31 23:36:34 | 50.71440 | 5.76405 | 100° | 42km/h | 17651m | 4.6m/s | 0°C | 2.0% | 85.0hPa | 4V | 00:00:00 | 01:09:57 | 00:00:00 | |
| DL1XH1-15 | 2026-08-31 23:36:28 | 50.71432 | 5.76260 | 76° | 42km/h | 17609m | 4.6m/s | -273.1°C | 2% | 85.6hPa | 4V | 00:00:00 | 01:09:48 | 00:00:00 | |
| DL1XH-west | 2026-08-31 23:36:24 | 50.71428 | 5.76231 | 0° | 0km/h | 17600m | 0m/s | -273.1°C | 2.1% | 85.7hPa | 4V | 00:00:00 | 00:00:00 | 00:00:00 | |
| DM0DOS-11 | 2026-08-31 23:36:24 | 50.71424 | 5.76154 | 69° | 44km/h | 17582m | 5.1m/s | -273.1°C | 2% | 86hPa | 4V | 00:00:00 | 01:09:42 | 00:00:00 | |
| GOEST3-10 | 2026-08-31 23:36:23 | 50.71428 | 5.76231 | 83° | 46km/h | 17600m | 4.7m/s | 0°C | 2.0% | 85.7hPa | 4.0V | 00:00:00 | 01:09:46 | 00:00:00 | |
| DL1XH1-15 | 2026-08-31 23:36:18 | 50.71413 | 5.76087 | 86° | 44km/h | 17561m | 4.7m/s | -273.1°C | 2% | 86.2hPa | 4V | 00:00:00 | 01:09:38 | 00:00:00 | |
| DL1XH-west | 2026-08-31 23:36:13 | 50.71405 | 5.76039 | 0° | 0km/h | 17548m | 0m/s | -273.1°C | 2.1% | 86.4hPa | 4V | 00:00:00 | 00:00:00 | 00:00:00 | |
| GOEST3-10 | 2026-08-31 23:36:13 | 50.71409 | 5.76050 | 65° | 44km/h | 17551m | 4.6m/s | 0°C | 2.0% | 86.3hPa | 4V | 00:00:00 | 01:09:36 | 00:00:00 | |
| DM0DOS-11 | 2026-08-31 23:36:11 | 50.71400 | 5.75978 | 71° | 40km/h | 17533m | 5.2m/s | -273.1°C | 2% | 86.6hPa | 4V | 00:00:00 | 01:09:32 | 00:00:00 | |
| DL1XH1-15 | 2026-08-31 23:36:08 | 50.71389 | 5.75917 | 83° | 46km/h | 17512m | 4.8m/s | -273.1°C | 2.2% | 86.9hPa | 4V | 00:00:00 | 01:09:28 | 00:00:00 | |
| BIOWL1-15 | 2026-08-31 23:36:03 | 50.71373 | 5.75815 | 79° | 47km/h | 17482m | 4m/s | -273.1°C | 2.2% | 87.2hPa | 4V | 00:00:00 | 00:00:00 | 00:00:00 | |
| DL1XH-west | 2026-08-31 23:36:01 | 50.71373 | 5.75835 | 0° | 0km/h | 17488m | 0m/s | -273.1°C | 2.2% | 87.2hPa | 4V | 00:00:00 | 00:00:00 | 00:00:00 | |
| DM0DOS-11 | 2026-08-31 23:36:00 | 50.71373 | 5.75815 | 79° | 42km/h | 17482m | 4.5m/s | -273.1°C | 2.2% | 87.2hPa | 4V | 00:00:00 | 01:09:22 | 00:00:00 | |
| BIOWL1-15 | 2026-08-31 23:35:51 | 50.71334 | 5.75614 | 71° | 27km/h | 17421m | 4m/s | -273.1°C | 2.2% | 88hPa | 4V | 00:00:00 | 00:00:00 | 00:00:00 | |
| DM0DOS-11 | 2026-08-31 23:35:50 | 50.71342 | 5.75657 | 72° | 38km/h | 17435m | 4.6m/s | -273.1°C | 2.2% | 87.9hPa | 4V | 00:00:00 | 01:09:12 | 00:00:00 | |
| DL1XH-west | 2026-08-31 23:35:50 | 50.71342 | 5.75657 | 0° | 0km/h | 17435m | 0m/s | -273.1°C | 2.2% | 87.9hPa | 4V | 00:00:00 | 00:00:00 | 00:00:00 | |
| GOEST3-10 | 2026-08-31 23:35:48 | 50.71338 | 5.75638 | 76° | 38km/h | 17431m | 4.7m/s | 0°C | 2.2% | 87.9hPa | 4.0V | 00:00:00 | 00:00:00 | 00:00:00 | |
| NBG1-10 | 2026-08-31 23:35:47 | 50.71336 | 5.75624 | 77° | 46km/h | 17425m | 4.4m/s | 0°C | 2.2% | 87.9hPa | 4.0V | 00:00:00 | 01:09:10 | 00:00:00 | |
| DJ8HS-15 | 2026-08-31 23:35:46 | 50.71334 | 5.75614 | 72° | 37km/h | 17421m | 4.4m/s | 0°C | 2.2% | 88.0hPa | 4.0V | 00:00:00 | 01:09:09 | 00:00:00 | |
| DM0DOS-11 | 2026-08-31 23:35:44 | 50.71315 | 5.75514 | 72° | 38km/h | 17388m | 4.5m/s | -273.1°C | 2.2% | 88.5hPa | 4V | 00:00:00 | 01:09:02 | 00:00:00 | |
| DL1XH-west | 2026-08-31 23:35:39 | 50.71312 | 5.75495 | 0° | 0km/h | 17385m | 0m/s | -273.1°C | 2.3% | 88.5hPa | 4V | 00:00:00 | 00:00:00 | 00:00:00 | |
| DL1XH1-15 | 2026-08-31 23:35:38 | 50.71309 | 5.75461 | 74° | 40km/h | 17370m | 4.6m/s | -273.1°C | 2.2% | 88.7hPa | 4V | 00:00:00 | 01:08:58 | 00:00:00 | |
| BIOWL1-15 | 2026-08-31 23:35:29 | 50.71293 | 5.75355 | 71° | 47km/h | 17338m | 5m/s | -273.1°C | 2.3% | 89.2hPa | 4V | 00:00:00 | 00:00:00 | 00:00:00 | |
| DL1XH-west | 2026-08-31 23:35:28 | 50.71289 | 5.75337 | 0° | 0km/h | 17333m | 0m/s | -273.1°C | 2.3% | 89.2hPa | 4V | 00:00:00 | 00:00:00 | 00:00:00 | |
| DL1XH1-15 | 2026-08-31 23:35:27 | 50.71288 | 5.75315 | 90° | 37km/h | 17324m | 4.5m/s | -273.1°C | 2.2% | 89.3hPa | 4V | 00:00:00 | 01:08:48 | 00:00:00 | |
| DJ8HS-15 | 2026-08-31 23:35:26 | 50.71288 | 5.75324 | 91° | 40km/h | 17328m | 4.3m/s | 0°C | 2.2% | 89.2hPa | 4V | 00:00:00 | 01:08:49 | 00:00:00 | |
| DM0DOS-11 | 2026-08-31 23:35:24 | 50.71280 | 5.75230 | 84° | 40km/h | 17297m | 4.7m/s | -273.1°C | 2.2% | 89.7hPa | 4V | 00:00:00 | 01:08:42 | 00:00:00 | |
| BIOWL1-15 | 2026-08-31 23:35:21 | 50.71277 | 5.75125 | 79° | 53km/h | 17264m | 4m/s | -273.1°C | 2.3% | 90.1hPa | 4V | 00:00:00 | 00:00:00 | 00:00:00 | |
| DL1XH1-15 | 2026-08-31 23:35:20 | 50.71276 | 5.75164 | 100° | 38km/h | 17277m | 4.3m/s | -273.1°C | 2.2% | 89.9hPa | 4V | 00:00:00 | 01:08:38 | 00:00:00 | |
| DL1XH-west | 2026-08-31 23:35:18 | 50.71278 | 5.75200 | 0° | 0km/h | 17287m | 0m/s | -273.1°C | 2.3% | 89.8hPa | 4V | 00:00:00 | 00:00:00 | 00:00:00 | |
| GOEST3-10 | 2026-08-31 23:35:17 | 50.71277 | 5.75200 | 90° | 40km/h | 17287m | 4.4m/s | 0°C | 2.2% | 89.8hPa | 4V | 00:00:00 | 00:00:00 | 00:00:00 | |
| DB0UT-7 | 2026-08-31 23:35:14 | 50.71277 | 5.75152 | 94° | 46km/h | 17273m | 4.4m/s | 0°C | 2.2% | 90.0hPa | 4V | 00:00:00 | 01:08:37 | 00:00:00 | |
| DM0DOS-11 | 2026-08-31 23:35:12 | 50.71274 | 5.75069 | 88° | 42km/h | 17250m | 4.5m/s | -273.1°C | 2.3% | 90.3hPa | 4V | 00:00:00 | 01:08:32 | 00:00:00 | |
| DL1XH1-15 | 2026-08-31 23:35:08 | 50.71273 | 5.75003 | 84° | 42km/h | 17233m | 4.5m/s | -273.1°C | 2.3% | 90.6hPa | 4V | 00:00:00 | 01:08:28 | 00:00:00 | |
| DL1XH-west | 2026-08-31 23:35:07 | 50.71275 | 5.75024 | 0° | 0km/h | 17237m | 0m/s | -273.1°C | 2.3% | 90.5hPa | 4V | 00:00:00 | 00:00:00 | 00:00:00 | |
| DJ8HS-15 | 2026-08-31 23:35:06 | 50.71275 | 5.75023 | 82° | 47km/h | 17237m | 4.3m/s | 0°C | 2.2% | 90.5hPa | 4V | 00:00:00 | 01:08:29 | 00:00:00 | |
| GOEST3-10 | 2026-08-31 23:35:02 | 50.71275 | 5.74960 | 90° | 47km/h | 17220m | 4.6m/s | 0°C | 2.2% | 90.7hPa | 4V | 00:00:00 | 01:08:25 | 00:00:00 | |
| DM0DOS-11 | 2026-08-31 23:35:01 | 50.71276 | 5.74887 | 106° | 46km/h | 17200m | 4.3m/s | -273.1°C | 2.3% | 91hPa | 4V | 00:00:00 | 01:08:21 | 00:00:00 | |
| DL1XH1-15 | 2026-08-31 23:34:57 | 50.71278 | 5.74832 | 88° | 47km/h | 17187m | 4.5m/s | -273.1°C | 2.2% | 91.2hPa | 4V | 00:00:00 | 01:08:18 | 00:00:00 | |
| DL1XH-west | 2026-08-31 23:34:56 | 50.71278 | 5.74832 | 0° | 0km/h | 17187m | 0m/s | -273.1°C | 2.3% | 91.2hPa | 4V | 00:00:00 | 00:00:00 | 00:00:00 | |
| GOEST3-10 | 2026-08-31 23:34:54 | 50.71277 | 5.74812 | 95° | 51km/h | 17182m | 4.3m/s | 0°C | 2.3% | 91.2hPa | 4V | 00:00:00 | 00:00:00 | 00:00:00 | |
| DM0DOS-11 | 2026-08-31 23:34:51 | 50.71286 | 5.74695 | 87° | 49km/h | 17154m | 4.2m/s | -273.1°C | 2.3% | 91.6hPa | 4V | 00:00:00 | 01:08:11 | 00:00:00 | |
| DL1XH1-15 | 2026-08-31 23:34:50 | 50.71288 | 5.74635 | 94° | 53km/h | 17141m | 4.4m/s | -273.1°C | 2.3% | 91.8hPa | 4V | 00:00:00 | 01:08:08 | 00:00:00 | |
| BIOWL1-15 | 2026-08-31 23:34:49 | 50.71286 | 5.74662 | 95° | 69km/h | 17146m | 5m/s | -273.1°C | 2.4% | 91.8hPa | 4V | 00:00:00 | 00:00:00 | 00:00:00 | |
| DL1XH-west | 2026-08-31 23:34:46 | 50.71288 | 5.74635 | 0° | 0km/h | 17141m | 0m/s | -273.1°C | 2.4% | 91.8hPa | 4V | 00:00:00 | 00:00:00 | 00:00:00 | |
| DB0UT-7 | 2026-08-31 23:34:44 | 50.71289 | 5.74610 | 85° | 57km/h | 17137m | 4.5m/s | 0°C | 2.3% | 91.8hPa | 4.0V | 00:00:00 | 00:00:00 | 00:00:00 | |
| DM0DOS-11 | 2026-08-31 23:34:39 | 50.71286 | 5.74485 | 74° | 51km/h | 17110m | 4.5m/s | -273.1°C | 2.3% | 92.2hPa | 4V | 00:00:00 | 01:08:01 | 00:00:00 | |
| GOEST3-10 | 2026-08-31 23:34:39 | 50.71288 | 5.74505 | 85° | 55km/h | 17115m | 4.6m/s | 0°C | 2.3% | 92.1hPa | 4V | 00:00:00 | 01:08:02 | 00:00:00 | |
| DL1XH1-15 | 2026-08-31 23:34:37 | 50.71280 | 5.74426 | 91° | 57km/h | 17096m | 4.2m/s | -273.1°C | 2.3% | 92.4hPa | 4V | 00:00:00 | 01:07:58 | 00:00:00 | |
| BIOWL1-15 | 2026-08-31 23:34:36 | 50.71271 | 5.74319 | 86° | 69km/h | 17074m | 3m/s | -273.1°C | 2.4% | 92.8hPa | 4V | 00:00:00 | 00:00:00 | 00:00:00 | |
| DL1XH-west | 2026-08-31 23:34:35 | 50.71280 | 5.74399 | 0° | 0km/h | 17093m | 0m/s | -273.1°C | 2.4% | 92.5hPa | 4V | 00:00:00 | 00:00:00 | 00:00:00 | |
| GOEST3-10 | 2026-08-31 23:34:34 | 50.71280 | 5.74399 | 84° | 57km/h | 17093m | 4.6m/s | 0°C | 2.3% | 92.5hPa | 4.0V | 00:00:00 | 00:00:00 | 00:00:00 | |
| DL1XH1-15 | 2026-08-31 23:34:30 | 50.71258 | 5.74210 | 82° | 58km/h | 17052m | 4.3m/s | -273.1°C | 2.3% | 93.1hPa | 4V | 00:00:00 | 01:07:48 | 00:00:00 | |
| DM0DOS-11 | 2026-08-31 23:34:29 | 50.71268 | 5.74271 | 67° | 55km/h | 17065m | 4.2m/s | -273.1°C | 2.3% | 92.9hPa | 4V | 00:00:00 | 01:07:51 | 00:00:00 | |
| BIOWL1-15 | 2026-08-31 23:34:25 | 50.71255 | 5.74184 | 80° | 62km/h | 17048m | 4m/s | -273.1°C | 2.4% | 93.2hPa | 4V | 00:00:00 | 00:00:00 | 00:00:00 | |
| DL1XH-west | 2026-08-31 23:34:24 | 50.71253 | 5.74159 | 0° | 0km/h | 17044m | 0m/s | -273.1°C | 2.4% | 93.2hPa | 4V | 00:00:00 | 00:00:00 | 00:00:00 | |
| GOEST3-10 | 2026-08-31 23:34:23 | 50.71253 | 5.74159 | 71° | 57km/h | 17044m | 4.4m/s | 0°C | 2.3% | 93.1hPa | 4V | 00:00:00 | 00:00:00 | 00:00:00 | |
| DM0DOS-11 | 2026-08-31 23:34:19 | 50.71235 | 5.74047 | 70° | 53km/h | 17022m | 4.7m/s | -273.1°C | 2.3% | 93.5hPa | 4V | 00:00:00 | 01:07:41 | 00:00:00 | |
| DL1XH1-15 | 2026-08-31 23:34:17 | 50.71223 | 5.73988 | 77° | 58km/h | 17007m | 4.3m/s | -273.1°C | 2.5% | 93.7hPa | 4V | 00:00:00 | 01:07:38 | 00:00:00 | |
| BIOWL1-15 | 2026-08-31 23:34:15 | 50.71220 | 5.73960 | 73° | 55km/h | 17003m | 5m/s | -273.1°C | 2.4% | 93.8hPa | 4V | 00:00:00 | 00:00:00 | 00:00:00 | |
| DB0UT-7 | 2026-08-31 23:34:14 | 50.71219 | 5.73960 | 76° | 51km/h | 17003m | 4.3m/s | 0°C | 2.3% | 93.7hPa | 4V | 00:00:00 | 01:07:37 | 00:00:00 | |
| DM0DOS-11 | 2026-08-31 23:34:13 | 50.71195 | 5.73833 | 74° | 55km/h | 16977m | 4.2m/s | -273.1°C | 2.5% | 94.2hPa | 4V | 00:00:00 | 01:07:31 | 00:00:00 | |
| DL1XH-west | 2026-08-31 23:34:13 | 50.71212 | 5.73918 | 0° | 0km/h | 16993m | 0m/s | -273.1°C | 2.5% | 93.9hPa | 4V | 00:00:00 | 00:00:00 | 00:00:00 | |
| GOEST3-10 | 2026-08-31 23:34:12 | 50.71212 | 5.73918 | 67° | 57km/h | 16993m | 4.0m/s | 0°C | 2.5% | 93.9hPa | 4V | 00:00:00 | 00:00:00 | 00:00:00 | |
| DL1XH1-15 | 2026-08-31 23:34:10 | 50.71182 | 5.73775 | 62° | 57km/h | 16964m | 4.1m/s | -273.1°C | 2.5% | 94.3hPa | 4V | 00:00:00 | 01:07:28 | 00:00:00 | |
| DL1XH-west | 2026-08-31 23:34:02 | 50.71155 | 5.73669 | 0° | 0km/h | 16943m | 0m/s | -273.1°C | 2.5% | 94.7hPa | 4V | 00:00:00 | 00:00:00 | 00:00:00 | |
| GOEST3-10 | 2026-08-31 23:34:01 | 50.71159 | 5.73685 | 69° | 51km/h | 16948m | 4.5m/s | 0°C | 2.5% | 94.5hPa | 4.0V | 00:00:00 | 00:00:00 | 00:00:00 | |
| DM0DOS-11 | 2026-08-31 23:33:59 | 50.71144 | 5.73634 | 63° | 53km/h | 16935m | 4.6m/s | -273.1°C | 2.5% | 94.8hPa | 4V | 00:00:00 | 01:07:21 | 00:00:00 | |
| DL1XH-west | 2026-08-31 23:33:51 | 50.71093 | 5.73481 | 0° | 0km/h | 16898m | 0m/s | -273.1°C | 2.6% | 95.3hPa | 4V | 00:00:00 | 00:00:00 | 00:00:00 | |
| BIOWL1-15 | 2026-08-31 23:33:50 | 50.71087 | 5.73469 | 63° | 42km/h | 16894m | 5m/s | -273.1°C | 2.5% | 95.4hPa | 4V | 00:00:00 | 00:00:00 | 00:00:00 | |
| DL1XH1-15 | 2026-08-31 23:33:50 | 50.71064 | 5.73394 | 53° | 46km/h | 16877m | 4.6m/s | -273.1°C | 2.5% | 95.6hPa | 4V | 00:00:00 | 01:07:08 | 00:00:00 | |
| DM0DOS-11 | 2026-08-31 23:33:49 | 50.71082 | 5.73454 | 66° | 51km/h | 16889m | 4.3m/s | -273.1°C | 2.5% | 95.4hPa | 4V | 00:00:00 | 01:07:11 | 00:00:00 | |
| DL1XH-west | 2026-08-31 23:33:40 | 50.71026 | 5.73296 | 0° | 0km/h | 16849m | 0m/s | -273.1°C | 2.6% | 96hPa | 4V | 00:00:00 | 00:00:00 | 00:00:00 | |
| BIOWL1-15 | 2026-08-31 23:33:40 | 50.71019 | 5.73287 | 39° | 33km/h | 16844m | 2m/s | -273.1°C | 2.6% | 96.1hPa | 4V | 00:00:00 | 00:00:00 | 00:00:00 | |
| DM0DOS-11 | 2026-08-31 23:33:39 | 50.71019 | 5.73287 | 39° | 44km/h | 16844m | 4.7m/s | -273.1°C | 2.5% | 96.1hPa | 4V | 00:00:00 | 01:07:01 | 00:00:00 | |
| NBG1-10 | 2026-08-31 23:33:35 | 50.71001 | 5.73238 | 56° | 38km/h | 16830m | 4.6m/s | 0°C | 2.5% | 96.2hPa | 4.0V | 00:00:00 | 01:06:58 | 00:00:00 | |
| DM0DOS-11 | 2026-08-31 23:33:33 | 50.70961 | 5.73136 | 38° | 42km/h | 16794m | 4.4m/s | -273.1°C | 2.5% | 96.8hPa | 4V | 00:00:00 | 01:06:51 | 00:00:00 | |
| DL1XH-west | 2026-08-31 23:33:30 | 50.70967 | 5.73147 | 0° | 0km/h | 16800m | 0m/s | -273.1°C | 2.6% | 96.7hPa | 4V | 00:00:00 | 00:00:00 | 00:00:00 | |
| BIOWL1-15 | 2026-08-31 23:33:29 | 50.70948 | 5.73114 | 68° | 57km/h | 16785m | 5m/s | -273.1°C | 2.6% | 96.9hPa | 4V | 00:00:00 | 00:00:00 | 00:00:00 | |
| DL1XH-west | 2026-08-31 23:33:19 | 50.70905 | 5.72991 | 0° | 0km/h | 16749m | 0m/s | -273.1°C | 2.7% | 97.4hPa | 4V | 00:00:00 | 00:00:00 | 00:00:00 | |
| BIOWL1-15 | 2026-08-31 23:33:18 | 50.70876 | 5.72924 | 52° | 37km/h | 16726m | 6m/s | -273.1°C | 2.7% | 97.8hPa | 4V | 00:00:00 | 00:00:00 | 00:00:00 | |
| DL1XH1-15 | 2026-08-31 23:33:17 | 50.70888 | 5.72961 | 64° | 44km/h | 16735m | 4.7m/s | -273.1°C | 2.7% | 97.7hPa | 4V | 00:00:00 | 01:06:38 | 00:00:00 | |
| GOEST3-10 | 2026-08-31 23:33:15 | 50.70888 | 5.72961 | 65° | 40km/h | 16735m | 4.7m/s | 0°C | 2.7% | 97.6hPa | 4.0V | 00:00:00 | 01:06:38 | 00:00:00 | |
| DB0UT-7 | 2026-08-31 23:33:14 | 50.70882 | 5.72943 | 63° | 37km/h | 16730m | 4.6m/s | 0°C | 2.7% | 97.7hPa | 4.0V | 00:00:00 | 01:06:37 | 00:00:00 | |
| DM0DOS-11 | 2026-08-31 23:33:12 | 50.70845 | 5.72864 | 52° | 37km/h | 16702m | 4.7m/s | -273.1°C | 2.7% | 98.2hPa | 4V | 00:00:00 | 01:06:31 | 00:00:00 | |
| DL1XH1-15 | 2026-08-31 23:33:10 | 50.70825 | 5.72833 | 43° | 38km/h | 16689m | 4.5m/s | -273.1°C | 2.7% | 98.4hPa | 4V | 00:00:00 | 01:06:28 | 00:00:00 | |
| DL1XH-west | 2026-08-31 23:33:09 | 50.70845 | 5.72864 | 0° | 0km/h | 16702m | 0m/s | -273.1°C | 2.7% | 98.2hPa | 4V | 00:00:00 | 00:00:00 | 00:00:00 | |
| BIOWL1-15 | 2026-08-31 23:33:08 | 50.70804 | 5.72779 | 58° | 37km/h | 16671m | 5m/s | -273.1°C | 2.7% | 98.6hPa | 4V | 00:00:00 | 00:00:00 | 00:00:00 | |
| DJ8HS-15 | 2026-08-31 23:33:06 | 50.70832 | 5.72840 | 33° | 37km/h | 16693m | 4.4m/s | 0°C | 2.7% | 98.2hPa | 4V | 00:00:00 | 01:06:29 | 00:00:00 | |
| GOEST3-10 | 2026-08-31 23:33:05 | 50.70825 | 5.72833 | 44° | 37km/h | 16689m | 4.5m/s | 0°C | 2.7% | 98.3hPa | 4V | 00:00:00 | 01:06:28 | 00:00:00 | |
| NBG1-10 | 2026-08-31 23:33:01 | 50.70804 | 5.72779 | 59° | 53km/h | 16671m | 4.7m/s | 0°C | 2.7% | 98.6hPa | 4V | 00:00:00 | 01:06:24 | 00:00:00 | |
| DM0DOS-11 | 2026-08-31 23:33:00 | 50.70781 | 5.72737 | 61° | 40km/h | 16652m | 4.9m/s | -273.1°C | 2.7% | 98.9hPa | 4V | 00:00:00 | 01:06:20 | 00:00:00 | |
| DL1XH-west | 2026-08-31 23:32:58 | 50.70781 | 5.72737 | 0° | 0km/h | 16652m | 0m/s | -273.1°C | 2.7% | 98.9hPa | 4V | 00:00:00 | 00:00:00 | 00:00:00 | |
| BIOWL1-15 | 2026-08-31 23:32:55 | 50.70765 | 5.72677 | 54° | 26km/h | 16631m | 4m/s | -273.1°C | 2.8% | 99.2hPa | 4V | 00:00:00 | 00:00:00 | 00:00:00 | |
| GOEST3-10 | 2026-08-31 23:32:53 | 50.70764 | 5.72677 | 54° | 37km/h | 16631m | 4.6m/s | 0°C | 2.7% | 99.1hPa | 4V | 00:00:00 | 01:06:16 | 00:00:00 | |
| DM0DOS-11 | 2026-08-31 23:32:49 | 50.70741 | 5.72601 | 86° | 33km/h | 16602m | 4.4m/s | -273.1°C | 2.7% | 99.7hPa | 4V | 00:00:00 | 01:06:10 | 00:00:00 | |
| DL1XH-west | 2026-08-31 23:32:49 | 50.70741 | 5.72601 | 0° | 0km/h | 16602m | 0m/s | -273.1°C | 2.8% | 99.7hPa | 4V | 00:00:00 | 00:00:00 | 00:00:00 | |
| BIOWL1-15 | 2026-08-31 23:32:44 | 50.70717 | 5.72477 | 70° | 35km/h | 16561m | 5m/s | -273.1°C | 2.8% | 100.3hPa | 4V | 00:00:00 | 00:00:00 | 00:00:00 | |
| GOEST3-10 | 2026-08-31 23:32:43 | 50.70732 | 5.72544 | 69° | 37km/h | 16585m | 4.8m/s | 0°C | 2.7% | 99.8hPa | 4.0V | 00:00:00 | 01:06:06 | 00:00:00 | |
| DM0DOS-11 | 2026-08-31 23:32:38 | 50.70714 | 5.72464 | 56° | 37km/h | 16556m | 4.7m/s | -273.1°C | 2.7% | 100.3hPa | 4V | 00:00:00 | 01:06:00 | 00:00:00 | |
| DL1XH-west | 2026-08-31 23:32:37 | 50.70710 | 5.72454 | 0° | 0km/h | 16551m | 0m/s | -273.1°C | 2.8% | 100.4hPa | 4V | 00:00:00 | 00:00:00 | 00:00:00 | |
| DM0DOS-11 | 2026-08-31 23:32:33 | 50.70683 | 5.72315 | 52° | 40km/h | 16508m | 4.9m/s | -273.1°C | 2.8% | 101.1hPa | 4V | 00:00:00 | 01:05:50 | 00:00:00 | |
| BIOWL1-15 | 2026-08-31 23:32:32 | 50.70686 | 5.72332 | 76° | 44km/h | 16513m | 5m/s | -273.1°C | 2.9% | 101hPa | 4V | 00:00:00 | 00:00:00 | 00:00:00 | |
| DL1XH1-15 | 2026-08-31 23:32:29 | 50.70670 | 5.72275 | 90° | 42km/h | 16493m | 4.7m/s | -273.1°C | 2.8% | 101.3hPa | 4V | 00:00:00 | 01:05:47 | 00:00:00 | |
| DL1XH-west | 2026-08-31 23:32:27 | 50.70672 | 5.72291 | 0° | 0km/h | 16499m | 0m/s | -273.1°C | 2.9% | 101.2hPa | 4V | 00:00:00 | 00:00:00 | 00:00:00 | |
| DJ8HS-15 | 2026-08-31 23:32:26 | 50.70677 | 5.72303 | 52° | 40km/h | 16502m | 4.5m/s | 0°C | 2.8% | 101.1hPa | 4V | 00:00:00 | 01:05:49 | 00:00:00 | |
| GOEST3-10 | 2026-08-31 23:32:22 | 50.70668 | 5.72239 | 61° | 40km/h | 16484m | 4.8m/s | 0°C | 2.8% | 101.4hPa | 4V | 00:00:00 | 01:05:45 | 00:00:00 | |
| DM0DOS-11 | 2026-08-31 23:32:21 | 50.70652 | 5.72150 | 64° | 40km/h | 16455m | 4.5m/s | -273.1°C | 2.8% | 101.9hPa | 4V | 00:00:00 | 01:05:39 | 00:00:00 | |
| BIOWL1-15 | 2026-08-31 23:32:19 | 50.70655 | 5.72161 | 64° | 31km/h | 16460m | 5m/s | -273.1°C | 2.9% | 101.8hPa | 4V | 00:00:00 | 00:00:00 | 00:00:00 | |
| DL1XH-west | 2026-08-31 23:32:16 | 50.70648 | 5.72139 | 0° | 0km/h | 16451m | 0m/s | -273.1°C | 2.9% | 102hPa | 4V | 00:00:00 | 00:00:00 | 00:00:00 | |
| GOEST3-10 | 2026-08-31 23:32:16 | 50.70651 | 5.72150 | 65° | 42km/h | 16455m | 4.5m/s | 0°C | 2.8% | 101.8hPa | 4.0V | 00:00:00 | 00:00:00 | 00:00:00 | |
| DB0UT-7 | 2026-08-31 23:32:14 | 50.70645 | 5.72123 | 78° | 44km/h | 16446m | 4.5m/s | 0°C | 3.0% | 102.0hPa | 4.0V | 00:00:00 | 01:05:37 | 00:00:00 | |
| GOEST3-10 | 2026-08-31 23:32:11 | 50.70640 | 5.72069 | 75° | 42km/h | 16433m | 4.8m/s | 0°C | 3.0% | 102.2hPa | 4.0V | 00:00:00 | 01:05:34 | 00:00:00 | |
| DM0DOS-11 | 2026-08-31 23:32:11 | 50.70630 | 5.71991 | 80° | 42km/h | 16409m | 4.8m/s | -273.1°C | 2.8% | 102.6hPa | 4V | 00:00:00 | 01:05:29 | 00:00:00 | |
| DL1XH1-15 | 2026-08-31 23:32:09 | 50.70626 | 5.71959 | 69° | 44km/h | 16399m | 4.7m/s | -273.1°C | 3% | 102.8hPa | 4V | 00:00:00 | 01:05:27 | 00:00:00 | |
| BIOWL1-15 | 2026-08-31 23:32:08 | 50.70628 | 5.71973 | 75° | 35km/h | 16404m | 5m/s | -273.1°C | 3% | 102.7hPa | 4V | 00:00:00 | 00:00:00 | 00:00:00 | |
| DL1XH-west | 2026-08-31 23:32:05 | 50.70626 | 5.71959 | 0° | 0km/h | 16399m | 0m/s | -273.1°C | 3% | 102.8hPa | 4V | 00:00:00 | 00:00:00 | 00:00:00 | |
| DM0DOS-11 | 2026-08-31 23:32:01 | 50.70614 | 5.71819 | 90° | 44km/h | 16361m | 4.5m/s | -273.1°C | 3% | 103.4hPa | 4V | 00:00:00 | 01:05:19 | 00:00:00 | |
| BIOWL1-15 | 2026-08-31 23:31:58 | 50.70614 | 5.71841 | 90° | 55km/h | 16366m | 5m/s | -273.1°C | 3% | 103.3hPa | 4V | 00:00:00 | 00:00:00 | 00:00:00 | |
| DL1XH1-15 | 2026-08-31 23:31:57 | 50.70612 | 5.71784 | 68° | 42km/h | 16352m | 4.6m/s | -273.1°C | 3% | 103.5hPa | 4V | 00:00:00 | 01:05:17 | 00:00:00 | |
| DL1XH-west | 2026-08-31 23:31:55 | 50.70610 | 5.71773 | 0° | 0km/h | 16348m | 0m/s | -273.1°C | 3% | 103.6hPa | 4V | 00:00:00 | 00:00:00 | 00:00:00 | |
| DM0DOS-11 | 2026-08-31 23:31:51 | 50.70601 | 5.71649 | 90° | 49km/h | 16314m | 4.7m/s | -273.1°C | 3% | 104.1hPa | 4V | 00:00:00 | 01:05:09 | 00:00:00 | |
| GOEST3-10 | 2026-08-31 23:31:50 | 50.70608 | 5.71715 | 84° | 47km/h | 16333m | 4.6m/s | 0°C | 3.0% | 103.7hPa | 4V | 00:00:00 | 01:05:13 | 00:00:00 | |
| DL1XH1-15 | 2026-08-31 23:31:49 | 50.70599 | 5.71605 | 69° | 42km/h | 16305m | 4.8m/s | -273.1°C | 3% | 104.2hPa | 4V | 00:00:00 | 01:05:07 | 00:00:00 | |
| BIOWL1-15 | 2026-08-31 23:31:47 | 50.70601 | 5.71649 | 90° | 60km/h | 16314m | 4m/s | -273.1°C | 3.1% | 104.1hPa | 4V | 00:00:00 | 00:00:00 | 00:00:00 | |
| DL1XH-west | 2026-08-31 23:31:44 | 50.70596 | 5.71592 | 0° | 0km/h | 16300m | 0m/s | -273.1°C | 3.1% | 104.3hPa | 4V | 00:00:00 | 00:00:00 | 00:00:00 | |
| DB0UT-7 | 2026-08-31 23:31:44 | 50.70599 | 5.71605 | 70° | 49km/h | 16305m | 4.8m/s | 0°C | 3.0% | 104.2hPa | 4.0V | 00:00:00 | 00:00:00 | 00:00:00 | |
| DM0DOS-11 | 2026-08-31 23:31:41 | 50.70587 | 5.71466 | 94° | 46km/h | 16266m | 4.7m/s | -273.1°C | 3% | 104.9hPa | 4V | 00:00:00 | 01:04:59 | 00:00:00 | |
| GOEST3-10 | 2026-08-31 23:31:40 | 50.70592 | 5.71533 | 87° | 46km/h | 16286m | 4.8m/s | 0°C | 3.0% | 104.5hPa | 4.0V | 00:00:00 | 01:05:03 | 00:00:00 | |
| DL1XH1-15 | 2026-08-31 23:31:37 | 50.70589 | 5.71424 | 83° | 44km/h | 16257m | 4.8m/s | -273.1°C | 3% | 105hPa | 4V | 00:00:00 | 01:04:57 | 00:00:00 | |
| BIOWL1-15 | 2026-08-31 23:31:36 | 50.70588 | 5.71445 | 93° | 53km/h | 16261m | 4m/s | -273.1°C | 3.1% | 104.9hPa | 4V | 00:00:00 | 00:00:00 | 00:00:00 | |
| DL1XH-west | 2026-08-31 23:31:33 | 50.70586 | 5.71396 | 0° | 0km/h | 16248m | 0m/s | -273.1°C | 3.1% | 105.2hPa | 4V | 00:00:00 | 00:00:00 | 00:00:00 | |
| GOEST3-10 | 2026-08-31 23:31:30 | 50.70590 | 5.71354 | 96° | 49km/h | 16238m | 4.7m/s | 0°C | 3.1% | 105.3hPa | 4V | 00:00:00 | 01:04:53 | 00:00:00 | |
| DM0DOS-11 | 2026-08-31 23:31:30 | 50.70593 | 5.71237 | 88° | 47km/h | 16210m | 5m/s | -273.1°C | 3.1% | 105.8hPa | 4V | 00:00:00 | 01:04:47 | 00:00:00 | |
| DL1XH1-15 | 2026-08-31 23:31:29 | 50.70593 | 5.71219 | 78° | 47km/h | 16204m | 4.7m/s | -273.1°C | 3.1% | 105.8hPa | 4V | 00:00:00 | 01:04:46 | 00:00:00 | |
| BIOWL1-15 | 2026-08-31 23:31:28 | 50.70592 | 5.71261 | 96° | 60km/h | 16214m | 4m/s | -273.1°C | 3.2% | 105.7hPa | 4V | 00:00:00 | 00:00:00 | 00:00:00 | |
| DL1XH-west | 2026-08-31 23:31:23 | 50.70591 | 5.71205 | 0° | 0km/h | 16200m | 0m/s | -273.1°C | 3.2% | 105.9hPa | 4V | 00:00:00 | 00:00:00 | 00:00:00 | |
| GOEST3-10 | 2026-08-31 23:31:20 | 50.70592 | 5.71157 | 93° | 51km/h | 16190m | 4.7m/s | 0°C | 3.1% | 106.0hPa | 4V | 00:00:00 | 01:04:43 | 00:00:00 | |
| DM0DOS-11 | 2026-08-31 23:31:18 | 50.70596 | 5.71032 | 81° | 47km/h | 16161m | 4.9m/s | -273.1°C | 3.2% | 106.5hPa | 4V | 00:00:00 | 01:04:37 | 00:00:00 | |
| DL1XH1-15 | 2026-08-31 23:31:18 | 50.70595 | 5.71015 | 90° | 49km/h | 16155m | 4.5m/s | -273.1°C | 3.2% | 106.6hPa | 4V | 00:00:00 | 01:04:36 | 00:00:00 | |
| BIOWL1-15 | 2026-08-31 23:31:18 | 50.70601 | 5.70931 | 95° | 49km/h | 16137m | 5m/s | -273.1°C | 3.3% | 106.9hPa | 4V | 00:00:00 | 00:00:00 | 00:00:00 | |
| DL1XH-west | 2026-08-31 23:31:13 | 50.70595 | 5.70999 | 0° | 0km/h | 16151m | 0m/s | -273.1°C | 3.3% | 106.7hPa | 4V | 00:00:00 | 00:00:00 | 00:00:00 | |
| GOEST3-10 | 2026-08-31 23:31:09 | 50.70601 | 5.70931 | 96° | 51km/h | 16137m | 4.5m/s | 0°C | 3.2% | 106.9hPa | 4.0V | 00:00:00 | 01:04:32 | 00:00:00 | |
| DL1XH1-15 | 2026-08-31 23:31:08 | 50.70603 | 5.70809 | 79° | 49km/h | 16111m | 5m/s | -273.1°C | 3.2% | 107.3hPa | 4V | 00:00:00 | 01:04:26 | 00:00:00 | |
| DM0DOS-11 | 2026-08-31 23:31:06 | 50.70601 | 5.70832 | 100° | 51km/h | 16114m | 4.6m/s | -273.1°C | 3.2% | 107.3hPa | 4V | 00:00:00 | 01:04:27 | 00:00:00 | |
| BIOWL1-15 | 2026-08-31 23:31:02 | 50.70599 | 5.70774 | 95° | 51km/h | 16101m | 6m/s | -273.1°C | 3.3% | 107.5hPa | 4V | 00:00:00 | 00:00:00 | 00:00:00 | |
| DL1XH-west | 2026-08-31 23:31:00 | 50.70604 | 5.70732 | 0° | 0km/h | 16090m | 0m/s | -273.1°C | 3.4% | 107.7hPa | 4V | 00:00:00 | 00:00:00 | 00:00:00 | |
| GOEST3-10 | 2026-08-31 23:30:59 | 50.70603 | 5.70732 | 91° | 49km/h | 16090m | 4.6m/s | 0°C | 3.3% | 107.6hPa | 4V | 00:00:00 | 01:04:22 | 00:00:00 | |
| DL1XH1-15 | 2026-08-31 23:30:58 | 50.70607 | 5.70613 | 83° | 47km/h | 16063m | 5m/s | -273.1°C | 3.3% | 108.1hPa | 4V | 00:00:00 | 01:04:16 | 00:00:00 | |
| DM0DOS-11 | 2026-08-31 23:30:56 | 50.70604 | 5.70635 | 99° | 49km/h | 16066m | 4.5m/s | -273.1°C | 3.3% | 108.1hPa | 4V | 00:00:00 | 01:04:17 | 00:00:00 | |
| BIOWL1-15 | 2026-08-31 23:30:52 | 50.70603 | 5.70581 | 92° | 51km/h | 16053m | 6m/s | -273.1°C | 3.4% | 108.3hPa | 4V | 00:00:00 | 00:00:00 | 00:00:00 | |
| DL1XH-west | 2026-08-31 23:30:50 | 50.70606 | 5.70538 | 0° | 0km/h | 16043m | 0m/s | -273.1°C | 3.4% | 108.5hPa | 4V | 00:00:00 | 00:00:00 | 00:00:00 | |
| DL1XH1-15 | 2026-08-31 23:30:48 | 50.70605 | 5.70420 | 83° | 51km/h | 16015m | 4.6m/s | -273.1°C | 3.3% | 108.9hPa | 4V | 00:00:00 | 01:04:06 | 00:00:00 | |
| BIOWL1-15 | 2026-08-31 23:30:41 | 50.70598 | 5.70360 | 92° | 49km/h | 16002m | 6m/s | -273.1°C | 3.4% | 109.1hPa | 4V | 00:00:00 | 00:00:00 | 00:00:00 | |
| DL1XH-west | 2026-08-31 23:30:40 | 50.70602 | 5.70318 | 0° | 0km/h | 15992m | 0m/s | -273.1°C | 3.5% | 109.3hPa | 4V | 00:00:00 | 00:00:00 | 00:00:00 | |
| DM0DOS-11 | 2026-08-31 23:30:38 | 50.70595 | 5.70242 | 105° | 47km/h | 15974m | 4.7m/s | -273.1°C | 3.5% | 109.6hPa | 4V | 00:00:00 | 01:03:57 | 00:00:00 | |
| DL1XH1-15 | 2026-08-31 23:30:38 | 50.70599 | 5.70223 | 90° | 46km/h | 15969m | 4.6m/s | -273.1°C | 3.5% | 109.7hPa | 4V | 00:00:00 | 01:03:56 | 00:00:00 | |
| BIOWL1-15 | 2026-08-31 23:30:31 | 50.70601 | 5.70081 | 79° | 49km/h | 15931m | 3m/s | -273.1°C | 3.6% | 110.3hPa | 4V | 00:00:00 | 00:00:00 | 00:00:00 | |
| DL1XH-west | 2026-08-31 23:30:28 | 50.70602 | 5.70117 | 0° | 0km/h | 15942m | 0m/s | -273.1°C | 3.6% | 110.1hPa | 4V | 00:00:00 | 00:00:00 | 00:00:00 | |
| DM0DOS-11 | 2026-08-31 23:30:26 | 50.70598 | 5.70061 | 102° | 46km/h | 15928m | 5.1m/s | -273.1°C | 3.5% | 110.3hPa | 4V | 00:00:00 | 01:03:47 | 00:00:00 | |
| DJ8HS-15 | 2026-08-31 23:30:25 | 50.70601 | 5.70081 | 80° | 47km/h | 15931m | 4.6m/s | 0°C | 3.5% | 110.2hPa | 4V | 00:00:00 | 01:03:48 | 00:00:00 | |
| DL1XH1-15 | 2026-08-31 23:30:23 | 50.70604 | 5.70028 | 80° | 47km/h | 15917m | 4.7m/s | -273.1°C | 3.5% | 110.5hPa | 4V | 00:00:00 | 01:03:45 | 00:00:00 | |
| BIOWL1-15 | 2026-08-31 23:30:18 | 50.70601 | 5.69839 | 87° | 51km/h | 15870m | 5m/s | -273.1°C | 3.7% | 111.3hPa | 4V | 00:00:00 | 00:00:00 | 00:00:00 | |
| GOEST3-10 | 2026-08-31 23:30:17 | 50.70603 | 5.69934 | 83° | 46km/h | 15894m | 4.6m/s | 0°C | 3.5% | 110.9hPa | 4.0V | 00:00:00 | 00:00:00 | 00:00:00 | |
| DM0DOS-11 | 2026-08-31 23:30:16 | 50.70598 | 5.69872 | 103° | 46km/h | 15879m | 4.5m/s | -273.1°C | 3.5% | 111.2hPa | 4V | 00:00:00 | 01:03:37 | 00:00:00 | |
| DL1XH-west | 2026-08-31 23:30:14 | 50.70600 | 5.69857 | 0° | 0km/h | 15874m | 0m/s | -273.1°C | 3.6% | 111.3hPa | 4V | 00:00:00 | 00:00:00 | 00:00:00 | |
| DL1XH1-15 | 2026-08-31 23:30:13 | 50.70601 | 5.69819 | 77° | 47km/h | 15865m | 4.5m/s | -273.1°C | 3.5% | 111.4hPa | 4V | 00:00:00 | 01:03:34 | 00:00:00 | |
| BIOWL1-15 | 2026-08-31 23:30:06 | 50.70598 | 5.69689 | 103° | 33km/h | 15833m | 5m/s | -273.1°C | 3.7% | 111.9hPa | 4V | 00:00:00 | 00:00:00 | 00:00:00 | |
| DM0DOS-11 | 2026-08-31 23:30:05 | 50.70598 | 5.69689 | 102° | 44km/h | 15833m | 4.5m/s | -273.1°C | 3.6% | 111.9hPa | 4V | 00:00:00 | 01:03:27 | 00:00:00 | |
| DL1XH-west | 2026-08-31 23:30:04 | 50.70600 | 5.69676 | 0° | 0km/h | 15828m | 0m/s | -273.1°C | 3.7% | 112hPa | 4V | 00:00:00 | 00:00:00 | 00:00:00 | |
| GOEST3-10 | 2026-08-31 23:30:03 | 50.70600 | 5.69676 | 91° | 44km/h | 15828m | 4.3m/s | 0°C | 3.6% | 112.0hPa | 4.0V | 00:00:00 | 00:00:00 | 00:00:00 | |
| DL1XH1-15 | 2026-08-31 23:30:03 | 50.70601 | 5.69639 | 88° | 47km/h | 15819m | 4.3m/s | -273.1°C | 3.7% | 112.2hPa | 4V | 00:00:00 | 01:03:24 | 00:00:00 | |
| GOEST3-10 | 2026-08-31 23:29:57 | 50.70605 | 5.69571 | 90° | 46km/h | 15803m | 4.7m/s | 0°C | 3.7% | 112.4hPa | 4.0V | 00:00:00 | 01:03:20 | 00:00:00 | |
| DM0DOS-11 | 2026-08-31 23:29:55 | 50.70604 | 5.69508 | 100° | 46km/h | 15789m | 4.8m/s | -273.1°C | 3.7% | 112.7hPa | 4V | 00:00:00 | 01:03:17 | 00:00:00 | |
| BIOWL1-15 | 2026-08-31 23:29:54 | 50.70610 | 5.69461 | 95° | 55km/h | 15775m | 5m/s | -273.1°C | 3.8% | 113hPa | 4V | 00:00:00 | 00:00:00 | 00:00:00 | |
| DL1XH1-15 | 2026-08-31 23:29:53 | 50.70610 | 5.69461 | 94° | 51km/h | 15775m | 4.6m/s | -273.1°C | 3.7% | 113hPa | 4V | 00:00:00 | 01:03:14 | 00:00:00 | |
| DL1XH-west | 2026-08-31 23:29:53 | 50.70609 | 5.69478 | 0° | 0km/h | 15779m | 0m/s | -273.1°C | 3.8% | 112.9hPa | 4V | 00:00:00 | 00:00:00 | 00:00:00 | |
| GOEST3-10 | 2026-08-31 23:29:52 | 50.70609 | 5.69478 | 95° | 47km/h | 15779m | 4.5m/s | 0°C | 3.7% | 112.8hPa | 4V | 00:00:00 | 00:00:00 | 00:00:00 | |
| DM0DOS-11 | 2026-08-31 23:29:50 | 50.70618 | 5.69320 | 95° | 51km/h | 15743m | 4.5m/s | -273.1°C | 3.8% | 113.5hPa | 4V | 00:00:00 | 01:03:07 | 00:00:00 | |
| GOEST3-10 | 2026-08-31 23:29:47 | 50.70614 | 5.69381 | 104° | 53km/h | 15756m | 4.3m/s | 0°C | 3.8% | 113.2hPa | 4.0V | 00:00:00 | 01:03:10 | 00:00:00 | |
| DJ8HS-15 | 2026-08-31 23:29:45 | 50.70618 | 5.69345 | 92° | 55km/h | 15747m | 4.3m/s | 0°C | 3.8% | 113.4hPa | 4.0V | 00:00:00 | 01:03:08 | 00:00:00 | |
| DB0UT-7 | 2026-08-31 23:29:44 | 50.70618 | 5.69320 | 96° | 55km/h | 15743m | 4.5m/s | 0°C | 3.8% | 113.5hPa | 4V | 00:00:00 | 00:00:00 | 00:00:00 | |
| DL1XH1-15 | 2026-08-31 23:29:43 | 50.70625 | 5.69266 | 93° | 53km/h | 15730m | 4.5m/s | -273.1°C | 3.8% | 113.7hPa | 4V | 00:00:00 | 01:03:04 | 00:00:00 | |
| BIOWL1-15 | 2026-08-31 23:29:42 | 50.70625 | 5.69266 | 94° | 57km/h | 15730m | 5m/s | -273.1°C | 3.9% | 113.7hPa | 4V | 00:00:00 | 00:00:00 | 00:00:00 | |
| DM0DOS-11 | 2026-08-31 23:29:39 | 50.70631 | 5.69124 | 86° | 58km/h | 15699m | 4.5m/s | -273.1°C | 4% | 114.2hPa | 4V | 00:00:00 | 01:02:57 | 00:00:00 | |
| GOEST3-10 | 2026-08-31 23:29:37 | 50.70627 | 5.69178 | 102° | 55km/h | 15711m | 4.2m/s | 0°C | 3.8% | 114.0hPa | 4V | 00:00:00 | 01:03:00 | 00:00:00 | |
| DL1XH1-15 | 2026-08-31 23:29:33 | 50.70629 | 5.69034 | 93° | 57km/h | 15681m | 4.3m/s | -273.1°C | 4% | 114.6hPa | 4V | 00:00:00 | 01:02:53 | 00:00:00 | |
| DL1XH-west | 2026-08-31 23:29:31 | 50.70629 | 5.69034 | 0° | 0km/h | 15681m | 0m/s | -273.1°C | 4% | 114.6hPa | 4V | 00:00:00 | 00:00:00 | 00:00:00 | |
| BIOWL1-15 | 2026-08-31 23:29:31 | 50.70630 | 5.69015 | 84° | 58km/h | 15677m | 4m/s | -273.1°C | 4% | 114.6hPa | 4V | 00:00:00 | 00:00:00 | 00:00:00 | |
| DM0DOS-11 | 2026-08-31 23:29:29 | 50.70626 | 5.68902 | 84° | 62km/h | 15656m | 4.7m/s | -273.1°C | 4% | 115hPa | 4V | 00:00:00 | 01:02:47 | 00:00:00 | |
| DL1XH-west | 2026-08-31 23:29:21 | 50.70617 | 5.68807 | 0° | 0km/h | 15637m | 0m/s | -273.1°C | 4% | 115.3hPa | 4V | 00:00:00 | 00:00:00 | 00:00:00 | |
| BIOWL1-15 | 2026-08-31 23:29:20 | 50.70612 | 5.68709 | 87° | 49km/h | 15620m | 4m/s | -273.1°C | 4.1% | 115.6hPa | 4V | 00:00:00 | 00:00:00 | 00:00:00 | |
| DM0DOS-11 | 2026-08-31 23:29:19 | 50.70610 | 5.68669 | 90° | 58km/h | 15612m | 4.2m/s | -273.1°C | 4% | 115.8hPa | 4V | 00:00:00 | 01:02:37 | 00:00:00 | |
| DL1XH-west | 2026-08-31 23:29:10 | 50.70608 | 5.68556 | 0° | 0km/h | 15591m | 0m/s | -273.1°C | 4.1% | 116.1hPa | 4V | 00:00:00 | 00:00:00 | 00:00:00 | |
| DM0DOS-11 | 2026-08-31 23:29:09 | 50.70607 | 5.68443 | 91° | 58km/h | 15568m | 4.6m/s | -273.1°C | 4.1% | 116.6hPa | 4V | 00:00:00 | 01:02:27 | 00:00:00 | |
| BIOWL1-15 | 2026-08-31 23:29:09 | 50.70607 | 5.68421 | 100° | 64km/h | 15563m | 5m/s | -273.1°C | 4.2% | 116.7hPa | 4V | 00:00:00 | 00:00:00 | 00:00:00 | |
| GOEST3-10 | 2026-08-31 23:29:08 | 50.70605 | 5.68537 | 98° | 57km/h | 15588m | 4.8m/s | 0°C | 4.1% | 116.2hPa | 4.0V | 00:00:00 | 00:00:00 | 00:00:00 | |
| DJ8HS-15 | 2026-08-31 23:29:05 | 50.70609 | 5.68463 | 80° | 57km/h | 15573m | 4.6m/s | 0°C | 4.1% | 116.4hPa | 4V | 00:00:00 | 01:02:28 | 00:00:00 | |
| DL1XH1-15 | 2026-08-31 23:29:03 | 50.70611 | 5.68329 | 85° | 55km/h | 15545m | 4.1m/s | -273.1°C | 4.1% | 117hPa | 4V | 00:00:00 | 01:02:22 | 00:00:00 | |
| GOEST3-10 | 2026-08-31 23:29:02 | 50.70610 | 5.68396 | 99° | 57km/h | 15558m | 4.3m/s | 0°C | 4.1% | 116.7hPa | 4V | 00:00:00 | 01:02:25 | 00:00:00 | |
| DM0DOS-11 | 2026-08-31 23:28:59 | 50.70615 | 5.68218 | 96° | 55km/h | 15524m | 4.4m/s | -273.1°C | 4.2% | 117.4hPa | 4V | 00:00:00 | 01:02:17 | 00:00:00 | |
| DL1XH-west | 2026-08-31 23:28:57 | 50.70618 | 5.68260 | 0° | 0km/h | 15533m | 0m/s | -273.1°C | 4.2% | 117.2hPa | 4V | 00:00:00 | 00:00:00 | 00:00:00 | |
| GOEST3-10 | 2026-08-31 23:28:57 | 50.70613 | 5.68284 | 93° | 55km/h | 15536m | 4.2m/s | 0°C | 4.2% | 117.1hPa | 4V | 00:00:00 | 00:00:00 | 00:00:00 | |
| DL1XH1-15 | 2026-08-31 23:28:53 | 50.70621 | 5.68111 | 94° | 58km/h | 15502m | 4m/s | -273.1°C | 4.2% | 117.8hPa | 4V | 00:00:00 | 01:02:12 | 00:00:00 | |
| BIOWL1-15 | 2026-08-31 23:28:53 | 50.70621 | 5.68176 | 101° | 55km/h | 15515m | 4m/s | -273.1°C | 4.3% | 117.5hPa | 4V | 00:00:00 | 00:00:00 | 00:00:00 | |
| GOEST3-10 | 2026-08-31 23:28:50 | 50.70623 | 5.68133 | 84° | 57km/h | 15506m | 4.0m/s | 0°C | 4.2% | 117.6hPa | 4.0V | 00:00:00 | 01:02:13 | 00:00:00 | |
| DM0DOS-11 | 2026-08-31 23:28:49 | 50.70633 | 5.68002 | 94° | 60km/h | 15482m | 4.2m/s | -273.1°C | 4.2% | 118.1hPa | 4V | 00:00:00 | 01:02:07 | 00:00:00 | |
| DL1XH-west | 2026-08-31 23:28:47 | 50.70633 | 5.68021 | 0° | 0km/h | 15486m | 0m/s | -273.1°C | 4.3% | 118.1hPa | 4V | 00:00:00 | 00:00:00 | 00:00:00 | |
| BIOWL1-15 | 2026-08-31 23:28:42 | 50.70642 | 5.67928 | 100° | 55km/h | 15470m | 5m/s | -273.1°C | 4.4% | 118.3hPa | 4V | 00:00:00 | 00:00:00 | 00:00:00 | |
| DL1XH-west | 2026-08-31 23:28:35 | 50.70656 | 5.67768 | 0° | 0km/h | 15440m | 0m/s | -273.1°C | 4.4% | 118.9hPa | 4V | 00:00:00 | 00:00:00 | 00:00:00 | |
| GOEST3-10 | 2026-08-31 23:28:31 | 50.70660 | 5.67702 | 101° | 64km/h | 15427m | 4.1m/s | 0°C | 4.5% | 119.0hPa | 4.0V | 00:00:00 | 00:00:00 | 00:00:00 | |
| BIOWL1-15 | 2026-08-31 23:28:31 | 50.70665 | 5.67628 | 85° | 57km/h | 15414m | 3m/s | -273.1°C | 4.5% | 119.3hPa | 4V | 00:00:00 | 00:00:00 | 00:00:00 | |
| DM0DOS-11 | 2026-08-31 23:28:29 | 50.70674 | 5.67531 | 87° | 62km/h | 15398m | 4.3m/s | -273.1°C | 4.5% | 119.6hPa | 4V | 00:00:00 | 01:01:47 | 00:00:00 | |
| DL1XH-west | 2026-08-31 23:28:23 | 50.70672 | 5.67483 | 0° | 0km/h | 15390m | 0m/s | -273.1°C | 4.5% | 119.8hPa | 4V | 00:00:00 | 00:00:00 | 00:00:00 | |
| DL1XH1-15 | 2026-08-31 23:28:21 | 50.70675 | 5.67329 | 94° | 66km/h | 15365m | 4.2m/s | -273.1°C | 4.5% | 120.2hPa | 4V | 00:00:00 | 01:01:39 | 00:00:00 | |
| BIOWL1-15 | 2026-08-31 23:28:18 | 50.70678 | 5.67356 | 79° | 68km/h | 15369m | 4m/s | -273.1°C | 4.6% | 120.1hPa | 4V | 00:00:00 | 00:00:00 | 00:00:00 | |
| DL1XH-west | 2026-08-31 23:28:12 | 50.70678 | 5.67198 | 0° | 0km/h | 15343m | 0m/s | -273.1°C | 4.6% | 120.6hPa | 4V | 00:00:00 | 00:00:00 | 00:00:00 | |
| BIOWL1-15 | 2026-08-31 23:28:07 | 50.70678 | 5.66892 | 89° | 73km/h | 15296m | 4m/s | -273.1°C | 4.7% | 121.5hPa | 4V | 00:00:00 | 00:00:00 | 00:00:00 | |
| DL1XH1-15 | 2026-08-31 23:28:07 | 50.70680 | 5.67065 | 84° | 69km/h | 15322m | 4.3m/s | -273.1°C | 4.6% | 121hPa | 4V | 00:00:00 | 01:01:29 | 00:00:00 | |
| DJ8HS-15 | 2026-08-31 23:28:05 | 50.70678 | 5.67032 | 85° | 71km/h | 15318m | 4.3m/s | 0°C | 4.6% | 121.0hPa | 4V | 00:00:00 | 01:01:28 | 00:00:00 | |
| DL1XH1-15 | 2026-08-31 23:28:01 | 50.70680 | 5.66784 | 80° | 73km/h | 15278m | 4.2m/s | -273.1°C | 4.7% | 121.8hPa | 4V | 00:00:00 | 01:01:19 | 00:00:00 | |
| DL1XH-west | 2026-08-31 23:27:58 | 50.70679 | 5.66810 | 0° | 0km/h | 15283m | 0m/s | -273.1°C | 4.8% | 121.8hPa | 4V | 00:00:00 | 00:00:00 | 00:00:00 | |
| BIOWL1-15 | 2026-08-31 23:27:56 | 50.70679 | 5.66755 | 76° | 78km/h | 15273m | 3m/s | -273.1°C | 4.8% | 121.9hPa | 4V | 00:00:00 | 00:00:00 | 00:00:00 | |
| GOEST3-10 | 2026-08-31 23:27:54 | 50.70674 | 5.66725 | 88° | 69km/h | 15270m | 4.2m/s | 0°C | 4.7% | 122.0hPa | 4V | 00:00:00 | 01:01:17 | 00:00:00 | |
| DM0DOS-11 | 2026-08-31 23:27:49 | 50.70654 | 5.66439 | 79° | 73km/h | 15226m | 4.3m/s | -273.1°C | 4.9% | 122.8hPa | 4V | 00:00:00 | 01:01:07 | 00:00:00 | |
| DL1XH-west | 2026-08-31 23:27:48 | 50.70660 | 5.66526 | 0° | 0km/h | 15239m | 0m/s | -273.1°C | 4.8% | 122.5hPa | 4V | 00:00:00 | 00:00:00 | 00:00:00 | |
| DL1XH1-15 | 2026-08-31 23:27:47 | 50.70661 | 5.66500 | 79° | 73km/h | 15236m | 4.4m/s | -273.1°C | 4.9% | 122.6hPa | 4V | 00:00:00 | 01:01:09 | 00:00:00 | |
| BIOWL1-15 | 2026-08-31 23:27:45 | 50.70651 | 5.66409 | 88° | 71km/h | 15222m | 5m/s | -273.1°C | 4.9% | 122.9hPa | 4V | 00:00:00 | 00:00:00 | 00:00:00 | |
| DB0UT-7 | 2026-08-31 23:27:44 | 50.70654 | 5.66439 | 80° | 71km/h | 15226m | 4.2m/s | 0°C | 4.9% | 122.8hPa | 4.0V | 00:00:00 | 00:00:00 | 00:00:00 | |
| GOEST3-10 | 2026-08-31 23:27:41 | 50.70650 | 5.66355 | 84° | 69km/h | 15214m | 4.2m/s | 0°C | 4.9% | 123.0hPa | 4.0V | 00:00:00 | 00:00:00 | 00:00:00 | |
| DL1XH1-15 | 2026-08-31 23:27:40 | 50.70632 | 5.66187 | 75° | 73km/h | 15187m | 4.4m/s | -273.1°C | 5% | 123.5hPa | 4V | 00:00:00 | 01:00:58 | 00:00:00 | |
| DM0DOS-11 | 2026-08-31 23:27:39 | 50.70627 | 5.66157 | 74° | 71km/h | 15182m | 4.2m/s | -273.1°C | 5% | 123.6hPa | 4V | 00:00:00 | 01:00:57 | 00:00:00 | |
| DL1XH-west | 2026-08-31 23:27:38 | 50.70636 | 5.66236 | 0° | 0km/h | 15195m | 0m/s | -273.1°C | 5% | 123.4hPa | 4V | 00:00:00 | 00:00:00 | 00:00:00 | |
| BIOWL1-15 | 2026-08-31 23:27:35 | 50.70619 | 5.66097 | 80° | 60km/h | 15174m | 5m/s | -273.1°C | 5% | 123.8hPa | 4V | 00:00:00 | 00:00:00 | 00:00:00 | |
| DL1XH-west | 2026-08-31 23:27:27 | 50.70597 | 5.65935 | 0° | 0km/h | 15149m | 0m/s | -273.1°C | 5.1% | 124.3hPa | 4V | 00:00:00 | 00:00:00 | 00:00:00 | |
| DL1XH1-15 | 2026-08-31 23:27:27 | 50.70594 | 5.65887 | 75° | 71km/h | 15140m | 4.4m/s | -273.1°C | 5% | 124.4hPa | 4V | 00:00:00 | 01:00:47 | 00:00:00 | |
| BIOWL1-15 | 2026-08-31 23:27:23 | 50.70582 | 5.65800 | 77° | 78km/h | 15128m | 5m/s | -273.1°C | 5.2% | 124.7hPa | 4V | 00:00:00 | 00:00:00 | 00:00:00 | |
| DL1XH1-15 | 2026-08-31 23:27:19 | 50.70560 | 5.65606 | 83° | 71km/h | 15095m | 4.3m/s | -273.1°C | 5.1% | 125.3hPa | 4V | 00:00:00 | 01:00:37 | 00:00:00 | |
| DL1XH-west | 2026-08-31 23:27:17 | 50.70564 | 5.65661 | 0° | 0km/h | 15106m | 0m/s | -273.1°C | 5.2% | 125.1hPa | 4V | 00:00:00 | 00:00:00 | 00:00:00 | |
| DB0UT-7 | 2026-08-31 23:27:14 | 50.70560 | 5.65606 | 84° | 69km/h | 15095m | 4.3m/s | 0°C | 5.1% | 125.2hPa | 4.0V | 00:00:00 | 01:00:37 | 00:00:00 | |
| GOEST3-10 | 2026-08-31 23:27:11 | 50.70552 | 5.65518 | 81° | 71km/h | 15083m | 4.6m/s | 0°C | 5.1% | 125.5hPa | 4V | 00:00:00 | 01:00:34 | 00:00:00 | |
| DL1XH1-15 | 2026-08-31 23:27:08 | 50.70536 | 5.65320 | 87° | 66km/h | 15051m | 4.4m/s | -273.1°C | 5.2% | 126.1hPa | 4V | 00:00:00 | 01:00:27 | 00:00:00 | |
| DL1XH-west | 2026-08-31 23:27:06 | 50.70538 | 5.65347 | 0° | 0km/h | 15056m | 0m/s | -273.1°C | 5.3% | 126hPa | 4V | 00:00:00 | 00:00:00 | 00:00:00 | |
| BIOWL1-15 | 2026-08-31 23:27:00 | 50.70527 | 5.65182 | 92° | 58km/h | 15028m | 4m/s | -273.1°C | 5.4% | 126.5hPa | 4V | 00:00:00 | 00:00:00 | 00:00:00 | |
| DM0DOS-11 | 2026-08-31 23:26:59 | 50.70516 | 5.65018 | 83° | 71km/h | 15001m | 4.5m/s | -273.1°C | 5.5% | 127.1hPa | 4V | 00:00:00 | 01:00:16 | 00:00:00 | |
| DL1XH-west | 2026-08-31 23:26:56 | 50.70517 | 5.65042 | 0° | 0km/h | 15004m | 0m/s | -273.1°C | 5.5% | 127hPa | 4V | 00:00:00 | 00:00:00 | 00:00:00 | |
| DM0DOS-11 | 2026-08-31 23:26:48 | 50.70493 | 5.64742 | 82° | 68km/h | 14956m | 4.5m/s | -273.1°C | 5.5% | 128hPa | 4V | 00:00:00 | 01:00:06 | 00:00:00 | |
| DL1XH-west | 2026-08-31 23:26:45 | 50.70493 | 5.64763 | 0° | 0km/h | 14961m | 0m/s | -273.1°C | 5.6% | 127.9hPa | 4V | 00:00:00 | 00:00:00 | 00:00:00 | |
| DB0UT-7 | 2026-08-31 23:26:44 | 50.70493 | 5.64763 | 89° | 66km/h | 14961m | 4.5m/s | 0°C | 5.5% | 127.8hPa | 4.0V | 00:00:00 | 00:00:00 | 00:00:00 | |
| GOEST3-10 | 2026-08-31 23:26:43 | 50.70492 | 5.64742 | 81° | 66km/h | 14956m | 4.4m/s | 0°C | 5.5% | 127.9hPa | 4.0V | 00:00:00 | 01:00:06 | 00:00:00 | |
| DL1XH1-15 | 2026-08-31 23:26:38 | 50.70467 | 5.64479 | 82° | 68km/h | 14910m | 4.4m/s | -273.1°C | 5.6% | 128.9hPa | 4V | 00:00:00 | 00:59:56 | 00:00:00 | |
| BIOWL1-15 | 2026-08-31 23:26:35 | 50.70443 | 5.64272 | 79° | 71km/h | 14875m | 4m/s | -273.1°C | 5.8% | 129.6hPa | 4V | 00:00:00 | 00:00:00 | 00:00:00 | |
| DL1XH-west | 2026-08-31 23:26:34 | 50.70467 | 5.64479 | 0° | 0km/h | 14910m | 0m/s | -273.1°C | 5.7% | 128.9hPa | 4V | 00:00:00 | 00:00:00 | 00:00:00 | |
| GOEST3-10 | 2026-08-31 23:26:32 | 50.70465 | 5.64453 | 76° | 66km/h | 14905m | 4.3m/s | 0°C | 5.6% | 128.9hPa | 4V | 00:00:00 | 00:59:55 | 00:00:00 | |
| DL1XH1-15 | 2026-08-31 23:26:28 | 50.70440 | 5.64219 | 82° | 64km/h | 14866m | 4.6m/s | -273.1°C | 5.9% | 129.8hPa | 4V | 00:00:00 | 00:59:46 | 00:00:00 | |
| DL1XH-west | 2026-08-31 23:26:24 | 50.70440 | 5.64219 | 0° | 0km/h | 14866m | 0m/s | -273.1°C | 5.9% | 129.8hPa | 4V | 00:00:00 | 00:00:00 | 00:00:00 | |
| BIOWL1-15 | 2026-08-31 23:26:15 | 50.70419 | 5.63983 | 89° | 58km/h | 14826m | 6m/s | -273.1°C | 6% | 130.6hPa | 4V | 00:00:00 | 00:00:00 | 00:00:00 | |
| DM0DOS-11 | 2026-08-31 23:26:14 | 50.70419 | 5.63960 | 91° | 62km/h | 14820m | 4.4m/s | -273.1°C | 6% | 130.7hPa | 4V | 00:00:00 | 00:59:36 | 00:00:00 | |
| DB0UT-7 | 2026-08-31 23:26:14 | 50.70419 | 5.63983 | 89° | 62km/h | 14826m | 4.8m/s | 0°C | 6.0% | 130.5hPa | 4V | 00:00:00 | 00:59:37 | 00:00:00 | |
| DL1XH1-15 | 2026-08-31 23:26:13 | 50.70419 | 5.63938 | 81° | 64km/h | 14816m | 4.5m/s | -273.1°C | 6% | 130.8hPa | 4V | 00:00:00 | 00:59:35 | 00:00:00 | |
| DL1XH-west | 2026-08-31 23:26:13 | 50.70419 | 5.63938 | 0° | 0km/h | 14816m | 0m/s | -273.1°C | 6% | 130.8hPa | 4V | 00:00:00 | 00:00:00 | 00:00:00 | |
| DM0DOS-11 | 2026-08-31 23:26:09 | 50.70403 | 5.63707 | 83° | 60km/h | 14775m | 4.3m/s | -273.1°C | 6.1% | 131.6hPa | 4V | 00:00:00 | 00:59:26 | 00:00:00 | |
| BIOWL1-15 | 2026-08-31 23:26:05 | 50.70404 | 5.63732 | 85° | 64km/h | 14780m | 5m/s | -273.1°C | 6.2% | 131.5hPa | 4V | 00:00:00 | 00:00:00 | 00:00:00 | |
| DL1XH1-15 | 2026-08-31 23:26:03 | 50.70401 | 5.63686 | 90° | 60km/h | 14771m | 4.7m/s | -273.1°C | 6.1% | 131.7hPa | 4.1V | 00:00:00 | 00:59:25 | 00:00:00 | |
| DL1XH-west | 2026-08-31 23:26:03 | 50.70401 | 5.63686 | 0° | 0km/h | 14771m | 0m/s | -273.1°C | 6.2% | 131.7hPa | 4.1V | 00:00:00 | 00:00:00 | 00:00:00 | |
| BIOWL1-15 | 2026-08-31 23:25:54 | 50.70370 | 5.63327 | 95° | 64km/h | 14702m | 4m/s | -273.1°C | 6.4% | 133.1hPa | 4.1V | 00:00:00 | 00:00:00 | 00:00:00 | |
| DL1XH1-15 | 2026-08-31 23:25:53 | 50.70380 | 5.63443 | 90° | 60km/h | 14725m | 4.6m/s | -273.1°C | 6.2% | 132.6hPa | 4V | 00:00:00 | 00:59:15 | 00:00:00 | |
| DL1XH-west | 2026-08-31 23:25:50 | 50.70371 | 5.63373 | 0° | 0km/h | 14712m | 0m/s | -273.1°C | 6.4% | 132.8hPa | 4.1V | 00:00:00 | 00:00:00 | 00:00:00 | |
| GOEST3-10 | 2026-08-31 23:25:49 | 50.70371 | 5.63373 | 89° | 60km/h | 14712m | 4.6m/s | 0°C | 6.3% | 132.8hPa | 4.1V | 00:00:00 | 00:59:12 | 00:00:00 | |
| DM0DOS-11 | 2026-08-31 23:25:48 | 50.70363 | 5.63234 | 92° | 62km/h | 14683m | 4.6m/s | -273.1°C | 6.5% | 133.4hPa | 4.1V | 00:00:00 | 00:59:06 | 00:00:00 | |
| BIOWL1-15 | 2026-08-31 23:25:39 | 50.70356 | 5.63116 | 93° | 69km/h | 14659m | 5m/s | -273.1°C | 6.6% | 133.9hPa | 4.1V | 00:00:00 | 00:00:00 | 00:00:00 | |
| DM0DOS-11 | 2026-08-31 23:25:38 | 50.70352 | 5.62988 | 87° | 68km/h | 14637m | 4.6m/s | -273.1°C | 6.6% | 134.4hPa | 4.1V | 00:00:00 | 00:58:56 | 00:00:00 | |
| DL1XH-west | 2026-08-31 23:25:38 | 50.70356 | 5.63058 | 0° | 0km/h | 14652m | 0m/s | -273.1°C | 6.6% | 134.1hPa | 4.1V | 00:00:00 | 00:00:00 | 00:00:00 | |
| GOEST3-10 | 2026-08-31 23:25:34 | 50.70356 | 5.63014 | 87° | 68km/h | 14640m | 4.3m/s | 0°C | 6.6% | 134.3hPa | 4.1V | 00:00:00 | 00:00:00 | 00:00:00 | |
| DL1XH1-15 | 2026-08-31 23:25:33 | 50.70352 | 5.62937 | 84° | 68km/h | 14628m | 4.5m/s | -273.1°C | 6.6% | 134.6hPa | 4.1V | 00:00:00 | 00:58:54 | 00:00:00 | |
| DM0DOS-11 | 2026-08-31 23:25:28 | 50.70344 | 5.62719 | 95° | 69km/h | 14590m | 4.5m/s | -273.1°C | 6.8% | 135.3hPa | 4.1V | 00:00:00 | 00:58:46 | 00:00:00 | |
| DL1XH-west | 2026-08-31 23:25:26 | 50.70343 | 5.62770 | 0° | 0km/h | 14600m | 0m/s | -273.1°C | 6.9% | 135.1hPa | 4.1V | 00:00:00 | 00:00:00 | 00:00:00 | |
| DJ8HS-15 | 2026-08-31 23:25:25 | 50.70343 | 5.62770 | 89° | 73km/h | 14600m | 4.7m/s | 0°C | 6.8% | 135.1hPa | 4.1V | 00:00:00 | 00:58:48 | 00:00:00 | |
| DL1XH1-15 | 2026-08-31 23:25:23 | 50.70343 | 5.62579 | 91° | 73km/h | 14567m | 4.6m/s | -273.1°C | 7% | 135.8hPa | 4.1V | 00:00:00 | 00:58:41 | 00:00:00 | |
| BIOWL1-15 | 2026-08-31 23:25:22 | 50.70345 | 5.62556 | 90° | 80km/h | 14564m | 5m/s | -273.1°C | 7% | 135.9hPa | 4.1V | 00:00:00 | 00:00:00 | 00:00:00 | |
| DM0DOS-11 | 2026-08-31 23:25:18 | 50.70346 | 5.62436 | 94° | 73km/h | 14543m | 4.3m/s | -273.1°C | 7% | 136.3hPa | 4.1V | 00:00:00 | 00:58:36 | 00:00:00 | |
| DL1XH-west | 2026-08-31 23:25:09 | 50.70347 | 5.62287 | 0° | 0km/h | 14521m | 0m/s | -273.1°C | 7.2% | 136.8hPa | 4.1V | 00:00:00 | 00:00:00 | 00:00:00 | |
| BIOWL1-15 | 2026-08-31 23:25:09 | 50.70354 | 5.61950 | 91° | 60km/h | 14475m | 4m/s | -273.1°C | 7.5% | 137.8hPa | 4.1V | 00:00:00 | 00:00:00 | 00:00:00 | |
| DM0DOS-11 | 2026-08-31 23:25:08 | 50.70356 | 5.62078 | 91° | 78km/h | 14491m | 4.2m/s | -273.1°C | 7.3% | 137.4hPa | 4.1V | 00:00:00 | 00:58:24 | 00:00:00 | |
| DL1XH1-15 | 2026-08-31 23:25:07 | 50.70352 | 5.62234 | 88° | 78km/h | 14514m | 4.4m/s | -273.1°C | 7.2% | 136.9hPa | 4.1V | 00:00:00 | 00:58:29 | 00:00:00 | |
| DJ8HS-15 | 2026-08-31 23:25:05 | 50.70353 | 5.62202 | 88° | 78km/h | 14508m | 4.1m/s | 0°C | 7.2% | 137.0hPa | 4.1V | 00:00:00 | 00:58:28 | 00:00:00 | |
| DL1XH1-15 | 2026-08-31 23:25:02 | 50.70354 | 5.61925 | 92° | 78km/h | 14471m | 4.3m/s | -273.1°C | 7.5% | 137.8hPa | 4.1V | 00:00:00 | 00:58:19 | 00:00:00 | |
| NBG1-10 | 2026-08-31 23:24:59 | 50.70356 | 5.62013 | 87° | 75km/h | 14483m | 4.1m/s | 0°C | 7.3% | 137.5hPa | 4.1V | 00:00:00 | 00:58:22 | 00:00:00 | |
| DM0DOS-11 | 2026-08-31 23:24:56 | 50.70356 | 5.61794 | 90° | 75km/h | 14453m | 4.1m/s | -273.1°C | 7.5% | 138.2hPa | 4.1V | 00:00:00 | 00:58:15 | 00:00:00 | |
| DL1XH1-15 | 2026-08-31 23:24:50 | 50.70354 | 5.61579 | 89° | 75km/h | 14425m | 4.5m/s | -273.1°C | 7.7% | 138.8hPa | 4.1V | 00:00:00 | 00:58:08 | 00:00:00 | |
| BIOWL1-15 | 2026-08-31 23:24:47 | 50.70354 | 5.61551 | 90° | 89km/h | 14420m | 5m/s | -273.1°C | 7.8% | 138.9hPa | 4.1V | 00:00:00 | 00:00:00 | 00:00:00 | |
| DM0DOS-11 | 2026-08-31 23:24:46 | 50.70354 | 5.61481 | 91° | 73km/h | 14411m | 4.5m/s | -273.1°C | 7.8% | 139.1hPa | 4.1V | 00:00:00 | 00:58:05 | 00:00:00 | |
| BIOWL1-15 | 2026-08-31 23:24:37 | 50.70350 | 5.61210 | 90° | 84km/h | 14370m | 4m/s | -273.1°C | 8.1% | 140hPa | 4.1V | 00:00:00 | 00:00:00 | 00:00:00 | |
| DM0DOS-11 | 2026-08-31 23:24:36 | 50.70350 | 5.61177 | 86° | 69km/h | 14366m | 4.7m/s | -273.1°C | 8.1% | 140.1hPa | 4.1V | 00:00:00 | 00:57:55 | 00:00:00 | |
| DL1XH1-15 | 2026-08-31 23:24:33 | 50.70348 | 5.61124 | 88° | 73km/h | 14357m | 4.5m/s | -273.1°C | 8.1% | 140.3hPa | 4.1V | 00:00:00 | 00:57:53 | 00:00:00 | |
| DM0DOS-11 | 2026-08-31 23:24:26 | 50.70342 | 5.60889 | 90° | 69km/h | 14320m | 4.3m/s | -273.1°C | 8.3% | 141hPa | 4.1V | 00:00:00 | 00:57:45 | 00:00:00 | |
| DJ8HS-15 | 2026-08-31 23:24:25 | 50.70344 | 5.60978 | 86° | 73km/h | 14333m | 4.2m/s | 0°C | 8.3% | 140.7hPa | 4.1V | 00:00:00 | 00:57:48 | 00:00:00 | |
| DL1XH1-15 | 2026-08-31 23:24:23 | 50.70341 | 5.60836 | 88° | 73km/h | 14311m | 4.2m/s | -273.1°C | 8.5% | 141.2hPa | 4.1V | 00:00:00 | 00:57:43 | 00:00:00 | |
| DL1XH-west | 2026-08-31 23:24:21 | 50.70341 | 5.60836 | 0° | 0km/h | 14311m | 0m/s | -273.1°C | 8.5% | 141.2hPa | 4.1V | 00:00:00 | 00:00:00 | 00:00:00 | |
| DM0DOS-11 | 2026-08-31 23:24:16 | 50.70334 | 5.60605 | 88° | 73km/h | 14277m | 4.4m/s | -273.1°C | 8.6% | 142hPa | 4.1V | 00:00:00 | 00:57:35 | 00:00:00 | |
| DB0UT-7 | 2026-08-31 23:24:14 | 50.70339 | 5.60670 | 85° | 75km/h | 14287m | 4.7m/s | 0°C | 8.5% | 141.7hPa | 4.0V | 00:00:00 | 00:57:37 | 00:00:00 | |
| DL1XH1-15 | 2026-08-31 23:24:13 | 50.70334 | 5.60551 | 87° | 73km/h | 14268m | 4.4m/s | -273.1°C | 8.8% | 142.1hPa | 4.1V | 00:00:00 | 00:57:33 | 00:00:00 | |
| BIOWL1-15 | 2026-08-31 23:24:13 | 50.70334 | 5.60523 | 84° | 75km/h | 14264m | 5m/s | -273.1°C | 8.8% | 142.2hPa | 4.1V | 00:00:00 | 00:00:00 | 00:00:00 | |
| DB0NH | 2026-08-31 23:24:09 | 50.70334 | 5.60523 | 85° | 73km/h | 14264m | 4.3m/s | 0°C | 8.8% | 142.2hPa | 4.1V | 00:00:00 | 00:57:32 | 00:00:00 | |
| DJ8HS-15 | 2026-08-31 23:24:05 | 50.70327 | 5.60394 | 94° | 75km/h | 14247m | 4.4m/s | 0°C | 8.8% | 142.5hPa | 4.1V | 00:00:00 | 00:57:28 | 00:00:00 | |
| DM0DOS-11 | 2026-08-31 23:24:04 | 50.70326 | 5.60309 | 83° | 77km/h | 14233m | 4.3m/s | -273.1°C | 9% | 142.9hPa | 4.1V | 00:00:00 | 00:57:25 | 00:00:00 | |
| DL1XH1-15 | 2026-08-31 23:24:04 | 50.70323 | 5.60190 | 83° | 75km/h | 14216m | 4.3m/s | -273.1°C | 9% | 143.3hPa | 4.1V | 00:00:00 | 00:57:21 | 00:00:00 | |
| BIOWL1-15 | 2026-08-31 23:24:02 | 50.70323 | 5.60190 | 83° | 84km/h | 14216m | 4m/s | -273.1°C | 9.1% | 143.3hPa | 4.1V | 00:00:00 | 00:00:00 | 00:00:00 | |
| DL1XH-west | 2026-08-31 23:24:00 | 50.70323 | 5.60217 | 0° | 0km/h | 14219m | 0m/s | -273.1°C | 9.1% | 143.2hPa | 4.1V | 00:00:00 | 00:00:00 | 00:00:00 | |
| DM0DOS-11 | 2026-08-31 23:23:58 | 50.70318 | 5.60007 | 82° | 73km/h | 14191m | 4.4m/s | -273.1°C | 9.3% | 143.8hPa | 4.1V | 00:00:00 | 00:57:15 | 00:00:00 | |
| BIOWL1-15 | 2026-08-31 23:23:51 | 50.70315 | 5.59946 | 94° | 66km/h | 14182m | 5m/s | -273.1°C | 9.4% | 144hPa | 4.1V | 00:00:00 | 00:00:00 | 00:00:00 | |
| NBG1-10 | 2026-08-31 23:23:49 | 50.70316 | 5.59919 | 98° | 60km/h | 14177m | 2.3m/s | 0°C | 9.3% | 144.1hPa | 4.0V | 00:00:00 | 00:57:12 | 00:00:00 | |
| DJ8HS-15 | 2026-08-31 23:23:45 | 50.70312 | 5.59802 | 96° | 71km/h | 14162m | 4.5m/s | 0°C | 9.5% | 144.4hPa | 4.0V | 00:00:00 | 00:57:08 | 00:00:00 | |
| DB0UT-7 | 2026-08-31 23:23:44 | 50.70313 | 5.59777 | 96° | 71km/h | 14156m | 4.1m/s | 0°C | 9.5% | 144.5hPa | 4.1V | 00:00:00 | 00:00:00 | 00:00:00 | |
| DM0DOS-11 | 2026-08-31 23:23:43 | 50.70313 | 5.59720 | 82° | 73km/h | 14148m | 4.3m/s | -273.1°C | 9.5% | 144.8hPa | 4.1V | 00:00:00 | 00:57:05 | 00:00:00 | |
| DL1XH-west | 2026-08-31 23:23:40 | 50.70310 | 5.59636 | 0° | 0km/h | 14135m | 0m/s | -273.1°C | 9.7% | 145.1hPa | 4.1V | 00:00:00 | 00:00:00 | 00:00:00 | |
| DB0NH | 2026-08-31 23:23:39 | 50.70310 | 5.59636 | 88° | 73km/h | 14135m | 4.2m/s | 0°C | 9.6% | 145.0hPa | 4.0V | 00:00:00 | 00:57:02 | 00:00:00 | |
| DL1XH1-15 | 2026-08-31 23:23:36 | 50.70306 | 5.59492 | 89° | 73km/h | 14114m | 4.1m/s | -273.1°C | 9.8% | 145.6hPa | 4.1V | 00:00:00 | 00:56:57 | 00:00:00 | |
| DM0DOS-11 | 2026-08-31 23:23:33 | 50.70306 | 5.59435 | 86° | 73km/h | 14104m | 3.8m/s | -273.1°C | 9.8% | 145.8hPa | 4.1V | 00:00:00 | 00:56:55 | 00:00:00 | |
| BIOWL1-15 | 2026-08-31 23:23:30 | 50.70303 | 5.59346 | 94° | 58km/h | 14093m | 4m/s | -273.1°C | 10% | 146hPa | 4.1V | 00:00:00 | 00:00:00 | 00:00:00 | |
| DL1XH1-15 | 2026-08-31 23:23:29 | 50.70303 | 5.59203 | 91° | 71km/h | 14072m | 4.1m/s | -273.1°C | 10.1% | 146.5hPa | 4.1V | 00:00:00 | 00:56:47 | 00:00:00 | |
| DJ8HS-15 | 2026-08-31 23:23:25 | 50.70303 | 5.59232 | 91° | 73km/h | 14076m | 4.2m/s | 0°C | 10.1% | 146.3hPa | 4.1V | 00:00:00 | 00:56:48 | 00:00:00 | |
| DM0DOS-11 | 2026-08-31 23:23:23 | 50.70306 | 5.59154 | 82° | 75km/h | 14064m | 4.4m/s | -273.1°C | 10.3% | 146.6hPa | 4.1V | 00:00:00 | 00:56:45 | 00:00:00 | |
| BIOWL1-15 | 2026-08-31 23:23:19 | 50.70306 | 5.59038 | 89° | 75km/h | 14046m | 4m/s | -273.1°C | 10.4% | 147hPa | 4.1V | 00:00:00 | 00:00:00 | 00:00:00 | |
| DB0UT-7 | 2026-08-31 23:23:14 | 50.70305 | 5.58919 | 97° | 75km/h | 14029m | 3.9m/s | 0°C | 10.5% | 147.4hPa | 4.1V | 00:00:00 | 00:56:37 | 00:00:00 | |
| DM0DOS-11 | 2026-08-31 23:23:13 | 50.70307 | 5.58864 | 84° | 77km/h | 14021m | 4m/s | -273.1°C | 10.6% | 147.6hPa | 4.1V | 00:00:00 | 00:56:35 | 00:00:00 | |
| DL1XH1-15 | 2026-08-31 23:23:13 | 50.70306 | 5.58771 | 93° | 73km/h | 14009m | 4m/s | -273.1°C | 10.8% | 147.9hPa | 4.1V | 00:00:00 | 00:56:32 | 00:00:00 | |
| BIOWL1-15 | 2026-08-31 23:23:08 | 50.70307 | 5.58595 | 94° | 64km/h | 13985m | 3m/s | -273.1°C | 11% | 148.4hPa | 4.1V | 00:00:00 | 00:00:00 | 00:00:00 | |
| DM0DOS-11 | 2026-08-31 23:23:07 | 50.70308 | 5.58570 | 87° | 78km/h | 13982m | 4.4m/s | -273.1°C | 11% | 148.5hPa | 4.1V | 00:00:00 | 00:56:25 | 00:00:00 | |
| DJ8HS-15 | 2026-08-31 23:23:05 | 50.70306 | 5.58652 | 88° | 75km/h | 13994m | 4.2m/s | 0°C | 11.0% | 148.2hPa | 4.1V | 00:00:00 | 00:56:28 | 00:00:00 | |
| DM0DOS-11 | 2026-08-31 23:22:56 | 50.70314 | 5.58265 | 95° | 75km/h | 13940m | 4.1m/s | -273.1°C | 11.5% | 149.5hPa | 4.1V | 00:00:00 | 00:56:15 | 00:00:00 | |
| BIOWL1-15 | 2026-08-31 23:22:54 | 50.70312 | 5.58293 | 97° | 71km/h | 13943m | 3m/s | -273.1°C | 11.5% | 149.4hPa | 4.1V | 00:00:00 | 00:00:00 | 00:00:00 | |
| DL1XH1-15 | 2026-08-31 23:22:53 | 50.70313 | 5.58177 | 92° | 77km/h | 13928m | 4m/s | -273.1°C | 11.5% | 149.7hPa | 4.1V | 00:00:00 | 00:56:12 | 00:00:00 | |
| DL1XH-west | 2026-08-31 23:22:47 | 50.70318 | 5.58083 | 0° | 0km/h | 13916m | 0m/s | -273.1°C | 11.7% | 150hPa | 4.1V | 00:00:00 | 00:00:00 | 00:00:00 | |
| BIOWL1-15 | 2026-08-31 23:22:44 | 50.70319 | 5.57965 | 100° | 77km/h | 13897m | 3m/s | -273.1°C | 11.9% | 150.4hPa | 4.1V | 00:00:00 | 00:00:00 | 00:00:00 | |
| DM0DOS-11 | 2026-08-31 23:22:43 | 50.70319 | 5.57965 | 100° | 77km/h | 13897m | 3.9m/s | -273.1°C | 11.8% | 150.4hPa | 4.1V | 00:00:00 | 00:56:05 | 00:00:00 | |
| DL1XH1-15 | 2026-08-31 23:22:42 | 50.70322 | 5.57814 | 89° | 71km/h | 13877m | 3m/s | -273.1°C | 12% | 150.9hPa | 4.1V | 00:00:00 | 00:56:00 | 00:00:00 | |
| DB0NH | 2026-08-31 23:22:38 | 50.70319 | 5.57843 | 101° | 77km/h | 13882m | 4.2m/s | 0°C | 12.0% | 150.7hPa | 4.1V | 00:00:00 | 00:56:01 | 00:00:00 | |
| DM0DOS-11 | 2026-08-31 23:22:37 | 50.70319 | 5.57665 | 99° | 77km/h | 13857m | 4.3m/s | -273.1°C | 12.3% | 151.4hPa | 4.1V | 00:00:00 | 00:55:55 | 00:00:00 | |
| BIOWL1-15 | 2026-08-31 23:22:32 | 50.70323 | 5.57632 | 87° | 73km/h | 13852m | 4m/s | -273.1°C | 12.4% | 151.5hPa | 4.1V | 00:00:00 | 00:00:00 | 00:00:00 | |
| DL1XH1-15 | 2026-08-31 23:22:32 | 50.70319 | 5.57511 | 3° | 60km/h | 13835m | 0m/s | -273.1°C | 12.5% | 151.9hPa | 4.1V | 00:00:00 | 00:55:50 | 00:00:00 | |
| DM0DOS-11 | 2026-08-31 23:22:27 | 50.70319 | 5.57361 | 98° | 77km/h | 13814m | 4m/s | -273.1°C | 12.7% | 152.4hPa | 4.1V | 00:00:00 | 00:55:45 | 00:00:00 | |
| BIOWL1-15 | 2026-08-31 23:22:21 | 50.70324 | 5.57179 | 86° | 69km/h | 13790m | 5m/s | -273.1°C | 13.1% | 153hPa | 4.1V | 00:00:00 | 00:00:00 | 00:00:00 | |
| DM0DOS-11 | 2026-08-31 23:22:17 | 50.70324 | 5.57058 | 95° | 77km/h | 13773m | 4.3m/s | -273.1°C | 13.2% | 153.3hPa | 4.1V | 00:00:00 | 00:55:35 | 00:00:00 | |
| BIOWL1-15 | 2026-08-31 23:22:09 | 50.70324 | 5.56937 | 97° | 78km/h | 13755m | 4m/s | -273.1°C | 13.5% | 153.7hPa | 4.1V | 00:00:00 | 00:00:00 | 00:00:00 | |
| DB0NH | 2026-08-31 23:22:08 | 50.70324 | 5.56937 | 97° | 77km/h | 13755m | 4.1m/s | 0°C | 13.5% | 153.7hPa | 4.0V | 00:00:00 | 00:55:31 | 00:00:00 | |
| DM0DOS-11 | 2026-08-31 23:22:06 | 50.70325 | 5.56751 | 97° | 75km/h | 13729m | 4m/s | -273.1°C | 13.7% | 154.3hPa | 4.1V | 00:00:00 | 00:55:25 | 00:00:00 | |
| BIOWL1-15 | 2026-08-31 23:21:59 | 50.70321 | 5.56629 | 95° | 73km/h | 13714m | 6m/s | -273.1°C | 14% | 154.7hPa | 4.1V | 00:00:00 | 00:00:00 | 00:00:00 | |
| DM0DOS-11 | 2026-08-31 23:21:56 | 50.70322 | 5.56452 | 96° | 75km/h | 13687m | 4m/s | -273.1°C | 14.2% | 155.3hPa | 4.1V | 00:00:00 | 00:55:15 | 00:00:00 | |
| BIOWL1-15 | 2026-08-31 23:21:49 | 50.70318 | 5.56329 | 96° | 68km/h | 13672m | 6m/s | -273.1°C | 14.5% | 155.7hPa | 4.1V | 00:00:00 | 00:00:00 | 00:00:00 | |
| DM0DOS-11 | 2026-08-31 23:21:46 | 50.70322 | 5.56151 | 90° | 77km/h | 13645m | 4.2m/s | -273.1°C | 14.7% | 156.4hPa | 4.1V | 00:00:00 | 00:55:05 | 00:00:00 | |
| BIOWL1-15 | 2026-08-31 23:21:39 | 50.70314 | 5.55875 | 93° | 71km/h | 13608m | 5m/s | -273.1°C | 15.3% | 157.3hPa | 4.1V | 00:00:00 | 00:00:00 | 00:00:00 | |
| DB0NH | 2026-08-31 23:21:38 | 50.70317 | 5.56027 | 94° | 75km/h | 13629m | 4.3m/s | 0°C | 15.0% | 156.7hPa | 4.1V | 00:00:00 | 00:55:01 | 00:00:00 | |
| DM0DOS-11 | 2026-08-31 23:21:36 | 50.70314 | 5.55847 | 94° | 73km/h | 13603m | 4.1m/s | -273.1°C | 15.2% | 157.4hPa | 4.1V | 00:00:00 | 00:54:55 | 00:00:00 | |
| BIOWL1-15 | 2026-08-31 23:21:27 | 50.70317 | 5.55610 | 89° | 93km/h | 13569m | 2m/s | -273.1°C | 15.7% | 158.2hPa | 4.1V | 00:00:00 | 00:00:00 | 00:00:00 | |
| DM0DOS-11 | 2026-08-31 23:21:26 | 50.70315 | 5.55544 | 94° | 73km/h | 13561m | 4.2m/s | -273.1°C | 15.7% | 158.4hPa | 4.1V | 00:00:00 | 00:54:45 | 00:00:00 | |
| BIOWL1-15 | 2026-08-31 23:21:17 | 50.70319 | 5.55366 | 94° | 68km/h | 13536m | 4m/s | -273.1°C | 16.1% | 159hPa | 4.1V | 00:00:00 | 00:00:00 | 00:00:00 | |
| DM0DOS-11 | 2026-08-31 23:21:16 | 50.70321 | 5.55240 | 101° | 71km/h | 13519m | 4.5m/s | -273.1°C | 16.2% | 159.4hPa | 4.1V | 00:00:00 | 00:54:35 | 00:00:00 | |
| BIOWL1-15 | 2026-08-31 23:21:09 | 50.70324 | 5.55072 | 93° | 69km/h | 13492m | 4m/s | -273.1°C | 16.6% | 160.1hPa | 4.1V | 00:00:00 | 00:00:00 | 00:00:00 | |
| DB0NH | 2026-08-31 23:21:08 | 50.70321 | 5.55123 | 93° | 69km/h | 13501m | 4.3m/s | 0°C | 16.5% | 159.8hPa | 4.1V | 00:00:00 | 00:54:31 | 00:00:00 | |
| DJ8HS-15 | 2026-08-31 23:21:05 | 50.70325 | 5.55044 | 91° | 71km/h | 13488m | 4.2m/s | 0°C | 16.6% | 160.1hPa | 4.1V | 00:00:00 | 00:54:28 | 00:00:00 | |
| DM0DOS-11 | 2026-08-31 23:21:03 | 50.70325 | 5.54951 | 97° | 71km/h | 13475m | 4.2m/s | -273.1°C | 16.8% | 160.5hPa | 4.1V | 00:00:00 | 00:54:25 | 00:00:00 | |
| BIOWL1-15 | 2026-08-31 23:21:00 | 50.70322 | 5.54689 | 90° | 68km/h | 13437m | 5m/s | -273.1°C | 17.4% | 161.4hPa | 4.1V | 00:00:00 | 00:00:00 | 00:00:00 | |
| DM0DOS-11 | 2026-08-31 23:20:56 | 50.70322 | 5.54662 | 99° | 68km/h | 13432m | 4.2m/s | -273.1°C | 17.3% | 161.5hPa | 4.1V | 00:00:00 | 00:54:15 | 00:00:00 | |
| DM0DOS-11 | 2026-08-31 23:20:46 | 50.70320 | 5.54390 | 96° | 71km/h | 13388m | 4.2m/s | -273.1°C | 18% | 162.7hPa | 4.1V | 00:00:00 | 00:54:05 | 00:00:00 | |
| BIOWL1-15 | 2026-08-31 23:20:43 | 50.70320 | 5.54390 | 97° | 66km/h | 13388m | 4m/s | -273.1°C | 18% | 162.7hPa | 4.1V | 00:00:00 | 00:00:00 | 00:00:00 | |
| DB0NH | 2026-08-31 23:20:38 | 50.70320 | 5.54273 | 91° | 62km/h | 13372m | 2.5m/s | 0°C | 18.2% | 163.0hPa | 4.0V | 00:00:00 | 00:54:01 | 00:00:00 | |
| DM0DOS-11 | 2026-08-31 23:20:36 | 50.70324 | 5.54103 | 88° | 68km/h | 13347m | 4.3m/s | -273.1°C | 18.6% | 163.7hPa | 4.1V | 00:00:00 | 00:53:55 | 00:00:00 | |
| BIOWL1-15 | 2026-08-31 23:20:32 | 50.70322 | 5.54023 | 94° | 84km/h | 13334m | 4m/s | -273.1°C | 18.9% | 164hPa | 4.1V | 00:00:00 | 00:00:00 | 00:00:00 | |
| DJ8HS-15 | 2026-08-31 23:20:25 | 50.70321 | 5.53909 | 97° | 66km/h | 13317m | 4.3m/s | 0°C | 19.1% | 164.4hPa | 4.1V | 00:00:00 | 00:53:48 | 00:00:00 | |
| DM0DOS-11 | 2026-08-31 23:20:23 | 50.70325 | 5.53821 | 82° | 66km/h | 13304m | 4.4m/s | -273.1°C | 19.2% | 164.8hPa | 4.1V | 00:00:00 | 00:53:45 | 00:00:00 | |
| BIOWL1-15 | 2026-08-31 23:20:20 | 50.70328 | 5.53578 | 89° | 58km/h | 13265m | 5m/s | -273.1°C | 20% | 165.7hPa | 4.2V | 00:00:00 | 00:00:00 | 00:00:00 | |
| DM0DOS-11 | 2026-08-31 23:20:17 | 50.70327 | 5.53555 | 81° | 64km/h | 13260m | 4.3m/s | -273.1°C | 20.1% | 165.8hPa | 4.2V | 00:00:00 | 00:53:35 | 00:00:00 | |
| BIOWL1-15 | 2026-08-31 23:20:08 | 50.70330 | 5.53425 | 98° | 57km/h | 13238m | 4m/s | -273.1°C | 20.5% | 166.4hPa | 4.2V | 00:00:00 | 00:00:00 | 00:00:00 | |
| BIOWL1-15 | 2026-08-31 23:19:57 | 50.70353 | 5.53082 | 96° | 68km/h | 13178m | 4m/s | -273.1°C | 21.5% | 168hPa | 4.2V | 00:00:00 | 00:00:00 | 00:00:00 | |
| DM0DOS-11 | 2026-08-31 23:19:57 | 50.70358 | 5.53031 | 96° | 71km/h | 13172m | 4.6m/s | -273.1°C | 21.6% | 168.2hPa | 4.2V | 00:00:00 | 00:53:15 | 00:00:00 | |
| DM0DOS-11 | 2026-08-31 23:19:46 | 50.70391 | 5.52725 | 91° | 75km/h | 13121m | 4.6m/s | -273.1°C | 22.6% | 169.5hPa | 4.2V | 00:00:00 | 00:53:04 | 00:00:00 | |
| BIOWL1-15 | 2026-08-31 23:19:46 | 50.70378 | 5.52837 | 98° | 73km/h | 13140m | 5.3m/s | -273.1°C | 22.3% | 169hPa | 4.2V | 00:00:00 | 00:00:00 | 00:00:00 | |
| DJ8HS-15 | 2026-08-31 23:19:45 | 50.70378 | 5.52837 | 103° | 75km/h | 13140m | 4.6m/s | 0°C | 22.2% | 168.9hPa | 4.2V | 00:00:00 | 00:53:08 | 00:00:00 | |
| DB0UT-7 | 2026-08-31 23:19:44 | 50.70382 | 5.52808 | 89° | 75km/h | 13135m | 4.6m/s | 0°C | 22.2% | 169.0hPa | 4.2V | 00:00:00 | 00:00:00 | 00:00:00 | |
| DM0DOS-11 | 2026-08-31 23:19:33 | 50.70416 | 5.52377 | 102° | 77km/h | 13065m | 4.5m/s | -273.1°C | 23.6% | 171hPa | 4.2V | 00:00:00 | 00:52:52 | 00:00:00 | |
| BIOWL1-15 | 2026-08-31 23:19:33 | 50.70414 | 5.52409 | 100° | 86km/h | 13071m | 5m/s | -273.1°C | 23.5% | 170.9hPa | 4.2V | 00:00:00 | 00:00:00 | 00:00:00 | |
| DJ8HS-15 | 2026-08-31 23:19:25 | 50.70427 | 5.52258 | 98° | 77km/h | 13047m | 4.4m/s | 0°C | 24.0% | 171.4hPa | 4.2V | 00:00:00 | 00:52:48 | 00:00:00 | |
| DM0DOS-11 | 2026-08-31 23:19:21 | 50.70444 | 5.52074 | 102° | 77km/h | 13020m | 4.2m/s | -273.1°C | 24.5% | 172.2hPa | 4.2V | 00:00:00 | 00:52:42 | 00:00:00 | |
| BIOWL1-15 | 2026-08-31 23:19:20 | 50.70449 | 5.52040 | 94° | 69km/h | 13017m | 6m/s | -273.1°C | 24.6% | 172.3hPa | 4.2V | 00:00:00 | 00:00:00 | 00:00:00 | |
| DB0UT-7 | 2026-08-31 23:19:14 | 50.70463 | 5.51923 | 104° | 82km/h | 12999m | 4.5m/s | 0°C | 25.0% | 172.7hPa | 4.2V | 00:00:00 | 00:52:37 | 00:00:00 | |
| DM0DOS-11 | 2026-08-31 23:19:13 | 50.70482 | 5.51774 | 106° | 77km/h | 12976m | 4.3m/s | -273.1°C | 25.5% | 173.3hPa | 4.2V | 00:00:00 | 00:52:32 | 00:00:00 | |
| BIOWL1-15 | 2026-08-31 23:19:10 | 50.70521 | 5.51504 | 109° | 78km/h | 12937m | 6m/s | -273.1°C | 26.6% | 174.4hPa | 4.2V | 00:00:00 | 00:00:00 | 00:00:00 | |
| DJ8HS-15 | 2026-08-31 23:19:05 | 50.70495 | 5.51654 | 110° | 80km/h | 12959m | 4.5m/s | 0°C | 26.0% | 173.7hPa | 4.2V | 00:00:00 | 00:52:28 | 00:00:00 | |
| DM0DOS-11 | 2026-08-31 23:19:01 | 50.70528 | 5.51474 | 113° | 84km/h | 12931m | 4.6m/s | -273.1°C | 26.6% | 174.5hPa | 4.2V | 00:00:00 | 00:52:22 | 00:00:00 | |
| DM0DOS-11 | 2026-08-31 23:18:53 | 50.70586 | 5.51156 | 103° | 89km/h | 12885m | 5.2m/s | -273.1°C | 27.6% | 175.8hPa | 4.2V | 00:00:00 | 00:52:12 | 00:00:00 | |
| BIOWL1-15 | 2026-08-31 23:18:52 | 50.70632 | 5.50844 | 103° | 95km/h | 12837m | 5.3m/s | -273.1°C | 28.8% | 176.9hPa | 4.2V | 00:00:00 | 00:00:00 | 00:00:00 | |
| DJ8HS-15 | 2026-08-31 23:18:45 | 50.70608 | 5.51020 | 108° | 68km/h | 12864m | 3.0m/s | 0°C | 28.1% | 176.2hPa | 4.2V | 00:00:00 | 00:52:08 | 00:00:00 | |
| DB0UT-7 | 2026-08-31 23:18:44 | 50.70614 | 5.50987 | 104° | 97km/h | 12859m | 5.3m/s | 0°C | 28.2% | 176.3hPa | 4.2V | 00:00:00 | 00:00:00 | 00:00:00 | |
| DM0DOS-11 | 2026-08-31 23:18:41 | 50.70636 | 5.50807 | 105° | 95km/h | 12832m | 5.1m/s | -273.1°C | 28.7% | 177.1hPa | 4.2V | 00:00:00 | 00:52:02 | 00:00:00 | |
| BIOWL1-15 | 2026-08-31 23:18:36 | 50.70654 | 5.50663 | 101° | 99km/h | 12810m | 4m/s | -273.1°C | 29.3% | 177.6hPa | 4.2V | 00:00:00 | 00:00:00 | 00:00:00 | |
| DM0DOS-11 | 2026-08-31 23:18:27 | 50.70682 | 5.50319 | 92° | 99km/h | 12765m | 4.6m/s | -273.1°C | 30.2% | 178.9hPa | 4.2V | 00:00:00 | 00:51:49 | 00:00:00 | |
| BIOWL1-15 | 2026-08-31 23:18:24 | 50.70694 | 5.50043 | 87° | 99km/h | 12729m | 5m/s | -273.1°C | 31.1% | 179.9hPa | 4.2V | 00:00:00 | 00:00:00 | 00:00:00 | |
| DM0DOS-11 | 2026-08-31 23:18:21 | 50.70694 | 5.49926 | 100° | 95km/h | 12713m | 5m/s | -273.1°C | 31.3% | 180.2hPa | 4.2V | 00:00:00 | 00:51:39 | 00:00:00 | |
| BIOWL1-15 | 2026-08-31 23:18:10 | 50.70695 | 5.49540 | 95° | 102km/h | 12659m | 6m/s | -273.1°C | 32.5% | 181.6hPa | 4.2V | 00:00:00 | 00:00:00 | 00:00:00 | |
| DM0DOS-11 | 2026-08-31 23:18:07 | 50.70695 | 5.49540 | 95° | 95km/h | 12659m | 4.9m/s | -273.1°C | 32.5% | 181.6hPa | 4.2V | 00:00:00 | 00:51:29 | 00:00:00 | |
| DM0DOS-11 | 2026-08-31 23:17:57 | 50.70709 | 5.49161 | 93° | 93km/h | 12609m | 4.8m/s | -273.1°C | 33.5% | 183hPa | 4.2V | 00:00:00 | 00:51:19 | 00:00:00 | |
| BIOWL1-15 | 2026-08-31 23:17:56 | 50.70718 | 5.48936 | 97° | 77km/h | 12580m | 5m/s | -273.1°C | 34.2% | 183.9hPa | 4.2V | 00:00:00 | 00:00:00 | 00:00:00 | |
| DM0DOS-11 | 2026-08-31 23:17:47 | 50.70733 | 5.48766 | 90° | 89km/h | 12557m | 5m/s | -273.1°C | 34.7% | 184.7hPa | 4.2V | 00:00:00 | 00:51:08 | 00:00:00 | |
| BIOWL1-15 | 2026-08-31 23:17:44 | 50.70733 | 5.48693 | 100° | 88km/h | 12548m | 5.2m/s | -273.1°C | 35% | 184.9hPa | 4.2V | 00:00:00 | 00:00:00 | 00:00:00 | |
| DM0DOS-11 | 2026-08-31 23:17:37 | 50.70764 | 5.48383 | 97° | 89km/h | 12504m | 4.8m/s | -273.1°C | 36.2% | 186.2hPa | 4.2V | 00:00:00 | 00:50:57 | 00:00:00 | |
| BIOWL1-15 | 2026-08-31 23:17:32 | 50.70776 | 5.48202 | 100° | 86km/h | 12478m | 4.8m/s | -273.1°C | 36.9% | 187hPa | 4.2V | 00:00:00 | 00:00:00 | 00:00:00 | |
| DM0DOS-11 | 2026-08-31 23:17:27 | 50.70795 | 5.48035 | 96° | 89km/h | 12454m | 4.6m/s | -273.1°C | 37.3% | 187.7hPa | 4.2V | 00:00:00 | 00:50:47 | 00:00:00 | |
| BIOWL1-15 | 2026-08-31 23:17:19 | 50.70814 | 5.47821 | 101° | 89km/h | 12428m | 4.8m/s | -273.1°C | 38.1% | 188.6hPa | 4.2V | 00:00:00 | 00:00:00 | 00:00:00 | |
| DM0DOS-11 | 2026-08-31 23:17:17 | 50.70837 | 5.47609 | 96° | 99km/h | 12397m | 4.9m/s | -273.1°C | 38.7% | 189.5hPa | 4.2V | 00:00:00 | 00:50:35 | 00:00:00 | |
| BIOWL1-15 | 2026-08-31 23:17:09 | 50.70855 | 5.47383 | 99° | 102km/h | 12365m | 3m/s | -273.1°C | 39.6% | 190.4hPa | 4.2V | 00:00:00 | 00:00:00 | 00:00:00 | |
| DM0DOS-11 | 2026-08-31 23:17:02 | 50.70874 | 5.47187 | 98° | 104km/h | 12341m | 5m/s | -273.1°C | 40% | 191.1hPa | 4.2V | 00:00:00 | 00:50:24 | 00:00:00 | |
| BIOWL1-15 | 2026-08-31 23:16:55 | 50.70918 | 5.46607 | 103° | 111km/h | 12275m | 3m/s | -273.1°C | 41.7% | 193.1hPa | 4.2V | 00:00:00 | 00:00:00 | 00:00:00 | |
| DM0DOS-11 | 2026-08-31 23:16:52 | 50.70913 | 5.46728 | 90° | 104km/h | 12290m | 4.6m/s | -273.1°C | 41.2% | 192.7hPa | 4.2V | 00:00:00 | 00:50:13 | 00:00:00 | |
| DB0UT-7 | 2026-08-31 23:16:44 | 50.70922 | 5.46481 | 98° | 106km/h | 12263m | 4.3m/s | 0°C | 42.0% | 193.5hPa | 4.3V | 00:00:00 | 00:00:00 | 00:00:00 | |
| DM0DOS-11 | 2026-08-31 23:16:42 | 50.70933 | 5.46268 | 90° | 106km/h | 12242m | 4m/s | -273.1°C | 42.5% | 194.2hPa | 4.3V | 00:00:00 | 00:50:02 | 00:00:00 | |
| BIOWL1-15 | 2026-08-31 23:16:41 | 50.70933 | 5.46309 | 90° | 102km/h | 12245m | 3m/s | -273.1°C | 42.5% | 194.1hPa | 4.3V | 00:00:00 | 00:00:00 | 00:00:00 | |
| BIOWL1-15 | 2026-08-31 23:16:33 | 50.70942 | 5.45884 | 87° | 104km/h | 12206m | 3m/s | -273.1°C | 43.4% | 195.2hPa | 4.3V | 00:00:00 | 00:00:00 | 00:00:00 | |
| DM0DOS-11 | 2026-08-31 23:16:32 | 50.70940 | 5.45842 | 90° | 106km/h | 12203m | 3.7m/s | -273.1°C | 43.5% | 195.3hPa | 4.3V | 00:00:00 | 00:49:52 | 00:00:00 | |
| DM0DOS-11 | 2026-08-31 23:16:22 | 50.70945 | 5.45422 | 81° | 102km/h | 12167m | 3.8m/s | -273.1°C | 44.2% | 196.5hPa | 4.3V | 00:00:00 | 00:49:42 | 00:00:00 | |
| BIOWL1-15 | 2026-08-31 23:16:20 | 50.70945 | 5.45422 | 82° | 108km/h | 12167m | 3m/s | -273.1°C | 44.2% | 196.5hPa | 4.3V | 00:00:00 | 00:00:00 | 00:00:00 | |
| BIOWL1-15 | 2026-08-31 23:16:12 | 50.70925 | 5.44808 | 89° | 115km/h | 12107m | 4m/s | -273.1°C | 44.7% | 198.3hPa | 4.3V | 00:00:00 | 00:00:00 | 00:00:00 | |
| DM0DOS-11 | 2026-08-31 23:16:11 | 50.70929 | 5.45009 | 88° | 100km/h | 12129m | 4.5m/s | -273.1°C | 44.5% | 197.7hPa | 4.3V | 00:00:00 | 00:49:32 | 00:00:00 | |
| DM0DOS-11 | 2026-08-31 23:16:04 | 50.70926 | 5.44606 | 94° | 93km/h | 12085m | 4.7m/s | -273.1°C | 44.7% | 198.9hPa | 4.3V | 00:00:00 | 00:49:22 | 00:00:00 | |
| BIOWL1-15 | 2026-08-31 23:15:54 | 50.70940 | 5.44148 | 93° | 95km/h | 12030m | 6.3m/s | -273.1°C | 45% | 200.5hPa | 4.3V | 00:00:00 | 00:00:00 | 00:00:00 | |
| DM0DOS-11 | 2026-08-31 23:15:51 | 50.70942 | 5.44221 | 88° | 95km/h | 12040m | 5.5m/s | -273.1°C | 45% | 200.2hPa | 4.3V | 00:00:00 | 00:49:12 | 00:00:00 | |
| DB0UT-7 | 2026-08-31 23:15:44 | 50.70945 | 5.44033 | 96° | 93km/h | 12011m | 4.5m/s | 0°C | 45.0% | 201.0hPa | 4.3V | 00:00:00 | 00:00:00 | 00:00:00 | |
| DM0DOS-11 | 2026-08-31 23:15:43 | 50.70958 | 5.43814 | 97° | 97km/h | 11981m | 4.8m/s | -273.1°C | 45.2% | 202.1hPa | 4.3V | 00:00:00 | 00:49:01 | 00:00:00 | |
| BIOWL1-15 | 2026-08-31 23:15:40 | 50.70958 | 5.43814 | 96° | 97km/h | 11981m | 4m/s | -273.1°C | 45.2% | 202.1hPa | 4.3V | 00:00:00 | 00:00:00 | 00:00:00 | |
| DM0DOS-11 | 2026-08-31 23:15:31 | 50.70988 | 5.43444 | 96° | 99km/h | 11936m | 5.2m/s | -273.1°C | 45.2% | 203.6hPa | 4.3V | 00:00:00 | 00:48:51 | 00:00:00 | |
| BIOWL1-15 | 2026-08-31 23:15:30 | 50.70988 | 5.43444 | 98° | 93km/h | 11936m | 5.3m/s | -273.1°C | 45.3% | 203.7hPa | 4.3V | 00:00:00 | 00:00:00 | 00:00:00 | |
| DM0DOS-11 | 2026-08-31 23:15:20 | 50.71028 | 5.43074 | 102° | 95km/h | 11886m | 5.1m/s | -273.1°C | 45.3% | 205.2hPa | 4.3V | 00:00:00 | 00:48:41 | 00:00:00 | |
| BIOWL1-15 | 2026-08-31 23:15:20 | 50.71045 | 5.42925 | 102° | 95km/h | 11867m | 6.3m/s | -273.1°C | 45.4% | 205.8hPa | 4.3V | 00:00:00 | 00:00:00 | 00:00:00 | |
| DB0UT-7 | 2026-08-31 23:15:14 | 50.71045 | 5.42925 | 108° | 97km/h | 11867m | 5.6m/s | 0°C | 45.3% | 205.7hPa | 4.3V | 00:00:00 | 00:48:37 | 00:00:00 | |
| DM0DOS-11 | 2026-08-31 23:15:09 | 50.71075 | 5.42703 | 101° | 97km/h | 11834m | 4.4m/s | -273.1°C | 45.3% | 206.8hPa | 4.3V | 00:00:00 | 00:48:31 | 00:00:00 | |
| BIOWL1-15 | 2026-08-31 23:15:08 | 50.71100 | 5.42520 | 100° | 99km/h | 11814m | 4.6m/s | -273.1°C | 45.4% | 207.7hPa | 4.3V | 00:00:00 | 00:00:00 | 00:00:00 | |
| DM0DOS-11 | 2026-08-31 23:15:03 | 50.71123 | 5.42327 | 97° | 95km/h | 11791m | 5m/s | -273.1°C | 45.3% | 208.4hPa | 4.3V | 00:00:00 | 00:48:21 | 00:00:00 | |
| BIOWL1-15 | 2026-08-31 23:14:53 | 50.71163 | 5.41944 | 93° | 95km/h | 11746m | 5m/s | -273.1°C | 45.2% | 210hPa | 4.3V | 00:00:00 | 00:00:00 | 00:00:00 | |
| DM0DOS-11 | 2026-08-31 23:14:51 | 50.71163 | 5.41944 | 97° | 99km/h | 11746m | 5.6m/s | -273.1°C | 45.2% | 210hPa | 4.3V | 00:00:00 | 00:48:11 | 00:00:00 | |
| DB0UT-7 | 2026-08-31 23:14:44 | 50.71177 | 5.41791 | 91° | 102km/h | 11725m | 5.5m/s | 0°C | 45.2% | 210.6hPa | 4.3V | 00:00:00 | 00:00:00 | 00:00:00 | |
| DM0DOS-11 | 2026-08-31 23:14:40 | 50.71198 | 5.41550 | 92° | 100km/h | 11693m | 5.7m/s | -273.1°C | 45.2% | 211.7hPa | 4.3V | 00:00:00 | 00:48:01 | 00:00:00 | |
| BIOWL1-15 | 2026-08-31 23:14:39 | 50.71198 | 5.41550 | 98° | 100km/h | 11693m | 5.6m/s | -273.1°C | 45.2% | 211.7hPa | 4.3V | 00:00:00 | 00:00:00 | 00:00:00 | |
| BIOWL1-15 | 2026-08-31 23:14:26 | 50.71255 | 5.40948 | 99° | 104km/h | 11615m | 6.3m/s | -273.1°C | 45.1% | 214.3hPa | 4.3V | 00:00:00 | 00:00:00 | 00:00:00 | |
| DM0DOS-11 | 2026-08-31 23:14:19 | 50.71275 | 5.40745 | 100° | 104km/h | 11592m | 4.2m/s | -273.1°C | 45% | 215.1hPa | 4.3V | 00:00:00 | 00:47:41 | 00:00:00 | |
| DB0UT-7 | 2026-08-31 23:14:14 | 50.71291 | 5.40582 | 106° | 111km/h | 11576m | 5.2m/s | 0°C | 45.0% | 215.6hPa | 4.3V | 00:00:00 | 00:47:37 | 00:00:00 | |
| DM0DOS-11 | 2026-08-31 23:14:13 | 50.71319 | 5.40335 | 97° | 110km/h | 11545m | 5m/s | -273.1°C | 45% | 216.8hPa | 4.3V | 00:00:00 | 00:47:31 | 00:00:00 | |
| BIOWL1-15 | 2026-08-31 23:14:12 | 50.71305 | 5.40460 | 101° | 106km/h | 11560m | 5.2m/s | -273.1°C | 45% | 216.3hPa | 4.3V | 00:00:00 | 00:00:00 | 00:00:00 | |
| DM0DOS-11 | 2026-08-31 23:14:03 | 50.71367 | 5.39904 | 94° | 108km/h | 11498m | 4.6m/s | -273.1°C | 45% | 218.4hPa | 4.3V | 00:00:00 | 00:47:21 | 00:00:00 | |
| BIOWL1-15 | 2026-08-31 23:14:00 | 50.71373 | 5.39823 | 97° | 115km/h | 11489m | 5m/s | -273.1°C | 45.1% | 218.7hPa | 4.3V | 00:00:00 | 00:00:00 | 00:00:00 | |
| DM0DOS-11 | 2026-08-31 23:13:53 | 50.71412 | 5.39469 | 99° | 111km/h | 11456m | 5.8m/s | -273.1°C | 45% | 219.9hPa | 4.3V | 00:00:00 | 00:47:11 | 00:00:00 | |
| BIOWL1-15 | 2026-08-31 23:13:51 | 50.71412 | 5.39469 | 98° | 111km/h | 11456m | 6m/s | -273.1°C | 45% | 219.9hPa | 4.3V | 00:00:00 | 00:00:00 | 00:00:00 | |
| DB0UT-7 | 2026-08-31 23:13:44 | 50.71425 | 5.39287 | 107° | 110km/h | 11431m | 5.1m/s | 0°C | 45.0% | 220.5hPa | 4.3V | 00:00:00 | 00:00:00 | 00:00:00 | |
| DM0DOS-11 | 2026-08-31 23:13:43 | 50.71455 | 5.39024 | 104° | 110km/h | 11401m | 5.5m/s | -273.1°C | 44.8% | 221.8hPa | 4.3V | 00:00:00 | 00:47:01 | 00:00:00 | |
| BIOWL1-15 | 2026-08-31 23:13:37 | 50.71468 | 5.38891 | 101° | 113km/h | 11386m | 6.3m/s | -273.1°C | 44.8% | 222.3hPa | 4.3V | 00:00:00 | 00:00:00 | 00:00:00 | |
| DM0DOS-11 | 2026-08-31 23:13:33 | 50.71504 | 5.38595 | 101° | 113km/h | 11350m | 5.2m/s | -273.1°C | 44.5% | 223.5hPa | 4.3V | 00:00:00 | 00:46:51 | 00:00:00 | |
| BIOWL1-15 | 2026-08-31 23:13:27 | 50.71522 | 5.38462 | 97° | 115km/h | 11334m | 5.5m/s | -273.1°C | 44.5% | 224.1hPa | 4.3V | 00:00:00 | 00:00:00 | 00:00:00 | |
| DM0DOS-11 | 2026-08-31 23:13:23 | 50.71556 | 5.38165 | 98° | 110km/h | 11300m | 4.7m/s | -273.1°C | 44.2% | 225.3hPa | 4.3V | 00:00:00 | 00:46:41 | 00:00:00 | |
| BIOWL1-15 | 2026-08-31 23:13:14 | 50.71578 | 5.37946 | 102° | 111km/h | 11278m | 4.2m/s | -273.1°C | 44.2% | 226.1hPa | 4.3V | 00:00:00 | 00:00:00 | 00:00:00 | |
| DB0UT-7 | 2026-08-31 23:13:14 | 50.71573 | 5.37998 | 98° | 110km/h | 11282m | 4.5m/s | 0°C | 44.0% | 225.8hPa | 4.3V | 00:00:00 | 00:46:37 | 00:00:00 | |
| DM0DOS-11 | 2026-08-31 23:13:13 | 50.71601 | 5.37733 | 102° | 108km/h | 11255m | 5.3m/s | -273.1°C | 44% | 226.9hPa | 4.3V | 00:00:00 | 00:46:31 | 00:00:00 | |
| DM0DOS-11 | 2026-08-31 23:13:03 | 50.71649 | 5.37301 | 102° | 110km/h | 11201m | 4.8m/s | -273.1°C | 44% | 228.8hPa | 4.3V | 00:00:00 | 00:46:21 | 00:00:00 | |
| BIOWL1-15 | 2026-08-31 23:13:01 | 50.71649 | 5.37301 | 100° | 111km/h | 11201m | 5m/s | -273.1°C | 44% | 228.8hPa | 4.3V | 00:00:00 | 00:00:00 | 00:00:00 | |
| DM0DOS-11 | 2026-08-31 23:12:53 | 50.71698 | 5.36863 | 99° | 106km/h | 11152m | 5m/s | -273.1°C | 43.7% | 230.6hPa | 4.4V | 00:00:00 | 00:46:11 | 00:00:00 | |
| BIOWL1-15 | 2026-08-31 23:12:49 | 50.71698 | 5.36863 | 99° | 106km/h | 11152m | 5m/s | -273.1°C | 43.8% | 230.6hPa | 4.4V | 00:00:00 | 00:00:00 | 00:00:00 | |
| DB0UT-7 | 2026-08-31 23:12:44 | 50.71716 | 5.36692 | 104° | 108km/h | 11132m | 5.0m/s | 0°C | 43.5% | 231.2hPa | 4.4V | 00:00:00 | 00:00:00 | 00:00:00 | |
| DM0DOS-11 | 2026-08-31 23:12:40 | 50.71757 | 5.36310 | 99° | 108km/h | 11087m | 4.7m/s | -273.1°C | 43.2% | 233hPa | 4.4V | 00:00:00 | 00:45:58 | 00:00:00 | |
| BIOWL1-15 | 2026-08-31 23:12:38 | 50.71766 | 5.36220 | 99° | 106km/h | 11079m | 5.3m/s | -273.1°C | 43.3% | 233.3hPa | 4.4V | 00:00:00 | 00:00:00 | 00:00:00 | |
| DM0DOS-11 | 2026-08-31 23:12:28 | 50.71798 | 5.35884 | 106° | 110km/h | 11041m | 4.3m/s | -273.1°C | 43% | 234.5hPa | 4.4V | 00:00:00 | 00:45:48 | 00:00:00 | |
| BIOWL1-15 | 2026-08-31 23:12:22 | 50.71828 | 5.35626 | 99° | 100km/h | 11014m | 3m/s | -273.1°C | 42.9% | 235.5hPa | 4.4V | 00:00:00 | 00:00:00 | 00:00:00 | |
| DM0DOS-11 | 2026-08-31 23:12:17 | 50.71842 | 5.35462 | 106° | 108km/h | 10999m | 5m/s | -273.1°C | 42.7% | 236.1hPa | 4.4V | 00:00:00 | 00:45:38 | 00:00:00 | |
| BIOWL1-15 | 2026-08-31 23:12:11 | 50.71869 | 5.35246 | 99° | 102km/h | 10975m | 5.7m/s | -273.1°C | 42.7% | 237hPa | 4.4V | 00:00:00 | 00:00:00 | 00:00:00 | |
| DM0DOS-11 | 2026-08-31 23:12:10 | 50.71887 | 5.35045 | 97° | 108km/h | 10948m | 4.5m/s | -273.1°C | 42.3% | 237.9hPa | 4.4V | 00:00:00 | 00:45:28 | 00:00:00 | |
| BIOWL1-15 | 2026-08-31 23:12:03 | 50.71909 | 5.34829 | 99° | 108km/h | 10925m | 4.6m/s | -273.1°C | 42.1% | 238.9hPa | 4.4V | 00:00:00 | 00:00:00 | 00:00:00 | |
| DM0DOS-11 | 2026-08-31 23:11:58 | 50.71931 | 5.34618 | 99° | 110km/h | 10902m | 4.3m/s | -273.1°C | 42% | 239.8hPa | 4.4V | 00:00:00 | 00:45:18 | 00:00:00 | |
| BIOWL1-15 | 2026-08-31 23:11:48 | 50.71970 | 5.34271 | 102° | 110km/h | 10868m | 4m/s | -273.1°C | 41.7% | 241.1hPa | 4.4V | 00:00:00 | 00:00:00 | 00:00:00 | |
| DM0DOS-11 | 2026-08-31 23:11:47 | 50.71978 | 5.34187 | 96° | 111km/h | 10859m | 4.1m/s | -273.1°C | 41.7% | 241.4hPa | 4.4V | 00:00:00 | 00:45:08 | 00:00:00 | |
| BIOWL1-15 | 2026-08-31 23:11:38 | 50.72018 | 5.33838 | 96° | 108km/h | 10827m | 4.5m/s | -273.1°C | 41.3% | 242.7hPa | 4.4V | 00:00:00 | 00:00:00 | 00:00:00 | |
| DM0DOS-11 | 2026-08-31 23:11:36 | 50.72024 | 5.33752 | 97° | 111km/h | 10818m | 4.2m/s | -273.1°C | 41.2% | 243hPa | 4.4V | 00:00:00 | 00:44:58 | 00:00:00 | |
| BIOWL1-15 | 2026-08-31 23:11:26 | 50.72105 | 5.33050 | 98° | 110km/h | 10753m | 4m/s | -273.1°C | 40.7% | 245.5hPa | 4.4V | 00:00:00 | 00:00:00 | 00:00:00 | |
| DM0DOS-11 | 2026-08-31 23:11:26 | 50.72074 | 5.33316 | 97° | 111km/h | 10778m | 4.3m/s | -273.1°C | 40.8% | 244.5hPa | 4.4V | 00:00:00 | 00:44:48 | 00:00:00 | |
| DM0DOS-11 | 2026-08-31 23:11:16 | 50.72122 | 5.32876 | 101° | 117km/h | 10735m | 3.9m/s | -273.1°C | 40.5% | 246.1hPa | 4.4V | 00:00:00 | 00:44:38 | 00:00:00 | |
| DB0UT-7 | 2026-08-31 23:11:12 | 50.72138 | 5.32735 | 100° | 115km/h | 10723m | 4.1m/s | 0°C | 40.5% | 246.5hPa | 4.4V | 00:00:00 | 00:44:35 | 00:00:00 | |
| DM0DOS-11 | 2026-08-31 23:11:11 | 50.72174 | 5.32419 | 100° | 111km/h | 10695m | 4m/s | -273.1°C | 40.5% | 247.6hPa | 4.4V | 00:00:00 | 00:44:28 | 00:00:00 | |
| BIOWL1-15 | 2026-08-31 23:11:09 | 50.72186 | 5.32337 | 97° | 119km/h | 10688m | 6m/s | -273.1°C | 40.5% | 247.9hPa | 4.4V | 00:00:00 | 00:00:00 | 00:00:00 | |
| DM0DOS-11 | 2026-08-31 23:10:58 | 50.72222 | 5.31968 | 102° | 111km/h | 10655m | 4.4m/s | -273.1°C | 40.5% | 249.2hPa | 4.4V | 00:00:00 | 00:44:18 | 00:00:00 | |
| BIOWL1-15 | 2026-08-31 23:10:56 | 50.72222 | 5.31968 | 103° | 104km/h | 10655m | 5m/s | -273.1°C | 40.6% | 249.2hPa | 4.4V | 00:00:00 | 00:00:00 | 00:00:00 | |
| DM0DOS-11 | 2026-08-31 23:10:50 | 50.72270 | 5.31518 | 96° | 113km/h | 10611m | 4.5m/s | -273.1°C | 40.7% | 250.8hPa | 4.4V | 00:00:00 | 00:44:08 | 00:00:00 | |
| BIOWL1-15 | 2026-08-31 23:10:46 | 50.72293 | 5.31294 | 100° | 106km/h | 10588m | 3m/s | -273.1°C | 40.8% | 251.7hPa | 4.4V | 00:00:00 | 00:00:00 | 00:00:00 | |
| DB0UT-7 | 2026-08-31 23:10:42 | 50.72283 | 5.31379 | 97° | 113km/h | 10597m | 4.0m/s | 0°C | 40.7% | 251.3hPa | 4.4V | 00:00:00 | 00:00:00 | 00:00:00 | |
| DM0DOS-11 | 2026-08-31 23:10:38 | 50.72316 | 5.31069 | 98° | 111km/h | 10568m | 4m/s | -273.1°C | 40.7% | 252.4hPa | 4.4V | 00:00:00 | 00:43:58 | 00:00:00 | |
| DM0DOS-11 | 2026-08-31 23:10:30 | 50.72360 | 5.30622 | 95° | 113km/h | 10527m | 3.9m/s | -273.1°C | 40.7% | 254hPa | 4.4V | 00:00:00 | 00:43:48 | 00:00:00 | |
| BIOWL1-15 | 2026-08-31 23:10:28 | 50.72353 | 5.30713 | 100° | 122km/h | 10536m | 4m/s | -273.1°C | 40.9% | 253.7hPa | 4.4V | 00:00:00 | 00:00:00 | 00:00:00 | |
| DM0DOS-11 | 2026-08-31 23:10:18 | 50.72396 | 5.30176 | 95° | 113km/h | 10488m | 3.9m/s | -273.1°C | 40.7% | 255.6hPa | 4.4V | 00:00:00 | 00:43:38 | 00:00:00 | |
| BIOWL1-15 | 2026-08-31 23:10:16 | 50.72396 | 5.30176 | 96° | 106km/h | 10488m | 3m/s | -273.1°C | 40.7% | 255.6hPa | 4.4V | 00:00:00 | 00:00:00 | 00:00:00 | |
| DB0UT-7 | 2026-08-31 23:10:12 | 50.72411 | 5.30039 | 94° | 111km/h | 10477m | 4.2m/s | 0°C | 40.7% | 256.0hPa | 4.4V | 00:00:00 | 00:43:35 | 00:00:00 | |
| DM0DOS-11 | 2026-08-31 23:10:10 | 50.72433 | 5.29728 | 92° | 115km/h | 10448m | 3.9m/s | -273.1°C | 40.5% | 257.2hPa | 4.4V | 00:00:00 | 00:43:28 | 00:00:00 | |
| BIOWL1-15 | 2026-08-31 23:10:05 | 50.72449 | 5.29500 | 96° | 110km/h | 10429m | 4m/s | -273.1°C | 40.5% | 258hPa | 4.4V | 00:00:00 | 00:00:00 | 00:00:00 | |
| BIOWL1-15 | 2026-08-31 23:09:55 | 50.72485 | 5.29095 | 95° | 102km/h | 10390m | 4m/s | -273.1°C | 40.2% | 259.5hPa | 4.4V | 00:00:00 | 00:00:00 | 00:00:00 | |
| DM0DOS-11 | 2026-08-31 23:09:50 | 50.72502 | 5.28831 | 97° | 108km/h | 10365m | 4m/s | -273.1°C | 40% | 260.4hPa | 4.4V | 00:00:00 | 00:43:08 | 00:00:00 | |
| BIOWL1-15 | 2026-08-31 23:09:42 | 50.72525 | 5.28529 | 93° | 108km/h | 10337m | 4m/s | -273.1°C | 40% | 261.6hPa | 4.4V | 00:00:00 | 00:00:00 | 00:00:00 | |
| DM0DOS-11 | 2026-08-31 23:09:37 | 50.72531 | 5.28392 | 94° | 108km/h | 10326m | 3.7m/s | -273.1°C | 40% | 262hPa | 4.4V | 00:00:00 | 00:42:58 | 00:00:00 | |
| DM0DOS-11 | 2026-08-31 23:09:30 | 50.72564 | 5.27966 | 95° | 110km/h | 10288m | 4.2m/s | -273.1°C | 39.8% | 263.5hPa | 4.4V | 00:00:00 | 00:42:48 | 00:00:00 | |
| BIOWL1-15 | 2026-08-31 23:09:28 | 50.72558 | 5.28046 | 104° | 97km/h | 10296m | 3m/s | -273.1°C | 39.9% | 263.2hPa | 4.4V | 00:00:00 | 00:00:00 | 00:00:00 | |
| BIOWL1-15 | 2026-08-31 23:09:19 | 50.72602 | 5.27501 | 99° | 110km/h | 10241m | 5m/s | -273.1°C | 40.3% | 265.4hPa | 4.4V | 00:00:00 | 00:00:00 | 00:00:00 | |
| DM0DOS-11 | 2026-08-31 23:09:17 | 50.72596 | 5.27540 | 104° | 106km/h | 10245m | 4.3m/s | -273.1°C | 40.2% | 265.2hPa | 4.4V | 00:00:00 | 00:42:38 | 00:00:00 | |
| DB0UT-7 | 2026-08-31 23:09:12 | 50.72607 | 5.27412 | 96° | 104km/h | 10232m | 4.2m/s | 0°C | 40.3% | 265.7hPa | 4.4V | 00:00:00 | 00:42:35 | 00:00:00 | |
| DM0DOS-11 | 2026-08-31 23:09:10 | 50.72630 | 5.27113 | 97° | 102km/h | 10203m | 4.5m/s | -273.1°C | 40.7% | 266.9hPa | 4.4V | 00:00:00 | 00:42:28 | 00:00:00 | |
| BIOWL1-15 | 2026-08-31 23:09:07 | 50.72629 | 5.27159 | 92° | 117km/h | 10207m | 4m/s | -273.1°C | 40.8% | 266.7hPa | 4.4V | 00:00:00 | 00:00:00 | 00:00:00 | |
| DM0DOS-11 | 2026-08-31 23:08:58 | 50.72663 | 5.26705 | 95° | 104km/h | 10161m | 4.8m/s | -273.1°C | 41.8% | 268.6hPa | 4.4V | 00:00:00 | 00:42:18 | 00:00:00 | |
| BIOWL1-15 | 2026-08-31 23:08:56 | 50.72663 | 5.26705 | 94° | 111km/h | 10161m | 4m/s | -273.1°C | 41.9% | 268.6hPa | 4.4V | 00:00:00 | 00:00:00 | 00:00:00 | |
| DM0DOS-11 | 2026-08-31 23:08:51 | 50.72691 | 5.26294 | 103° | 102km/h | 10113m | 5.1m/s | -273.1°C | 42.5% | 270.6hPa | 4.4V | 00:00:00 | 00:42:08 | 00:00:00 | |
| BIOWL1-15 | 2026-08-31 23:08:46 | 50.72691 | 5.26294 | 100° | 102km/h | 10113m | 4.6m/s | -273.1°C | 42.6% | 270.6hPa | 4.4V | 00:00:00 | 00:00:00 | 00:00:00 | |
| DB0UT-7 | 2026-08-31 23:08:42 | 50.72703 | 5.26171 | 101° | 99km/h | 10098m | 5.0m/s | 0°C | 42.7% | 271.1hPa | 4.4V | 00:00:00 | 00:00:00 | 00:00:00 | |
| DM0DOS-11 | 2026-08-31 23:08:38 | 50.72725 | 5.25852 | 102° | 100km/h | 10056m | 5.1m/s | -273.1°C | 42.7% | 272.9hPa | 4.4V | 00:00:00 | 00:41:57 | 00:00:00 | |
| BIOWL1-15 | 2026-08-31 23:08:35 | 50.72725 | 5.25852 | 103° | 93km/h | 10056m | 4m/s | -273.1°C | 42.7% | 272.9hPa | 4.4V | 00:00:00 | 00:00:00 | 00:00:00 | |
| DM0DOS-11 | 2026-08-31 23:08:28 | 50.72760 | 5.25458 | 96° | 99km/h | 10004m | 5.4m/s | -273.1°C | 42.3% | 274.9hPa | 4.4V | 00:00:00 | 00:41:47 | 00:00:00 | |
| BIOWL1-15 | 2026-08-31 23:08:25 | 50.72760 | 5.25458 | 96° | 99km/h | 10004m | 4.7m/s | -273.1°C | 42.4% | 274.9hPa | 4.4V | 00:00:00 | 00:00:00 | 00:00:00 | |
| DM0DOS-11 | 2026-08-31 23:08:18 | 50.72792 | 5.25024 | 92° | 95km/h | 9947m | 5m/s | -273.1°C | 42% | 277.3hPa | 4.4V | 00:00:00 | 00:41:36 | 00:00:00 | |
| BIOWL1-15 | 2026-08-31 23:08:13 | 50.72794 | 5.24988 | 102° | 93km/h | 9942m | 5m/s | -273.1°C | 42.1% | 277.5hPa | 4.4V | 00:00:00 | 00:00:00 | 00:00:00 | |
| BIOWL1-15 | 2026-08-31 23:08:04 | 50.72831 | 5.24530 | 94° | 104km/h | 9879m | 5m/s | -273.1°C | 42.1% | 280.1hPa | 4.4V | 00:00:00 | 00:00:00 | 00:00:00 | |
| DM0DOS-11 | 2026-08-31 23:08:04 | 50.72822 | 5.24648 | 101° | 100km/h | 9897m | 5.5m/s | -273.1°C | 42% | 279.4hPa | 4.4V | 00:00:00 | 00:41:26 | 00:00:00 | |
| DM0DOS-11 | 2026-08-31 23:07:58 | 50.72847 | 5.24250 | 93° | 99km/h | 9845m | 5.1m/s | -273.1°C | 42.2% | 281.6hPa | 4.4V | 00:00:00 | 00:41:16 | 00:00:00 | |
| BIOWL1-15 | 2026-08-31 23:07:50 | 50.72878 | 5.23814 | 93° | 99km/h | 9787m | 3.5m/s | -273.1°C | 42.7% | 284hPa | 4.4V | 00:00:00 | 00:00:00 | 00:00:00 | |
| DB0UT-7 | 2026-08-31 23:07:42 | 50.72878 | 5.23814 | 100° | 99km/h | 9787m | 4.2m/s | 0°C | 42.7% | 283.9hPa | 4.4V | 00:00:00 | 00:00:00 | 00:00:00 | |
| DM0DOS-11 | 2026-08-31 23:07:38 | 50.72902 | 5.23464 | 86° | 100km/h | 9747m | 5.5m/s | -273.1°C | 43.5% | 285.6hPa | 4.4V | 00:00:00 | 00:40:56 | 00:00:00 | |
| BIOWL1-15 | 2026-08-31 23:07:38 | 50.72890 | 5.23623 | 94° | 102km/h | 9766m | 4m/s | -273.1°C | 43.2% | 284.9hPa | 4.4V | 00:00:00 | 00:00:00 | 00:00:00 | |
| DM0DOS-11 | 2026-08-31 23:07:28 | 50.72926 | 5.23067 | 97° | 99km/h | 9692m | 5m/s | -273.1°C | 44.3% | 287.9hPa | 4.5V | 00:00:00 | 00:40:46 | 00:00:00 | |
| BIOWL1-15 | 2026-08-31 23:07:27 | 50.72919 | 5.23190 | 102° | 113km/h | 9708m | 6m/s | -273.1°C | 44.1% | 287.2hPa | 4.4V | 00:00:00 | 00:00:00 | 00:00:00 | |
| BIOWL1-15 | 2026-08-31 23:07:18 | 50.72947 | 5.22750 | 100° | 88km/h | 9655m | 6m/s | -273.1°C | 45.1% | 289.6hPa | 4.4V | 00:00:00 | 00:00:00 | 00:00:00 | |
| DM0DOS-11 | 2026-08-31 23:07:17 | 50.72954 | 5.22633 | 99° | 99km/h | 9639m | 5.4m/s | -273.1°C | 45.5% | 290.3hPa | 4.4V | 00:00:00 | 00:40:35 | 00:00:00 | |
| BIOWL1-15 | 2026-08-31 23:07:04 | 50.72975 | 5.22276 | 93° | 99km/h | 9591m | 4m/s | -273.1°C | 46.5% | 292.3hPa | 4.4V | 00:00:00 | 00:00:00 | 00:00:00 | |
| DM0DOS-11 | 2026-08-31 23:07:04 | 50.72976 | 5.22237 | 102° | 102km/h | 9587m | 4.2m/s | -273.1°C | 46.7% | 292.5hPa | 4.4V | 00:00:00 | 00:40:25 | 00:00:00 | |
| BIOWL1-15 | 2026-08-31 23:06:55 | 50.73005 | 5.21786 | 105° | 97km/h | 9543m | 4m/s | -273.1°C | 48% | 294.4hPa | 4.4V | 00:00:00 | 00:00:00 | 00:00:00 | |
| DM0DOS-11 | 2026-08-31 23:06:53 | 50.73002 | 5.21830 | 96° | 104km/h | 9547m | 4.3m/s | -273.1°C | 47.8% | 294.2hPa | 4.4V | 00:00:00 | 00:40:15 | 00:00:00 | |
| DM0DOS-11 | 2026-08-31 23:06:43 | 50.73037 | 5.21418 | 101° | 100km/h | 9501m | 4.5m/s | -273.1°C | 49.2% | 296.1hPa | 4.7V | 00:00:00 | 00:40:05 | 00:00:00 | |
| BIOWL1-15 | 2026-08-31 23:06:41 | 50.73040 | 5.21344 | 96° | 111km/h | 9492m | 5m/s | -273.1°C | 49.4% | 296.6hPa | 4.7V | 00:00:00 | 00:00:00 | 00:00:00 | |
| DM0DOS-11 | 2026-08-31 23:06:33 | 50.73069 | 5.21007 | 90° | 104km/h | 9457m | 5.6m/s | -273.1°C | 49.5% | 298.2hPa | 4.4V | 00:00:00 | 00:39:55 | 00:00:00 | |
| BIOWL1-15 | 2026-08-31 23:06:30 | 50.73079 | 5.20846 | 95° | 108km/h | 9435m | 6.2m/s | -273.1°C | 49.3% | 299.1hPa | 4.5V | 00:00:00 | 00:00:00 | 00:00:00 | |
| DM0DOS-11 | 2026-08-31 23:06:23 | 50.73095 | 5.20594 | 92° | 106km/h | 9399m | 4.9m/s | -273.1°C | 48.8% | 300.6hPa | 4.5V | 00:00:00 | 00:39:45 | 00:00:00 | |
| DM0DOS-11 | 2026-08-31 23:06:13 | 50.73116 | 5.20173 | 99° | 102km/h | 9351m | 6m/s | -273.1°C | 48% | 302.8hPa | 4.5V | 00:00:00 | 00:39:35 | 00:00:00 | |
| BIOWL1-15 | 2026-08-31 23:06:06 | 50.73134 | 5.19842 | 94° | 102km/h | 9304m | 4.8m/s | -273.1°C | 47.8% | 304.7hPa | 4.5V | 00:00:00 | 00:00:00 | 00:00:00 | |
| DM0DOS-11 | 2026-08-31 23:06:03 | 50.73141 | 5.19761 | 86° | 102km/h | 9297m | 5.6m/s | -273.1°C | 47.7% | 305.1hPa | 4.5V | 00:00:00 | 00:39:25 | 00:00:00 | |
| DM0DOS-11 | 2026-08-31 23:05:53 | 50.73157 | 5.19354 | 93° | 106km/h | 9242m | 4.9m/s | -273.1°C | 47.5% | 307.3hPa | 4.5V | 00:00:00 | 00:39:15 | 00:00:00 | |
| BIOWL1-15 | 2026-08-31 23:05:48 | 50.73172 | 5.19143 | 90° | 100km/h | 9217m | 5.7m/s | -273.1°C | 47.7% | 308.4hPa | 4.5V | 00:00:00 | 00:00:00 | 00:00:00 | |
| DM0DOS-11 | 2026-08-31 23:05:43 | 50.73170 | 5.18945 | 93° | 100km/h | 9193m | 5m/s | -273.1°C | 48.2% | 309.6hPa | 4.5V | 00:00:00 | 00:39:05 | 00:00:00 | |
| DB0UT-7 | 2026-08-31 23:05:42 | 50.73170 | 5.18945 | 94° | 99km/h | 9193m | 4.9m/s | 0°C | 48.2% | 309.6hPa | 4.5V | 00:00:00 | 00:00:00 | 00:00:00 | |
| DM0DOS-11 | 2026-08-31 23:05:38 | 50.73186 | 5.18540 | 98° | 95km/h | 9143m | 5m/s | -273.1°C | 49.3% | 311.9hPa | 4.5V | 00:00:00 | 00:38:55 | 00:00:00 | |
| BIOWL1-15 | 2026-08-31 23:05:35 | 50.73186 | 5.18623 | 92° | 99km/h | 9153m | 4.8m/s | -273.1°C | 49.1% | 311.4hPa | 4.5V | 00:00:00 | 00:00:00 | 00:00:00 | |
| DM0DOS-11 | 2026-08-31 23:05:26 | 50.73205 | 5.18073 | 94° | 100km/h | 9083m | 5m/s | -273.1°C | 51% | 314.7hPa | 4.5V | 00:00:00 | 00:38:43 | 00:00:00 | |
| BIOWL1-15 | 2026-08-31 23:05:12 | 50.73223 | 5.17517 | 87° | 95km/h | 9011m | 4m/s | -273.1°C | 53.9% | 317.9hPa | 4.5V | 00:00:00 | 00:00:00 | 00:00:00 | |
| DM0DOS-11 | 2026-08-31 23:05:11 | 50.73214 | 5.17675 | 94° | 99km/h | 9033m | 5.4m/s | -273.1°C | 53% | 317hPa | 4.5V | 00:00:00 | 00:38:33 | 00:00:00 | |
| BIOWL1-15 | 2026-08-31 23:04:57 | 50.73235 | 5.17123 | 95° | 95km/h | 8960m | 4m/s | -273.1°C | 55.5% | 320.3hPa | 4.7V | 00:00:00 | 00:00:00 | 00:00:00 | |
| DM0DOS-11 | 2026-08-31 23:04:51 | 50.73241 | 5.16892 | 82° | 93km/h | 8933m | 5.2m/s | -273.1°C | 55.7% | 321.5hPa | 4.5V | 00:00:00 | 00:38:13 | 00:00:00 | |
| BIOWL1-15 | 2026-08-31 23:04:47 | 50.73241 | 5.16632 | 96° | 100km/h | 8896m | 3.5m/s | -273.1°C | 55.4% | 323.2hPa | 4.5V | 00:00:00 | 00:00:00 | 00:00:00 | |
| DM0DOS-11 | 2026-08-31 23:04:46 | 50.73243 | 5.16516 | 95° | 93km/h | 8886m | 4.8m/s | -273.1°C | 55.5% | 323.9hPa | 4.7V | 00:00:00 | 00:38:03 | 00:00:00 | |
| DB0UT-7 | 2026-08-31 23:04:40 | 50.73243 | 5.16516 | 96° | 91km/h | 8886m | 4.8m/s | 0°C | 55.5% | 323.8hPa | 4.7V | 00:00:00 | 00:00:00 | 00:00:00 | |
| DM0DOS-11 | 2026-08-31 23:04:31 | 50.73256 | 5.16144 | 95° | 88km/h | 8836m | 4.4m/s | -273.1°C | 54.5% | 326.2hPa | 4.5V | 00:00:00 | 00:37:53 | 00:00:00 | |
| BIOWL1-15 | 2026-08-31 23:04:30 | 50.73258 | 5.16113 | 94° | 99km/h | 8833m | 6m/s | -273.1°C | 54.5% | 326.4hPa | 4.5V | 00:00:00 | 00:00:00 | 00:00:00 | |
| DM0DOS-11 | 2026-08-31 23:04:25 | 50.73264 | 5.15789 | 97° | 91km/h | 8793m | 5m/s | -273.1°C | 53.8% | 328.4hPa | 4.7V | 00:00:00 | 00:37:43 | 00:00:00 | |
| BIOWL1-15 | 2026-08-31 23:04:19 | 50.73270 | 5.15716 | 84° | 88km/h | 8782m | 5m/s | -273.1°C | 53.8% | 328.8hPa | 4.5V | 00:00:00 | 00:00:00 | 00:00:00 | |
| DM0DOS-11 | 2026-08-31 23:04:15 | 50.73275 | 5.15429 | 89° | 89km/h | 8746m | 4.5m/s | -273.1°C | 53.5% | 330.4hPa | 4.5V | 00:00:00 | 00:37:33 | 00:00:00 | |
| BIOWL1-15 | 2026-08-31 23:04:09 | 50.73275 | 5.15350 | 90° | 84km/h | 8739m | 5.5m/s | -273.1°C | 53.4% | 330.8hPa | 4.5V | 00:00:00 | 00:00:00 | 00:00:00 | |
| DM0DOS-11 | 2026-08-31 23:04:05 | 50.73278 | 5.15067 | 97° | 89km/h | 8700m | 4.7m/s | -273.1°C | 52.8% | 332.7hPa | 4.5V | 00:00:00 | 00:37:23 | 00:00:00 | |
| BIOWL1-15 | 2026-08-31 23:03:57 | 50.73290 | 5.14883 | 92° | 88km/h | 8678m | 6m/s | -273.1°C | 52.8% | 333.7hPa | 4.5V | 00:00:00 | 00:00:00 | 00:00:00 | |
| DM0DOS-11 | 2026-08-31 23:03:51 | 50.73296 | 5.14713 | 91° | 91km/h | 8650m | 4.5m/s | -273.1°C | 52.8% | 335.1hPa | 4.5V | 00:00:00 | 00:37:13 | 00:00:00 | |
| DM0DOS-11 | 2026-08-31 23:03:45 | 50.73309 | 5.14350 | 95° | 86km/h | 8606m | 4m/s | -273.1°C | 52.8% | 337.2hPa | 4.5V | 00:00:00 | 00:37:03 | 00:00:00 | |
| BIOWL1-15 | 2026-08-31 23:03:44 | 50.73311 | 5.14321 | 101° | 88km/h | 8602m | 4m/s | -273.1°C | 53% | 337.5hPa | 4.5V | 00:00:00 | 00:00:00 | 00:00:00 | |
| DB0UT-7 | 2026-08-31 23:03:40 | 50.73309 | 5.14350 | 96° | 86km/h | 8606m | 4.0m/s | 0°C | 52.8% | 337.2hPa | 4.8V | 00:00:00 | 00:00:00 | 00:00:00 | |
| DM0DOS-11 | 2026-08-31 23:03:31 | 50.73329 | 5.13998 | 87° | 84km/h | 8566m | 4.4m/s | -273.1°C | 53% | 339.2hPa | 4.8V | 00:00:00 | 00:36:53 | 00:00:00 | |
| BIOWL1-15 | 2026-08-31 23:03:29 | 50.73328 | 5.13934 | 102° | 97km/h | 8557m | 4m/s | -273.1°C | 53.1% | 339.6hPa | 4.7V | 00:00:00 | 00:00:00 | 00:00:00 | |
| DM0DOS-11 | 2026-08-31 23:03:26 | 50.73347 | 5.13658 | 94° | 86km/h | 8521m | 5m/s | -273.1°C | 53.5% | 341.3hPa | 4.5V | 00:00:00 | 00:36:43 | 00:00:00 | |
| BIOWL1-15 | 2026-08-31 23:03:19 | 50.73351 | 5.13586 | 90° | 84km/h | 8513m | 5.3m/s | -273.1°C | 53.6% | 341.8hPa | 4.5V | 00:00:00 | 00:00:00 | 00:00:00 | |
| BIOWL1-15 | 2026-08-31 23:03:09 | 50.73357 | 5.13187 | 85° | 84km/h | 8449m | 4m/s | -273.1°C | 54.7% | 344.8hPa | 4.5V | 00:00:00 | 00:00:00 | 00:00:00 | |
| DM0DOS-11 | 2026-08-31 23:03:04 | 50.73359 | 5.12964 | 90° | 84km/h | 8411m | 4.8m/s | -273.1°C | 55.5% | 346.6hPa | 4.5V | 00:00:00 | 00:36:22 | 00:00:00 | |
| BIOWL1-15 | 2026-08-31 23:02:55 | 50.73363 | 5.12729 | 90° | 89km/h | 8377m | 4m/s | -273.1°C | 56.6% | 348.3hPa | 4.7V | 00:00:00 | 00:00:00 | 00:00:00 | |
| DM0DOS-11 | 2026-08-31 23:02:48 | 50.73362 | 5.12564 | 99° | 82km/h | 8352m | 4.6m/s | -273.1°C | 57.6% | 349.5hPa | 4.5V | 00:00:00 | 00:36:10 | 00:00:00 | |
| BIOWL1-15 | 2026-08-31 23:02:44 | 50.73373 | 5.12366 | 105° | 77km/h | 8324m | 3m/s | -273.1°C | 59.1% | 350.9hPa | 4.8V | 00:00:00 | 00:00:00 | 00:00:00 | |
| DM0DOS-11 | 2026-08-31 23:02:43 | 50.73378 | 5.12242 | 88° | 77km/h | 8303m | 4.4m/s | -273.1°C | 59.8% | 351.8hPa | 4.8V | 00:00:00 | 00:36:00 | 00:00:00 | |
| BIOWL1-15 | 2026-08-31 23:02:34 | 50.73386 | 5.11966 | 91° | 78km/h | 8266m | 5m/s | -273.1°C | 61.4% | 353.9hPa | 4.5V | 00:00:00 | 00:00:00 | 00:00:00 | |
| DM0DOS-11 | 2026-08-31 23:02:27 | 50.73392 | 5.11876 | 92° | 75km/h | 8251m | 4.8m/s | -273.1°C | 61.6% | 354.6hPa | 4.8V | 00:00:00 | 00:35:48 | 00:00:00 | |
| BIOWL1-15 | 2026-08-31 23:02:21 | 50.73407 | 5.11639 | 97° | 80km/h | 8213m | 5.3m/s | -273.1°C | 62.4% | 356.5hPa | 4.5V | 00:00:00 | 00:00:00 | 00:00:00 | |
| DM0DOS-11 | 2026-08-31 23:02:17 | 50.73408 | 5.11572 | 108° | 77km/h | 8202m | 4.6m/s | -273.1°C | 62.8% | 357hPa | 4.5V | 00:00:00 | 00:35:38 | 00:00:00 | |
| BIOWL1-15 | 2026-08-31 23:02:08 | 50.73429 | 5.11338 | 85° | 88km/h | 8167m | 5m/s | -273.1°C | 63.4% | 358.8hPa | 4.8V | 00:00:00 | 00:00:00 | 00:00:00 | |
| DM0DOS-11 | 2026-08-31 23:02:06 | 50.73433 | 5.11273 | 87° | 77km/h | 8158m | 5.3m/s | -273.1°C | 63.5% | 359.3hPa | 4.8V | 00:00:00 | 00:35:28 | 00:00:00 | |
| DM0DOS-11 | 2026-08-31 23:02:00 | 50.73454 | 5.10965 | 91° | 77km/h | 8107m | 4.8m/s | -273.1°C | 64.1% | 361.9hPa | 4.5V | 00:00:00 | 00:35:18 | 00:00:00 | |
| BIOWL1-15 | 2026-08-31 23:01:54 | 50.73455 | 5.10907 | 95° | 78km/h | 8098m | 5m/s | -273.1°C | 64.3% | 362.4hPa | 4.6V | 00:00:00 | 00:00:00 | 00:00:00 | |
| DM0DOS-11 | 2026-08-31 23:01:48 | 50.73468 | 5.10664 | 100° | 78km/h | 8060m | 5.2m/s | -273.1°C | 64.4% | 364.3hPa | 4.5V | 00:00:00 | 00:35:08 | 00:00:00 | |
| BIOWL1-15 | 2026-08-31 23:01:43 | 50.73477 | 5.10574 | 97° | 80km/h | 8043m | 4m/s | -273.1°C | 64.7% | 365.1hPa | 4.5V | 00:00:00 | 00:00:00 | 00:00:00 | |
| DM0DOS-11 | 2026-08-31 23:01:38 | 50.73499 | 5.10370 | 90° | 77km/h | 8014m | 4.8m/s | -273.1°C | 66% | 366.7hPa | 4.8V | 00:00:00 | 00:34:58 | 00:00:00 | |
| BIOWL1-15 | 2026-08-31 23:01:31 | 50.73510 | 5.10222 | 102° | 80km/h | 7992m | 4.8m/s | -273.1°C | 66.7% | 367.8hPa | 4.8V | 00:00:00 | 00:00:00 | 00:00:00 | |
| DM0DOS-11 | 2026-08-31 23:01:28 | 50.73532 | 5.10039 | 91° | 75km/h | 7963m | 4m/s | -273.1°C | 66.9% | 369.2hPa | 4.5V | 00:00:00 | 00:34:47 | 00:00:00 | |
| BIOWL1-15 | 2026-08-31 23:01:25 | 50.73545 | 5.09922 | 102° | 64km/h | 7948m | 4m/s | -273.1°C | 66.9% | 370.2hPa | 4.8V | 00:00:00 | 00:00:00 | 00:00:00 | |
| BIOWL1-15 | 2026-08-31 23:01:11 | 50.73595 | 5.09415 | 96° | 78km/h | 7876m | 5m/s | -273.1°C | 67.6% | 373.9hPa | 4.8V | 00:00:00 | 00:00:00 | 00:00:00 | |
| DB0UT-7 | 2026-08-31 23:01:08 | 50.73581 | 5.09567 | 106° | 77km/h | 7901m | 5.0m/s | 0°C | 67.9% | 372.5hPa | 4.8V | 00:00:00 | 00:34:31 | 00:00:00 | |
| DM0DOS-11 | 2026-08-31 23:01:07 | 50.73593 | 5.09451 | 94° | 78km/h | 7879m | 4.4m/s | -273.1°C | 67.7% | 373.7hPa | 4.8V | 00:00:00 | 00:34:27 | 00:00:00 | |
| BIOWL1-15 | 2026-08-31 23:00:58 | 50.73608 | 5.09231 | 102° | 75km/h | 7850m | 5.5m/s | -273.1°C | 66.8% | 375.3hPa | 4.5V | 00:00:00 | 00:00:00 | 00:00:00 | |
| DM0DOS-11 | 2026-08-31 23:00:57 | 50.73615 | 5.09136 | 108° | 77km/h | 7835m | 5.3m/s | -273.1°C | 66.1% | 376hPa | 4.6V | 00:00:00 | 00:34:17 | 00:00:00 | |
| DM0DOS-11 | 2026-08-31 23:00:47 | 50.73645 | 5.08799 | 90° | 75km/h | 7779m | 4.8m/s | -273.1°C | 63.5% | 378.9hPa | 4.5V | 00:00:00 | 00:34:06 | 00:00:00 | |
| BIOWL1-15 | 2026-08-31 23:00:47 | 50.73637 | 5.08890 | 98° | 77km/h | 7796m | 5.7m/s | -273.1°C | 64.4% | 378.1hPa | 4.8V | 00:00:00 | 00:00:00 | 00:00:00 | |
| DB0UT-7 | 2026-08-31 23:00:38 | 50.73650 | 5.08652 | 107° | 75km/h | 7753m | 4.2m/s | 0°C | 62.5% | 380.1hPa | 4.8V | 00:00:00 | 00:00:00 | 00:00:00 | |
| DM0DOS-11 | 2026-08-31 23:00:37 | 50.73658 | 5.08500 | 92° | 77km/h | 7731m | 4.5m/s | -273.1°C | 61.6% | 381.5hPa | 4.8V | 00:00:00 | 00:33:56 | 00:00:00 | |
| BIOWL1-15 | 2026-08-31 23:00:34 | 50.73658 | 5.08500 | 90° | 75km/h | 7731m | 4.3m/s | -273.1°C | 61.7% | 381.5hPa | 4.8V | 00:00:00 | 00:00:00 | 00:00:00 | |
| DM0DOS-11 | 2026-08-31 23:00:27 | 50.73667 | 5.08200 | 100° | 75km/h | 7684m | 4.2m/s | -273.1°C | 61.7% | 383.9hPa | 4.6V | 00:00:00 | 00:33:46 | 00:00:00 | |
| BIOWL1-15 | 2026-08-31 23:00:21 | 50.73669 | 5.08057 | 103° | 80km/h | 7664m | 6m/s | -273.1°C | 62.2% | 385hPa | 4.8V | 00:00:00 | 00:00:00 | 00:00:00 | |
| DM0DOS-11 | 2026-08-31 23:00:17 | 50.73677 | 5.07903 | 87° | 75km/h | 7641m | 4.8m/s | -273.1°C | 62.7% | 386.2hPa | 4.8V | 00:00:00 | 00:33:36 | 00:00:00 | |
| DB0UT-7 | 2026-08-31 23:00:08 | 50.73677 | 5.07755 | 87° | 75km/h | 7617m | 4.5m/s | 0°C | 63.3% | 387.3hPa | 4.5V | 00:00:00 | 00:33:31 | 00:00:00 | |
| DM0DOS-11 | 2026-08-31 23:00:07 | 50.73681 | 5.07542 | 92° | 75km/h | 7583m | 4.6m/s | -273.1°C | 64.9% | 389.3hPa | 4.8V | 00:00:00 | 00:33:24 | 00:00:00 | |
| BIOWL1-15 | 2026-08-31 22:59:40 | 50.73697 | 5.06889 | 92° | 75km/h | 7484m | 5m/s | -273.1°C | 68.9% | 394.8hPa | 4.6V | 00:00:00 | 00:00:00 | 00:00:00 | |
| DM0DOS-11 | 2026-08-31 22:59:39 | 50.73698 | 5.06800 | 90° | 77km/h | 7469m | 4.5m/s | -273.1°C | 69.5% | 395.6hPa | 4.6V | 00:00:00 | 00:32:59 | 00:00:00 | |
| DB0UT-7 | 2026-08-31 22:59:38 | 50.73695 | 5.06857 | 103° | 77km/h | 7478m | 4.7m/s | 0°C | 69.0% | 395.0hPa | 4.8V | 00:00:00 | 00:00:00 | 00:00:00 | |
| DM0DOS-11 | 2026-08-31 22:59:29 | 50.73707 | 5.06469 | 104° | 78km/h | 7419m | 4.2m/s | -273.1°C | 72% | 398.4hPa | 4.8V | 00:00:00 | 00:32:48 | 00:00:00 | |
| BIOWL1-15 | 2026-08-31 22:59:29 | 50.73707 | 5.06469 | 105° | 71km/h | 7419m | 4m/s | -273.1°C | 72% | 398.4hPa | 4.8V | 00:00:00 | 00:00:00 | 00:00:00 | |
| DM0DOS-11 | 2026-08-31 22:59:19 | 50.73722 | 5.06154 | 91° | 75km/h | 7377m | 4m/s | -273.1°C | 70.9% | 400.8hPa | 4.8V | 00:00:00 | 00:32:38 | 00:00:00 | |
| BIOWL1-15 | 2026-08-31 22:59:16 | 50.73729 | 5.05976 | 95° | 80km/h | 7353m | 4m/s | -273.1°C | 70.6% | 402.1hPa | 4.8V | 00:00:00 | 00:00:00 | 00:00:00 | |
| DM0DOS-11 | 2026-08-31 22:59:09 | 50.73730 | 5.05850 | 90° | 73km/h | 7338m | 4m/s | -273.1°C | 70.5% | 402.9hPa | 4.6V | 00:00:00 | 00:32:28 | 00:00:00 | |
| BIOWL1-15 | 2026-08-31 22:59:06 | 50.73729 | 5.05790 | 95° | 75km/h | 7331m | 4.7m/s | -273.1°C | 70.6% | 403.2hPa | 4.6V | 00:00:00 | 00:00:00 | 00:00:00 | |
| DM0DOS-11 | 2026-08-31 22:58:59 | 50.73744 | 5.05553 | 97° | 77km/h | 7297m | 4.3m/s | -273.1°C | 70.5% | 405.2hPa | 4.8V | 00:00:00 | 00:32:18 | 00:00:00 | |
| BIOWL1-15 | 2026-08-31 22:58:55 | 50.73746 | 5.05519 | 94° | 73km/h | 7293m | 5m/s | -273.1°C | 70.6% | 405.4hPa | 4.8V | 00:00:00 | 00:00:00 | 00:00:00 | |
| DM0DOS-11 | 2026-08-31 22:58:49 | 50.73756 | 5.05256 | 86° | 77km/h | 7254m | 4.1m/s | -273.1°C | 69.9% | 407.5hPa | 4.6V | 00:00:00 | 00:32:08 | 00:00:00 | |
| BIOWL1-15 | 2026-08-31 22:58:44 | 50.73754 | 5.05192 | 96° | 77km/h | 7248m | 4.3m/s | -273.1°C | 69.9% | 407.9hPa | 4.8V | 00:00:00 | 00:00:00 | 00:00:00 | |
| DM0DOS-11 | 2026-08-31 22:58:38 | 50.73772 | 5.04957 | 93° | 73km/h | 7211m | 4.8m/s | -273.1°C | 70% | 410hPa | 4.8V | 00:00:00 | 00:31:58 | 00:00:00 | |
| BIOWL1-15 | 2026-08-31 22:58:23 | 50.73806 | 5.04525 | 91° | 68km/h | 7138m | 4.8m/s | -273.1°C | 68.8% | 413.9hPa | 4.8V | 00:00:00 | 00:00:00 | 00:00:00 | |
| DM0DOS-11 | 2026-08-31 22:58:23 | 50.73803 | 5.04557 | 98° | 73km/h | 7144m | 5m/s | -273.1°C | 68.9% | 413.5hPa | 4.8V | 00:00:00 | 00:31:44 | 00:00:00 | |
| BIOWL1-15 | 2026-08-31 22:58:14 | 50.73815 | 5.04272 | 106° | 68km/h | 7096m | 5m/s | -273.1°C | 67.5% | 416.4hPa | 4.9V | 00:00:00 | 00:00:00 | 00:00:00 | |
| DM0DOS-11 | 2026-08-31 22:58:13 | 50.73815 | 5.04272 | 96° | 71km/h | 7096m | 4.8m/s | -273.1°C | 67.5% | 416.4hPa | 4.9V | 00:00:00 | 00:31:34 | 00:00:00 | |
| DB0UT-7 | 2026-08-31 22:58:08 | 50.73817 | 5.04190 | 105° | 69km/h | 7079m | 4.5m/s | 0°C | 67.1% | 417.2hPa | 4.6V | 00:00:00 | 00:31:31 | 00:00:00 | |
| DM0DOS-11 | 2026-08-31 22:58:02 | 50.73829 | 5.03989 | 92° | 69km/h | 7049m | 4.5m/s | -273.1°C | 66.5% | 419.1hPa | 4.6V | 00:00:00 | 00:31:24 | 00:00:00 | |
| BIOWL1-15 | 2026-08-31 22:58:02 | 50.73829 | 5.03989 | 84° | 68km/h | 7049m | 5m/s | -273.1°C | 66.6% | 419.1hPa | 4.6V | 00:00:00 | 00:00:00 | 00:00:00 | |
| DM0DOS-11 | 2026-08-31 22:57:52 | 50.73835 | 5.03684 | 90° | 68km/h | 7001m | 4.9m/s | -273.1°C | 65.2% | 421.8hPa | 4.9V | 00:00:00 | 00:31:13 | 00:00:00 | |
| BIOWL1-15 | 2026-08-31 22:57:51 | 50.73835 | 5.03684 | 90° | 75km/h | 7001m | 5m/s | -273.1°C | 65.3% | 421.8hPa | 4.9V | 00:00:00 | 00:00:00 | 00:00:00 | |
| DM0DOS-11 | 2026-08-31 22:57:42 | 50.73837 | 5.03381 | 87° | 68km/h | 6947m | 4m/s | -273.1°C | 61.6% | 425.1hPa | 4.9V | 00:00:00 | 00:31:02 | 00:00:00 | |
| BIOWL1-15 | 2026-08-31 22:57:42 | 50.73837 | 5.03381 | 88° | 64km/h | 6947m | 4m/s | -273.1°C | 61.7% | 425.1hPa | 4.9V | 00:00:00 | 00:00:00 | 00:00:00 | |
| DB0UT-7 | 2026-08-31 22:57:38 | 50.73838 | 5.03351 | 83° | 66km/h | 6943m | 4.0m/s | 0°C | 61.0% | 425.2hPa | 4.6V | 00:00:00 | 00:00:00 | 00:00:00 | |
| DM0DOS-11 | 2026-08-31 22:57:32 | 50.73836 | 5.03084 | 83° | 66km/h | 6905m | 4.2m/s | -273.1°C | 52.6% | 427.6hPa | 4.6V | 00:00:00 | 00:30:51 | 00:00:00 | |
| BIOWL1-15 | 2026-08-31 22:57:29 | 50.73836 | 5.03084 | 88° | 64km/h | 6905m | 4.7m/s | -273.1°C | 52.7% | 427.6hPa | 4.6V | 00:00:00 | 00:00:00 | 00:00:00 | |
| DM0DOS-11 | 2026-08-31 22:57:22 | 50.73828 | 5.02821 | 88° | 64km/h | 6864m | 5m/s | -273.1°C | 48.5% | 429.9hPa | 4.9V | 00:00:00 | 00:30:41 | 00:00:00 | |
| DB0UT-7 | 2026-08-31 22:57:08 | 50.73824 | 5.02566 | 79° | 64km/h | 6810m | 4.7m/s | 0°C | 45.2% | 432.7hPa | 4.5V | 00:00:00 | 00:30:31 | 00:00:00 | |
| DM0DOS-11 | 2026-08-31 22:57:07 | 50.73819 | 5.02433 | 99° | 64km/h | 6787m | 5.1m/s | -273.1°C | 43% | 434.3hPa | 4.9V | 00:00:00 | 00:30:26 | 00:00:00 | |
| BIOWL1-15 | 2026-08-31 22:57:05 | 50.73819 | 5.02433 | 100° | 58km/h | 6787m | 5.2m/s | -273.1°C | 43.1% | 434.3hPa | 4.9V | 00:00:00 | 00:00:00 | 00:00:00 | |
| BIOWL1-15 | 2026-08-31 22:56:56 | 50.73829 | 5.02188 | 96° | 60km/h | 6737m | 6m/s | -273.1°C | 37.9% | 437.2hPa | 4.6V | 00:00:00 | 00:00:00 | 00:00:00 | |
| DM0DOS-11 | 2026-08-31 22:56:52 | 50.73837 | 5.02060 | 94° | 60km/h | 6711m | 4.5m/s | -273.1°C | 36.2% | 438.8hPa | 4.9V | 00:00:00 | 00:30:11 | 00:00:00 | |
| DM0DOS-11 | 2026-08-31 22:56:42 | 50.73856 | 5.01789 | 84° | 62km/h | 6660m | 4.9m/s | -273.1°C | 34.2% | 441.7hPa | 4.6V | 00:00:00 | 00:30:00 | 00:00:00 | |
| BIOWL1-15 | 2026-08-31 22:56:41 | 50.73853 | 5.01814 | 92° | 57km/h | 6665m | 4.5m/s | -273.1°C | 34.5% | 441.4hPa | 4.8V | 00:00:00 | 00:00:00 | 00:00:00 | |
| DB0UT-7 | 2026-08-31 22:56:38 | 50.73853 | 5.01814 | 98° | 64km/h | 6665m | 4.7m/s | 0°C | 34.5% | 441.4hPa | 4.9V | 00:00:00 | 00:00:00 | 00:00:00 | |
| DM0DOS-11 | 2026-08-31 22:56:32 | 50.73872 | 5.01532 | 99° | 62km/h | 6610m | 5.4m/s | -273.1°C | 31% | 444.7hPa | 4.9V | 00:00:00 | 00:29:50 | 00:00:00 | |
| BIOWL1-15 | 2026-08-31 22:56:28 | 50.73879 | 5.01437 | 91° | 64km/h | 6587m | 6m/s | -273.1°C | 29.7% | 445.9hPa | 4.9V | 00:00:00 | 00:00:00 | 00:00:00 | |
| BIOWL1-15 | 2026-08-31 22:56:16 | 50.73897 | 5.01241 | 102° | 68km/h | 6547m | 3.8m/s | -273.1°C | 24.8% | 448.2hPa | 4.9V | 00:00:00 | 00:00:00 | 00:00:00 | |
| BIOWL1-15 | 2026-08-31 22:56:01 | 50.73931 | 5.00852 | 98° | 57km/h | 6481m | 5m/s | -273.1°C | 17.4% | 452.6hPa | 4.6V | 00:00:00 | 00:00:00 | 00:00:00 | |
| DM0DOS-11 | 2026-08-31 22:56:00 | 50.73941 | 5.00749 | 81° | 64km/h | 6464m | 4.3m/s | -273.1°C | 16.8% | 453.5hPa | 4.9V | 00:00:00 | 00:29:19 | 00:00:00 | |
| BIOWL1-15 | 2026-08-31 22:55:50 | 50.73946 | 5.00576 | 100° | 77km/h | 6435m | 6m/s | -273.1°C | 14.8% | 455.2hPa | 4.9V | 00:00:00 | 00:00:00 | 00:00:00 | |
| DM0DOS-11 | 2026-08-31 22:55:49 | 50.73951 | 5.00494 | 99° | 64km/h | 6421m | 4.5m/s | -273.1°C | 13.5% | 456hPa | 4.9V | 00:00:00 | 00:29:09 | 00:00:00 | |
| BIOWL1-15 | 2026-08-31 22:55:41 | 50.73969 | 5.00266 | 91° | 71km/h | 6379m | 6m/s | -273.1°C | 11.6% | 458.5hPa | 4.7V | 00:00:00 | 00:00:00 | 00:00:00 | |
| DM0DOS-11 | 2026-08-31 22:55:39 | 50.73974 | 5.00215 | 107° | 64km/h | 6367m | 3.5m/s | -273.1°C | 11% | 459.2hPa | 4.9V | 00:00:00 | 00:28:58 | 00:00:00 | |
| BIOWL1-15 | 2026-08-31 22:55:30 | 50.74001 | 4.99943 | 112° | 73km/h | 6321m | 5m/s | -273.1°C | 5.4% | 462.4hPa | 4.9V | 00:00:00 | 00:00:00 | 00:00:00 | |
| DM0DOS-11 | 2026-08-31 22:55:29 | 50.74001 | 4.99966 | 90° | 64km/h | 6325m | 4.3m/s | -273.1°C | 5.7% | 462.1hPa | 4.9V | 00:00:00 | 00:28:48 | 00:00:00 | |
| DM0DOS-11 | 2026-08-31 22:55:19 | 50.74032 | 4.99718 | 100° | 66km/h | 6283m | 4.2m/s | -273.1°C | 4% | 464.8hPa | 4.9V | 00:00:00 | 00:28:38 | 00:00:00 | |
| BIOWL1-15 | 2026-08-31 22:55:15 | 50.74038 | 4.99612 | 93° | 64km/h | 6266m | 4m/s | -273.1°C | 3.9% | 465.8hPa | 4.9V | 00:00:00 | 00:00:00 | 00:00:00 | |
| DM0DOS-11 | 2026-08-31 22:55:09 | 50.74059 | 4.99462 | 100° | 53km/h | 6242m | 4.3m/s | -273.1°C | 3.7% | 467.3hPa | 4.9V | 00:00:00 | 00:28:28 | 00:00:00 | |
| BIOWL1-15 | 2026-08-31 22:55:03 | 50.74067 | 4.99393 | 101° | 58km/h | 6229m | 5.7m/s | -273.1°C | 3.7% | 468.2hPa | 4.9V | 00:00:00 | 00:00:00 | 00:00:00 | |
| BIOWL1-15 | 2026-08-31 22:54:52 | 50.74099 | 4.99142 | 100° | 58km/h | 6176m | 5.3m/s | -273.1°C | 3.7% | 471.4hPa | 4.9V | 00:00:00 | 00:00:00 | 00:00:00 | |
| DB0UT-7 | 2026-08-31 22:54:38 | 50.74141 | 4.98860 | 102° | 53km/h | 6113m | 4.0m/s | 0°C | 3.7% | 475.3hPa | 4.9V | 00:00:00 | 00:00:00 | 00:00:00 | |
| DM0DOS-11 | 2026-08-31 22:54:34 | 50.74168 | 4.98655 | 103° | 51km/h | 6075m | 4.3m/s | -273.1°C | 3.7% | 477.9hPa | 4.9V | 00:00:00 | 00:27:51 | 00:00:00 | |
| BIOWL1-15 | 2026-08-31 22:54:32 | 50.74159 | 4.98718 | 103° | 53km/h | 6086m | 3.7m/s | -273.1°C | 3.8% | 477.1hPa | 4.9V | 00:00:00 | 00:00:00 | 00:00:00 | |
| DM0DOS-11 | 2026-08-31 22:54:23 | 50.74204 | 4.98452 | 94° | 55km/h | 6031m | 4.3m/s | -273.1°C | 3.8% | 480.7hPa | 4.9V | 00:00:00 | 00:27:41 | 00:00:00 | |
| BIOWL1-15 | 2026-08-31 22:54:20 | 50.74205 | 4.98428 | 101° | 55km/h | 6029m | 5m/s | -273.1°C | 3.9% | 480.9hPa | 4.9V | 00:00:00 | 00:00:00 | 00:00:00 | |
| DM0DOS-11 | 2026-08-31 22:54:13 | 50.74232 | 4.98247 | 100° | 57km/h | 5989m | 4.8m/s | -273.1°C | 4% | 483.4hPa | 4.9V | 00:00:00 | 00:27:31 | 00:00:00 | |
| BIOWL1-15 | 2026-08-31 22:54:11 | 50.74232 | 4.98247 | 100° | 55km/h | 5989m | 5.5m/s | -273.1°C | 4.1% | 483.4hPa | 4.9V | 00:00:00 | 00:00:00 | 00:00:00 | |
| DB0UT-7 | 2026-08-31 22:54:08 | 50.74232 | 4.98247 | 91° | 53km/h | 5989m | 5.2m/s | 0°C | 4.0% | 483.3hPa | 4.9V | 00:00:00 | 00:27:31 | 00:00:00 | |
| DM0DOS-11 | 2026-08-31 22:53:58 | 50.74267 | 4.97987 | 102° | 49km/h | 5935m | 4.6m/s | -273.1°C | 4.5% | 486.9hPa | 4.9V | 00:00:00 | 00:27:19 | 00:00:00 | |
| BIOWL1-15 | 2026-08-31 22:53:53 | 50.74279 | 4.97911 | 101° | 60km/h | 5917m | 4.3m/s | -273.1°C | 4.7% | 488.1hPa | 4.9V | 00:00:00 | 00:00:00 | 00:00:00 | |
| BIOWL1-15 | 2026-08-31 22:53:42 | 50.74318 | 4.97597 | 107° | 35km/h | 5854m | 5m/s | -273.1°C | 5.3% | 492.1hPa | 4.9V | 00:00:00 | 00:00:00 | 00:00:00 | |
| BIOWL1-15 | 2026-08-31 22:53:34 | 50.74334 | 4.97484 | 95° | 44km/h | 5829m | 4m/s | -273.1°C | 5.4% | 493.6hPa | 4.9V | 00:00:00 | 00:00:00 | 00:00:00 | |
| BIOWL1-15 | 2026-08-31 22:52:59 | 50.74427 | 4.96837 | 97° | 51km/h | 5679m | 4.5m/s | -273.1°C | 5% | 503.5hPa | 4.9V | 00:00:00 | 00:00:00 | 00:00:00 | |
| BIOWL1-15 | 2026-08-31 22:52:49 | 50.74458 | 4.96584 | 108° | 51km/h | 5622m | 4.3m/s | -273.1°C | 4.8% | 507.2hPa | 4.9V | 00:00:00 | 00:00:00 | 00:00:00 | |
| DM0DOS-11 | 2026-08-31 22:52:39 | 50.74493 | 4.96418 | 106° | 49km/h | 5584m | 4.6m/s | -273.1°C | 4.9% | 509.8hPa | 4.9V | 00:00:00 | 00:25:59 | 00:00:00 | |
| BIOWL1-15 | 2026-08-31 22:52:36 | 50.74494 | 4.96404 | 106° | 49km/h | 5580m | 4.6m/s | -273.1°C | 4.9% | 510.1hPa | 4.9V | 00:00:00 | 00:00:00 | 00:00:00 | |
| BIOWL1-15 | 2026-08-31 22:52:18 | 50.74567 | 4.96020 | 107° | 49km/h | 5495m | 4.4m/s | -273.1°C | 5% | 515.9hPa | 4.9V | 00:00:00 | 00:00:00 | 00:00:00 | |
| BIOWL1-15 | 2026-08-31 22:52:04 | 50.74620 | 4.95751 | 99° | 40km/h | 5430m | 5m/s | -273.1°C | 4.5% | 520.4hPa | 5V | 00:00:00 | 00:00:00 | 00:00:00 | |
| DM0DOS-11 | 2026-08-31 22:52:01 | 50.74630 | 4.95681 | 116° | 57km/h | 5412m | 5.2m/s | -273.1°C | 4.2% | 521.6hPa | 5V | 00:00:00 | 00:25:20 | 00:00:00 | |
| BIOWL1-15 | 2026-08-31 22:51:52 | 50.74649 | 4.95553 | 107° | 51km/h | 5384m | 6m/s | -273.1°C | 4.2% | 523.5hPa | 5V | 00:00:00 | 00:00:00 | 00:00:00 | |
| DM0DOS-11 | 2026-08-31 22:51:46 | 50.74670 | 4.95406 | 107° | 55km/h | 5343m | 4.9m/s | -273.1°C | 4% | 526.2hPa | 5V | 00:00:00 | 00:25:07 | 00:00:00 | |
| BIOWL1-15 | 2026-08-31 22:51:38 | 50.74710 | 4.95202 | 108° | 51km/h | 5295m | 4.4m/s | -273.1°C | 4.1% | 529.6hPa | 5V | 00:00:00 | 00:00:00 | 00:00:00 | |
| DM0DOS-11 | 2026-08-31 22:51:36 | 50.74723 | 4.95144 | 95° | 53km/h | 5282m | 4.3m/s | -273.1°C | 4% | 530.5hPa | 5V | 00:00:00 | 00:24:54 | 00:00:00 | |
| BIOWL1-15 | 2026-08-31 22:51:27 | 50.74747 | 4.95004 | 107° | 53km/h | 5252m | 4.2m/s | -273.1°C | 4.2% | 532.6hPa | 5V | 00:00:00 | 00:00:00 | 00:00:00 | |
| DM0DOS-11 | 2026-08-31 22:51:26 | 50.74759 | 4.94941 | 120° | 55km/h | 5240m | 4.2m/s | -273.1°C | 4.1% | 533.5hPa | 5V | 00:00:00 | 00:24:44 | 00:00:00 | |
| DM0DOS-11 | 2026-08-31 22:51:15 | 50.74808 | 4.94718 | 108° | 53km/h | 5197m | 4.2m/s | -273.1°C | 4.7% | 536.5hPa | 5V | 00:00:00 | 00:24:33 | 00:00:00 | |
| BIOWL1-15 | 2026-08-31 22:51:11 | 50.74813 | 4.94696 | 104° | 53km/h | 5193m | 4.5m/s | -273.1°C | 4.9% | 536.7hPa | 5V | 00:00:00 | 00:00:00 | 00:00:00 | |
| DB0UT-7 | 2026-08-31 22:51:07 | 50.74818 | 4.94662 | 106° | 57km/h | 5185m | 4.2m/s | 0°C | 5.0% | 537.2hPa | 5.0V | 00:00:00 | 00:24:30 | 00:00:00 | |
| DM0DOS-11 | 2026-08-31 22:51:03 | 50.74839 | 4.94509 | 108° | 53km/h | 5155m | 4.9m/s | -273.1°C | 6.2% | 539.4hPa | 5V | 00:00:00 | 00:24:23 | 00:00:00 | |
| DM0DOS-11 | 2026-08-31 22:50:51 | 50.74877 | 4.94298 | 116° | 57km/h | 5104m | 4.9m/s | -273.1°C | 10.3% | 543hPa | 5V | 00:00:00 | 00:24:13 | 00:00:00 | |
| BIOWL1-15 | 2026-08-31 22:50:48 | 50.74892 | 4.94236 | 106° | 53km/h | 5089m | 4m/s | -273.1°C | 14.3% | 544.1hPa | 5V | 00:00:00 | 00:00:00 | 00:00:00 | |
| DM0DOS-11 | 2026-08-31 22:50:46 | 50.74914 | 4.94068 | 95° | 55km/h | 5053m | 4.2m/s | -273.1°C | 39% | 546.7hPa | 5V | 00:00:00 | 00:24:03 | 00:00:00 | |
| BIOWL1-15 | 2026-08-31 22:50:38 | 50.74934 | 4.93883 | 96° | 49km/h | 5015m | 3.5m/s | -273.1°C | 68.2% | 549.5hPa | 5V | 00:00:00 | 00:00:00 | 00:00:00 | |
| DB0UT-7 | 2026-08-31 22:50:37 | 50.74918 | 4.94005 | 106° | 51km/h | 5041m | 4.3m/s | 0°C | 49.8% | 547.5hPa | 5V | 00:00:00 | 00:00:00 | 00:00:00 | |
| DM0DOS-11 | 2026-08-31 22:50:34 | 50.74936 | 4.93860 | 91° | 49km/h | 5011m | 5.6m/s | -273.1°C | 70.5% | 549.8hPa | 5V | 00:00:00 | 00:23:53 | 00:00:00 | |
| DM0DOS-11 | 2026-08-31 22:50:25 | 50.74960 | 4.93670 | 92° | 53km/h | 4954m | 5.6m/s | -273.1°C | 73.4% | 553.5hPa | 5V | 00:00:00 | 00:23:43 | 00:00:00 | |
| DM0DOS-11 | 2026-08-31 22:50:19 | 50.74971 | 4.93572 | 96° | 53km/h | 4928m | 5.9m/s | -273.1°C | 67.6% | 555.5hPa | 5V | 00:00:00 | 00:23:38 | 00:00:00 | |
| BIOWL1-15 | 2026-08-31 22:50:15 | 50.75023 | 4.93124 | 105° | 57km/h | 4815m | 5m/s | -273.1°C | 44.2% | 563.7hPa | 5V | 00:00:00 | 00:00:00 | 00:00:00 | |
| DM0DOS-11 | 2026-08-31 22:50:14 | 50.74984 | 4.93445 | 104° | 53km/h | 4891m | 5.3m/s | -273.1°C | 54.7% | 558hPa | 5V | 00:00:00 | 00:23:32 | 00:00:00 | |
| DM0DOS-11 | 2026-08-31 22:50:09 | 50.74992 | 4.93323 | 108° | 57km/h | 4861m | 5.6m/s | -273.1°C | 39.2% | 560.3hPa | 5V | 00:00:00 | 00:23:26 | 00:00:00 | |
| BIOWL1-15 | 2026-08-31 22:50:07 | 50.75035 | 4.93055 | 112° | 57km/h | 4800m | 5m/s | -273.1°C | 37.4% | 564.8hPa | 5V | 00:00:00 | 00:00:00 | 00:00:00 | |
| DM0DOS-11 | 2026-08-31 22:50:04 | 50.75017 | 4.93141 | 118° | 55km/h | 4819m | 4.7m/s | -273.1°C | 45.2% | 563.4hPa | 5V | 00:00:00 | 00:23:18 | 00:00:00 | |
| BIOWL1-15 | 2026-08-31 22:49:58 | 50.75046 | 4.93014 | 98° | 55km/h | 4790m | 5.5m/s | -273.1°C | 29.1% | 565.4hPa | 5V | 00:00:00 | 00:00:00 | 00:00:00 | |
| DM0DOS-11 | 2026-08-31 22:49:50 | 50.75054 | 4.92925 | 95° | 57km/h | 4770m | 4.6m/s | -273.1°C | 15.8% | 566.9hPa | 5V | 00:00:00 | 00:23:08 | 00:00:00 | |
| DM0DOS-11 | 2026-08-31 22:49:45 | 50.75071 | 4.92822 | 98° | 57km/h | 4748m | 5.7m/s | -273.1°C | 12.7% | 568.5hPa | 5V | 00:00:00 | 00:23:03 | 00:00:00 | |
| BIOWL1-15 | 2026-08-31 22:49:39 | 50.75095 | 4.92666 | 93° | 66km/h | 4708m | 5m/s | -273.1°C | 12.1% | 571.5hPa | 5V | 00:00:00 | 00:00:00 | 00:00:00 | |
| DM0DOS-11 | 2026-08-31 22:49:39 | 50.75088 | 4.92685 | 118° | 58km/h | 4714m | 5.6m/s | -273.1°C | 12% | 571.1hPa | 5V | 00:00:00 | 00:22:57 | 00:00:00 | |
| DB0UT-7 | 2026-08-31 22:49:35 | 50.75086 | 4.92705 | 99° | 55km/h | 4719m | 5.4m/s | 0°C | 12.0% | 570.7hPa | 5.0V | 00:00:00 | 00:00:00 | 00:00:00 | |
| DM0DOS-11 | 2026-08-31 22:49:34 | 50.75100 | 4.92572 | 117° | 57km/h | 4685m | 5.3m/s | -273.1°C | 12.3% | 573.1hPa | 5V | 00:00:00 | 00:22:52 | 00:00:00 | |
| BIOWL1-15 | 2026-08-31 22:49:24 | 50.75124 | 4.92398 | 98° | 53km/h | 4644m | 5.2m/s | -273.1°C | 15% | 576.4hPa | 5V | 00:00:00 | 00:00:00 | 00:00:00 | |
| DM0DOS-11 | 2026-08-31 22:49:24 | 50.75132 | 4.92336 | 88° | 53km/h | 4626m | 4.4m/s | -273.1°C | 17.2% | 577.7hPa | 5V | 00:00:00 | 00:22:41 | 00:00:00 | |
| DM0DOS-11 | 2026-08-31 22:49:18 | 50.75136 | 4.92229 | 99° | 51km/h | 4603m | 4.2m/s | -273.1°C | 19.3% | 579.6hPa | 5V | 00:00:00 | 00:22:36 | 00:00:00 | |
| DM0DOS-11 | 2026-08-31 22:49:13 | 50.75138 | 4.92127 | 91° | 55km/h | 4582m | 4.4m/s | -273.1°C | 19.7% | 581.2hPa | 5V | 00:00:00 | 00:22:31 | 00:00:00 | |
| BIOWL1-15 | 2026-08-31 22:49:10 | 50.75138 | 4.92102 | 90° | 46km/h | 4579m | 5m/s | -273.1°C | 19.8% | 581.5hPa | 5V | 00:00:00 | 00:00:00 | 00:00:00 | |
| DM0DOS-11 | 2026-08-31 22:49:08 | 50.75137 | 4.92018 | 96° | 51km/h | 4560m | 4.8m/s | -273.1°C | 19.6% | 582.9hPa | 5V | 00:00:00 | 00:22:26 | 00:00:00 | |
| BIOWL1-15 | 2026-08-31 22:49:00 | 50.75135 | 4.91918 | 76° | 47km/h | 4537m | 6.4m/s | -273.1°C | 19.3% | 584.4hPa | 5V | 00:00:00 | 00:00:00 | 00:00:00 | |
| DM0DOS-11 | 2026-08-31 22:48:57 | 50.75119 | 4.91818 | 87° | 42km/h | 4504m | 5m/s | -273.1°C | 18.6% | 586.7hPa | 5.1V | 00:00:00 | 00:22:16 | 00:00:00 | |
| BIOWL1-15 | 2026-08-31 22:48:43 | 50.75101 | 4.91589 | 91° | 47km/h | 4438m | 5.4m/s | -273.1°C | 18.1% | 591.9hPa | 5.1V | 00:00:00 | 00:00:00 | 00:00:00 | |
| DB0UT-7 | 2026-08-31 22:48:35 | 50.75103 | 4.91460 | 89° | 42km/h | 4406m | 5.6m/s | 0°C | 17.6% | 594.2hPa | 5.1V | 00:00:00 | 00:00:00 | 00:00:00 | |
| DM0DOS-11 | 2026-08-31 22:48:27 | 50.75103 | 4.91304 | 97° | 40km/h | 4357m | 4.8m/s | -273.1°C | 17.6% | 598hPa | 5.1V | 00:00:00 | 00:21:49 | 00:00:00 | |
| DM0DOS-11 | 2026-08-31 22:48:21 | 50.75112 | 4.91159 | 84° | 40km/h | 4315m | 4.7m/s | -273.1°C | 17.6% | 601.3hPa | 5.1V | 00:00:00 | 00:21:40 | 00:00:00 | |
| DM0DOS-11 | 2026-08-31 22:48:15 | 50.75106 | 4.91058 | 96° | 42km/h | 4287m | 4.9m/s | -273.1°C | 17.2% | 603.5hPa | 5.1V | 00:00:00 | 00:21:34 | 00:00:00 | |
| BIOWL1-15 | 2026-08-31 22:48:14 | 50.75106 | 4.91058 | 0° | 0km/h | 4287m | 0m/s | -273.1°C | 17.3% | 603.5hPa | 5.1V | 00:00:00 | 00:00:00 | 00:00:00 | |
| DM0DOS-11 | 2026-08-31 22:48:09 | 50.75113 | 4.90972 | 95° | 44km/h | 4266m | 5.4m/s | -273.1°C | 17.3% | 605.1hPa | 5.1V | 00:00:00 | 00:21:29 | 00:00:00 | |
| DB0UT-7 | 2026-08-31 22:48:05 | 50.75114 | 4.90957 | 102° | 42km/h | 4262m | 5.0m/s | 0°C | 17.5% | 605.3hPa | 5.0V | 00:00:00 | 00:21:28 | 00:00:00 | |
| DM0DOS-11 | 2026-08-31 22:48:03 | 50.75121 | 4.90831 | 101° | 42km/h | 4229m | 5.7m/s | -273.1°C | 18.2% | 607.9hPa | 5.1V | 00:00:00 | 00:21:21 | 00:00:00 | |
| DM0DOS-11 | 2026-08-31 22:47:58 | 50.75131 | 4.90746 | 91° | 44km/h | 4198m | 4.6m/s | -273.1°C | 18% | 610.2hPa | 5.1V | 00:00:00 | 00:21:16 | 00:00:00 | |
| DM0DOS-11 | 2026-08-31 22:47:47 | 50.75138 | 4.90615 | 80° | 47km/h | 4158m | 3.9m/s | -273.1°C | 18.7% | 613.6hPa | 5.1V | 00:00:00 | 00:21:08 | 00:00:00 | |
| DM0DOS-11 | 2026-08-31 22:47:41 | 50.75131 | 4.90497 | 96° | 51km/h | 4121m | 2.9m/s | -273.1°C | 18.7% | 616.3hPa | 5.1V | 00:00:00 | 00:21:01 | 00:00:00 | |
| DM0DOS-11 | 2026-08-31 22:47:35 | 50.75135 | 4.90410 | 3° | 60km/h | 4096m | 0m/s | -273.1°C | 18.2% | 618.4hPa | 5.1V | 00:00:00 | 00:20:56 | 00:00:00 | |
| DB0UT-7 | 2026-08-31 22:47:05 | 50.75124 | 4.89903 | 91° | 47km/h | 3962m | 5.0m/s | 0°C | 23.5% | 628.9hPa | 0V | 00:00:00 | 00:20:28 | 00:00:00 | |
| DM0DOS-11 | 2026-08-31 22:47:03 | 50.75114 | 4.89809 | 3° | 60km/h | 3937m | 0m/s | 0°C | 0% | 0hPa | 0V | 00:00:00 | 00:00:00 | 00:00:00 | |
| DB0UT-7 | 2026-08-31 22:46:35 | 50.75136 | 4.89337 | 86° | 46km/h | 3813m | 5.2m/s | 0°C | 35.2% | 641.0hPa | 5.0V | 00:00:00 | 00:00:00 | 00:00:00 | |
| DM0DOS-11 | 2026-08-31 22:46:24 | 50.75145 | 4.89075 | 3° | 60km/h | 3731m | 0m/s | 0°C | 0% | 0hPa | 0V | 00:00:00 | 00:00:00 | 00:00:00 | |
| DB0UT-7 | 2026-08-31 22:46:05 | 50.75154 | 4.88815 | 91° | 47km/h | 3672m | 4.3m/s | 0°C | 36.0% | 652.6hPa | 5.0V | 00:00:00 | 00:19:28 | 00:00:00 | |
| DB0UT-7 | 2026-08-31 22:45:35 | 50.75141 | 4.88263 | 93° | 38km/h | 3533m | 5.9m/s | 0°C | 31.2% | 663.9hPa | 5.0V | 00:00:00 | 00:00:00 | 00:00:00 | |
| DB0UT-7 | 2026-08-31 22:45:05 | 50.75130 | 4.87791 | 68° | 35km/h | 3374m | 4.8m/s | 0°C | 30.8% | 677.2hPa | 5.0V | 00:00:00 | 00:18:28 | 00:00:00 | |
| DB0UT-7 | 2026-08-31 22:44:35 | 50.75115 | 4.87394 | 111° | 35km/h | 3243m | 4.8m/s | 0°C | 54.3% | 688.5hPa | 5.2V | 00:00:00 | 00:00:00 | 00:00:00 | |
| DB0UT-7 | 2026-08-31 22:44:05 | 50.75207 | 4.87018 | 104° | 37km/h | 3102m | 4.4m/s | 0°C | 72.6% | 700.9hPa | 5.2V | 00:00:00 | 00:17:28 | 00:00:00 | |
| DB0UT-7 | 2026-08-31 22:43:35 | 50.75260 | 4.86592 | 120° | 35km/h | 2964m | 5.1m/s | 0°C | 85.2% | 713.1hPa | 5.2V | 00:00:00 | 00:00:00 | 00:00:00 | |
| DB0UT-7 | 2026-08-31 22:43:05 | 50.75363 | 4.86216 | 93° | 33km/h | 2798m | 4.7m/s | 0°C | 86.7% | 727.8hPa | 5.2V | 00:00:00 | 00:16:28 | 00:00:00 | |
| DB0UT-7 | 2026-08-31 22:42:35 | 50.75436 | 4.85835 | 118° | 35km/h | 2646m | 4.9m/s | 0°C | 86.5% | 741.9hPa | 5.2V | 00:00:00 | 00:00:00 | 00:00:00 | |
| DB0UT-7 | 2026-08-31 22:42:05 | 50.75490 | 4.85435 | 101° | 37km/h | 2477m | 4.7m/s | 0°C | 80.6% | 757.5hPa | 5.2V | 00:00:00 | 00:15:28 | 00:00:00 | |
| DB0UT-7 | 2026-08-31 22:41:35 | 50.75561 | 4.85033 | 106° | 37km/h | 2319m | 3.9m/s | 0°C | 72.0% | 772.3hPa | 5.2V | 00:00:00 | 00:00:00 | 00:00:00 | |
| DB0UT-7 | 2026-08-31 22:41:05 | 50.75619 | 4.84627 | 91° | 35km/h | 2173m | 4.6m/s | 0°C | 72.5% | 786.5hPa | 5.2V | 00:00:00 | 00:14:28 | 00:00:00 | |
| DB0UT-7 | 2026-08-31 22:40:32 | 50.75686 | 4.84189 | 112° | 33km/h | 2020m | 5.5m/s | 0°C | 75.2% | 801.2hPa | 5.2V | 00:00:00 | 00:00:00 | 00:00:00 | |
| DB0UT-7 | 2026-08-31 22:40:02 | 50.75764 | 4.83833 | 117° | 37km/h | 1866m | 5.1m/s | 0°C | 86.6% | 816.3hPa | 5.2V | 00:00:00 | 00:13:25 | 00:00:00 | |
| DB0UT-7 | 2026-08-31 22:39:32 | 50.75866 | 4.83427 | 141° | 37km/h | 1705m | 4.3m/s | 0°C | 89.7% | 832.5hPa | 5.2V | 00:00:00 | 00:00:00 | 00:00:00 | |
| DB0UT-7 | 2026-08-31 22:39:02 | 50.75984 | 4.83059 | 124° | 53km/h | 1550m | 3.1m/s | 0°C | 84.7% | 848.2hPa | 5.2V | 00:00:00 | 00:12:25 | 00:00:00 |